<?xml version="1.0" encoding="UTF-8" standalone="no" ?>
<gpx xmlns="http://www.topografix.com/GPX/1/1" xmlns:xsi="http://www.w3.org/2001/XMLSchema-instance" xsi:schemaLocation="http://www.topografix.com/GPX/1/1 http://www.topografix.com/GPX/1/1/gpx.xsd" version="1.1" creator="VisuGPX - https://www.visugpx.com">
  <metadata>
    <name>St Sauveur Besneville boucle</name>
    <desc><![CDATA[
]]></desc>
  </metadata>
  <trk>
    <name><![CDATA[SityTrail - St Sauveur Besneville boucle]]></name>
    <trkseg>
      <trkpt lat="49.37606" lon="-1.59379">
        <ele>51</ele>
        <time>2023-08-13T10:14:53.284+00:00</time>
      </trkpt>
      <trkpt lat="49.37606" lon="-1.59379">
        <ele>51</ele>
        <time>2023-08-13T10:14:53.284+00:00</time>
      </trkpt>
      <trkpt lat="49.37612" lon="-1.59377">
        <ele>51</ele>
        <time>2023-08-13T10:18:43.501+00:00</time>
      </trkpt>
      <trkpt lat="49.37613" lon="-1.59368">
        <ele>51</ele>
        <time>2023-08-13T10:18:47.802+00:00</time>
      </trkpt>
      <trkpt lat="49.37616" lon="-1.59364">
        <ele>51</ele>
        <time>2023-08-13T10:18:51.844+00:00</time>
      </trkpt>
      <trkpt lat="49.3762" lon="-1.5936">
        <ele>51</ele>
        <time>2023-08-13T10:18:55.966+00:00</time>
      </trkpt>
      <trkpt lat="49.37624" lon="-1.59356">
        <ele>51</ele>
        <time>2023-08-13T10:19:00.708+00:00</time>
      </trkpt>
      <trkpt lat="49.37624" lon="-1.5935">
        <ele>51</ele>
        <time>2023-08-13T10:19:04.790+00:00</time>
      </trkpt>
      <trkpt lat="49.37628" lon="-1.59351">
        <ele>55</ele>
        <time>2023-08-13T10:19:08.832+00:00</time>
      </trkpt>
      <trkpt lat="49.37632" lon="-1.59353">
        <ele>55</ele>
        <time>2023-08-13T10:19:12.937+00:00</time>
      </trkpt>
      <trkpt lat="49.37636" lon="-1.59351">
        <ele>55</ele>
        <time>2023-08-13T10:19:16.941+00:00</time>
      </trkpt>
      <trkpt lat="49.37641" lon="-1.59352">
        <ele>55</ele>
        <time>2023-08-13T10:19:25.451+00:00</time>
      </trkpt>
      <trkpt lat="49.37645" lon="-1.59353">
        <ele>55</ele>
        <time>2023-08-13T10:19:29.957+00:00</time>
      </trkpt>
      <trkpt lat="49.37646" lon="-1.59354">
        <ele>55</ele>
        <time>2023-08-13T10:19:33.962+00:00</time>
      </trkpt>
      <trkpt lat="49.37646" lon="-1.59355">
        <ele>55</ele>
        <time>2023-08-13T10:19:37.967+00:00</time>
      </trkpt>
      <trkpt lat="49.37646" lon="-1.59355">
        <ele>55</ele>
        <time>2023-08-13T10:19:42.029+00:00</time>
      </trkpt>
      <trkpt lat="49.37649" lon="-1.59354">
        <ele>55</ele>
        <time>2023-08-13T10:19:55.078+00:00</time>
      </trkpt>
      <trkpt lat="49.3765" lon="-1.59356">
        <ele>55</ele>
        <time>2023-08-13T10:19:59.080+00:00</time>
      </trkpt>
      <trkpt lat="49.37652" lon="-1.59358">
        <ele>55</ele>
        <time>2023-08-13T10:20:03.101+00:00</time>
      </trkpt>
      <trkpt lat="49.37654" lon="-1.59359">
        <ele>56</ele>
        <time>2023-08-13T10:20:08.103+00:00</time>
      </trkpt>
      <trkpt lat="49.37657" lon="-1.59359">
        <ele>56</ele>
        <time>2023-08-13T10:20:12.140+00:00</time>
      </trkpt>
      <trkpt lat="49.3766" lon="-1.59356">
        <ele>56</ele>
        <time>2023-08-13T10:20:15.666+00:00</time>
      </trkpt>
      <trkpt lat="49.37662" lon="-1.59352">
        <ele>56</ele>
        <time>2023-08-13T10:20:20.168+00:00</time>
      </trkpt>
      <trkpt lat="49.37665" lon="-1.59349">
        <ele>56</ele>
        <time>2023-08-13T10:20:24.690+00:00</time>
      </trkpt>
      <trkpt lat="49.3767" lon="-1.59347">
        <ele>56</ele>
        <time>2023-08-13T10:20:29.871+00:00</time>
      </trkpt>
      <trkpt lat="49.37674" lon="-1.5935">
        <ele>56</ele>
        <time>2023-08-13T10:20:34.393+00:00</time>
      </trkpt>
      <trkpt lat="49.37676" lon="-1.59348">
        <ele>56</ele>
        <time>2023-08-13T10:20:38.396+00:00</time>
      </trkpt>
      <trkpt lat="49.37681" lon="-1.59347">
        <ele>56</ele>
        <time>2023-08-13T10:20:42.439+00:00</time>
      </trkpt>
      <trkpt lat="49.37686" lon="-1.59346">
        <ele>56</ele>
        <time>2023-08-13T10:20:47.042+00:00</time>
      </trkpt>
      <trkpt lat="49.37691" lon="-1.59345">
        <ele>56</ele>
        <time>2023-08-13T10:20:51.182+00:00</time>
      </trkpt>
      <trkpt lat="49.37695" lon="-1.59347">
        <ele>56</ele>
        <time>2023-08-13T10:20:55.681+00:00</time>
      </trkpt>
      <trkpt lat="49.37698" lon="-1.59348">
        <ele>57</ele>
        <time>2023-08-13T10:21:00.881+00:00</time>
      </trkpt>
      <trkpt lat="49.37702" lon="-1.59348">
        <ele>57</ele>
        <time>2023-08-13T10:21:05.142+00:00</time>
      </trkpt>
      <trkpt lat="49.37706" lon="-1.59349">
        <ele>57</ele>
        <time>2023-08-13T10:21:09.419+00:00</time>
      </trkpt>
      <trkpt lat="49.37709" lon="-1.5935">
        <ele>57</ele>
        <time>2023-08-13T10:21:13.940+00:00</time>
      </trkpt>
      <trkpt lat="49.37711" lon="-1.59347">
        <ele>57</ele>
        <time>2023-08-13T10:21:18.980+00:00</time>
      </trkpt>
      <trkpt lat="49.37716" lon="-1.59349">
        <ele>57</ele>
        <time>2023-08-13T10:21:23.301+00:00</time>
      </trkpt>
      <trkpt lat="49.37722" lon="-1.59348">
        <ele>57</ele>
        <time>2023-08-13T10:21:27.840+00:00</time>
      </trkpt>
      <trkpt lat="49.37726" lon="-1.5935">
        <ele>57</ele>
        <time>2023-08-13T10:21:31.678+00:00</time>
      </trkpt>
      <trkpt lat="49.3773" lon="-1.5935">
        <ele>57</ele>
        <time>2023-08-13T10:21:36.696+00:00</time>
      </trkpt>
      <trkpt lat="49.37736" lon="-1.59348">
        <ele>57</ele>
        <time>2023-08-13T10:21:41.314+00:00</time>
      </trkpt>
      <trkpt lat="49.37742" lon="-1.5935">
        <ele>58</ele>
        <time>2023-08-13T10:21:45.493+00:00</time>
      </trkpt>
      <trkpt lat="49.37746" lon="-1.5935">
        <ele>58</ele>
        <time>2023-08-13T10:21:49.551+00:00</time>
      </trkpt>
      <trkpt lat="49.37749" lon="-1.5935">
        <ele>58</ele>
        <time>2023-08-13T10:21:53.680+00:00</time>
      </trkpt>
      <trkpt lat="49.37754" lon="-1.59352">
        <ele>58</ele>
        <time>2023-08-13T10:21:58.067+00:00</time>
      </trkpt>
      <trkpt lat="49.37759" lon="-1.59352">
        <ele>58</ele>
        <time>2023-08-13T10:22:02.506+00:00</time>
      </trkpt>
      <trkpt lat="49.37764" lon="-1.59352">
        <ele>58</ele>
        <time>2023-08-13T10:22:06.925+00:00</time>
      </trkpt>
      <trkpt lat="49.37769" lon="-1.59351">
        <ele>59</ele>
        <time>2023-08-13T10:22:10.884+00:00</time>
      </trkpt>
      <trkpt lat="49.37774" lon="-1.59353">
        <ele>59</ele>
        <time>2023-08-13T10:22:15.463+00:00</time>
      </trkpt>
      <trkpt lat="49.3778" lon="-1.59356">
        <ele>59</ele>
        <time>2023-08-13T10:22:19.522+00:00</time>
      </trkpt>
      <trkpt lat="49.37787" lon="-1.59359">
        <ele>59</ele>
        <time>2023-08-13T10:22:24.125+00:00</time>
      </trkpt>
      <trkpt lat="49.37792" lon="-1.59358">
        <ele>59</ele>
        <time>2023-08-13T10:22:27.679+00:00</time>
      </trkpt>
      <trkpt lat="49.37798" lon="-1.59358">
        <ele>59</ele>
        <time>2023-08-13T10:22:32.154+00:00</time>
      </trkpt>
      <trkpt lat="49.37805" lon="-1.59357">
        <ele>59</ele>
        <time>2023-08-13T10:22:36.674+00:00</time>
      </trkpt>
      <trkpt lat="49.3781" lon="-1.59357">
        <ele>59</ele>
        <time>2023-08-13T10:22:41.092+00:00</time>
      </trkpt>
      <trkpt lat="49.37815" lon="-1.59358">
        <ele>59</ele>
        <time>2023-08-13T10:22:45.050+00:00</time>
      </trkpt>
      <trkpt lat="49.3782" lon="-1.59357">
        <ele>59</ele>
        <time>2023-08-13T10:22:49.659+00:00</time>
      </trkpt>
      <trkpt lat="49.37825" lon="-1.59356">
        <ele>59</ele>
        <time>2023-08-13T10:22:53.563+00:00</time>
      </trkpt>
      <trkpt lat="49.37829" lon="-1.59356">
        <ele>59</ele>
        <time>2023-08-13T10:22:57.638+00:00</time>
      </trkpt>
      <trkpt lat="49.37834" lon="-1.59355">
        <ele>59</ele>
        <time>2023-08-13T10:23:02.103+00:00</time>
      </trkpt>
      <trkpt lat="49.3784" lon="-1.59353">
        <ele>59</ele>
        <time>2023-08-13T10:23:06.651+00:00</time>
      </trkpt>
      <trkpt lat="49.37845" lon="-1.5935">
        <ele>59</ele>
        <time>2023-08-13T10:23:11.809+00:00</time>
      </trkpt>
      <trkpt lat="49.37845" lon="-1.59349">
        <ele>59</ele>
        <time>2023-08-13T10:23:15.667+00:00</time>
      </trkpt>
      <trkpt lat="49.37845" lon="-1.59348">
        <ele>59</ele>
        <time>2023-08-13T10:23:20.165+00:00</time>
      </trkpt>
      <trkpt lat="49.37846" lon="-1.59343">
        <ele>59</ele>
        <time>2023-08-13T10:23:24.702+00:00</time>
      </trkpt>
      <trkpt lat="49.37849" lon="-1.59336">
        <ele>60</ele>
        <time>2023-08-13T10:23:28.660+00:00</time>
      </trkpt>
      <trkpt lat="49.37849" lon="-1.59333">
        <ele>60</ele>
        <time>2023-08-13T10:23:32.618+00:00</time>
      </trkpt>
      <trkpt lat="49.3785" lon="-1.59335">
        <ele>60</ele>
        <time>2023-08-13T10:23:37.298+00:00</time>
      </trkpt>
      <trkpt lat="49.37852" lon="-1.59335">
        <ele>60</ele>
        <time>2023-08-13T10:23:41.382+00:00</time>
      </trkpt>
      <trkpt lat="49.37854" lon="-1.59327">
        <ele>60</ele>
        <time>2023-08-13T10:23:45.975+00:00</time>
      </trkpt>
      <trkpt lat="49.37858" lon="-1.59321">
        <ele>60</ele>
        <time>2023-08-13T10:23:50.815+00:00</time>
      </trkpt>
      <trkpt lat="49.37861" lon="-1.59315">
        <ele>60</ele>
        <time>2023-08-13T10:23:55.382+00:00</time>
      </trkpt>
      <trkpt lat="49.37864" lon="-1.59311">
        <ele>60</ele>
        <time>2023-08-13T10:23:59.935+00:00</time>
      </trkpt>
      <trkpt lat="49.37868" lon="-1.59305">
        <ele>60</ele>
        <time>2023-08-13T10:24:04.089+00:00</time>
      </trkpt>
      <trkpt lat="49.37872" lon="-1.59302">
        <ele>60</ele>
        <time>2023-08-13T10:24:08.767+00:00</time>
      </trkpt>
      <trkpt lat="49.37876" lon="-1.59297">
        <ele>60</ele>
        <time>2023-08-13T10:24:13.382+00:00</time>
      </trkpt>
      <trkpt lat="49.37879" lon="-1.59294">
        <ele>60</ele>
        <time>2023-08-13T10:24:17.382+00:00</time>
      </trkpt>
      <trkpt lat="49.37882" lon="-1.59291">
        <ele>60</ele>
        <time>2023-08-13T10:24:21.343+00:00</time>
      </trkpt>
      <trkpt lat="49.37885" lon="-1.59285">
        <ele>60</ele>
        <time>2023-08-13T10:24:25.901+00:00</time>
      </trkpt>
      <trkpt lat="49.37889" lon="-1.59281">
        <ele>60</ele>
        <time>2023-08-13T10:24:30.498+00:00</time>
      </trkpt>
      <trkpt lat="49.37894" lon="-1.59277">
        <ele>60</ele>
        <time>2023-08-13T10:24:35.015+00:00</time>
      </trkpt>
      <trkpt lat="49.37898" lon="-1.59274">
        <ele>60</ele>
        <time>2023-08-13T10:24:38.913+00:00</time>
      </trkpt>
      <trkpt lat="49.37902" lon="-1.59269">
        <ele>60</ele>
        <time>2023-08-13T10:24:43.114+00:00</time>
      </trkpt>
      <trkpt lat="49.37905" lon="-1.59264">
        <ele>61</ele>
        <time>2023-08-13T10:24:48.035+00:00</time>
      </trkpt>
      <trkpt lat="49.37909" lon="-1.59257">
        <ele>61</ele>
        <time>2023-08-13T10:24:52.995+00:00</time>
      </trkpt>
      <trkpt lat="49.37912" lon="-1.59251">
        <ele>61</ele>
        <time>2023-08-13T10:24:56.856+00:00</time>
      </trkpt>
      <trkpt lat="49.37915" lon="-1.59245">
        <ele>61</ele>
        <time>2023-08-13T10:25:01.375+00:00</time>
      </trkpt>
      <trkpt lat="49.37917" lon="-1.59239">
        <ele>61</ele>
        <time>2023-08-13T10:25:05.932+00:00</time>
      </trkpt>
      <trkpt lat="49.37921" lon="-1.59234">
        <ele>61</ele>
        <time>2023-08-13T10:25:10.505+00:00</time>
      </trkpt>
      <trkpt lat="49.37922" lon="-1.59227">
        <ele>61</ele>
        <time>2023-08-13T10:25:14.623+00:00</time>
      </trkpt>
      <trkpt lat="49.37922" lon="-1.59222">
        <ele>61</ele>
        <time>2023-08-13T10:25:19.642+00:00</time>
      </trkpt>
      <trkpt lat="49.37925" lon="-1.59217">
        <ele>61</ele>
        <time>2023-08-13T10:25:24.258+00:00</time>
      </trkpt>
      <trkpt lat="49.37929" lon="-1.59208">
        <ele>61</ele>
        <time>2023-08-13T10:25:28.779+00:00</time>
      </trkpt>
      <trkpt lat="49.37931" lon="-1.59202">
        <ele>61</ele>
        <time>2023-08-13T10:25:32.789+00:00</time>
      </trkpt>
      <trkpt lat="49.37932" lon="-1.59194">
        <ele>61</ele>
        <time>2023-08-13T10:25:37.297+00:00</time>
      </trkpt>
      <trkpt lat="49.37934" lon="-1.59193">
        <ele>61</ele>
        <time>2023-08-13T10:25:41.803+00:00</time>
      </trkpt>
      <trkpt lat="49.37935" lon="-1.59188">
        <ele>61</ele>
        <time>2023-08-13T10:25:45.806+00:00</time>
      </trkpt>
      <trkpt lat="49.37937" lon="-1.59181">
        <ele>61</ele>
        <time>2023-08-13T10:25:50.309+00:00</time>
      </trkpt>
      <trkpt lat="49.3794" lon="-1.59174">
        <ele>63</ele>
        <time>2023-08-13T10:25:54.811+00:00</time>
      </trkpt>
      <trkpt lat="49.37943" lon="-1.59168">
        <ele>63</ele>
        <time>2023-08-13T10:25:59.824+00:00</time>
      </trkpt>
      <trkpt lat="49.37944" lon="-1.59163">
        <ele>63</ele>
        <time>2023-08-13T10:26:04.340+00:00</time>
      </trkpt>
      <trkpt lat="49.37945" lon="-1.59155">
        <ele>63</ele>
        <time>2023-08-13T10:26:08.347+00:00</time>
      </trkpt>
      <trkpt lat="49.37946" lon="-1.59146">
        <ele>64</ele>
        <time>2023-08-13T10:26:12.854+00:00</time>
      </trkpt>
      <trkpt lat="49.37948" lon="-1.5914">
        <ele>64</ele>
        <time>2023-08-13T10:26:16.856+00:00</time>
      </trkpt>
      <trkpt lat="49.37951" lon="-1.59134">
        <ele>64</ele>
        <time>2023-08-13T10:26:21.360+00:00</time>
      </trkpt>
      <trkpt lat="49.37954" lon="-1.59131">
        <ele>64</ele>
        <time>2023-08-13T10:26:25.362+00:00</time>
      </trkpt>
      <trkpt lat="49.37959" lon="-1.5913">
        <ele>64</ele>
        <time>2023-08-13T10:26:29.871+00:00</time>
      </trkpt>
      <trkpt lat="49.37963" lon="-1.59126">
        <ele>64</ele>
        <time>2023-08-13T10:26:34.992+00:00</time>
      </trkpt>
      <trkpt lat="49.37963" lon="-1.59126">
        <ele>64</ele>
        <time>2023-08-13T10:26:40.013+00:00</time>
      </trkpt>
      <trkpt lat="49.37964" lon="-1.59127">
        <ele>64</ele>
        <time>2023-08-13T10:26:44.027+00:00</time>
      </trkpt>
      <trkpt lat="49.37968" lon="-1.59131">
        <ele>64</ele>
        <time>2023-08-13T10:26:48.039+00:00</time>
      </trkpt>
      <trkpt lat="49.37973" lon="-1.59133">
        <ele>64</ele>
        <time>2023-08-13T10:26:52.547+00:00</time>
      </trkpt>
      <trkpt lat="49.37978" lon="-1.59134">
        <ele>64</ele>
        <time>2023-08-13T10:26:57.053+00:00</time>
      </trkpt>
      <trkpt lat="49.37981" lon="-1.59136">
        <ele>64</ele>
        <time>2023-08-13T10:27:01.656+00:00</time>
      </trkpt>
      <trkpt lat="49.37984" lon="-1.59135">
        <ele>64</ele>
        <time>2023-08-13T10:27:06.180+00:00</time>
      </trkpt>
      <trkpt lat="49.37989" lon="-1.59136">
        <ele>63</ele>
        <time>2023-08-13T10:27:10.282+00:00</time>
      </trkpt>
      <trkpt lat="49.37992" lon="-1.59141">
        <ele>63</ele>
        <time>2023-08-13T10:27:14.286+00:00</time>
      </trkpt>
      <trkpt lat="49.37996" lon="-1.59145">
        <ele>63</ele>
        <time>2023-08-13T10:27:18.791+00:00</time>
      </trkpt>
      <trkpt lat="49.37999" lon="-1.59148">
        <ele>63</ele>
        <time>2023-08-13T10:27:23.295+00:00</time>
      </trkpt>
      <trkpt lat="49.38003" lon="-1.5915">
        <ele>63</ele>
        <time>2023-08-13T10:27:27.715+00:00</time>
      </trkpt>
      <trkpt lat="49.38008" lon="-1.59152">
        <ele>63</ele>
        <time>2023-08-13T10:27:32.655+00:00</time>
      </trkpt>
      <trkpt lat="49.3801" lon="-1.59149">
        <ele>63</ele>
        <time>2023-08-13T10:27:37.931+00:00</time>
      </trkpt>
      <trkpt lat="49.38014" lon="-1.59143">
        <ele>63</ele>
        <time>2023-08-13T10:27:42.382+00:00</time>
      </trkpt>
      <trkpt lat="49.38017" lon="-1.59136">
        <ele>64</ele>
        <time>2023-08-13T10:27:46.506+00:00</time>
      </trkpt>
      <trkpt lat="49.3802" lon="-1.59129">
        <ele>64</ele>
        <time>2023-08-13T10:27:50.702+00:00</time>
      </trkpt>
      <trkpt lat="49.38022" lon="-1.59123">
        <ele>64</ele>
        <time>2023-08-13T10:27:55.257+00:00</time>
      </trkpt>
      <trkpt lat="49.38024" lon="-1.59117">
        <ele>64</ele>
        <time>2023-08-13T10:27:59.775+00:00</time>
      </trkpt>
      <trkpt lat="49.38027" lon="-1.59112">
        <ele>64</ele>
        <time>2023-08-13T10:28:03.908+00:00</time>
      </trkpt>
      <trkpt lat="49.3803" lon="-1.59107">
        <ele>64</ele>
        <time>2023-08-13T10:28:07.924+00:00</time>
      </trkpt>
      <trkpt lat="49.38033" lon="-1.59102">
        <ele>64</ele>
        <time>2023-08-13T10:28:12.121+00:00</time>
      </trkpt>
      <trkpt lat="49.38036" lon="-1.59095">
        <ele>62</ele>
        <time>2023-08-13T10:28:16.123+00:00</time>
      </trkpt>
      <trkpt lat="49.3804" lon="-1.59089">
        <ele>62</ele>
        <time>2023-08-13T10:28:20.673+00:00</time>
      </trkpt>
      <trkpt lat="49.38044" lon="-1.59084">
        <ele>65</ele>
        <time>2023-08-13T10:28:25.230+00:00</time>
      </trkpt>
      <trkpt lat="49.38048" lon="-1.59081">
        <ele>65</ele>
        <time>2023-08-13T10:28:29.818+00:00</time>
      </trkpt>
      <trkpt lat="49.38051" lon="-1.59076">
        <ele>65</ele>
        <time>2023-08-13T10:28:33.902+00:00</time>
      </trkpt>
      <trkpt lat="49.38052" lon="-1.59068">
        <ele>64</ele>
        <time>2023-08-13T10:28:38.039+00:00</time>
      </trkpt>
      <trkpt lat="49.38054" lon="-1.59062">
        <ele>64</ele>
        <time>2023-08-13T10:28:42.116+00:00</time>
      </trkpt>
      <trkpt lat="49.38056" lon="-1.59056">
        <ele>64</ele>
        <time>2023-08-13T10:28:46.312+00:00</time>
      </trkpt>
      <trkpt lat="49.38059" lon="-1.59048">
        <ele>64</ele>
        <time>2023-08-13T10:28:50.908+00:00</time>
      </trkpt>
      <trkpt lat="49.38062" lon="-1.59043">
        <ele>64</ele>
        <time>2023-08-13T10:28:54.647+00:00</time>
      </trkpt>
      <trkpt lat="49.38065" lon="-1.59038">
        <ele>63</ele>
        <time>2023-08-13T10:28:59.283+00:00</time>
      </trkpt>
      <trkpt lat="49.38069" lon="-1.59032">
        <ele>63</ele>
        <time>2023-08-13T10:29:03.700+00:00</time>
      </trkpt>
      <trkpt lat="49.38072" lon="-1.59025">
        <ele>66</ele>
        <time>2023-08-13T10:29:08.238+00:00</time>
      </trkpt>
      <trkpt lat="49.38075" lon="-1.59022">
        <ele>66</ele>
        <time>2023-08-13T10:29:12.234+00:00</time>
      </trkpt>
      <trkpt lat="49.38077" lon="-1.59017">
        <ele>66</ele>
        <time>2023-08-13T10:29:16.671+00:00</time>
      </trkpt>
      <trkpt lat="49.38079" lon="-1.5901">
        <ele>65</ele>
        <time>2023-08-13T10:29:20.747+00:00</time>
      </trkpt>
      <trkpt lat="49.38081" lon="-1.59003">
        <ele>65</ele>
        <time>2023-08-13T10:29:24.764+00:00</time>
      </trkpt>
      <trkpt lat="49.38085" lon="-1.58997">
        <ele>65</ele>
        <time>2023-08-13T10:29:28.882+00:00</time>
      </trkpt>
      <trkpt lat="49.38088" lon="-1.5899">
        <ele>65</ele>
        <time>2023-08-13T10:29:33.382+00:00</time>
      </trkpt>
      <trkpt lat="49.38092" lon="-1.58986">
        <ele>63</ele>
        <time>2023-08-13T10:29:37.516+00:00</time>
      </trkpt>
      <trkpt lat="49.38092" lon="-1.58979">
        <ele>63</ele>
        <time>2023-08-13T10:29:41.713+00:00</time>
      </trkpt>
      <trkpt lat="49.38096" lon="-1.58972">
        <ele>63</ele>
        <time>2023-08-13T10:29:45.850+00:00</time>
      </trkpt>
      <trkpt lat="49.381" lon="-1.58965">
        <ele>66</ele>
        <time>2023-08-13T10:29:50.528+00:00</time>
      </trkpt>
      <trkpt lat="49.38104" lon="-1.5896">
        <ele>66</ele>
        <time>2023-08-13T10:29:54.486+00:00</time>
      </trkpt>
      <trkpt lat="49.38108" lon="-1.58954">
        <ele>65</ele>
        <time>2023-08-13T10:29:58.623+00:00</time>
      </trkpt>
      <trkpt lat="49.38111" lon="-1.58948">
        <ele>65</ele>
        <time>2023-08-13T10:30:02.700+00:00</time>
      </trkpt>
      <trkpt lat="49.38114" lon="-1.58942">
        <ele>65</ele>
        <time>2023-08-13T10:30:06.738+00:00</time>
      </trkpt>
      <trkpt lat="49.38116" lon="-1.58935">
        <ele>65</ele>
        <time>2023-08-13T10:30:11.238+00:00</time>
      </trkpt>
      <trkpt lat="49.3812" lon="-1.58928">
        <ele>65</ele>
        <time>2023-08-13T10:30:15.315+00:00</time>
      </trkpt>
      <trkpt lat="49.38123" lon="-1.58922">
        <ele>65</ele>
        <time>2023-08-13T10:30:19.893+00:00</time>
      </trkpt>
      <trkpt lat="49.38127" lon="-1.5892">
        <ele>66</ele>
        <time>2023-08-13T10:30:23.868+00:00</time>
      </trkpt>
      <trkpt lat="49.3813" lon="-1.5892">
        <ele>66</ele>
        <time>2023-08-13T10:30:27.825+00:00</time>
      </trkpt>
      <trkpt lat="49.38134" lon="-1.58922">
        <ele>66</ele>
        <time>2023-08-13T10:30:32.322+00:00</time>
      </trkpt>
      <trkpt lat="49.38137" lon="-1.58923">
        <ele>66</ele>
        <time>2023-08-13T10:30:36.980+00:00</time>
      </trkpt>
      <trkpt lat="49.38139" lon="-1.58924">
        <ele>66</ele>
        <time>2023-08-13T10:30:46.285+00:00</time>
      </trkpt>
      <trkpt lat="49.38138" lon="-1.58922">
        <ele>66</ele>
        <time>2023-08-13T10:30:50.798+00:00</time>
      </trkpt>
      <trkpt lat="49.38139" lon="-1.58923">
        <ele>66</ele>
        <time>2023-08-13T10:30:55.304+00:00</time>
      </trkpt>
      <trkpt lat="49.38144" lon="-1.58923">
        <ele>66</ele>
        <time>2023-08-13T10:30:59.807+00:00</time>
      </trkpt>
      <trkpt lat="49.38149" lon="-1.58927">
        <ele>66</ele>
        <time>2023-08-13T10:31:04.815+00:00</time>
      </trkpt>
      <trkpt lat="49.3815" lon="-1.58929">
        <ele>66</ele>
        <time>2023-08-13T10:31:25.838+00:00</time>
      </trkpt>
      <trkpt lat="49.38152" lon="-1.58933">
        <ele>66</ele>
        <time>2023-08-13T10:31:31.098+00:00</time>
      </trkpt>
      <trkpt lat="49.38153" lon="-1.58935">
        <ele>66</ele>
        <time>2023-08-13T10:31:35.119+00:00</time>
      </trkpt>
      <trkpt lat="49.38156" lon="-1.58937">
        <ele>66</ele>
        <time>2023-08-13T10:31:39.646+00:00</time>
      </trkpt>
      <trkpt lat="49.38159" lon="-1.5894">
        <ele>66</ele>
        <time>2023-08-13T10:31:43.648+00:00</time>
      </trkpt>
      <trkpt lat="49.38164" lon="-1.58941">
        <ele>66</ele>
        <time>2023-08-13T10:31:48.190+00:00</time>
      </trkpt>
      <trkpt lat="49.38167" lon="-1.58942">
        <ele>66</ele>
        <time>2023-08-13T10:31:52.693+00:00</time>
      </trkpt>
      <trkpt lat="49.3817" lon="-1.58944">
        <ele>66</ele>
        <time>2023-08-13T10:31:56.695+00:00</time>
      </trkpt>
      <trkpt lat="49.38174" lon="-1.58944">
        <ele>66</ele>
        <time>2023-08-13T10:32:00.697+00:00</time>
      </trkpt>
      <trkpt lat="49.38178" lon="-1.58948">
        <ele>66</ele>
        <time>2023-08-13T10:32:05.200+00:00</time>
      </trkpt>
      <trkpt lat="49.38182" lon="-1.58952">
        <ele>67</ele>
        <time>2023-08-13T10:32:09.761+00:00</time>
      </trkpt>
      <trkpt lat="49.38186" lon="-1.58955">
        <ele>67</ele>
        <time>2023-08-13T10:32:13.842+00:00</time>
      </trkpt>
      <trkpt lat="49.38188" lon="-1.58954">
        <ele>67</ele>
        <time>2023-08-13T10:32:18.083+00:00</time>
      </trkpt>
      <trkpt lat="49.38189" lon="-1.58953">
        <ele>67</ele>
        <time>2023-08-13T10:32:22.125+00:00</time>
      </trkpt>
      <trkpt lat="49.38193" lon="-1.58958">
        <ele>67</ele>
        <time>2023-08-13T10:32:26.102+00:00</time>
      </trkpt>
      <trkpt lat="49.38196" lon="-1.58962">
        <ele>68</ele>
        <time>2023-08-13T10:32:30.542+00:00</time>
      </trkpt>
      <trkpt lat="49.382" lon="-1.58967">
        <ele>68</ele>
        <time>2023-08-13T10:32:34.720+00:00</time>
      </trkpt>
      <trkpt lat="49.38206" lon="-1.58969">
        <ele>68</ele>
        <time>2023-08-13T10:32:39.696+00:00</time>
      </trkpt>
      <trkpt lat="49.38211" lon="-1.58972">
        <ele>67</ele>
        <time>2023-08-13T10:32:44.138+00:00</time>
      </trkpt>
      <trkpt lat="49.38216" lon="-1.58975">
        <ele>67</ele>
        <time>2023-08-13T10:32:48.228+00:00</time>
      </trkpt>
      <trkpt lat="49.38221" lon="-1.58979">
        <ele>67</ele>
        <time>2023-08-13T10:32:52.644+00:00</time>
      </trkpt>
      <trkpt lat="49.38225" lon="-1.58982">
        <ele>67</ele>
        <time>2023-08-13T10:32:57.107+00:00</time>
      </trkpt>
      <trkpt lat="49.38229" lon="-1.58985">
        <ele>67</ele>
        <time>2023-08-13T10:33:01.098+00:00</time>
      </trkpt>
      <trkpt lat="49.38233" lon="-1.58989">
        <ele>67</ele>
        <time>2023-08-13T10:33:05.130+00:00</time>
      </trkpt>
      <trkpt lat="49.38237" lon="-1.58992">
        <ele>66</ele>
        <time>2023-08-13T10:33:09.263+00:00</time>
      </trkpt>
      <trkpt lat="49.38242" lon="-1.58995">
        <ele>66</ele>
        <time>2023-08-13T10:33:13.269+00:00</time>
      </trkpt>
      <trkpt lat="49.38245" lon="-1.58998">
        <ele>66</ele>
        <time>2023-08-13T10:33:17.706+00:00</time>
      </trkpt>
      <trkpt lat="49.38249" lon="-1.59">
        <ele>66</ele>
        <time>2023-08-13T10:33:22.263+00:00</time>
      </trkpt>
      <trkpt lat="49.38252" lon="-1.59003">
        <ele>66</ele>
        <time>2023-08-13T10:33:26.879+00:00</time>
      </trkpt>
      <trkpt lat="49.38257" lon="-1.59004">
        <ele>66</ele>
        <time>2023-08-13T10:33:30.917+00:00</time>
      </trkpt>
      <trkpt lat="49.38262" lon="-1.59004">
        <ele>66</ele>
        <time>2023-08-13T10:33:35.382+00:00</time>
      </trkpt>
      <trkpt lat="49.38267" lon="-1.59006">
        <ele>65</ele>
        <time>2023-08-13T10:33:39.530+00:00</time>
      </trkpt>
      <trkpt lat="49.38272" lon="-1.59009">
        <ele>65</ele>
        <time>2023-08-13T10:33:43.727+00:00</time>
      </trkpt>
      <trkpt lat="49.38283" lon="-1.59011">
        <ele>65</ele>
        <time>2023-08-13T10:34:41.052+00:00</time>
      </trkpt>
      <trkpt lat="49.38283" lon="-1.5901">
        <ele>65</ele>
        <time>2023-08-13T10:34:46.064+00:00</time>
      </trkpt>
      <trkpt lat="49.38284" lon="-1.5901">
        <ele>65</ele>
        <time>2023-08-13T10:34:51.078+00:00</time>
      </trkpt>
      <trkpt lat="49.38284" lon="-1.5901">
        <ele>65</ele>
        <time>2023-08-13T10:34:55.597+00:00</time>
      </trkpt>
      <trkpt lat="49.38286" lon="-1.59012">
        <ele>65</ele>
        <time>2023-08-13T10:34:59.703+00:00</time>
      </trkpt>
      <trkpt lat="49.38283" lon="-1.59015">
        <ele>65</ele>
        <time>2023-08-13T10:35:31.306+00:00</time>
      </trkpt>
      <trkpt lat="49.38283" lon="-1.59016">
        <ele>65</ele>
        <time>2023-08-13T10:35:35.832+00:00</time>
      </trkpt>
      <trkpt lat="49.38285" lon="-1.5902">
        <ele>65</ele>
        <time>2023-08-13T10:35:39.846+00:00</time>
      </trkpt>
      <trkpt lat="49.3829" lon="-1.59022">
        <ele>65</ele>
        <time>2023-08-13T10:35:43.852+00:00</time>
      </trkpt>
      <trkpt lat="49.38292" lon="-1.59024">
        <ele>65</ele>
        <time>2023-08-13T10:35:48.355+00:00</time>
      </trkpt>
      <trkpt lat="49.38296" lon="-1.59031">
        <ele>65</ele>
        <time>2023-08-13T10:35:52.575+00:00</time>
      </trkpt>
      <trkpt lat="49.38301" lon="-1.59034">
        <ele>65</ele>
        <time>2023-08-13T10:35:56.954+00:00</time>
      </trkpt>
      <trkpt lat="49.38306" lon="-1.59037">
        <ele>65</ele>
        <time>2023-08-13T10:36:01.214+00:00</time>
      </trkpt>
      <trkpt lat="49.3831" lon="-1.59043">
        <ele>65</ele>
        <time>2023-08-13T10:36:05.795+00:00</time>
      </trkpt>
      <trkpt lat="49.38309" lon="-1.59049">
        <ele>65</ele>
        <time>2023-08-13T10:37:11.786+00:00</time>
      </trkpt>
      <trkpt lat="49.38311" lon="-1.59051">
        <ele>65</ele>
        <time>2023-08-13T10:37:15.799+00:00</time>
      </trkpt>
      <trkpt lat="49.38318" lon="-1.59055">
        <ele>65</ele>
        <time>2023-08-13T10:37:20.807+00:00</time>
      </trkpt>
      <trkpt lat="49.38322" lon="-1.59062">
        <ele>65</ele>
        <time>2023-08-13T10:37:25.310+00:00</time>
      </trkpt>
      <trkpt lat="49.38325" lon="-1.5907">
        <ele>65</ele>
        <time>2023-08-13T10:37:29.817+00:00</time>
      </trkpt>
      <trkpt lat="49.38329" lon="-1.5907">
        <ele>65</ele>
        <time>2023-08-13T10:37:33.823+00:00</time>
      </trkpt>
      <trkpt lat="49.38332" lon="-1.59071">
        <ele>65</ele>
        <time>2023-08-13T10:37:38.325+00:00</time>
      </trkpt>
      <trkpt lat="49.38336" lon="-1.59073">
        <ele>65</ele>
        <time>2023-08-13T10:37:43.086+00:00</time>
      </trkpt>
      <trkpt lat="49.38343" lon="-1.59074">
        <ele>65</ele>
        <time>2023-08-13T10:37:47.946+00:00</time>
      </trkpt>
      <trkpt lat="49.38351" lon="-1.59081">
        <ele>63</ele>
        <time>2023-08-13T10:38:05.333+00:00</time>
      </trkpt>
      <trkpt lat="49.38351" lon="-1.59084">
        <ele>63</ele>
        <time>2023-08-13T10:38:09.840+00:00</time>
      </trkpt>
      <trkpt lat="49.38352" lon="-1.59084">
        <ele>63</ele>
        <time>2023-08-13T10:38:15.004+00:00</time>
      </trkpt>
      <trkpt lat="49.38354" lon="-1.59085">
        <ele>63</ele>
        <time>2023-08-13T10:38:20.009+00:00</time>
      </trkpt>
      <trkpt lat="49.38359" lon="-1.59084">
        <ele>63</ele>
        <time>2023-08-13T10:38:24.584+00:00</time>
      </trkpt>
      <trkpt lat="49.38363" lon="-1.59083">
        <ele>63</ele>
        <time>2023-08-13T10:38:28.510+00:00</time>
      </trkpt>
      <trkpt lat="49.38369" lon="-1.59082">
        <ele>63</ele>
        <time>2023-08-13T10:38:33.538+00:00</time>
      </trkpt>
      <trkpt lat="49.38373" lon="-1.59082">
        <ele>63</ele>
        <time>2023-08-13T10:38:37.887+00:00</time>
      </trkpt>
      <trkpt lat="49.38376" lon="-1.59083">
        <ele>56</ele>
        <time>2023-08-13T10:38:41.968+00:00</time>
      </trkpt>
      <trkpt lat="49.38382" lon="-1.59077">
        <ele>56</ele>
        <time>2023-08-13T10:39:32.096+00:00</time>
      </trkpt>
      <trkpt lat="49.38386" lon="-1.59077">
        <ele>56</ele>
        <time>2023-08-13T10:39:36.190+00:00</time>
      </trkpt>
      <trkpt lat="49.38389" lon="-1.59082">
        <ele>56</ele>
        <time>2023-08-13T10:39:40.709+00:00</time>
      </trkpt>
      <trkpt lat="49.38394" lon="-1.59085">
        <ele>56</ele>
        <time>2023-08-13T10:39:44.716+00:00</time>
      </trkpt>
      <trkpt lat="49.38398" lon="-1.59086">
        <ele>56</ele>
        <time>2023-08-13T10:39:48.722+00:00</time>
      </trkpt>
      <trkpt lat="49.38406" lon="-1.59091">
        <ele>51</ele>
        <time>2023-08-13T10:40:25.070+00:00</time>
      </trkpt>
      <trkpt lat="49.38406" lon="-1.5909">
        <ele>51</ele>
        <time>2023-08-13T10:40:29.693+00:00</time>
      </trkpt>
      <trkpt lat="49.38408" lon="-1.5909">
        <ele>51</ele>
        <time>2023-08-13T10:40:34.875+00:00</time>
      </trkpt>
      <trkpt lat="49.3841" lon="-1.59085">
        <ele>51</ele>
        <time>2023-08-13T10:40:39.392+00:00</time>
      </trkpt>
      <trkpt lat="49.3841" lon="-1.59081">
        <ele>51</ele>
        <time>2023-08-13T10:40:43.908+00:00</time>
      </trkpt>
      <trkpt lat="49.3841" lon="-1.59086">
        <ele>51</ele>
        <time>2023-08-13T10:40:48.922+00:00</time>
      </trkpt>
      <trkpt lat="49.38411" lon="-1.59087">
        <ele>51</ele>
        <time>2023-08-13T10:40:52.929+00:00</time>
      </trkpt>
      <trkpt lat="49.38411" lon="-1.59087">
        <ele>51</ele>
        <time>2023-08-13T10:40:57.434+00:00</time>
      </trkpt>
      <trkpt lat="49.38415" lon="-1.59087">
        <ele>51</ele>
        <time>2023-08-13T10:41:01.542+00:00</time>
      </trkpt>
      <trkpt lat="49.3842" lon="-1.59086">
        <ele>51</ele>
        <time>2023-08-13T10:41:05.551+00:00</time>
      </trkpt>
      <trkpt lat="49.38425" lon="-1.59089">
        <ele>51</ele>
        <time>2023-08-13T10:41:09.756+00:00</time>
      </trkpt>
      <trkpt lat="49.38429" lon="-1.59091">
        <ele>51</ele>
        <time>2023-08-13T10:41:13.760+00:00</time>
      </trkpt>
      <trkpt lat="49.38432" lon="-1.5909">
        <ele>50</ele>
        <time>2023-08-13T10:41:18.362+00:00</time>
      </trkpt>
      <trkpt lat="49.38436" lon="-1.59086">
        <ele>50</ele>
        <time>2023-08-13T10:41:22.884+00:00</time>
      </trkpt>
      <trkpt lat="49.3844" lon="-1.59087">
        <ele>50</ele>
        <time>2023-08-13T10:41:26.928+00:00</time>
      </trkpt>
      <trkpt lat="49.38444" lon="-1.59086">
        <ele>50</ele>
        <time>2023-08-13T10:41:31.432+00:00</time>
      </trkpt>
      <trkpt lat="49.38449" lon="-1.59084">
        <ele>50</ele>
        <time>2023-08-13T10:41:35.956+00:00</time>
      </trkpt>
      <trkpt lat="49.38452" lon="-1.59084">
        <ele>50</ele>
        <time>2023-08-13T10:41:39.577+00:00</time>
      </trkpt>
      <trkpt lat="49.38457" lon="-1.59086">
        <ele>50</ele>
        <time>2023-08-13T10:41:44.581+00:00</time>
      </trkpt>
      <trkpt lat="49.38463" lon="-1.59087">
        <ele>50</ele>
        <time>2023-08-13T10:41:49.086+00:00</time>
      </trkpt>
      <trkpt lat="49.38468" lon="-1.59089">
        <ele>50</ele>
        <time>2023-08-13T10:41:53.092+00:00</time>
      </trkpt>
      <trkpt lat="49.38472" lon="-1.59089">
        <ele>50</ele>
        <time>2023-08-13T10:41:57.096+00:00</time>
      </trkpt>
      <trkpt lat="49.38475" lon="-1.59089">
        <ele>50</ele>
        <time>2023-08-13T10:42:02.100+00:00</time>
      </trkpt>
      <trkpt lat="49.38474" lon="-1.59088">
        <ele>50</ele>
        <time>2023-08-13T10:42:06.103+00:00</time>
      </trkpt>
      <trkpt lat="49.38481" lon="-1.59091">
        <ele>50</ele>
        <time>2023-08-13T10:42:10.606+00:00</time>
      </trkpt>
      <trkpt lat="49.38486" lon="-1.59093">
        <ele>50</ele>
        <time>2023-08-13T10:42:14.611+00:00</time>
      </trkpt>
      <trkpt lat="49.3849" lon="-1.59091">
        <ele>49</ele>
        <time>2023-08-13T10:42:19.114+00:00</time>
      </trkpt>
      <trkpt lat="49.38496" lon="-1.59094">
        <ele>49</ele>
        <time>2023-08-13T10:42:23.382+00:00</time>
      </trkpt>
      <trkpt lat="49.385" lon="-1.59095">
        <ele>49</ele>
        <time>2023-08-13T10:42:27.575+00:00</time>
      </trkpt>
      <trkpt lat="49.38505" lon="-1.59098">
        <ele>51</ele>
        <time>2023-08-13T10:42:32.077+00:00</time>
      </trkpt>
      <trkpt lat="49.38508" lon="-1.59101">
        <ele>51</ele>
        <time>2023-08-13T10:42:36.079+00:00</time>
      </trkpt>
      <trkpt lat="49.38512" lon="-1.59103">
        <ele>51</ele>
        <time>2023-08-13T10:42:40.180+00:00</time>
      </trkpt>
      <trkpt lat="49.38516" lon="-1.59103">
        <ele>52</ele>
        <time>2023-08-13T10:42:44.441+00:00</time>
      </trkpt>
      <trkpt lat="49.3852" lon="-1.591">
        <ele>52</ele>
        <time>2023-08-13T10:42:48.960+00:00</time>
      </trkpt>
      <trkpt lat="49.38523" lon="-1.59099">
        <ele>52</ele>
        <time>2023-08-13T10:42:52.979+00:00</time>
      </trkpt>
      <trkpt lat="49.38527" lon="-1.59098">
        <ele>52</ele>
        <time>2023-08-13T10:42:57.879+00:00</time>
      </trkpt>
      <trkpt lat="49.3853" lon="-1.59098">
        <ele>52</ele>
        <time>2023-08-13T10:43:01.818+00:00</time>
      </trkpt>
      <trkpt lat="49.38532" lon="-1.59097">
        <ele>52</ele>
        <time>2023-08-13T10:43:06.378+00:00</time>
      </trkpt>
      <trkpt lat="49.38536" lon="-1.59098">
        <ele>52</ele>
        <time>2023-08-13T10:43:11.178+00:00</time>
      </trkpt>
      <trkpt lat="49.38541" lon="-1.591">
        <ele>52</ele>
        <time>2023-08-13T10:43:15.497+00:00</time>
      </trkpt>
      <trkpt lat="49.38543" lon="-1.59097">
        <ele>53</ele>
        <time>2023-08-13T10:43:20.118+00:00</time>
      </trkpt>
      <trkpt lat="49.38544" lon="-1.59098">
        <ele>53</ele>
        <time>2023-08-13T10:43:24.661+00:00</time>
      </trkpt>
      <trkpt lat="49.38547" lon="-1.59099">
        <ele>53</ele>
        <time>2023-08-13T10:43:29.183+00:00</time>
      </trkpt>
      <trkpt lat="49.38551" lon="-1.59102">
        <ele>53</ele>
        <time>2023-08-13T10:43:33.184+00:00</time>
      </trkpt>
      <trkpt lat="49.38553" lon="-1.59105">
        <ele>53</ele>
        <time>2023-08-13T10:43:37.604+00:00</time>
      </trkpt>
      <trkpt lat="49.38555" lon="-1.59103">
        <ele>53</ele>
        <time>2023-08-13T10:43:42.129+00:00</time>
      </trkpt>
      <trkpt lat="49.38557" lon="-1.59103">
        <ele>53</ele>
        <time>2023-08-13T10:43:45.662+00:00</time>
      </trkpt>
      <trkpt lat="49.38561" lon="-1.591">
        <ele>53</ele>
        <time>2023-08-13T10:43:50.242+00:00</time>
      </trkpt>
      <trkpt lat="49.38565" lon="-1.59099">
        <ele>53</ele>
        <time>2023-08-13T10:43:54.483+00:00</time>
      </trkpt>
      <trkpt lat="49.38569" lon="-1.59098">
        <ele>53</ele>
        <time>2023-08-13T10:43:58.602+00:00</time>
      </trkpt>
      <trkpt lat="49.38573" lon="-1.59099">
        <ele>51</ele>
        <time>2023-08-13T10:44:03.081+00:00</time>
      </trkpt>
      <trkpt lat="49.38578" lon="-1.59102">
        <ele>51</ele>
        <time>2023-08-13T10:44:07.718+00:00</time>
      </trkpt>
      <trkpt lat="49.38581" lon="-1.59103">
        <ele>51</ele>
        <time>2023-08-13T10:44:12.276+00:00</time>
      </trkpt>
      <trkpt lat="49.38585" lon="-1.59103">
        <ele>51</ele>
        <time>2023-08-13T10:44:16.656+00:00</time>
      </trkpt>
      <trkpt lat="49.38589" lon="-1.59104">
        <ele>51</ele>
        <time>2023-08-13T10:44:20.716+00:00</time>
      </trkpt>
      <trkpt lat="49.38594" lon="-1.59105">
        <ele>51</ele>
        <time>2023-08-13T10:44:24.735+00:00</time>
      </trkpt>
      <trkpt lat="49.38598" lon="-1.59105">
        <ele>49</ele>
        <time>2023-08-13T10:44:29.294+00:00</time>
      </trkpt>
      <trkpt lat="49.38604" lon="-1.59104">
        <ele>49</ele>
        <time>2023-08-13T10:44:33.433+00:00</time>
      </trkpt>
      <trkpt lat="49.38609" lon="-1.59104">
        <ele>49</ele>
        <time>2023-08-13T10:44:37.511+00:00</time>
      </trkpt>
      <trkpt lat="49.38613" lon="-1.59104">
        <ele>49</ele>
        <time>2023-08-13T10:44:41.630+00:00</time>
      </trkpt>
      <trkpt lat="49.38619" lon="-1.59103">
        <ele>49</ele>
        <time>2023-08-13T10:44:46.148+00:00</time>
      </trkpt>
      <trkpt lat="49.38625" lon="-1.59102">
        <ele>49</ele>
        <time>2023-08-13T10:44:50.225+00:00</time>
      </trkpt>
      <trkpt lat="49.3863" lon="-1.59102">
        <ele>47</ele>
        <time>2023-08-13T10:44:54.663+00:00</time>
      </trkpt>
      <trkpt lat="49.38634" lon="-1.59104">
        <ele>47</ele>
        <time>2023-08-13T10:44:58.642+00:00</time>
      </trkpt>
      <trkpt lat="49.38638" lon="-1.59105">
        <ele>47</ele>
        <time>2023-08-13T10:45:02.719+00:00</time>
      </trkpt>
      <trkpt lat="49.38643" lon="-1.59106">
        <ele>47</ele>
        <time>2023-08-13T10:45:07.382+00:00</time>
      </trkpt>
      <trkpt lat="49.38648" lon="-1.59107">
        <ele>47</ele>
        <time>2023-08-13T10:45:11.382+00:00</time>
      </trkpt>
      <trkpt lat="49.38657" lon="-1.59106">
        <ele>45</ele>
        <time>2023-08-13T10:45:18.902+00:00</time>
      </trkpt>
      <trkpt lat="49.38658" lon="-1.59104">
        <ele>45</ele>
        <time>2023-08-13T10:45:22.912+00:00</time>
      </trkpt>
      <trkpt lat="49.38661" lon="-1.59102">
        <ele>45</ele>
        <time>2023-08-13T10:45:26.918+00:00</time>
      </trkpt>
      <trkpt lat="49.38663" lon="-1.591">
        <ele>45</ele>
        <time>2023-08-13T10:45:31.020+00:00</time>
      </trkpt>
      <trkpt lat="49.38666" lon="-1.59101">
        <ele>45</ele>
        <time>2023-08-13T10:45:35.820+00:00</time>
      </trkpt>
      <trkpt lat="49.38671" lon="-1.59104">
        <ele>45</ele>
        <time>2023-08-13T10:45:39.901+00:00</time>
      </trkpt>
      <trkpt lat="49.38677" lon="-1.59104">
        <ele>45</ele>
        <time>2023-08-13T10:45:44.560+00:00</time>
      </trkpt>
      <trkpt lat="49.38681" lon="-1.59103">
        <ele>45</ele>
        <time>2023-08-13T10:45:49.019+00:00</time>
      </trkpt>
      <trkpt lat="49.38687" lon="-1.59105">
        <ele>45</ele>
        <time>2023-08-13T10:45:53.101+00:00</time>
      </trkpt>
      <trkpt lat="49.38691" lon="-1.59109">
        <ele>45</ele>
        <time>2023-08-13T10:45:57.920+00:00</time>
      </trkpt>
      <trkpt lat="49.38694" lon="-1.59109">
        <ele>45</ele>
        <time>2023-08-13T10:46:01.997+00:00</time>
      </trkpt>
      <trkpt lat="49.38697" lon="-1.59107">
        <ele>45</ele>
        <time>2023-08-13T10:46:06.113+00:00</time>
      </trkpt>
      <trkpt lat="49.387" lon="-1.59107">
        <ele>45</ele>
        <time>2023-08-13T10:46:09.973+00:00</time>
      </trkpt>
      <trkpt lat="49.38702" lon="-1.59108">
        <ele>45</ele>
        <time>2023-08-13T10:46:14.590+00:00</time>
      </trkpt>
      <trkpt lat="49.38706" lon="-1.59111">
        <ele>45</ele>
        <time>2023-08-13T10:46:19.114+00:00</time>
      </trkpt>
      <trkpt lat="49.3871" lon="-1.59113">
        <ele>47</ele>
        <time>2023-08-13T10:46:23.102+00:00</time>
      </trkpt>
      <trkpt lat="49.38715" lon="-1.59113">
        <ele>47</ele>
        <time>2023-08-13T10:46:26.699+00:00</time>
      </trkpt>
      <trkpt lat="49.38718" lon="-1.59114">
        <ele>47</ele>
        <time>2023-08-13T10:46:31.375+00:00</time>
      </trkpt>
      <trkpt lat="49.38721" lon="-1.59113">
        <ele>47</ele>
        <time>2023-08-13T10:46:35.382+00:00</time>
      </trkpt>
      <trkpt lat="49.38725" lon="-1.59115">
        <ele>47</ele>
        <time>2023-08-13T10:46:39.883+00:00</time>
      </trkpt>
      <trkpt lat="49.3873" lon="-1.59115">
        <ele>47</ele>
        <time>2023-08-13T10:46:43.825+00:00</time>
      </trkpt>
      <trkpt lat="49.38735" lon="-1.59116">
        <ele>47</ele>
        <time>2023-08-13T10:46:48.482+00:00</time>
      </trkpt>
      <trkpt lat="49.38738" lon="-1.59114">
        <ele>50</ele>
        <time>2023-08-13T10:46:53.099+00:00</time>
      </trkpt>
      <trkpt lat="49.3874" lon="-1.59115">
        <ele>50</ele>
        <time>2023-08-13T10:46:57.119+00:00</time>
      </trkpt>
      <trkpt lat="49.38744" lon="-1.59114">
        <ele>50</ele>
        <time>2023-08-13T10:47:01.914+00:00</time>
      </trkpt>
      <trkpt lat="49.38746" lon="-1.59114">
        <ele>50</ele>
        <time>2023-08-13T10:47:05.871+00:00</time>
      </trkpt>
      <trkpt lat="49.3875" lon="-1.59116">
        <ele>50</ele>
        <time>2023-08-13T10:47:10.829+00:00</time>
      </trkpt>
      <trkpt lat="49.3875" lon="-1.59115">
        <ele>50</ele>
        <time>2023-08-13T10:48:03.129+00:00</time>
      </trkpt>
      <trkpt lat="49.38752" lon="-1.59116">
        <ele>50</ele>
        <time>2023-08-13T10:48:07.120+00:00</time>
      </trkpt>
      <trkpt lat="49.38754" lon="-1.59117">
        <ele>50</ele>
        <time>2023-08-13T10:48:11.690+00:00</time>
      </trkpt>
      <trkpt lat="49.38757" lon="-1.59119">
        <ele>50</ele>
        <time>2023-08-13T10:48:16.366+00:00</time>
      </trkpt>
      <trkpt lat="49.3876" lon="-1.5912">
        <ele>50</ele>
        <time>2023-08-13T10:48:20.921+00:00</time>
      </trkpt>
      <trkpt lat="49.38763" lon="-1.59121">
        <ele>50</ele>
        <time>2023-08-13T10:48:24.878+00:00</time>
      </trkpt>
      <trkpt lat="49.38765" lon="-1.59123">
        <ele>53</ele>
        <time>2023-08-13T10:48:29.374+00:00</time>
      </trkpt>
      <trkpt lat="49.38768" lon="-1.59125">
        <ele>52</ele>
        <time>2023-08-13T10:48:33.930+00:00</time>
      </trkpt>
      <trkpt lat="49.3877" lon="-1.59128">
        <ele>52</ele>
        <time>2023-08-13T10:48:38.110+00:00</time>
      </trkpt>
      <trkpt lat="49.38773" lon="-1.59131">
        <ele>52</ele>
        <time>2023-08-13T10:48:42.116+00:00</time>
      </trkpt>
      <trkpt lat="49.38776" lon="-1.59135">
        <ele>52</ele>
        <time>2023-08-13T10:48:46.637+00:00</time>
      </trkpt>
      <trkpt lat="49.38778" lon="-1.59135">
        <ele>52</ele>
        <time>2023-08-13T10:48:50.672+00:00</time>
      </trkpt>
      <trkpt lat="49.38782" lon="-1.59138">
        <ele>52</ele>
        <time>2023-08-13T10:48:55.826+00:00</time>
      </trkpt>
      <trkpt lat="49.38786" lon="-1.59142">
        <ele>52</ele>
        <time>2023-08-13T10:48:59.903+00:00</time>
      </trkpt>
      <trkpt lat="49.38791" lon="-1.59144">
        <ele>52</ele>
        <time>2023-08-13T10:49:03.959+00:00</time>
      </trkpt>
      <trkpt lat="49.38794" lon="-1.59147">
        <ele>55</ele>
        <time>2023-08-13T10:49:07.915+00:00</time>
      </trkpt>
      <trkpt lat="49.38798" lon="-1.59151">
        <ele>55</ele>
        <time>2023-08-13T10:49:12.382+00:00</time>
      </trkpt>
      <trkpt lat="49.38802" lon="-1.59153">
        <ele>55</ele>
        <time>2023-08-13T10:49:17.099+00:00</time>
      </trkpt>
      <trkpt lat="49.38804" lon="-1.59155">
        <ele>55</ele>
        <time>2023-08-13T10:49:25.259+00:00</time>
      </trkpt>
      <trkpt lat="49.38804" lon="-1.59158">
        <ele>55</ele>
        <time>2023-08-13T10:49:29.696+00:00</time>
      </trkpt>
      <trkpt lat="49.38805" lon="-1.59162">
        <ele>55</ele>
        <time>2023-08-13T10:49:33.733+00:00</time>
      </trkpt>
      <trkpt lat="49.38804" lon="-1.59167">
        <ele>55</ele>
        <time>2023-08-13T10:49:38.288+00:00</time>
      </trkpt>
      <trkpt lat="49.38805" lon="-1.59172">
        <ele>55</ele>
        <time>2023-08-13T10:49:42.893+00:00</time>
      </trkpt>
      <trkpt lat="49.38806" lon="-1.59177">
        <ele>55</ele>
        <time>2023-08-13T10:49:46.897+00:00</time>
      </trkpt>
      <trkpt lat="49.38807" lon="-1.59181">
        <ele>54</ele>
        <time>2023-08-13T10:49:51.704+00:00</time>
      </trkpt>
      <trkpt lat="49.38808" lon="-1.59187">
        <ele>54</ele>
        <time>2023-08-13T10:49:55.638+00:00</time>
      </trkpt>
      <trkpt lat="49.38809" lon="-1.59193">
        <ele>54</ele>
        <time>2023-08-13T10:49:59.617+00:00</time>
      </trkpt>
      <trkpt lat="49.38811" lon="-1.59201">
        <ele>54</ele>
        <time>2023-08-13T10:50:04.816+00:00</time>
      </trkpt>
      <trkpt lat="49.38812" lon="-1.59208">
        <ele>54</ele>
        <time>2023-08-13T10:50:08.933+00:00</time>
      </trkpt>
      <trkpt lat="49.38811" lon="-1.59214">
        <ele>53</ele>
        <time>2023-08-13T10:50:13.363+00:00</time>
      </trkpt>
      <trkpt lat="49.38813" lon="-1.5922">
        <ele>53</ele>
        <time>2023-08-13T10:50:17.767+00:00</time>
      </trkpt>
      <trkpt lat="49.38814" lon="-1.59225">
        <ele>53</ele>
        <time>2023-08-13T10:50:21.843+00:00</time>
      </trkpt>
      <trkpt lat="49.38814" lon="-1.5923">
        <ele>53</ele>
        <time>2023-08-13T10:50:25.860+00:00</time>
      </trkpt>
      <trkpt lat="49.38814" lon="-1.59239">
        <ele>54</ele>
        <time>2023-08-13T10:50:31.126+00:00</time>
      </trkpt>
      <trkpt lat="49.38815" lon="-1.59245">
        <ele>54</ele>
        <time>2023-08-13T10:50:35.798+00:00</time>
      </trkpt>
      <trkpt lat="49.38816" lon="-1.59251">
        <ele>54</ele>
        <time>2023-08-13T10:50:40.255+00:00</time>
      </trkpt>
      <trkpt lat="49.38817" lon="-1.5926">
        <ele>54</ele>
        <time>2023-08-13T10:50:44.927+00:00</time>
      </trkpt>
      <trkpt lat="49.38818" lon="-1.59269">
        <ele>54</ele>
        <time>2023-08-13T10:50:49.121+00:00</time>
      </trkpt>
      <trkpt lat="49.3882" lon="-1.59277">
        <ele>57</ele>
        <time>2023-08-13T10:50:53.674+00:00</time>
      </trkpt>
      <trkpt lat="49.38821" lon="-1.59285">
        <ele>57</ele>
        <time>2023-08-13T10:50:57.628+00:00</time>
      </trkpt>
      <trkpt lat="49.38821" lon="-1.59293">
        <ele>57</ele>
        <time>2023-08-13T10:51:02.302+00:00</time>
      </trkpt>
      <trkpt lat="49.38822" lon="-1.593">
        <ele>57</ele>
        <time>2023-08-13T10:51:06.382+00:00</time>
      </trkpt>
      <trkpt lat="49.38822" lon="-1.59307">
        <ele>57</ele>
        <time>2023-08-13T10:51:11.955+00:00</time>
      </trkpt>
      <trkpt lat="49.38824" lon="-1.59313">
        <ele>57</ele>
        <time>2023-08-13T10:51:16.511+00:00</time>
      </trkpt>
      <trkpt lat="49.38825" lon="-1.59319">
        <ele>57</ele>
        <time>2023-08-13T10:51:20.946+00:00</time>
      </trkpt>
      <trkpt lat="49.38826" lon="-1.59328">
        <ele>57</ele>
        <time>2023-08-13T10:51:25.458+00:00</time>
      </trkpt>
      <trkpt lat="49.38827" lon="-1.59334">
        <ele>57</ele>
        <time>2023-08-13T10:51:29.940+00:00</time>
      </trkpt>
      <trkpt lat="49.38829" lon="-1.59341">
        <ele>57</ele>
        <time>2023-08-13T10:51:33.956+00:00</time>
      </trkpt>
      <trkpt lat="49.3883" lon="-1.59347">
        <ele>57</ele>
        <time>2023-08-13T10:51:37.913+00:00</time>
      </trkpt>
      <trkpt lat="49.3883" lon="-1.59355">
        <ele>57</ele>
        <time>2023-08-13T10:51:42.691+00:00</time>
      </trkpt>
      <trkpt lat="49.3883" lon="-1.59361">
        <ele>57</ele>
        <time>2023-08-13T10:51:46.649+00:00</time>
      </trkpt>
      <trkpt lat="49.38831" lon="-1.59361">
        <ele>57</ele>
        <time>2023-08-13T10:51:50.688+00:00</time>
      </trkpt>
      <trkpt lat="49.38831" lon="-1.59367">
        <ele>57</ele>
        <time>2023-08-13T10:51:55.243+00:00</time>
      </trkpt>
      <trkpt lat="49.3883" lon="-1.59374">
        <ele>57</ele>
        <time>2023-08-13T10:51:59.680+00:00</time>
      </trkpt>
      <trkpt lat="49.38831" lon="-1.59381">
        <ele>57</ele>
        <time>2023-08-13T10:52:04.115+00:00</time>
      </trkpt>
      <trkpt lat="49.38831" lon="-1.59389">
        <ele>57</ele>
        <time>2023-08-13T10:52:08.670+00:00</time>
      </trkpt>
      <trkpt lat="49.38832" lon="-1.59396">
        <ele>57</ele>
        <time>2023-08-13T10:52:13.137+00:00</time>
      </trkpt>
      <trkpt lat="49.38832" lon="-1.59401">
        <ele>57</ele>
        <time>2023-08-13T10:52:17.063+00:00</time>
      </trkpt>
      <trkpt lat="49.38834" lon="-1.59407">
        <ele>57</ele>
        <time>2023-08-13T10:52:21.620+00:00</time>
      </trkpt>
      <trkpt lat="49.38836" lon="-1.59411">
        <ele>57</ele>
        <time>2023-08-13T10:52:26.237+00:00</time>
      </trkpt>
      <trkpt lat="49.38836" lon="-1.59416">
        <ele>57</ele>
        <time>2023-08-13T10:52:30.913+00:00</time>
      </trkpt>
      <trkpt lat="49.38836" lon="-1.59421">
        <ele>57</ele>
        <time>2023-08-13T10:52:35.108+00:00</time>
      </trkpt>
      <trkpt lat="49.38837" lon="-1.59427">
        <ele>57</ele>
        <time>2023-08-13T10:52:39.134+00:00</time>
      </trkpt>
      <trkpt lat="49.38838" lon="-1.59435">
        <ele>56</ele>
        <time>2023-08-13T10:52:43.616+00:00</time>
      </trkpt>
      <trkpt lat="49.38838" lon="-1.5944">
        <ele>56</ele>
        <time>2023-08-13T10:52:47.633+00:00</time>
      </trkpt>
      <trkpt lat="49.38839" lon="-1.59445">
        <ele>56</ele>
        <time>2023-08-13T10:52:52.309+00:00</time>
      </trkpt>
      <trkpt lat="49.3884" lon="-1.5945">
        <ele>56</ele>
        <time>2023-08-13T10:52:56.382+00:00</time>
      </trkpt>
      <trkpt lat="49.38841" lon="-1.59457">
        <ele>56</ele>
        <time>2023-08-13T10:53:00.905+00:00</time>
      </trkpt>
      <trkpt lat="49.38843" lon="-1.59464">
        <ele>56</ele>
        <time>2023-08-13T10:53:05.494+00:00</time>
      </trkpt>
      <trkpt lat="49.38845" lon="-1.5947">
        <ele>56</ele>
        <time>2023-08-13T10:53:09.506+00:00</time>
      </trkpt>
      <trkpt lat="49.38844" lon="-1.59479">
        <ele>56</ele>
        <time>2023-08-13T10:53:14.009+00:00</time>
      </trkpt>
      <trkpt lat="49.38843" lon="-1.59488">
        <ele>55</ele>
        <time>2023-08-13T10:53:18.032+00:00</time>
      </trkpt>
      <trkpt lat="49.38845" lon="-1.59496">
        <ele>55</ele>
        <time>2023-08-13T10:53:23.035+00:00</time>
      </trkpt>
      <trkpt lat="49.38846" lon="-1.59499">
        <ele>55</ele>
        <time>2023-08-13T10:53:27.108+00:00</time>
      </trkpt>
      <trkpt lat="49.38846" lon="-1.595">
        <ele>55</ele>
        <time>2023-08-13T10:53:31.115+00:00</time>
      </trkpt>
      <trkpt lat="49.38846" lon="-1.59503">
        <ele>55</ele>
        <time>2023-08-13T10:53:35.311+00:00</time>
      </trkpt>
      <trkpt lat="49.38847" lon="-1.59509">
        <ele>57</ele>
        <time>2023-08-13T10:53:39.382+00:00</time>
      </trkpt>
      <trkpt lat="49.38847" lon="-1.59516">
        <ele>55</ele>
        <time>2023-08-13T10:53:43.865+00:00</time>
      </trkpt>
      <trkpt lat="49.38848" lon="-1.59523">
        <ele>56</ele>
        <time>2023-08-13T10:53:48.645+00:00</time>
      </trkpt>
      <trkpt lat="49.38848" lon="-1.59529">
        <ele>56</ele>
        <time>2023-08-13T10:53:52.664+00:00</time>
      </trkpt>
      <trkpt lat="49.38849" lon="-1.59535">
        <ele>56</ele>
        <time>2023-08-13T10:53:56.701+00:00</time>
      </trkpt>
      <trkpt lat="49.3885" lon="-1.59542">
        <ele>56</ele>
        <time>2023-08-13T10:54:01.382+00:00</time>
      </trkpt>
      <trkpt lat="49.38851" lon="-1.59549">
        <ele>56</ele>
        <time>2023-08-13T10:54:05.354+00:00</time>
      </trkpt>
      <trkpt lat="49.3885" lon="-1.59553">
        <ele>56</ele>
        <time>2023-08-13T10:54:10.032+00:00</time>
      </trkpt>
      <trkpt lat="49.38851" lon="-1.5956">
        <ele>56</ele>
        <time>2023-08-13T10:54:14.089+00:00</time>
      </trkpt>
      <trkpt lat="49.38852" lon="-1.5957">
        <ele>55</ele>
        <time>2023-08-13T10:54:18.885+00:00</time>
      </trkpt>
      <trkpt lat="49.38852" lon="-1.59578">
        <ele>55</ele>
        <time>2023-08-13T10:54:23.281+00:00</time>
      </trkpt>
      <trkpt lat="49.38852" lon="-1.59585">
        <ele>55</ele>
        <time>2023-08-13T10:54:27.236+00:00</time>
      </trkpt>
      <trkpt lat="49.38854" lon="-1.59593">
        <ele>55</ele>
        <time>2023-08-13T10:54:31.751+00:00</time>
      </trkpt>
      <trkpt lat="49.38856" lon="-1.59602">
        <ele>56</ele>
        <time>2023-08-13T10:54:36.904+00:00</time>
      </trkpt>
      <trkpt lat="49.38856" lon="-1.59609">
        <ele>56</ele>
        <time>2023-08-13T10:54:41.100+00:00</time>
      </trkpt>
      <trkpt lat="49.38856" lon="-1.59615">
        <ele>56</ele>
        <time>2023-08-13T10:54:44.657+00:00</time>
      </trkpt>
      <trkpt lat="49.38858" lon="-1.5962">
        <ele>56</ele>
        <time>2023-08-13T10:54:49.136+00:00</time>
      </trkpt>
      <trkpt lat="49.38859" lon="-1.59623">
        <ele>56</ele>
        <time>2023-08-13T10:54:53.260+00:00</time>
      </trkpt>
      <trkpt lat="49.38861" lon="-1.59628">
        <ele>56</ele>
        <time>2023-08-13T10:54:57.246+00:00</time>
      </trkpt>
      <trkpt lat="49.38862" lon="-1.59636">
        <ele>56</ele>
        <time>2023-08-13T10:55:01.323+00:00</time>
      </trkpt>
      <trkpt lat="49.38862" lon="-1.59644">
        <ele>56</ele>
        <time>2023-08-13T10:55:05.519+00:00</time>
      </trkpt>
      <trkpt lat="49.38863" lon="-1.59651">
        <ele>56</ele>
        <time>2023-08-13T10:55:09.656+00:00</time>
      </trkpt>
      <trkpt lat="49.38864" lon="-1.59659">
        <ele>56</ele>
        <time>2023-08-13T10:55:14.334+00:00</time>
      </trkpt>
      <trkpt lat="49.38864" lon="-1.59665">
        <ele>56</ele>
        <time>2023-08-13T10:55:18.382+00:00</time>
      </trkpt>
      <trkpt lat="49.38864" lon="-1.59671">
        <ele>56</ele>
        <time>2023-08-13T10:55:22.848+00:00</time>
      </trkpt>
      <trkpt lat="49.38865" lon="-1.59676">
        <ele>56</ele>
        <time>2023-08-13T10:55:26.865+00:00</time>
      </trkpt>
      <trkpt lat="49.38868" lon="-1.59682">
        <ele>57</ele>
        <time>2023-08-13T10:55:30.941+00:00</time>
      </trkpt>
      <trkpt lat="49.38869" lon="-1.59688">
        <ele>57</ele>
        <time>2023-08-13T10:55:35.317+00:00</time>
      </trkpt>
      <trkpt lat="49.38871" lon="-1.59696">
        <ele>57</ele>
        <time>2023-08-13T10:55:39.935+00:00</time>
      </trkpt>
      <trkpt lat="49.38871" lon="-1.59701">
        <ele>57</ele>
        <time>2023-08-13T10:55:43.934+00:00</time>
      </trkpt>
      <trkpt lat="49.3887" lon="-1.59707">
        <ele>57</ele>
        <time>2023-08-13T10:55:48.371+00:00</time>
      </trkpt>
      <trkpt lat="49.38869" lon="-1.59714">
        <ele>58</ele>
        <time>2023-08-13T10:55:52.382+00:00</time>
      </trkpt>
      <trkpt lat="49.3887" lon="-1.59721">
        <ele>58</ele>
        <time>2023-08-13T10:55:57.002+00:00</time>
      </trkpt>
      <trkpt lat="49.38871" lon="-1.59722">
        <ele>58</ele>
        <time>2023-08-13T10:56:00.960+00:00</time>
      </trkpt>
      <trkpt lat="49.38871" lon="-1.59725">
        <ele>58</ele>
        <time>2023-08-13T10:56:04.917+00:00</time>
      </trkpt>
      <trkpt lat="49.38871" lon="-1.59731">
        <ele>58</ele>
        <time>2023-08-13T10:56:09.635+00:00</time>
      </trkpt>
      <trkpt lat="49.38872" lon="-1.59738">
        <ele>57</ele>
        <time>2023-08-13T10:56:14.273+00:00</time>
      </trkpt>
      <trkpt lat="49.38872" lon="-1.59744">
        <ele>57</ele>
        <time>2023-08-13T10:56:18.851+00:00</time>
      </trkpt>
      <trkpt lat="49.38871" lon="-1.59747">
        <ele>57</ele>
        <time>2023-08-13T10:56:23.381+00:00</time>
      </trkpt>
      <trkpt lat="49.38871" lon="-1.59751">
        <ele>57</ele>
        <time>2023-08-13T10:56:27.485+00:00</time>
      </trkpt>
      <trkpt lat="49.38867" lon="-1.59755">
        <ele>57</ele>
        <time>2023-08-13T10:56:31.502+00:00</time>
      </trkpt>
      <trkpt lat="49.38863" lon="-1.59756">
        <ele>57</ele>
        <time>2023-08-13T10:56:36.083+00:00</time>
      </trkpt>
      <trkpt lat="49.38858" lon="-1.59756">
        <ele>57</ele>
        <time>2023-08-13T10:56:40.616+00:00</time>
      </trkpt>
      <trkpt lat="49.38855" lon="-1.59759">
        <ele>57</ele>
        <time>2023-08-13T10:56:45.122+00:00</time>
      </trkpt>
      <trkpt lat="49.38851" lon="-1.59763">
        <ele>57</ele>
        <time>2023-08-13T10:56:49.590+00:00</time>
      </trkpt>
      <trkpt lat="49.38845" lon="-1.59764">
        <ele>53</ele>
        <time>2023-08-13T10:56:53.728+00:00</time>
      </trkpt>
      <trkpt lat="49.38841" lon="-1.59765">
        <ele>53</ele>
        <time>2023-08-13T10:56:57.886+00:00</time>
      </trkpt>
      <trkpt lat="49.38837" lon="-1.59767">
        <ele>53</ele>
        <time>2023-08-13T10:57:01.903+00:00</time>
      </trkpt>
      <trkpt lat="49.38833" lon="-1.59769">
        <ele>53</ele>
        <time>2023-08-13T10:57:06.699+00:00</time>
      </trkpt>
      <trkpt lat="49.38829" lon="-1.59771">
        <ele>53</ele>
        <time>2023-08-13T10:57:10.897+00:00</time>
      </trkpt>
      <trkpt lat="49.38823" lon="-1.59771">
        <ele>53</ele>
        <time>2023-08-13T10:57:15.694+00:00</time>
      </trkpt>
      <trkpt lat="49.38819" lon="-1.59771">
        <ele>51</ele>
        <time>2023-08-13T10:57:19.772+00:00</time>
      </trkpt>
      <trkpt lat="49.38817" lon="-1.59771">
        <ele>51</ele>
        <time>2023-08-13T10:57:24.888+00:00</time>
      </trkpt>
      <trkpt lat="49.38817" lon="-1.59772">
        <ele>51</ele>
        <time>2023-08-13T10:57:29.685+00:00</time>
      </trkpt>
      <trkpt lat="49.38813" lon="-1.59774">
        <ele>51</ele>
        <time>2023-08-13T10:57:34.474+00:00</time>
      </trkpt>
      <trkpt lat="49.38809" lon="-1.59779">
        <ele>51</ele>
        <time>2023-08-13T10:57:38.560+00:00</time>
      </trkpt>
      <trkpt lat="49.38808" lon="-1.59785">
        <ele>51</ele>
        <time>2023-08-13T10:57:43.020+00:00</time>
      </trkpt>
      <trkpt lat="49.38809" lon="-1.5979">
        <ele>51</ele>
        <time>2023-08-13T10:57:46.955+00:00</time>
      </trkpt>
      <trkpt lat="49.38808" lon="-1.59797">
        <ele>50</ele>
        <time>2023-08-13T10:57:50.913+00:00</time>
      </trkpt>
      <trkpt lat="49.38807" lon="-1.59802">
        <ele>50</ele>
        <time>2023-08-13T10:57:55.353+00:00</time>
      </trkpt>
      <trkpt lat="49.38806" lon="-1.59805">
        <ele>50</ele>
        <time>2023-08-13T10:57:59.772+00:00</time>
      </trkpt>
      <trkpt lat="49.38803" lon="-1.59808">
        <ele>50</ele>
        <time>2023-08-13T10:58:04.231+00:00</time>
      </trkpt>
      <trkpt lat="49.388" lon="-1.59814">
        <ele>50</ele>
        <time>2023-08-13T10:58:08.650+00:00</time>
      </trkpt>
      <trkpt lat="49.38799" lon="-1.5982">
        <ele>51</ele>
        <time>2023-08-13T10:58:13.328+00:00</time>
      </trkpt>
      <trkpt lat="49.38798" lon="-1.59826">
        <ele>51</ele>
        <time>2023-08-13T10:58:17.382+00:00</time>
      </trkpt>
      <trkpt lat="49.38797" lon="-1.59833">
        <ele>51</ele>
        <time>2023-08-13T10:58:21.884+00:00</time>
      </trkpt>
      <trkpt lat="49.38796" lon="-1.5984">
        <ele>51</ele>
        <time>2023-08-13T10:58:25.962+00:00</time>
      </trkpt>
      <trkpt lat="49.38794" lon="-1.59847">
        <ele>51</ele>
        <time>2023-08-13T10:58:30.621+00:00</time>
      </trkpt>
      <trkpt lat="49.38792" lon="-1.59854">
        <ele>49</ele>
        <time>2023-08-13T10:58:34.597+00:00</time>
      </trkpt>
      <trkpt lat="49.3879" lon="-1.59862">
        <ele>49</ele>
        <time>2023-08-13T10:58:39.095+00:00</time>
      </trkpt>
      <trkpt lat="49.38788" lon="-1.59867">
        <ele>49</ele>
        <time>2023-08-13T10:58:43.121+00:00</time>
      </trkpt>
      <trkpt lat="49.38786" lon="-1.59874">
        <ele>49</ele>
        <time>2023-08-13T10:58:47.668+00:00</time>
      </trkpt>
      <trkpt lat="49.38784" lon="-1.5988">
        <ele>49</ele>
        <time>2023-08-13T10:58:52.222+00:00</time>
      </trkpt>
      <trkpt lat="49.38781" lon="-1.59887">
        <ele>49</ele>
        <time>2023-08-13T10:58:56.297+00:00</time>
      </trkpt>
      <trkpt lat="49.38779" lon="-1.59893">
        <ele>49</ele>
        <time>2023-08-13T10:59:00.934+00:00</time>
      </trkpt>
      <trkpt lat="49.38778" lon="-1.599">
        <ele>49</ele>
        <time>2023-08-13T10:59:04.926+00:00</time>
      </trkpt>
      <trkpt lat="49.38777" lon="-1.59905">
        <ele>49</ele>
        <time>2023-08-13T10:59:09+00:00</time>
      </trkpt>
      <trkpt lat="49.38776" lon="-1.59909">
        <ele>49</ele>
        <time>2023-08-13T10:59:13.554+00:00</time>
      </trkpt>
      <trkpt lat="49.38775" lon="-1.59915">
        <ele>49</ele>
        <time>2023-08-13T10:59:18.109+00:00</time>
      </trkpt>
      <trkpt lat="49.38773" lon="-1.59919">
        <ele>49</ele>
        <time>2023-08-13T10:59:22.275+00:00</time>
      </trkpt>
      <trkpt lat="49.38771" lon="-1.59923">
        <ele>49</ele>
        <time>2023-08-13T10:59:26.257+00:00</time>
      </trkpt>
      <trkpt lat="49.38769" lon="-1.59931">
        <ele>50</ele>
        <time>2023-08-13T10:59:30.932+00:00</time>
      </trkpt>
      <trkpt lat="49.38768" lon="-1.59936">
        <ele>50</ele>
        <time>2023-08-13T10:59:35.487+00:00</time>
      </trkpt>
      <trkpt lat="49.38765" lon="-1.59943">
        <ele>50</ele>
        <time>2023-08-13T10:59:40.126+00:00</time>
      </trkpt>
      <trkpt lat="49.38763" lon="-1.59951">
        <ele>49</ele>
        <time>2023-08-13T10:59:44.712+00:00</time>
      </trkpt>
      <trkpt lat="49.38763" lon="-1.59958">
        <ele>49</ele>
        <time>2023-08-13T10:59:48.647+00:00</time>
      </trkpt>
      <trkpt lat="49.38764" lon="-1.59963">
        <ele>51</ele>
        <time>2023-08-13T10:59:52.720+00:00</time>
      </trkpt>
      <trkpt lat="49.38767" lon="-1.5997">
        <ele>51</ele>
        <time>2023-08-13T11:00:10.815+00:00</time>
      </trkpt>
      <trkpt lat="49.3877" lon="-1.59976">
        <ele>51</ele>
        <time>2023-08-13T11:00:14.827+00:00</time>
      </trkpt>
      <trkpt lat="49.38773" lon="-1.59981">
        <ele>51</ele>
        <time>2023-08-13T11:00:18.899+00:00</time>
      </trkpt>
      <trkpt lat="49.38776" lon="-1.59985">
        <ele>51</ele>
        <time>2023-08-13T11:00:22.973+00:00</time>
      </trkpt>
      <trkpt lat="49.38778" lon="-1.5999">
        <ele>52</ele>
        <time>2023-08-13T11:00:26.928+00:00</time>
      </trkpt>
      <trkpt lat="49.38781" lon="-1.59996">
        <ele>52</ele>
        <time>2023-08-13T11:00:31.601+00:00</time>
      </trkpt>
      <trkpt lat="49.38783" lon="-1.60002">
        <ele>52</ele>
        <time>2023-08-13T11:00:36.132+00:00</time>
      </trkpt>
      <trkpt lat="49.38784" lon="-1.60007">
        <ele>52</ele>
        <time>2023-08-13T11:00:40.707+00:00</time>
      </trkpt>
      <trkpt lat="49.38786" lon="-1.60011">
        <ele>52</ele>
        <time>2023-08-13T11:00:45.259+00:00</time>
      </trkpt>
      <trkpt lat="49.38784" lon="-1.60016">
        <ele>53</ele>
        <time>2023-08-13T11:00:58.382+00:00</time>
      </trkpt>
      <trkpt lat="49.38785" lon="-1.6002">
        <ele>53</ele>
        <time>2023-08-13T11:01:02.906+00:00</time>
      </trkpt>
      <trkpt lat="49.38785" lon="-1.60023">
        <ele>53</ele>
        <time>2023-08-13T11:01:07.098+00:00</time>
      </trkpt>
      <trkpt lat="49.38784" lon="-1.60026">
        <ele>53</ele>
        <time>2023-08-13T11:01:11.649+00:00</time>
      </trkpt>
      <trkpt lat="49.38784" lon="-1.60029">
        <ele>53</ele>
        <time>2023-08-13T11:01:15.721+00:00</time>
      </trkpt>
      <trkpt lat="49.38783" lon="-1.60033">
        <ele>53</ele>
        <time>2023-08-13T11:01:19.674+00:00</time>
      </trkpt>
      <trkpt lat="49.38784" lon="-1.60037">
        <ele>53</ele>
        <time>2023-08-13T11:01:24.130+00:00</time>
      </trkpt>
      <trkpt lat="49.38784" lon="-1.60041">
        <ele>53</ele>
        <time>2023-08-13T11:01:28.656+00:00</time>
      </trkpt>
      <trkpt lat="49.38784" lon="-1.60047">
        <ele>54</ele>
        <time>2023-08-13T11:01:33.111+00:00</time>
      </trkpt>
      <trkpt lat="49.38784" lon="-1.6005">
        <ele>54</ele>
        <time>2023-08-13T11:01:37.221+00:00</time>
      </trkpt>
      <trkpt lat="49.38784" lon="-1.60054">
        <ele>54</ele>
        <time>2023-08-13T11:01:41.655+00:00</time>
      </trkpt>
      <trkpt lat="49.38784" lon="-1.6006">
        <ele>54</ele>
        <time>2023-08-13T11:01:45.728+00:00</time>
      </trkpt>
      <trkpt lat="49.38784" lon="-1.60068">
        <ele>54</ele>
        <time>2023-08-13T11:01:50.280+00:00</time>
      </trkpt>
      <trkpt lat="49.38784" lon="-1.60075">
        <ele>54</ele>
        <time>2023-08-13T11:01:54.815+00:00</time>
      </trkpt>
      <trkpt lat="49.38782" lon="-1.60081">
        <ele>54</ele>
        <time>2023-08-13T11:01:59.263+00:00</time>
      </trkpt>
      <trkpt lat="49.38781" lon="-1.60088">
        <ele>54</ele>
        <time>2023-08-13T11:02:03.757+00:00</time>
      </trkpt>
      <trkpt lat="49.3878" lon="-1.60096">
        <ele>54</ele>
        <time>2023-08-13T11:02:07.886+00:00</time>
      </trkpt>
      <trkpt lat="49.3878" lon="-1.60101">
        <ele>54</ele>
        <time>2023-08-13T11:02:11.959+00:00</time>
      </trkpt>
      <trkpt lat="49.3878" lon="-1.60102">
        <ele>54</ele>
        <time>2023-08-13T11:02:15.911+00:00</time>
      </trkpt>
      <trkpt lat="49.38779" lon="-1.60108">
        <ele>54</ele>
        <time>2023-08-13T11:02:20.382+00:00</time>
      </trkpt>
      <trkpt lat="49.38778" lon="-1.60116">
        <ele>54</ele>
        <time>2023-08-13T11:02:24.933+00:00</time>
      </trkpt>
      <trkpt lat="49.38776" lon="-1.60123">
        <ele>54</ele>
        <time>2023-08-13T11:02:29.486+00:00</time>
      </trkpt>
      <trkpt lat="49.38774" lon="-1.6013">
        <ele>54</ele>
        <time>2023-08-13T11:02:34.123+00:00</time>
      </trkpt>
      <trkpt lat="49.38773" lon="-1.60136">
        <ele>54</ele>
        <time>2023-08-13T11:02:38.108+00:00</time>
      </trkpt>
      <trkpt lat="49.38774" lon="-1.60143">
        <ele>54</ele>
        <time>2023-08-13T11:02:42.300+00:00</time>
      </trkpt>
      <trkpt lat="49.38775" lon="-1.60149">
        <ele>54</ele>
        <time>2023-08-13T11:02:46.382+00:00</time>
      </trkpt>
      <trkpt lat="49.38775" lon="-1.60156">
        <ele>54</ele>
        <time>2023-08-13T11:02:51.124+00:00</time>
      </trkpt>
      <trkpt lat="49.38775" lon="-1.60163">
        <ele>54</ele>
        <time>2023-08-13T11:02:55.860+00:00</time>
      </trkpt>
      <trkpt lat="49.38775" lon="-1.60171">
        <ele>54</ele>
        <time>2023-08-13T11:02:59.815+00:00</time>
      </trkpt>
      <trkpt lat="49.38773" lon="-1.60178">
        <ele>54</ele>
        <time>2023-08-13T11:03:03.830+00:00</time>
      </trkpt>
      <trkpt lat="49.38771" lon="-1.60186">
        <ele>55</ele>
        <time>2023-08-13T11:03:07.905+00:00</time>
      </trkpt>
      <trkpt lat="49.38769" lon="-1.60192">
        <ele>55</ele>
        <time>2023-08-13T11:03:11.921+00:00</time>
      </trkpt>
      <trkpt lat="49.38765" lon="-1.60197">
        <ele>55</ele>
        <time>2023-08-13T11:03:16.937+00:00</time>
      </trkpt>
      <trkpt lat="49.38759" lon="-1.60197">
        <ele>54</ele>
        <time>2023-08-13T11:03:20.890+00:00</time>
      </trkpt>
      <trkpt lat="49.38754" lon="-1.60197">
        <ele>54</ele>
        <time>2023-08-13T11:03:25.382+00:00</time>
      </trkpt>
      <trkpt lat="49.3875" lon="-1.60198">
        <ele>54</ele>
        <time>2023-08-13T11:03:29.860+00:00</time>
      </trkpt>
      <trkpt lat="49.38745" lon="-1.60197">
        <ele>54</ele>
        <time>2023-08-13T11:03:34.295+00:00</time>
      </trkpt>
      <trkpt lat="49.38739" lon="-1.60196">
        <ele>54</ele>
        <time>2023-08-13T11:03:38.382+00:00</time>
      </trkpt>
      <trkpt lat="49.38734" lon="-1.60196">
        <ele>52</ele>
        <time>2023-08-13T11:03:42.905+00:00</time>
      </trkpt>
      <trkpt lat="49.38729" lon="-1.60195">
        <ele>52</ele>
        <time>2023-08-13T11:03:47.100+00:00</time>
      </trkpt>
      <trkpt lat="49.38724" lon="-1.60195">
        <ele>52</ele>
        <time>2023-08-13T11:03:51.657+00:00</time>
      </trkpt>
      <trkpt lat="49.3872" lon="-1.60193">
        <ele>52</ele>
        <time>2023-08-13T11:03:56.272+00:00</time>
      </trkpt>
      <trkpt lat="49.38716" lon="-1.6019">
        <ele>52</ele>
        <time>2023-08-13T11:04:00.306+00:00</time>
      </trkpt>
      <trkpt lat="49.38712" lon="-1.60188">
        <ele>52</ele>
        <time>2023-08-13T11:04:04.839+00:00</time>
      </trkpt>
      <trkpt lat="49.38708" lon="-1.60187">
        <ele>52</ele>
        <time>2023-08-13T11:04:09.271+00:00</time>
      </trkpt>
      <trkpt lat="49.38704" lon="-1.60186">
        <ele>52</ele>
        <time>2023-08-13T11:04:13.822+00:00</time>
      </trkpt>
      <trkpt lat="49.38699" lon="-1.60184">
        <ele>52</ele>
        <time>2023-08-13T11:04:18.375+00:00</time>
      </trkpt>
      <trkpt lat="49.38695" lon="-1.60183">
        <ele>52</ele>
        <time>2023-08-13T11:04:22.926+00:00</time>
      </trkpt>
      <trkpt lat="49.38691" lon="-1.60183">
        <ele>52</ele>
        <time>2023-08-13T11:04:27.119+00:00</time>
      </trkpt>
      <trkpt lat="49.38687" lon="-1.60183">
        <ele>52</ele>
        <time>2023-08-13T11:04:30.654+00:00</time>
      </trkpt>
      <trkpt lat="49.38682" lon="-1.60181">
        <ele>52</ele>
        <time>2023-08-13T11:04:35.326+00:00</time>
      </trkpt>
      <trkpt lat="49.38677" lon="-1.60178">
        <ele>51</ele>
        <time>2023-08-13T11:04:39.941+00:00</time>
      </trkpt>
      <trkpt lat="49.3867" lon="-1.60175">
        <ele>51</ele>
        <time>2023-08-13T11:04:44.108+00:00</time>
      </trkpt>
      <trkpt lat="49.38666" lon="-1.60173">
        <ele>51</ele>
        <time>2023-08-13T11:04:48.686+00:00</time>
      </trkpt>
      <trkpt lat="49.38663" lon="-1.60174">
        <ele>51</ele>
        <time>2023-08-13T11:04:53.358+00:00</time>
      </trkpt>
      <trkpt lat="49.38659" lon="-1.60171">
        <ele>51</ele>
        <time>2023-08-13T11:04:57.311+00:00</time>
      </trkpt>
      <trkpt lat="49.38654" lon="-1.60168">
        <ele>51</ele>
        <time>2023-08-13T11:05:01.505+00:00</time>
      </trkpt>
      <trkpt lat="49.38648" lon="-1.6017">
        <ele>50</ele>
        <time>2023-08-13T11:05:06.133+00:00</time>
      </trkpt>
      <trkpt lat="49.38644" lon="-1.6017">
        <ele>50</ele>
        <time>2023-08-13T11:05:10.607+00:00</time>
      </trkpt>
      <trkpt lat="49.3864" lon="-1.60168">
        <ele>50</ele>
        <time>2023-08-13T11:05:14.540+00:00</time>
      </trkpt>
      <trkpt lat="49.38635" lon="-1.60166">
        <ele>50</ele>
        <time>2023-08-13T11:05:19.090+00:00</time>
      </trkpt>
      <trkpt lat="49.38631" lon="-1.60166">
        <ele>50</ele>
        <time>2023-08-13T11:05:23.111+00:00</time>
      </trkpt>
      <trkpt lat="49.38626" lon="-1.60164">
        <ele>50</ele>
        <time>2023-08-13T11:05:27.713+00:00</time>
      </trkpt>
      <trkpt lat="49.38621" lon="-1.6016">
        <ele>48</ele>
        <time>2023-08-13T11:05:31.903+00:00</time>
      </trkpt>
      <trkpt lat="49.38616" lon="-1.60158">
        <ele>48</ele>
        <time>2023-08-13T11:05:36.692+00:00</time>
      </trkpt>
      <trkpt lat="49.38611" lon="-1.60159">
        <ele>48</ele>
        <time>2023-08-13T11:05:40.882+00:00</time>
      </trkpt>
      <trkpt lat="49.38608" lon="-1.60158">
        <ele>48</ele>
        <time>2023-08-13T11:05:44.792+00:00</time>
      </trkpt>
      <trkpt lat="49.38603" lon="-1.60157">
        <ele>48</ele>
        <time>2023-08-13T11:05:49.382+00:00</time>
      </trkpt>
      <trkpt lat="49.38599" lon="-1.60155">
        <ele>48</ele>
        <time>2023-08-13T11:05:54.102+00:00</time>
      </trkpt>
      <trkpt lat="49.38594" lon="-1.60154">
        <ele>46</ele>
        <time>2023-08-13T11:05:58.282+00:00</time>
      </trkpt>
      <trkpt lat="49.38589" lon="-1.60153">
        <ele>47</ele>
        <time>2023-08-13T11:06:02.712+00:00</time>
      </trkpt>
      <trkpt lat="49.38585" lon="-1.6015">
        <ele>47</ele>
        <time>2023-08-13T11:06:06.823+00:00</time>
      </trkpt>
      <trkpt lat="49.38582" lon="-1.60149">
        <ele>47</ele>
        <time>2023-08-13T11:06:10.854+00:00</time>
      </trkpt>
      <trkpt lat="49.38579" lon="-1.60148">
        <ele>47</ele>
        <time>2023-08-13T11:06:15.815+00:00</time>
      </trkpt>
      <trkpt lat="49.38575" lon="-1.60146">
        <ele>47</ele>
        <time>2023-08-13T11:06:19.833+00:00</time>
      </trkpt>
      <trkpt lat="49.38571" lon="-1.60146">
        <ele>47</ele>
        <time>2023-08-13T11:06:23.825+00:00</time>
      </trkpt>
      <trkpt lat="49.3857" lon="-1.60143">
        <ele>47</ele>
        <time>2023-08-13T11:06:28.853+00:00</time>
      </trkpt>
      <trkpt lat="49.38569" lon="-1.60144">
        <ele>48</ele>
        <time>2023-08-13T11:06:32.924+00:00</time>
      </trkpt>
      <trkpt lat="49.38565" lon="-1.60144">
        <ele>48</ele>
        <time>2023-08-13T11:06:37.576+00:00</time>
      </trkpt>
      <trkpt lat="49.3856" lon="-1.60143">
        <ele>48</ele>
        <time>2023-08-13T11:06:41.528+00:00</time>
      </trkpt>
      <trkpt lat="49.38555" lon="-1.60141">
        <ele>48</ele>
        <time>2023-08-13T11:06:45.916+00:00</time>
      </trkpt>
      <trkpt lat="49.38551" lon="-1.6014">
        <ele>48</ele>
        <time>2023-08-13T11:06:49.494+00:00</time>
      </trkpt>
      <trkpt lat="49.38547" lon="-1.60139">
        <ele>48</ele>
        <time>2023-08-13T11:06:53.566+00:00</time>
      </trkpt>
      <trkpt lat="49.38544" lon="-1.60139">
        <ele>48</ele>
        <time>2023-08-13T11:06:57.599+00:00</time>
      </trkpt>
      <trkpt lat="49.38539" lon="-1.60138">
        <ele>47</ele>
        <time>2023-08-13T11:07:02.112+00:00</time>
      </trkpt>
      <trkpt lat="49.38535" lon="-1.60138">
        <ele>47</ele>
        <time>2023-08-13T11:07:06.082+00:00</time>
      </trkpt>
      <trkpt lat="49.38531" lon="-1.60136">
        <ele>47</ele>
        <time>2023-08-13T11:07:10.033+00:00</time>
      </trkpt>
      <trkpt lat="49.38526" lon="-1.60134">
        <ele>47</ele>
        <time>2023-08-13T11:07:14.126+00:00</time>
      </trkpt>
      <trkpt lat="49.38522" lon="-1.60133">
        <ele>47</ele>
        <time>2023-08-13T11:07:18.656+00:00</time>
      </trkpt>
      <trkpt lat="49.38519" lon="-1.60131">
        <ele>47</ele>
        <time>2023-08-13T11:07:23.124+00:00</time>
      </trkpt>
      <trkpt lat="49.38516" lon="-1.60129">
        <ele>47</ele>
        <time>2023-08-13T11:07:27.116+00:00</time>
      </trkpt>
      <trkpt lat="49.38512" lon="-1.60128">
        <ele>49</ele>
        <time>2023-08-13T11:07:31.112+00:00</time>
      </trkpt>
      <trkpt lat="49.38507" lon="-1.60128">
        <ele>49</ele>
        <time>2023-08-13T11:07:35.663+00:00</time>
      </trkpt>
      <trkpt lat="49.38503" lon="-1.60127">
        <ele>49</ele>
        <time>2023-08-13T11:07:39.616+00:00</time>
      </trkpt>
      <trkpt lat="49.38498" lon="-1.60126">
        <ele>49</ele>
        <time>2023-08-13T11:07:44.646+00:00</time>
      </trkpt>
      <trkpt lat="49.38495" lon="-1.60126">
        <ele>49</ele>
        <time>2023-08-13T11:07:48.718+00:00</time>
      </trkpt>
      <trkpt lat="49.3849" lon="-1.60125">
        <ele>54</ele>
        <time>2023-08-13T11:07:52.873+00:00</time>
      </trkpt>
      <trkpt lat="49.38487" lon="-1.60124">
        <ele>54</ele>
        <time>2023-08-13T11:07:56.828+00:00</time>
      </trkpt>
      <trkpt lat="49.38484" lon="-1.60122">
        <ele>56</ele>
        <time>2023-08-13T11:08:01.503+00:00</time>
      </trkpt>
      <trkpt lat="49.3848" lon="-1.6012">
        <ele>56</ele>
        <time>2023-08-13T11:08:06.122+00:00</time>
      </trkpt>
      <trkpt lat="49.38476" lon="-1.6012">
        <ele>56</ele>
        <time>2023-08-13T11:08:09.950+00:00</time>
      </trkpt>
      <trkpt lat="49.38471" lon="-1.6012">
        <ele>56</ele>
        <time>2023-08-13T11:08:14.501+00:00</time>
      </trkpt>
      <trkpt lat="49.38465" lon="-1.6012">
        <ele>56</ele>
        <time>2023-08-13T11:08:18.935+00:00</time>
      </trkpt>
      <trkpt lat="49.38459" lon="-1.60118">
        <ele>56</ele>
        <time>2023-08-13T11:08:24.100+00:00</time>
      </trkpt>
      <trkpt lat="49.38454" lon="-1.60115">
        <ele>57</ele>
        <time>2023-08-13T11:08:28.279+00:00</time>
      </trkpt>
      <trkpt lat="49.38451" lon="-1.60114">
        <ele>57</ele>
        <time>2023-08-13T11:08:32.231+00:00</time>
      </trkpt>
      <trkpt lat="49.38447" lon="-1.60113">
        <ele>57</ele>
        <time>2023-08-13T11:08:36.663+00:00</time>
      </trkpt>
      <trkpt lat="49.38443" lon="-1.60114">
        <ele>57</ele>
        <time>2023-08-13T11:08:41.094+00:00</time>
      </trkpt>
      <trkpt lat="49.38439" lon="-1.60111">
        <ele>57</ele>
        <time>2023-08-13T11:08:45.268+00:00</time>
      </trkpt>
      <trkpt lat="49.38436" lon="-1.60109">
        <ele>57</ele>
        <time>2023-08-13T11:08:49.323+00:00</time>
      </trkpt>
      <trkpt lat="49.3843" lon="-1.60108">
        <ele>58</ele>
        <time>2023-08-13T11:08:53.377+00:00</time>
      </trkpt>
      <trkpt lat="49.38426" lon="-1.60107">
        <ele>58</ele>
        <time>2023-08-13T11:08:57.382+00:00</time>
      </trkpt>
      <trkpt lat="49.38422" lon="-1.60106">
        <ele>58</ele>
        <time>2023-08-13T11:09:01.382+00:00</time>
      </trkpt>
      <trkpt lat="49.38417" lon="-1.60104">
        <ele>58</ele>
        <time>2023-08-13T11:09:05.918+00:00</time>
      </trkpt>
      <trkpt lat="49.38412" lon="-1.60105">
        <ele>58</ele>
        <time>2023-08-13T11:09:10.113+00:00</time>
      </trkpt>
      <trkpt lat="49.38408" lon="-1.60104">
        <ele>58</ele>
        <time>2023-08-13T11:09:14.848+00:00</time>
      </trkpt>
      <trkpt lat="49.38404" lon="-1.60104">
        <ele>58</ele>
        <time>2023-08-13T11:09:18.883+00:00</time>
      </trkpt>
      <trkpt lat="49.38398" lon="-1.60102">
        <ele>59</ele>
        <time>2023-08-13T11:09:23.556+00:00</time>
      </trkpt>
      <trkpt lat="49.38392" lon="-1.60098">
        <ele>59</ele>
        <time>2023-08-13T11:09:28.110+00:00</time>
      </trkpt>
      <trkpt lat="49.38387" lon="-1.60096">
        <ele>60</ele>
        <time>2023-08-13T11:09:32.304+00:00</time>
      </trkpt>
      <trkpt lat="49.38383" lon="-1.60095">
        <ele>60</ele>
        <time>2023-08-13T11:09:36.858+00:00</time>
      </trkpt>
      <trkpt lat="49.38379" lon="-1.60093">
        <ele>60</ele>
        <time>2023-08-13T11:09:40.930+00:00</time>
      </trkpt>
      <trkpt lat="49.38375" lon="-1.6009">
        <ele>60</ele>
        <time>2023-08-13T11:09:45.124+00:00</time>
      </trkpt>
      <trkpt lat="49.38371" lon="-1.60088">
        <ele>60</ele>
        <time>2023-08-13T11:09:49.130+00:00</time>
      </trkpt>
      <trkpt lat="49.38366" lon="-1.60086">
        <ele>60</ele>
        <time>2023-08-13T11:09:53.876+00:00</time>
      </trkpt>
      <trkpt lat="49.38362" lon="-1.60086">
        <ele>60</ele>
        <time>2023-08-13T11:09:57.857+00:00</time>
      </trkpt>
      <trkpt lat="49.38359" lon="-1.60084">
        <ele>60</ele>
        <time>2023-08-13T11:10:01.930+00:00</time>
      </trkpt>
      <trkpt lat="49.38355" lon="-1.60082">
        <ele>60</ele>
        <time>2023-08-13T11:10:05.824+00:00</time>
      </trkpt>
      <trkpt lat="49.38351" lon="-1.6008">
        <ele>60</ele>
        <time>2023-08-13T11:10:09.857+00:00</time>
      </trkpt>
      <trkpt lat="49.38345" lon="-1.60079">
        <ele>61</ele>
        <time>2023-08-13T11:10:14.879+00:00</time>
      </trkpt>
      <trkpt lat="49.38341" lon="-1.60078">
        <ele>61</ele>
        <time>2023-08-13T11:10:18.901+00:00</time>
      </trkpt>
      <trkpt lat="49.38337" lon="-1.60079">
        <ele>61</ele>
        <time>2023-08-13T11:10:22.974+00:00</time>
      </trkpt>
      <trkpt lat="49.38333" lon="-1.60078">
        <ele>61</ele>
        <time>2023-08-13T11:10:26.928+00:00</time>
      </trkpt>
      <trkpt lat="49.38328" lon="-1.60077">
        <ele>61</ele>
        <time>2023-08-13T11:10:30.883+00:00</time>
      </trkpt>
      <trkpt lat="49.38323" lon="-1.60075">
        <ele>61</ele>
        <time>2023-08-13T11:10:35.382+00:00</time>
      </trkpt>
      <trkpt lat="49.38319" lon="-1.60072">
        <ele>63</ele>
        <time>2023-08-13T11:10:40.345+00:00</time>
      </trkpt>
      <trkpt lat="49.38316" lon="-1.60067">
        <ele>61</ele>
        <time>2023-08-13T11:10:44.877+00:00</time>
      </trkpt>
      <trkpt lat="49.38311" lon="-1.60067">
        <ele>61</ele>
        <time>2023-08-13T11:10:49.523+00:00</time>
      </trkpt>
      <trkpt lat="49.38307" lon="-1.60066">
        <ele>61</ele>
        <time>2023-08-13T11:10:53.505+00:00</time>
      </trkpt>
      <trkpt lat="49.38302" lon="-1.60065">
        <ele>61</ele>
        <time>2023-08-13T11:10:57.696+00:00</time>
      </trkpt>
      <trkpt lat="49.38297" lon="-1.60064">
        <ele>61</ele>
        <time>2023-08-13T11:11:02.153+00:00</time>
      </trkpt>
      <trkpt lat="49.38292" lon="-1.60064">
        <ele>62</ele>
        <time>2023-08-13T11:11:06.685+00:00</time>
      </trkpt>
      <trkpt lat="49.38287" lon="-1.60062">
        <ele>62</ele>
        <time>2023-08-13T11:11:11.177+00:00</time>
      </trkpt>
      <trkpt lat="49.38283" lon="-1.60061">
        <ele>62</ele>
        <time>2023-08-13T11:11:15.289+00:00</time>
      </trkpt>
      <trkpt lat="49.38279" lon="-1.60061">
        <ele>62</ele>
        <time>2023-08-13T11:11:19.242+00:00</time>
      </trkpt>
      <trkpt lat="49.38274" lon="-1.6006">
        <ele>62</ele>
        <time>2023-08-13T11:11:23.914+00:00</time>
      </trkpt>
      <trkpt lat="49.38269" lon="-1.60058">
        <ele>62</ele>
        <time>2023-08-13T11:11:28.106+00:00</time>
      </trkpt>
      <trkpt lat="49.38263" lon="-1.60056">
        <ele>64</ele>
        <time>2023-08-13T11:11:32.800+00:00</time>
      </trkpt>
      <trkpt lat="49.38257" lon="-1.60053">
        <ele>64</ele>
        <time>2023-08-13T11:11:37.250+00:00</time>
      </trkpt>
      <trkpt lat="49.38252" lon="-1.60052">
        <ele>64</ele>
        <time>2023-08-13T11:11:41.662+00:00</time>
      </trkpt>
      <trkpt lat="49.38248" lon="-1.60052">
        <ele>64</ele>
        <time>2023-08-13T11:11:45.735+00:00</time>
      </trkpt>
      <trkpt lat="49.38244" lon="-1.60049">
        <ele>64</ele>
        <time>2023-08-13T11:12:38.805+00:00</time>
      </trkpt>
      <trkpt lat="49.38244" lon="-1.60049">
        <ele>64</ele>
        <time>2023-08-13T11:12:42.881+00:00</time>
      </trkpt>
      <trkpt lat="49.38242" lon="-1.60049">
        <ele>64</ele>
        <time>2023-08-13T11:12:46.837+00:00</time>
      </trkpt>
      <trkpt lat="49.38241" lon="-1.60048">
        <ele>64</ele>
        <time>2023-08-13T11:12:50.912+00:00</time>
      </trkpt>
      <trkpt lat="49.3824" lon="-1.60048">
        <ele>64</ele>
        <time>2023-08-13T11:12:56.150+00:00</time>
      </trkpt>
      <trkpt lat="49.38239" lon="-1.60055">
        <ele>64</ele>
        <time>2023-08-13T11:13:04.753+00:00</time>
      </trkpt>
      <trkpt lat="49.38236" lon="-1.60055">
        <ele>64</ele>
        <time>2023-08-13T11:13:08.709+00:00</time>
      </trkpt>
      <trkpt lat="49.38236" lon="-1.60055">
        <ele>65</ele>
        <time>2023-08-13T11:13:13.925+00:00</time>
      </trkpt>
      <trkpt lat="49.38235" lon="-1.60055">
        <ele>65</ele>
        <time>2023-08-13T11:13:18.119+00:00</time>
      </trkpt>
      <trkpt lat="49.38232" lon="-1.60057">
        <ele>65</ele>
        <time>2023-08-13T11:13:22.313+00:00</time>
      </trkpt>
      <trkpt lat="49.38229" lon="-1.6006">
        <ele>65</ele>
        <time>2023-08-13T11:13:26.507+00:00</time>
      </trkpt>
      <trkpt lat="49.38227" lon="-1.60062">
        <ele>65</ele>
        <time>2023-08-13T11:13:30.703+00:00</time>
      </trkpt>
      <trkpt lat="49.38224" lon="-1.60065">
        <ele>65</ele>
        <time>2023-08-13T11:13:35.497+00:00</time>
      </trkpt>
      <trkpt lat="49.3822" lon="-1.60065">
        <ele>65</ele>
        <time>2023-08-13T11:13:39.573+00:00</time>
      </trkpt>
      <trkpt lat="49.38216" lon="-1.60066">
        <ele>65</ele>
        <time>2023-08-13T11:13:44.008+00:00</time>
      </trkpt>
      <trkpt lat="49.38211" lon="-1.60069">
        <ele>65</ele>
        <time>2023-08-13T11:13:48.083+00:00</time>
      </trkpt>
      <trkpt lat="49.38207" lon="-1.60072">
        <ele>66</ele>
        <time>2023-08-13T11:13:52.158+00:00</time>
      </trkpt>
      <trkpt lat="49.38203" lon="-1.60072">
        <ele>66</ele>
        <time>2023-08-13T11:13:56.712+00:00</time>
      </trkpt>
      <trkpt lat="49.38199" lon="-1.60072">
        <ele>66</ele>
        <time>2023-08-13T11:14:00.907+00:00</time>
      </trkpt>
      <trkpt lat="49.38194" lon="-1.60075">
        <ele>66</ele>
        <time>2023-08-13T11:14:05.580+00:00</time>
      </trkpt>
      <trkpt lat="49.3819" lon="-1.60078">
        <ele>66</ele>
        <time>2023-08-13T11:14:09.956+00:00</time>
      </trkpt>
      <trkpt lat="49.38186" lon="-1.60081">
        <ele>66</ele>
        <time>2023-08-13T11:14:14.382+00:00</time>
      </trkpt>
      <trkpt lat="49.38182" lon="-1.60084">
        <ele>66</ele>
        <time>2023-08-13T11:14:18.382+00:00</time>
      </trkpt>
      <trkpt lat="49.38177" lon="-1.60086">
        <ele>67</ele>
        <time>2023-08-13T11:14:22.943+00:00</time>
      </trkpt>
      <trkpt lat="49.38171" lon="-1.60088">
        <ele>67</ele>
        <time>2023-08-13T11:14:27.617+00:00</time>
      </trkpt>
      <trkpt lat="49.38168" lon="-1.60093">
        <ele>67</ele>
        <time>2023-08-13T11:14:32.112+00:00</time>
      </trkpt>
      <trkpt lat="49.38162" lon="-1.60098">
        <ele>67</ele>
        <time>2023-08-13T11:14:36.860+00:00</time>
      </trkpt>
      <trkpt lat="49.38158" lon="-1.60102">
        <ele>67</ele>
        <time>2023-08-13T11:14:40.862+00:00</time>
      </trkpt>
      <trkpt lat="49.38152" lon="-1.60105">
        <ele>67</ele>
        <time>2023-08-13T11:14:44.698+00:00</time>
      </trkpt>
      <trkpt lat="49.38147" lon="-1.60107">
        <ele>67</ele>
        <time>2023-08-13T11:14:49.372+00:00</time>
      </trkpt>
      <trkpt lat="49.38142" lon="-1.6011">
        <ele>67</ele>
        <time>2023-08-13T11:14:53.768+00:00</time>
      </trkpt>
      <trkpt lat="49.38138" lon="-1.60112">
        <ele>67</ele>
        <time>2023-08-13T11:14:57.722+00:00</time>
      </trkpt>
      <trkpt lat="49.38133" lon="-1.60114">
        <ele>67</ele>
        <time>2023-08-13T11:15:02.382+00:00</time>
      </trkpt>
      <trkpt lat="49.38129" lon="-1.60116">
        <ele>67</ele>
        <time>2023-08-13T11:15:06.950+00:00</time>
      </trkpt>
      <trkpt lat="49.38126" lon="-1.60118">
        <ele>67</ele>
        <time>2023-08-13T11:15:11.085+00:00</time>
      </trkpt>
      <trkpt lat="49.38123" lon="-1.60121">
        <ele>67</ele>
        <time>2023-08-13T11:15:15.118+00:00</time>
      </trkpt>
      <trkpt lat="49.38118" lon="-1.60125">
        <ele>67</ele>
        <time>2023-08-13T11:15:19.711+00:00</time>
      </trkpt>
      <trkpt lat="49.38113" lon="-1.60127">
        <ele>67</ele>
        <time>2023-08-13T11:15:24.264+00:00</time>
      </trkpt>
      <trkpt lat="49.38108" lon="-1.6013">
        <ele>67</ele>
        <time>2023-08-13T11:15:28.338+00:00</time>
      </trkpt>
      <trkpt lat="49.38103" lon="-1.60132">
        <ele>67</ele>
        <time>2023-08-13T11:15:32.890+00:00</time>
      </trkpt>
      <trkpt lat="49.38098" lon="-1.60135">
        <ele>67</ele>
        <time>2023-08-13T11:15:37.618+00:00</time>
      </trkpt>
      <trkpt lat="49.38093" lon="-1.60137">
        <ele>67</ele>
        <time>2023-08-13T11:15:41.998+00:00</time>
      </trkpt>
      <trkpt lat="49.38088" lon="-1.60141">
        <ele>67</ele>
        <time>2023-08-13T11:16:13.740+00:00</time>
      </trkpt>
      <trkpt lat="49.38085" lon="-1.6014">
        <ele>67</ele>
        <time>2023-08-13T11:16:17.757+00:00</time>
      </trkpt>
      <trkpt lat="49.38082" lon="-1.60144">
        <ele>67</ele>
        <time>2023-08-13T11:16:22.265+00:00</time>
      </trkpt>
      <trkpt lat="49.38078" lon="-1.60148">
        <ele>67</ele>
        <time>2023-08-13T11:16:26.807+00:00</time>
      </trkpt>
      <trkpt lat="49.38075" lon="-1.60148">
        <ele>67</ele>
        <time>2023-08-13T11:16:30.909+00:00</time>
      </trkpt>
      <trkpt lat="49.38072" lon="-1.6015">
        <ele>67</ele>
        <time>2023-08-13T11:16:35.309+00:00</time>
      </trkpt>
      <trkpt lat="49.3807" lon="-1.60152">
        <ele>67</ele>
        <time>2023-08-13T11:16:39.650+00:00</time>
      </trkpt>
      <trkpt lat="49.38068" lon="-1.60156">
        <ele>67</ele>
        <time>2023-08-13T11:16:44.693+00:00</time>
      </trkpt>
      <trkpt lat="49.38065" lon="-1.60158">
        <ele>67</ele>
        <time>2023-08-13T11:16:48.914+00:00</time>
      </trkpt>
      <trkpt lat="49.38061" lon="-1.60159">
        <ele>67</ele>
        <time>2023-08-13T11:16:53.335+00:00</time>
      </trkpt>
      <trkpt lat="49.38056" lon="-1.60161">
        <ele>67</ele>
        <time>2023-08-13T11:16:57.495+00:00</time>
      </trkpt>
      <trkpt lat="49.38052" lon="-1.60165">
        <ele>67</ele>
        <time>2023-08-13T11:17:01.896+00:00</time>
      </trkpt>
      <trkpt lat="49.38048" lon="-1.60168">
        <ele>67</ele>
        <time>2023-08-13T11:17:06.093+00:00</time>
      </trkpt>
      <trkpt lat="49.38043" lon="-1.60169">
        <ele>67</ele>
        <time>2023-08-13T11:17:09.672+00:00</time>
      </trkpt>
      <trkpt lat="49.38037" lon="-1.60173">
        <ele>68</ele>
        <time>2023-08-13T11:17:14.250+00:00</time>
      </trkpt>
      <trkpt lat="49.38036" lon="-1.60171">
        <ele>68</ele>
        <time>2023-08-13T11:17:18.859+00:00</time>
      </trkpt>
      <trkpt lat="49.38033" lon="-1.60175">
        <ele>68</ele>
        <time>2023-08-13T11:17:23.901+00:00</time>
      </trkpt>
      <trkpt lat="49.38029" lon="-1.60178">
        <ele>68</ele>
        <time>2023-08-13T11:17:28.095+00:00</time>
      </trkpt>
      <trkpt lat="49.38027" lon="-1.6018">
        <ele>68</ele>
        <time>2023-08-13T11:17:32.649+00:00</time>
      </trkpt>
      <trkpt lat="49.38024" lon="-1.60186">
        <ele>68</ele>
        <time>2023-08-13T11:17:37.322+00:00</time>
      </trkpt>
      <trkpt lat="49.38021" lon="-1.60189">
        <ele>68</ele>
        <time>2023-08-13T11:17:41.994+00:00</time>
      </trkpt>
      <trkpt lat="49.38018" lon="-1.60193">
        <ele>68</ele>
        <time>2023-08-13T11:17:46.382+00:00</time>
      </trkpt>
      <trkpt lat="49.38015" lon="-1.60197">
        <ele>68</ele>
        <time>2023-08-13T11:17:50.941+00:00</time>
      </trkpt>
      <trkpt lat="49.38012" lon="-1.60201">
        <ele>68</ele>
        <time>2023-08-13T11:17:55.732+00:00</time>
      </trkpt>
      <trkpt lat="49.38009" lon="-1.60204">
        <ele>68</ele>
        <time>2023-08-13T11:18:00.284+00:00</time>
      </trkpt>
      <trkpt lat="49.38006" lon="-1.60206">
        <ele>68</ele>
        <time>2023-08-13T11:18:04.382+00:00</time>
      </trkpt>
      <trkpt lat="49.38003" lon="-1.6021">
        <ele>67</ele>
        <time>2023-08-13T11:18:08.911+00:00</time>
      </trkpt>
      <trkpt lat="49.38002" lon="-1.6021">
        <ele>67</ele>
        <time>2023-08-13T11:18:13.706+00:00</time>
      </trkpt>
      <trkpt lat="49.37999" lon="-1.60214">
        <ele>67</ele>
        <time>2023-08-13T11:18:18.294+00:00</time>
      </trkpt>
      <trkpt lat="49.37996" lon="-1.60219">
        <ele>67</ele>
        <time>2023-08-13T11:18:22.646+00:00</time>
      </trkpt>
      <trkpt lat="49.37991" lon="-1.60226">
        <ele>67</ele>
        <time>2023-08-13T11:18:40.050+00:00</time>
      </trkpt>
      <trkpt lat="49.37991" lon="-1.60226">
        <ele>67</ele>
        <time>2023-08-13T11:18:43.949+00:00</time>
      </trkpt>
      <trkpt lat="49.37991" lon="-1.60226">
        <ele>67</ele>
        <time>2023-08-13T11:18:48.618+00:00</time>
      </trkpt>
      <trkpt lat="49.37988" lon="-1.60229">
        <ele>67</ele>
        <time>2023-08-13T11:18:52.656+00:00</time>
      </trkpt>
      <trkpt lat="49.37986" lon="-1.60233">
        <ele>67</ele>
        <time>2023-08-13T11:18:56.619+00:00</time>
      </trkpt>
      <trkpt lat="49.37984" lon="-1.60237">
        <ele>68</ele>
        <time>2023-08-13T11:19:01.113+00:00</time>
      </trkpt>
      <trkpt lat="49.37982" lon="-1.6024">
        <ele>68</ele>
        <time>2023-08-13T11:19:05.314+00:00</time>
      </trkpt>
      <trkpt lat="49.37978" lon="-1.60243">
        <ele>68</ele>
        <time>2023-08-13T11:19:09.911+00:00</time>
      </trkpt>
      <trkpt lat="49.37974" lon="-1.60247">
        <ele>68</ele>
        <time>2023-08-13T11:19:14.029+00:00</time>
      </trkpt>
      <trkpt lat="49.3797" lon="-1.60252">
        <ele>68</ele>
        <time>2023-08-13T11:19:18.210+00:00</time>
      </trkpt>
      <trkpt lat="49.37965" lon="-1.60254">
        <ele>68</ele>
        <time>2023-08-13T11:19:22.872+00:00</time>
      </trkpt>
      <trkpt lat="49.3796" lon="-1.60258">
        <ele>68</ele>
        <time>2023-08-13T11:19:26.833+00:00</time>
      </trkpt>
      <trkpt lat="49.37956" lon="-1.60262">
        <ele>67</ele>
        <time>2023-08-13T11:19:31.838+00:00</time>
      </trkpt>
      <trkpt lat="49.37951" lon="-1.60266">
        <ele>68</ele>
        <time>2023-08-13T11:19:35.851+00:00</time>
      </trkpt>
      <trkpt lat="49.37947" lon="-1.6027">
        <ele>68</ele>
        <time>2023-08-13T11:19:39.689+00:00</time>
      </trkpt>
      <trkpt lat="49.37943" lon="-1.60273">
        <ele>68</ele>
        <time>2023-08-13T11:19:44.207+00:00</time>
      </trkpt>
      <trkpt lat="49.37939" lon="-1.60277">
        <ele>68</ele>
        <time>2023-08-13T11:19:48.507+00:00</time>
      </trkpt>
      <trkpt lat="49.37933" lon="-1.60286">
        <ele>68</ele>
        <time>2023-08-13T11:20:05.903+00:00</time>
      </trkpt>
      <trkpt lat="49.37933" lon="-1.60286">
        <ele>68</ele>
        <time>2023-08-13T11:20:09.902+00:00</time>
      </trkpt>
      <trkpt lat="49.37933" lon="-1.60286">
        <ele>68</ele>
        <time>2023-08-13T11:20:14.722+00:00</time>
      </trkpt>
      <trkpt lat="49.37932" lon="-1.60288">
        <ele>68</ele>
        <time>2023-08-13T11:20:19.098+00:00</time>
      </trkpt>
      <trkpt lat="49.37929" lon="-1.60292">
        <ele>69</ele>
        <time>2023-08-13T11:20:23.094+00:00</time>
      </trkpt>
      <trkpt lat="49.37924" lon="-1.60297">
        <ele>69</ele>
        <time>2023-08-13T11:20:40.682+00:00</time>
      </trkpt>
      <trkpt lat="49.37923" lon="-1.60297">
        <ele>69</ele>
        <time>2023-08-13T11:20:45.704+00:00</time>
      </trkpt>
      <trkpt lat="49.37922" lon="-1.60299">
        <ele>69</ele>
        <time>2023-08-13T11:20:50.227+00:00</time>
      </trkpt>
      <trkpt lat="49.37917" lon="-1.60302">
        <ele>69</ele>
        <time>2023-08-13T11:20:54.744+00:00</time>
      </trkpt>
      <trkpt lat="49.37912" lon="-1.60304">
        <ele>69</ele>
        <time>2023-08-13T11:20:58.753+00:00</time>
      </trkpt>
      <trkpt lat="49.37908" lon="-1.60302">
        <ele>69</ele>
        <time>2023-08-13T11:21:03.261+00:00</time>
      </trkpt>
      <trkpt lat="49.37902" lon="-1.60304">
        <ele>71</ele>
        <time>2023-08-13T11:21:07.765+00:00</time>
      </trkpt>
      <trkpt lat="49.37897" lon="-1.60304">
        <ele>71</ele>
        <time>2023-08-13T11:21:12.006+00:00</time>
      </trkpt>
      <trkpt lat="49.37892" lon="-1.60302">
        <ele>71</ele>
        <time>2023-08-13T11:21:15.966+00:00</time>
      </trkpt>
      <trkpt lat="49.37888" lon="-1.60303">
        <ele>71</ele>
        <time>2023-08-13T11:21:20.109+00:00</time>
      </trkpt>
      <trkpt lat="49.37887" lon="-1.60301">
        <ele>71</ele>
        <time>2023-08-13T11:21:23.688+00:00</time>
      </trkpt>
      <trkpt lat="49.37883" lon="-1.60309">
        <ele>71</ele>
        <time>2023-08-13T11:21:28.029+00:00</time>
      </trkpt>
      <trkpt lat="49.37877" lon="-1.60313">
        <ele>71</ele>
        <time>2023-08-13T11:21:32.987+00:00</time>
      </trkpt>
      <trkpt lat="49.37871" lon="-1.60317">
        <ele>72</ele>
        <time>2023-08-13T11:21:37.307+00:00</time>
      </trkpt>
      <trkpt lat="49.37866" lon="-1.60318">
        <ele>72</ele>
        <time>2023-08-13T11:21:41.382+00:00</time>
      </trkpt>
      <trkpt lat="49.37861" lon="-1.60318">
        <ele>72</ele>
        <time>2023-08-13T11:21:45.884+00:00</time>
      </trkpt>
      <trkpt lat="49.37856" lon="-1.6032">
        <ele>74</ele>
        <time>2023-08-13T11:21:50.441+00:00</time>
      </trkpt>
      <trkpt lat="49.37851" lon="-1.60323">
        <ele>74</ele>
        <time>2023-08-13T11:21:54.579+00:00</time>
      </trkpt>
      <trkpt lat="49.37847" lon="-1.60322">
        <ele>74</ele>
        <time>2023-08-13T11:21:58.958+00:00</time>
      </trkpt>
      <trkpt lat="49.37843" lon="-1.60323">
        <ele>74</ele>
        <time>2023-08-13T11:22:02.798+00:00</time>
      </trkpt>
      <trkpt lat="49.37839" lon="-1.60326">
        <ele>74</ele>
        <time>2023-08-13T11:22:07.019+00:00</time>
      </trkpt>
      <trkpt lat="49.37834" lon="-1.60329">
        <ele>74</ele>
        <time>2023-08-13T11:22:11.382+00:00</time>
      </trkpt>
      <trkpt lat="49.37829" lon="-1.60331">
        <ele>74</ele>
        <time>2023-08-13T11:22:15.898+00:00</time>
      </trkpt>
      <trkpt lat="49.37825" lon="-1.60332">
        <ele>74</ele>
        <time>2023-08-13T11:22:19.898+00:00</time>
      </trkpt>
      <trkpt lat="49.37821" lon="-1.60332">
        <ele>74</ele>
        <time>2023-08-13T11:22:23.937+00:00</time>
      </trkpt>
      <trkpt lat="49.37815" lon="-1.60334">
        <ele>73</ele>
        <time>2023-08-13T11:22:29.151+00:00</time>
      </trkpt>
      <trkpt lat="49.3781" lon="-1.60334">
        <ele>73</ele>
        <time>2023-08-13T11:22:33.333+00:00</time>
      </trkpt>
      <trkpt lat="49.37805" lon="-1.60335">
        <ele>73</ele>
        <time>2023-08-13T11:22:38.090+00:00</time>
      </trkpt>
      <trkpt lat="49.37799" lon="-1.60335">
        <ele>73</ele>
        <time>2023-08-13T11:22:42.127+00:00</time>
      </trkpt>
      <trkpt lat="49.37794" lon="-1.60334">
        <ele>73</ele>
        <time>2023-08-13T11:22:45.967+00:00</time>
      </trkpt>
      <trkpt lat="49.3779" lon="-1.60333">
        <ele>73</ele>
        <time>2023-08-13T11:22:50.086+00:00</time>
      </trkpt>
      <trkpt lat="49.37786" lon="-1.60332">
        <ele>73</ele>
        <time>2023-08-13T11:22:54.198+00:00</time>
      </trkpt>
      <trkpt lat="49.37782" lon="-1.60328">
        <ele>73</ele>
        <time>2023-08-13T11:22:58.644+00:00</time>
      </trkpt>
      <trkpt lat="49.3778" lon="-1.60328">
        <ele>73</ele>
        <time>2023-08-13T11:23:02.886+00:00</time>
      </trkpt>
      <trkpt lat="49.37779" lon="-1.60328">
        <ele>73</ele>
        <time>2023-08-13T11:23:07.398+00:00</time>
      </trkpt>
      <trkpt lat="49.37772" lon="-1.60327">
        <ele>73</ele>
        <time>2023-08-13T11:23:11.406+00:00</time>
      </trkpt>
      <trkpt lat="49.37766" lon="-1.60326">
        <ele>73</ele>
        <time>2023-08-13T11:23:15.913+00:00</time>
      </trkpt>
      <trkpt lat="49.3776" lon="-1.60327">
        <ele>75</ele>
        <time>2023-08-13T11:23:19.916+00:00</time>
      </trkpt>
      <trkpt lat="49.37754" lon="-1.60325">
        <ele>75</ele>
        <time>2023-08-13T11:23:24.158+00:00</time>
      </trkpt>
      <trkpt lat="49.37749" lon="-1.60321">
        <ele>75</ele>
        <time>2023-08-13T11:23:28.161+00:00</time>
      </trkpt>
      <trkpt lat="49.37745" lon="-1.60319">
        <ele>73</ele>
        <time>2023-08-13T11:23:32.782+00:00</time>
      </trkpt>
      <trkpt lat="49.3774" lon="-1.60317">
        <ele>73</ele>
        <time>2023-08-13T11:23:36.863+00:00</time>
      </trkpt>
      <trkpt lat="49.37736" lon="-1.60315">
        <ele>74</ele>
        <time>2023-08-13T11:23:40.865+00:00</time>
      </trkpt>
      <trkpt lat="49.3773" lon="-1.60312">
        <ele>74</ele>
        <time>2023-08-13T11:23:45.644+00:00</time>
      </trkpt>
      <trkpt lat="49.37726" lon="-1.6031">
        <ele>74</ele>
        <time>2023-08-13T11:23:50.024+00:00</time>
      </trkpt>
      <trkpt lat="49.37722" lon="-1.60308">
        <ele>74</ele>
        <time>2023-08-13T11:23:54.305+00:00</time>
      </trkpt>
      <trkpt lat="49.37717" lon="-1.60305">
        <ele>74</ele>
        <time>2023-08-13T11:23:58.904+00:00</time>
      </trkpt>
      <trkpt lat="49.37712" lon="-1.60303">
        <ele>74</ele>
        <time>2023-08-13T11:24:03.463+00:00</time>
      </trkpt>
      <trkpt lat="49.37707" lon="-1.60299">
        <ele>75</ele>
        <time>2023-08-13T11:24:08.014+00:00</time>
      </trkpt>
      <trkpt lat="49.37703" lon="-1.60296">
        <ele>75</ele>
        <time>2023-08-13T11:24:11.901+00:00</time>
      </trkpt>
      <trkpt lat="49.37698" lon="-1.60294">
        <ele>75</ele>
        <time>2023-08-13T11:24:16.382+00:00</time>
      </trkpt>
      <trkpt lat="49.37693" lon="-1.60292">
        <ele>75</ele>
        <time>2023-08-13T11:24:20.496+00:00</time>
      </trkpt>
      <trkpt lat="49.37689" lon="-1.6029">
        <ele>73</ele>
        <time>2023-08-13T11:24:24.874+00:00</time>
      </trkpt>
      <trkpt lat="49.37685" lon="-1.60291">
        <ele>73</ele>
        <time>2023-08-13T11:24:29.312+00:00</time>
      </trkpt>
      <trkpt lat="49.3768" lon="-1.60287">
        <ele>74</ele>
        <time>2023-08-13T11:24:33.272+00:00</time>
      </trkpt>
      <trkpt lat="49.37676" lon="-1.60284">
        <ele>74</ele>
        <time>2023-08-13T11:24:37.231+00:00</time>
      </trkpt>
      <trkpt lat="49.37672" lon="-1.60281">
        <ele>74</ele>
        <time>2023-08-13T11:24:41.650+00:00</time>
      </trkpt>
      <trkpt lat="49.37667" lon="-1.60279">
        <ele>74</ele>
        <time>2023-08-13T11:24:46.108+00:00</time>
      </trkpt>
      <trkpt lat="49.37661" lon="-1.60277">
        <ele>74</ele>
        <time>2023-08-13T11:24:50.305+00:00</time>
      </trkpt>
      <trkpt lat="49.37656" lon="-1.60275">
        <ele>74</ele>
        <time>2023-08-13T11:24:54.503+00:00</time>
      </trkpt>
      <trkpt lat="49.3765" lon="-1.60272">
        <ele>76</ele>
        <time>2023-08-13T11:24:58.641+00:00</time>
      </trkpt>
      <trkpt lat="49.37645" lon="-1.6027">
        <ele>76</ele>
        <time>2023-08-13T11:25:03.120+00:00</time>
      </trkpt>
      <trkpt lat="49.3764" lon="-1.60268">
        <ele>76</ele>
        <time>2023-08-13T11:25:07.198+00:00</time>
      </trkpt>
      <trkpt lat="49.37636" lon="-1.60266">
        <ele>76</ele>
        <time>2023-08-13T11:25:11.177+00:00</time>
      </trkpt>
      <trkpt lat="49.3763" lon="-1.60267">
        <ele>76</ele>
        <time>2023-08-13T11:25:15.557+00:00</time>
      </trkpt>
      <trkpt lat="49.37625" lon="-1.60266">
        <ele>75</ele>
        <time>2023-08-13T11:25:20.128+00:00</time>
      </trkpt>
      <trkpt lat="49.37619" lon="-1.60265">
        <ele>75</ele>
        <time>2023-08-13T11:25:24.712+00:00</time>
      </trkpt>
      <trkpt lat="49.37618" lon="-1.60259">
        <ele>72</ele>
        <time>2023-08-13T11:25:28.730+00:00</time>
      </trkpt>
      <trkpt lat="49.37611" lon="-1.60254">
        <ele>72</ele>
        <time>2023-08-13T11:25:33.844+00:00</time>
      </trkpt>
      <trkpt lat="49.37612" lon="-1.60256">
        <ele>72</ele>
        <time>2023-08-13T11:26:04.949+00:00</time>
      </trkpt>
      <trkpt lat="49.37605" lon="-1.60261">
        <ele>72</ele>
        <time>2023-08-13T11:26:09.959+00:00</time>
      </trkpt>
      <trkpt lat="49.376" lon="-1.60258">
        <ele>72</ele>
        <time>2023-08-13T11:26:13.963+00:00</time>
      </trkpt>
      <trkpt lat="49.37595" lon="-1.60259">
        <ele>71</ele>
        <time>2023-08-13T11:26:17.966+00:00</time>
      </trkpt>
      <trkpt lat="49.3759" lon="-1.60259">
        <ele>71</ele>
        <time>2023-08-13T11:26:22.587+00:00</time>
      </trkpt>
      <trkpt lat="49.37586" lon="-1.60254">
        <ele>71</ele>
        <time>2023-08-13T11:26:26.590+00:00</time>
      </trkpt>
      <trkpt lat="49.37581" lon="-1.60252">
        <ele>71</ele>
        <time>2023-08-13T11:26:31.093+00:00</time>
      </trkpt>
      <trkpt lat="49.37577" lon="-1.6025">
        <ele>71</ele>
        <time>2023-08-13T11:26:35.097+00:00</time>
      </trkpt>
      <trkpt lat="49.37571" lon="-1.60251">
        <ele>71</ele>
        <time>2023-08-13T11:26:38.700+00:00</time>
      </trkpt>
      <trkpt lat="49.37566" lon="-1.6025">
        <ele>72</ele>
        <time>2023-08-13T11:26:43.203+00:00</time>
      </trkpt>
      <trkpt lat="49.37561" lon="-1.60248">
        <ele>72</ele>
        <time>2023-08-13T11:26:47.204+00:00</time>
      </trkpt>
      <trkpt lat="49.37557" lon="-1.60246">
        <ele>72</ele>
        <time>2023-08-13T11:26:51.227+00:00</time>
      </trkpt>
      <trkpt lat="49.37552" lon="-1.60245">
        <ele>72</ele>
        <time>2023-08-13T11:26:55.749+00:00</time>
      </trkpt>
      <trkpt lat="49.37547" lon="-1.60247">
        <ele>72</ele>
        <time>2023-08-13T11:27:00.430+00:00</time>
      </trkpt>
      <trkpt lat="49.37542" lon="-1.60245">
        <ele>72</ele>
        <time>2023-08-13T11:27:04.611+00:00</time>
      </trkpt>
      <trkpt lat="49.37536" lon="-1.60243">
        <ele>72</ele>
        <time>2023-08-13T11:27:08.772+00:00</time>
      </trkpt>
      <trkpt lat="49.37532" lon="-1.6024">
        <ele>72</ele>
        <time>2023-08-13T11:27:13.132+00:00</time>
      </trkpt>
      <trkpt lat="49.37527" lon="-1.60241">
        <ele>72</ele>
        <time>2023-08-13T11:27:17.382+00:00</time>
      </trkpt>
      <trkpt lat="49.37522" lon="-1.60243">
        <ele>72</ele>
        <time>2023-08-13T11:27:21.382+00:00</time>
      </trkpt>
      <trkpt lat="49.37516" lon="-1.60245">
        <ele>72</ele>
        <time>2023-08-13T11:27:25.994+00:00</time>
      </trkpt>
      <trkpt lat="49.37511" lon="-1.60246">
        <ele>72</ele>
        <time>2023-08-13T11:27:30.116+00:00</time>
      </trkpt>
      <trkpt lat="49.37506" lon="-1.60247">
        <ele>72</ele>
        <time>2023-08-13T11:27:35.129+00:00</time>
      </trkpt>
      <trkpt lat="49.37502" lon="-1.6025">
        <ele>72</ele>
        <time>2023-08-13T11:27:38.916+00:00</time>
      </trkpt>
      <trkpt lat="49.37496" lon="-1.60252">
        <ele>72</ele>
        <time>2023-08-13T11:27:43.620+00:00</time>
      </trkpt>
      <trkpt lat="49.37492" lon="-1.60251">
        <ele>72</ele>
        <time>2023-08-13T11:27:47.577+00:00</time>
      </trkpt>
      <trkpt lat="49.37486" lon="-1.60252">
        <ele>72</ele>
        <time>2023-08-13T11:27:51.877+00:00</time>
      </trkpt>
      <trkpt lat="49.37482" lon="-1.60254">
        <ele>68</ele>
        <time>2023-08-13T11:27:55.856+00:00</time>
      </trkpt>
      <trkpt lat="49.37477" lon="-1.60256">
        <ele>68</ele>
        <time>2023-08-13T11:28:00.493+00:00</time>
      </trkpt>
      <trkpt lat="49.37473" lon="-1.60258">
        <ele>68</ele>
        <time>2023-08-13T11:28:04.652+00:00</time>
      </trkpt>
      <trkpt lat="49.37468" lon="-1.6026">
        <ele>68</ele>
        <time>2023-08-13T11:28:08.711+00:00</time>
      </trkpt>
      <trkpt lat="49.37463" lon="-1.60262">
        <ele>68</ele>
        <time>2023-08-13T11:28:12.908+00:00</time>
      </trkpt>
      <trkpt lat="49.37459" lon="-1.60264">
        <ele>72</ele>
        <time>2023-08-13T11:28:17.106+00:00</time>
      </trkpt>
      <trkpt lat="49.37455" lon="-1.60266">
        <ele>69</ele>
        <time>2023-08-13T11:28:21.128+00:00</time>
      </trkpt>
      <trkpt lat="49.3745" lon="-1.60269">
        <ele>69</ele>
        <time>2023-08-13T11:28:25.447+00:00</time>
      </trkpt>
      <trkpt lat="49.37445" lon="-1.60272">
        <ele>69</ele>
        <time>2023-08-13T11:28:29.382+00:00</time>
      </trkpt>
      <trkpt lat="49.37439" lon="-1.60274">
        <ele>69</ele>
        <time>2023-08-13T11:28:33.917+00:00</time>
      </trkpt>
      <trkpt lat="49.37435" lon="-1.60277">
        <ele>69</ele>
        <time>2023-08-13T11:28:38.061+00:00</time>
      </trkpt>
      <trkpt lat="49.37429" lon="-1.60279">
        <ele>68</ele>
        <time>2023-08-13T11:28:43.120+00:00</time>
      </trkpt>
      <trkpt lat="49.37425" lon="-1.60283">
        <ele>68</ele>
        <time>2023-08-13T11:28:47.674+00:00</time>
      </trkpt>
      <trkpt lat="49.3742" lon="-1.60286">
        <ele>68</ele>
        <time>2023-08-13T11:28:52.211+00:00</time>
      </trkpt>
      <trkpt lat="49.37416" lon="-1.60288">
        <ele>68</ele>
        <time>2023-08-13T11:28:56.210+00:00</time>
      </trkpt>
      <trkpt lat="49.37413" lon="-1.60284">
        <ele>68</ele>
        <time>2023-08-13T11:29:00.819+00:00</time>
      </trkpt>
      <trkpt lat="49.37409" lon="-1.60292">
        <ele>70</ele>
        <time>2023-08-13T11:29:04.626+00:00</time>
      </trkpt>
      <trkpt lat="49.37405" lon="-1.60296">
        <ele>70</ele>
        <time>2023-08-13T11:29:09.130+00:00</time>
      </trkpt>
      <trkpt lat="49.374" lon="-1.603">
        <ele>67</ele>
        <time>2023-08-13T11:29:13.721+00:00</time>
      </trkpt>
      <trkpt lat="49.37397" lon="-1.60305">
        <ele>67</ele>
        <time>2023-08-13T11:29:18.220+00:00</time>
      </trkpt>
      <trkpt lat="49.37394" lon="-1.60311">
        <ele>67</ele>
        <time>2023-08-13T11:29:22.660+00:00</time>
      </trkpt>
      <trkpt lat="49.37391" lon="-1.60315">
        <ele>67</ele>
        <time>2023-08-13T11:29:26.718+00:00</time>
      </trkpt>
      <trkpt lat="49.37391" lon="-1.60317">
        <ele>67</ele>
        <time>2023-08-13T11:29:30.914+00:00</time>
      </trkpt>
      <trkpt lat="49.37391" lon="-1.60324">
        <ele>69</ele>
        <time>2023-08-13T11:29:35.652+00:00</time>
      </trkpt>
      <trkpt lat="49.37392" lon="-1.60329">
        <ele>69</ele>
        <time>2023-08-13T11:29:39.651+00:00</time>
      </trkpt>
      <trkpt lat="49.37393" lon="-1.60335">
        <ele>69</ele>
        <time>2023-08-13T11:29:43.932+00:00</time>
      </trkpt>
      <trkpt lat="49.37394" lon="-1.60339">
        <ele>69</ele>
        <time>2023-08-13T11:29:48.153+00:00</time>
      </trkpt>
      <trkpt lat="49.37395" lon="-1.60345">
        <ele>69</ele>
        <time>2023-08-13T11:29:52.512+00:00</time>
      </trkpt>
      <trkpt lat="49.37396" lon="-1.60352">
        <ele>71</ele>
        <time>2023-08-13T11:29:57.108+00:00</time>
      </trkpt>
      <trkpt lat="49.37397" lon="-1.60358">
        <ele>71</ele>
        <time>2023-08-13T11:30:01.114+00:00</time>
      </trkpt>
      <trkpt lat="49.37399" lon="-1.60364">
        <ele>71</ele>
        <time>2023-08-13T11:30:04.964+00:00</time>
      </trkpt>
      <trkpt lat="49.37401" lon="-1.60369">
        <ele>71</ele>
        <time>2023-08-13T11:30:09.720+00:00</time>
      </trkpt>
      <trkpt lat="49.37402" lon="-1.60374">
        <ele>71</ele>
        <time>2023-08-13T11:30:13.800+00:00</time>
      </trkpt>
      <trkpt lat="49.37402" lon="-1.60381">
        <ele>72</ele>
        <time>2023-08-13T11:30:17.816+00:00</time>
      </trkpt>
      <trkpt lat="49.37401" lon="-1.60388">
        <ele>72</ele>
        <time>2023-08-13T11:30:21.853+00:00</time>
      </trkpt>
      <trkpt lat="49.374" lon="-1.60395">
        <ele>72</ele>
        <time>2023-08-13T11:30:26.292+00:00</time>
      </trkpt>
      <trkpt lat="49.37398" lon="-1.60401">
        <ele>72</ele>
        <time>2023-08-13T11:30:30.657+00:00</time>
      </trkpt>
      <trkpt lat="49.37398" lon="-1.60407">
        <ele>72</ele>
        <time>2023-08-13T11:30:34.655+00:00</time>
      </trkpt>
      <trkpt lat="49.37397" lon="-1.60416">
        <ele>72</ele>
        <time>2023-08-13T11:30:39.110+00:00</time>
      </trkpt>
      <trkpt lat="49.37395" lon="-1.60423">
        <ele>72</ele>
        <time>2023-08-13T11:30:42.952+00:00</time>
      </trkpt>
      <trkpt lat="49.37395" lon="-1.60431">
        <ele>73</ele>
        <time>2023-08-13T11:30:47.603+00:00</time>
      </trkpt>
      <trkpt lat="49.37395" lon="-1.60439">
        <ele>73</ele>
        <time>2023-08-13T11:30:51.529+00:00</time>
      </trkpt>
      <trkpt lat="49.37396" lon="-1.60447">
        <ele>73</ele>
        <time>2023-08-13T11:30:55.968+00:00</time>
      </trkpt>
      <trkpt lat="49.37395" lon="-1.60455">
        <ele>73</ele>
        <time>2023-08-13T11:31:00.487+00:00</time>
      </trkpt>
      <trkpt lat="49.37395" lon="-1.60463">
        <ele>74</ele>
        <time>2023-08-13T11:31:04.967+00:00</time>
      </trkpt>
      <trkpt lat="49.37395" lon="-1.60471">
        <ele>74</ele>
        <time>2023-08-13T11:31:09.129+00:00</time>
      </trkpt>
      <trkpt lat="49.37395" lon="-1.60479">
        <ele>74</ele>
        <time>2023-08-13T11:31:13.204+00:00</time>
      </trkpt>
      <trkpt lat="49.37395" lon="-1.60487">
        <ele>74</ele>
        <time>2023-08-13T11:31:17.704+00:00</time>
      </trkpt>
      <trkpt lat="49.37394" lon="-1.60493">
        <ele>74</ele>
        <time>2023-08-13T11:31:22.117+00:00</time>
      </trkpt>
      <trkpt lat="49.37394" lon="-1.60499">
        <ele>74</ele>
        <time>2023-08-13T11:31:26.642+00:00</time>
      </trkpt>
      <trkpt lat="49.37393" lon="-1.60505">
        <ele>74</ele>
        <time>2023-08-13T11:31:30.540+00:00</time>
      </trkpt>
      <trkpt lat="49.37393" lon="-1.6051">
        <ele>74</ele>
        <time>2023-08-13T11:31:35.126+00:00</time>
      </trkpt>
      <trkpt lat="49.37393" lon="-1.60517">
        <ele>73</ele>
        <time>2023-08-13T11:31:39.655+00:00</time>
      </trkpt>
      <trkpt lat="49.37393" lon="-1.60525">
        <ele>73</ele>
        <time>2023-08-13T11:31:44.124+00:00</time>
      </trkpt>
      <trkpt lat="49.37393" lon="-1.60533">
        <ele>73</ele>
        <time>2023-08-13T11:31:48.653+00:00</time>
      </trkpt>
      <trkpt lat="49.37392" lon="-1.60542">
        <ele>73</ele>
        <time>2023-08-13T11:31:53.112+00:00</time>
      </trkpt>
      <trkpt lat="49.37391" lon="-1.6055">
        <ele>73</ele>
        <time>2023-08-13T11:31:57.309+00:00</time>
      </trkpt>
      <trkpt lat="49.3739" lon="-1.60557">
        <ele>73</ele>
        <time>2023-08-13T11:32:01.506+00:00</time>
      </trkpt>
      <trkpt lat="49.37389" lon="-1.60566">
        <ele>73</ele>
        <time>2023-08-13T11:32:05.703+00:00</time>
      </trkpt>
      <trkpt lat="49.3739" lon="-1.60574">
        <ele>72</ele>
        <time>2023-08-13T11:32:09.900+00:00</time>
      </trkpt>
      <trkpt lat="49.3739" lon="-1.60584">
        <ele>72</ele>
        <time>2023-08-13T11:32:14.697+00:00</time>
      </trkpt>
      <trkpt lat="49.37389" lon="-1.60593">
        <ele>72</ele>
        <time>2023-08-13T11:32:19.333+00:00</time>
      </trkpt>
      <trkpt lat="49.37388" lon="-1.60599">
        <ele>71</ele>
        <time>2023-08-13T11:32:23.290+00:00</time>
      </trkpt>
      <trkpt lat="49.37387" lon="-1.60606">
        <ele>71</ele>
        <time>2023-08-13T11:32:27.825+00:00</time>
      </trkpt>
      <trkpt lat="49.37387" lon="-1.60613">
        <ele>71</ele>
        <time>2023-08-13T11:32:31.900+00:00</time>
      </trkpt>
      <trkpt lat="49.37387" lon="-1.60623">
        <ele>71</ele>
        <time>2023-08-13T11:32:36.382+00:00</time>
      </trkpt>
      <trkpt lat="49.37387" lon="-1.60631">
        <ele>72</ele>
        <time>2023-08-13T11:32:40.870+00:00</time>
      </trkpt>
      <trkpt lat="49.37386" lon="-1.6064">
        <ele>72</ele>
        <time>2023-08-13T11:32:45.376+00:00</time>
      </trkpt>
      <trkpt lat="49.37383" lon="-1.60646">
        <ele>72</ele>
        <time>2023-08-13T11:32:50.026+00:00</time>
      </trkpt>
      <trkpt lat="49.37383" lon="-1.60651">
        <ele>72</ele>
        <time>2023-08-13T11:32:53.916+00:00</time>
      </trkpt>
      <trkpt lat="49.37384" lon="-1.60661">
        <ele>72</ele>
        <time>2023-08-13T11:32:58.382+00:00</time>
      </trkpt>
      <trkpt lat="49.37383" lon="-1.60669">
        <ele>72</ele>
        <time>2023-08-13T11:33:02.382+00:00</time>
      </trkpt>
      <trkpt lat="49.37382" lon="-1.60676">
        <ele>72</ele>
        <time>2023-08-13T11:33:06.306+00:00</time>
      </trkpt>
      <trkpt lat="49.37382" lon="-1.60684">
        <ele>73</ele>
        <time>2023-08-13T11:33:10.502+00:00</time>
      </trkpt>
      <trkpt lat="49.37382" lon="-1.60691">
        <ele>73</ele>
        <time>2023-08-13T11:33:14.697+00:00</time>
      </trkpt>
      <trkpt lat="49.37382" lon="-1.60699">
        <ele>73</ele>
        <time>2023-08-13T11:33:19.253+00:00</time>
      </trkpt>
      <trkpt lat="49.37381" lon="-1.60706">
        <ele>73</ele>
        <time>2023-08-13T11:33:23.328+00:00</time>
      </trkpt>
      <trkpt lat="49.37381" lon="-1.60714">
        <ele>74</ele>
        <time>2023-08-13T11:33:27.522+00:00</time>
      </trkpt>
      <trkpt lat="49.37379" lon="-1.60716">
        <ele>74</ele>
        <time>2023-08-13T11:33:32.128+00:00</time>
      </trkpt>
      <trkpt lat="49.37378" lon="-1.60716">
        <ele>74</ele>
        <time>2023-08-13T11:33:36.673+00:00</time>
      </trkpt>
      <trkpt lat="49.37378" lon="-1.60718">
        <ele>74</ele>
        <time>2023-08-13T11:33:41.135+00:00</time>
      </trkpt>
      <trkpt lat="49.37378" lon="-1.60726">
        <ele>74</ele>
        <time>2023-08-13T11:33:45.299+00:00</time>
      </trkpt>
      <trkpt lat="49.37377" lon="-1.60733">
        <ele>74</ele>
        <time>2023-08-13T11:33:49.492+00:00</time>
      </trkpt>
      <trkpt lat="49.37377" lon="-1.60742">
        <ele>74</ele>
        <time>2023-08-13T11:33:53.925+00:00</time>
      </trkpt>
      <trkpt lat="49.37376" lon="-1.60751">
        <ele>74</ele>
        <time>2023-08-13T11:33:58.717+00:00</time>
      </trkpt>
      <trkpt lat="49.37375" lon="-1.60758">
        <ele>74</ele>
        <time>2023-08-13T11:34:02.910+00:00</time>
      </trkpt>
      <trkpt lat="49.37375" lon="-1.60764">
        <ele>74</ele>
        <time>2023-08-13T11:34:06.945+00:00</time>
      </trkpt>
      <trkpt lat="49.37375" lon="-1.60774">
        <ele>72</ele>
        <time>2023-08-13T11:34:29.952+00:00</time>
      </trkpt>
      <trkpt lat="49.37376" lon="-1.60776">
        <ele>75</ele>
        <time>2023-08-13T11:34:35.067+00:00</time>
      </trkpt>
      <trkpt lat="49.37376" lon="-1.60777">
        <ele>75</ele>
        <time>2023-08-13T11:34:39.077+00:00</time>
      </trkpt>
      <trkpt lat="49.37376" lon="-1.60778">
        <ele>75</ele>
        <time>2023-08-13T11:34:43.081+00:00</time>
      </trkpt>
      <trkpt lat="49.37376" lon="-1.60782">
        <ele>75</ele>
        <time>2023-08-13T11:34:47.685+00:00</time>
      </trkpt>
      <trkpt lat="49.37374" lon="-1.60789">
        <ele>72</ele>
        <time>2023-08-13T11:34:51.788+00:00</time>
      </trkpt>
      <trkpt lat="49.37373" lon="-1.60797">
        <ele>71</ele>
        <time>2023-08-13T11:34:55.989+00:00</time>
      </trkpt>
      <trkpt lat="49.37372" lon="-1.60806">
        <ele>71</ele>
        <time>2023-08-13T11:35:00.552+00:00</time>
      </trkpt>
      <trkpt lat="49.37373" lon="-1.60814">
        <ele>71</ele>
        <time>2023-08-13T11:35:04.655+00:00</time>
      </trkpt>
      <trkpt lat="49.37372" lon="-1.60822">
        <ele>69</ele>
        <time>2023-08-13T11:35:09.200+00:00</time>
      </trkpt>
      <trkpt lat="49.37372" lon="-1.6083">
        <ele>69</ele>
        <time>2023-08-13T11:35:13.677+00:00</time>
      </trkpt>
      <trkpt lat="49.3737" lon="-1.60836">
        <ele>69</ele>
        <time>2023-08-13T11:35:18.235+00:00</time>
      </trkpt>
      <trkpt lat="49.37371" lon="-1.60842">
        <ele>69</ele>
        <time>2023-08-13T11:35:22.234+00:00</time>
      </trkpt>
      <trkpt lat="49.37369" lon="-1.60849">
        <ele>68</ele>
        <time>2023-08-13T11:35:26.333+00:00</time>
      </trkpt>
      <trkpt lat="49.37368" lon="-1.60856">
        <ele>68</ele>
        <time>2023-08-13T11:35:30.529+00:00</time>
      </trkpt>
      <trkpt lat="49.37367" lon="-1.60862">
        <ele>68</ele>
        <time>2023-08-13T11:35:35.084+00:00</time>
      </trkpt>
      <trkpt lat="49.37366" lon="-1.60869">
        <ele>68</ele>
        <time>2023-08-13T11:35:39.120+00:00</time>
      </trkpt>
      <trkpt lat="49.37366" lon="-1.60875">
        <ele>68</ele>
        <time>2023-08-13T11:35:43.097+00:00</time>
      </trkpt>
      <trkpt lat="49.37366" lon="-1.60883">
        <ele>67</ele>
        <time>2023-08-13T11:35:47.294+00:00</time>
      </trkpt>
      <trkpt lat="49.37367" lon="-1.60891">
        <ele>67</ele>
        <time>2023-08-13T11:35:51.970+00:00</time>
      </trkpt>
      <trkpt lat="49.37366" lon="-1.60898">
        <ele>67</ele>
        <time>2023-08-13T11:35:55.987+00:00</time>
      </trkpt>
      <trkpt lat="49.37365" lon="-1.60904">
        <ele>67</ele>
        <time>2023-08-13T11:35:59.824+00:00</time>
      </trkpt>
      <trkpt lat="49.37364" lon="-1.6091">
        <ele>67</ele>
        <time>2023-08-13T11:36:04.260+00:00</time>
      </trkpt>
      <trkpt lat="49.37364" lon="-1.60917">
        <ele>67</ele>
        <time>2023-08-13T11:36:08.217+00:00</time>
      </trkpt>
      <trkpt lat="49.37364" lon="-1.60924">
        <ele>67</ele>
        <time>2023-08-13T11:36:12.693+00:00</time>
      </trkpt>
      <trkpt lat="49.37363" lon="-1.60933">
        <ele>67</ele>
        <time>2023-08-13T11:36:17.322+00:00</time>
      </trkpt>
      <trkpt lat="49.37362" lon="-1.60941">
        <ele>67</ele>
        <time>2023-08-13T11:36:21.685+00:00</time>
      </trkpt>
      <trkpt lat="49.37361" lon="-1.60947">
        <ele>67</ele>
        <time>2023-08-13T11:36:25.638+00:00</time>
      </trkpt>
      <trkpt lat="49.37356" lon="-1.60947">
        <ele>67</ele>
        <time>2023-08-13T11:36:30.671+00:00</time>
      </trkpt>
      <trkpt lat="49.37352" lon="-1.60946">
        <ele>67</ele>
        <time>2023-08-13T11:36:35.123+00:00</time>
      </trkpt>
      <trkpt lat="49.37349" lon="-1.60942">
        <ele>67</ele>
        <time>2023-08-13T11:36:39.638+00:00</time>
      </trkpt>
      <trkpt lat="49.37347" lon="-1.60937">
        <ele>62</ele>
        <time>2023-08-13T11:36:43.746+00:00</time>
      </trkpt>
      <trkpt lat="49.37344" lon="-1.60936">
        <ele>62</ele>
        <time>2023-08-13T11:36:48.762+00:00</time>
      </trkpt>
      <trkpt lat="49.37347" lon="-1.60931">
        <ele>62</ele>
        <time>2023-08-13T11:36:53.778+00:00</time>
      </trkpt>
      <trkpt lat="49.37348" lon="-1.60932">
        <ele>67</ele>
        <time>2023-08-13T11:36:57.786+00:00</time>
      </trkpt>
      <trkpt lat="49.37356" lon="-1.60941">
        <ele>67</ele>
        <time>2023-08-13T11:37:02.796+00:00</time>
      </trkpt>
      <trkpt lat="49.37356" lon="-1.60958">
        <ele>67</ele>
        <time>2023-08-13T11:37:07.309+00:00</time>
      </trkpt>
      <trkpt lat="49.37357" lon="-1.60966">
        <ele>66</ele>
        <time>2023-08-13T11:37:11.816+00:00</time>
      </trkpt>
      <trkpt lat="49.37359" lon="-1.60971">
        <ele>66</ele>
        <time>2023-08-13T11:37:15.819+00:00</time>
      </trkpt>
      <trkpt lat="49.37363" lon="-1.60977">
        <ele>66</ele>
        <time>2023-08-13T11:37:20.441+00:00</time>
      </trkpt>
      <trkpt lat="49.37364" lon="-1.60987">
        <ele>65</ele>
        <time>2023-08-13T11:37:24.963+00:00</time>
      </trkpt>
      <trkpt lat="49.37366" lon="-1.60994">
        <ele>65</ele>
        <time>2023-08-13T11:37:28.965+00:00</time>
      </trkpt>
      <trkpt lat="49.37366" lon="-1.61003">
        <ele>65</ele>
        <time>2023-08-13T11:37:33.469+00:00</time>
      </trkpt>
      <trkpt lat="49.37367" lon="-1.61011">
        <ele>65</ele>
        <time>2023-08-13T11:37:37.829+00:00</time>
      </trkpt>
      <trkpt lat="49.37368" lon="-1.61019">
        <ele>64</ele>
        <time>2023-08-13T11:37:41.729+00:00</time>
      </trkpt>
      <trkpt lat="49.37368" lon="-1.61028">
        <ele>64</ele>
        <time>2023-08-13T11:37:45.969+00:00</time>
      </trkpt>
      <trkpt lat="49.37369" lon="-1.61036">
        <ele>64</ele>
        <time>2023-08-13T11:37:50.060+00:00</time>
      </trkpt>
      <trkpt lat="49.3737" lon="-1.61044">
        <ele>64</ele>
        <time>2023-08-13T11:37:54.086+00:00</time>
      </trkpt>
      <trkpt lat="49.3737" lon="-1.61051">
        <ele>64</ele>
        <time>2023-08-13T11:37:58.225+00:00</time>
      </trkpt>
      <trkpt lat="49.37371" lon="-1.61059">
        <ele>64</ele>
        <time>2023-08-13T11:38:02.263+00:00</time>
      </trkpt>
      <trkpt lat="49.37373" lon="-1.61068">
        <ele>64</ele>
        <time>2023-08-13T11:38:06.919+00:00</time>
      </trkpt>
      <trkpt lat="49.37373" lon="-1.61074">
        <ele>63</ele>
        <time>2023-08-13T11:38:10.879+00:00</time>
      </trkpt>
      <trkpt lat="49.37374" lon="-1.61081">
        <ele>63</ele>
        <time>2023-08-13T11:38:15.382+00:00</time>
      </trkpt>
      <trkpt lat="49.37373" lon="-1.6109">
        <ele>63</ele>
        <time>2023-08-13T11:38:19.376+00:00</time>
      </trkpt>
      <trkpt lat="49.37373" lon="-1.61099">
        <ele>63</ele>
        <time>2023-08-13T11:38:23.896+00:00</time>
      </trkpt>
      <trkpt lat="49.37374" lon="-1.61106">
        <ele>63</ele>
        <time>2023-08-13T11:38:27.931+00:00</time>
      </trkpt>
      <trkpt lat="49.37374" lon="-1.61114">
        <ele>63</ele>
        <time>2023-08-13T11:38:32.128+00:00</time>
      </trkpt>
      <trkpt lat="49.37375" lon="-1.61122">
        <ele>63</ele>
        <time>2023-08-13T11:38:36.324+00:00</time>
      </trkpt>
      <trkpt lat="49.37374" lon="-1.61129">
        <ele>63</ele>
        <time>2023-08-13T11:38:40.821+00:00</time>
      </trkpt>
      <trkpt lat="49.37373" lon="-1.61136">
        <ele>63</ele>
        <time>2023-08-13T11:38:44.839+00:00</time>
      </trkpt>
      <trkpt lat="49.37373" lon="-1.61143">
        <ele>63</ele>
        <time>2023-08-13T11:38:49.275+00:00</time>
      </trkpt>
      <trkpt lat="49.37373" lon="-1.61151">
        <ele>63</ele>
        <time>2023-08-13T11:38:53.795+00:00</time>
      </trkpt>
      <trkpt lat="49.37373" lon="-1.61159">
        <ele>63</ele>
        <time>2023-08-13T11:38:57.930+00:00</time>
      </trkpt>
      <trkpt lat="49.37373" lon="-1.61166">
        <ele>63</ele>
        <time>2023-08-13T11:39:02.107+00:00</time>
      </trkpt>
      <trkpt lat="49.37372" lon="-1.61174">
        <ele>63</ele>
        <time>2023-08-13T11:39:06.110+00:00</time>
      </trkpt>
      <trkpt lat="49.37372" lon="-1.61183">
        <ele>63</ele>
        <time>2023-08-13T11:39:10.639+00:00</time>
      </trkpt>
      <trkpt lat="49.37372" lon="-1.61191">
        <ele>63</ele>
        <time>2023-08-13T11:39:15.294+00:00</time>
      </trkpt>
      <trkpt lat="49.37372" lon="-1.61199">
        <ele>63</ele>
        <time>2023-08-13T11:39:20.074+00:00</time>
      </trkpt>
      <trkpt lat="49.37372" lon="-1.61206">
        <ele>63</ele>
        <time>2023-08-13T11:39:24.124+00:00</time>
      </trkpt>
      <trkpt lat="49.37371" lon="-1.61213">
        <ele>64</ele>
        <time>2023-08-13T11:39:28.121+00:00</time>
      </trkpt>
      <trkpt lat="49.3737" lon="-1.61221">
        <ele>64</ele>
        <time>2023-08-13T11:39:32.677+00:00</time>
      </trkpt>
      <trkpt lat="49.3737" lon="-1.61229">
        <ele>64</ele>
        <time>2023-08-13T11:39:36.632+00:00</time>
      </trkpt>
      <trkpt lat="49.37369" lon="-1.61237">
        <ele>64</ele>
        <time>2023-08-13T11:39:41.269+00:00</time>
      </trkpt>
      <trkpt lat="49.37369" lon="-1.61245">
        <ele>64</ele>
        <time>2023-08-13T11:39:45.627+00:00</time>
      </trkpt>
      <trkpt lat="49.37368" lon="-1.61253">
        <ele>64</ele>
        <time>2023-08-13T11:39:50.244+00:00</time>
      </trkpt>
      <trkpt lat="49.37367" lon="-1.61261">
        <ele>64</ele>
        <time>2023-08-13T11:39:54.919+00:00</time>
      </trkpt>
      <trkpt lat="49.37368" lon="-1.6127">
        <ele>65</ele>
        <time>2023-08-13T11:39:59.382+00:00</time>
      </trkpt>
      <trkpt lat="49.37367" lon="-1.61279">
        <ele>65</ele>
        <time>2023-08-13T11:40:04.091+00:00</time>
      </trkpt>
      <trkpt lat="49.37366" lon="-1.61286">
        <ele>65</ele>
        <time>2023-08-13T11:40:08.288+00:00</time>
      </trkpt>
      <trkpt lat="49.37366" lon="-1.61294">
        <ele>65</ele>
        <time>2023-08-13T11:40:12.485+00:00</time>
      </trkpt>
      <trkpt lat="49.37365" lon="-1.61301">
        <ele>65</ele>
        <time>2023-08-13T11:40:16.582+00:00</time>
      </trkpt>
      <trkpt lat="49.37365" lon="-1.61309">
        <ele>65</ele>
        <time>2023-08-13T11:40:21.120+00:00</time>
      </trkpt>
      <trkpt lat="49.37364" lon="-1.61317">
        <ele>65</ele>
        <time>2023-08-13T11:40:25.317+00:00</time>
      </trkpt>
      <trkpt lat="49.37363" lon="-1.61325">
        <ele>65</ele>
        <time>2023-08-13T11:40:29.215+00:00</time>
      </trkpt>
      <trkpt lat="49.37363" lon="-1.61332">
        <ele>65</ele>
        <time>2023-08-13T11:40:33.254+00:00</time>
      </trkpt>
      <trkpt lat="49.37367" lon="-1.61336">
        <ele>65</ele>
        <time>2023-08-13T11:40:37.891+00:00</time>
      </trkpt>
      <trkpt lat="49.37373" lon="-1.61334">
        <ele>65</ele>
        <time>2023-08-13T11:40:42.087+00:00</time>
      </trkpt>
      <trkpt lat="49.37378" lon="-1.61333">
        <ele>69</ele>
        <time>2023-08-13T11:40:46.623+00:00</time>
      </trkpt>
      <trkpt lat="49.37382" lon="-1.61335">
        <ele>69</ele>
        <time>2023-08-13T11:40:51.281+00:00</time>
      </trkpt>
      <trkpt lat="49.37386" lon="-1.61334">
        <ele>69</ele>
        <time>2023-08-13T11:40:55.259+00:00</time>
      </trkpt>
      <trkpt lat="49.37391" lon="-1.61335">
        <ele>69</ele>
        <time>2023-08-13T11:40:59.815+00:00</time>
      </trkpt>
      <trkpt lat="49.37394" lon="-1.61336">
        <ele>69</ele>
        <time>2023-08-13T11:41:03.891+00:00</time>
      </trkpt>
      <trkpt lat="49.37398" lon="-1.61338">
        <ele>69</ele>
        <time>2023-08-13T11:41:08.327+00:00</time>
      </trkpt>
      <trkpt lat="49.37402" lon="-1.61338">
        <ele>69</ele>
        <time>2023-08-13T11:41:12.475+00:00</time>
      </trkpt>
      <trkpt lat="49.37406" lon="-1.61339">
        <ele>73</ele>
        <time>2023-08-13T11:41:16.382+00:00</time>
      </trkpt>
      <trkpt lat="49.3741" lon="-1.6134">
        <ele>73</ele>
        <time>2023-08-13T11:41:20.838+00:00</time>
      </trkpt>
      <trkpt lat="49.37415" lon="-1.61341">
        <ele>73</ele>
        <time>2023-08-13T11:41:24.830+00:00</time>
      </trkpt>
      <trkpt lat="49.37418" lon="-1.61342">
        <ele>73</ele>
        <time>2023-08-13T11:41:28.665+00:00</time>
      </trkpt>
      <trkpt lat="49.37423" lon="-1.61342">
        <ele>73</ele>
        <time>2023-08-13T11:41:33.219+00:00</time>
      </trkpt>
      <trkpt lat="49.37427" lon="-1.61342">
        <ele>73</ele>
        <time>2023-08-13T11:41:37.697+00:00</time>
      </trkpt>
      <trkpt lat="49.3743" lon="-1.61344">
        <ele>73</ele>
        <time>2023-08-13T11:41:42.374+00:00</time>
      </trkpt>
      <trkpt lat="49.37432" lon="-1.61344">
        <ele>77</ele>
        <time>2023-08-13T11:41:46.471+00:00</time>
      </trkpt>
      <trkpt lat="49.37436" lon="-1.6134">
        <ele>77</ele>
        <time>2023-08-13T11:41:50.988+00:00</time>
      </trkpt>
      <trkpt lat="49.37439" lon="-1.61336">
        <ele>77</ele>
        <time>2023-08-13T11:41:55.465+00:00</time>
      </trkpt>
      <trkpt lat="49.37439" lon="-1.61335">
        <ele>77</ele>
        <time>2023-08-13T11:41:59.522+00:00</time>
      </trkpt>
      <trkpt lat="49.37442" lon="-1.61331">
        <ele>77</ele>
        <time>2023-08-13T11:42:03.598+00:00</time>
      </trkpt>
      <trkpt lat="49.37446" lon="-1.61327">
        <ele>77</ele>
        <time>2023-08-13T11:42:08.073+00:00</time>
      </trkpt>
      <trkpt lat="49.37448" lon="-1.61322">
        <ele>77</ele>
        <time>2023-08-13T11:42:12.106+00:00</time>
      </trkpt>
      <trkpt lat="49.37451" lon="-1.61318">
        <ele>77</ele>
        <time>2023-08-13T11:42:16.608+00:00</time>
      </trkpt>
      <trkpt lat="49.37455" lon="-1.61315">
        <ele>77</ele>
        <time>2023-08-13T11:42:21.121+00:00</time>
      </trkpt>
      <trkpt lat="49.37458" lon="-1.61312">
        <ele>80</ele>
        <time>2023-08-13T11:42:25.002+00:00</time>
      </trkpt>
      <trkpt lat="49.37462" lon="-1.61309">
        <ele>80</ele>
        <time>2023-08-13T11:42:29.540+00:00</time>
      </trkpt>
      <trkpt lat="49.37465" lon="-1.61306">
        <ele>80</ele>
        <time>2023-08-13T11:42:33.496+00:00</time>
      </trkpt>
      <trkpt lat="49.37471" lon="-1.61303">
        <ele>80</ele>
        <time>2023-08-13T11:42:41.875+00:00</time>
      </trkpt>
      <trkpt lat="49.37469" lon="-1.61308">
        <ele>80</ele>
        <time>2023-08-13T11:42:46.387+00:00</time>
      </trkpt>
      <trkpt lat="49.3747" lon="-1.61311">
        <ele>80</ele>
        <time>2023-08-13T11:42:50.900+00:00</time>
      </trkpt>
      <trkpt lat="49.37473" lon="-1.61308">
        <ele>80</ele>
        <time>2023-08-13T11:42:55.422+00:00</time>
      </trkpt>
      <trkpt lat="49.37477" lon="-1.61308">
        <ele>80</ele>
        <time>2023-08-13T11:42:59.519+00:00</time>
      </trkpt>
      <trkpt lat="49.37482" lon="-1.61312">
        <ele>80</ele>
        <time>2023-08-13T11:43:04.026+00:00</time>
      </trkpt>
      <trkpt lat="49.37485" lon="-1.61314">
        <ele>80</ele>
        <time>2023-08-13T11:43:08.549+00:00</time>
      </trkpt>
      <trkpt lat="49.37489" lon="-1.61315">
        <ele>85</ele>
        <time>2023-08-13T11:43:13.058+00:00</time>
      </trkpt>
      <trkpt lat="49.37491" lon="-1.61318">
        <ele>85</ele>
        <time>2023-08-13T11:43:18.064+00:00</time>
      </trkpt>
      <trkpt lat="49.37492" lon="-1.61319">
        <ele>85</ele>
        <time>2023-08-13T11:43:22.069+00:00</time>
      </trkpt>
      <trkpt lat="49.37496" lon="-1.6132">
        <ele>85</ele>
        <time>2023-08-13T11:43:25.749+00:00</time>
      </trkpt>
      <trkpt lat="49.37502" lon="-1.6132">
        <ele>85</ele>
        <time>2023-08-13T11:43:30.749+00:00</time>
      </trkpt>
      <trkpt lat="49.37505" lon="-1.61318">
        <ele>85</ele>
        <time>2023-08-13T11:43:34.927+00:00</time>
      </trkpt>
      <trkpt lat="49.3751" lon="-1.61317">
        <ele>85</ele>
        <time>2023-08-13T11:43:39.346+00:00</time>
      </trkpt>
      <trkpt lat="49.37513" lon="-1.61316">
        <ele>85</ele>
        <time>2023-08-13T11:43:43.967+00:00</time>
      </trkpt>
      <trkpt lat="49.37517" lon="-1.61317">
        <ele>90</ele>
        <time>2023-08-13T11:43:48.207+00:00</time>
      </trkpt>
      <trkpt lat="49.37521" lon="-1.61316">
        <ele>90</ele>
        <time>2023-08-13T11:43:52.266+00:00</time>
      </trkpt>
      <trkpt lat="49.37525" lon="-1.61314">
        <ele>90</ele>
        <time>2023-08-13T11:43:56.876+00:00</time>
      </trkpt>
      <trkpt lat="49.37528" lon="-1.61313">
        <ele>90</ele>
        <time>2023-08-13T11:44:00.861+00:00</time>
      </trkpt>
      <trkpt lat="49.37532" lon="-1.61313">
        <ele>90</ele>
        <time>2023-08-13T11:44:04.819+00:00</time>
      </trkpt>
      <trkpt lat="49.37535" lon="-1.61314">
        <ele>90</ele>
        <time>2023-08-13T11:44:09.257+00:00</time>
      </trkpt>
      <trkpt lat="49.37539" lon="-1.61315">
        <ele>90</ele>
        <time>2023-08-13T11:44:13.275+00:00</time>
      </trkpt>
      <trkpt lat="49.37542" lon="-1.61316">
        <ele>94</ele>
        <time>2023-08-13T11:44:17.832+00:00</time>
      </trkpt>
      <trkpt lat="49.37546" lon="-1.61318">
        <ele>94</ele>
        <time>2023-08-13T11:44:22.382+00:00</time>
      </trkpt>
      <trkpt lat="49.3755" lon="-1.61319">
        <ele>94</ele>
        <time>2023-08-13T11:44:26.926+00:00</time>
      </trkpt>
      <trkpt lat="49.37553" lon="-1.61319">
        <ele>94</ele>
        <time>2023-08-13T11:44:30.944+00:00</time>
      </trkpt>
      <trkpt lat="49.37557" lon="-1.61322">
        <ele>95</ele>
        <time>2023-08-13T11:44:35.618+00:00</time>
      </trkpt>
      <trkpt lat="49.3756" lon="-1.61323">
        <ele>95</ele>
        <time>2023-08-13T11:44:39.635+00:00</time>
      </trkpt>
      <trkpt lat="49.37563" lon="-1.61325">
        <ele>95</ele>
        <time>2023-08-13T11:44:44.102+00:00</time>
      </trkpt>
      <trkpt lat="49.37566" lon="-1.61326">
        <ele>95</ele>
        <time>2023-08-13T11:44:48.116+00:00</time>
      </trkpt>
      <trkpt lat="49.37569" lon="-1.61328">
        <ele>95</ele>
        <time>2023-08-13T11:44:51.992+00:00</time>
      </trkpt>
      <trkpt lat="49.37572" lon="-1.61329">
        <ele>99</ele>
        <time>2023-08-13T11:44:56.090+00:00</time>
      </trkpt>
      <trkpt lat="49.37575" lon="-1.61327">
        <ele>99</ele>
        <time>2023-08-13T11:45:00.508+00:00</time>
      </trkpt>
      <trkpt lat="49.37577" lon="-1.61315">
        <ele>98</ele>
        <time>2023-08-13T11:45:13.940+00:00</time>
      </trkpt>
      <trkpt lat="49.37577" lon="-1.61312">
        <ele>98</ele>
        <time>2023-08-13T11:45:18.028+00:00</time>
      </trkpt>
      <trkpt lat="49.37575" lon="-1.61312">
        <ele>98</ele>
        <time>2023-08-13T11:45:23.044+00:00</time>
      </trkpt>
      <trkpt lat="49.37575" lon="-1.61311">
        <ele>98</ele>
        <time>2023-08-13T11:45:27.154+00:00</time>
      </trkpt>
      <trkpt lat="49.37576" lon="-1.61305">
        <ele>98</ele>
        <time>2023-08-13T11:45:31.681+00:00</time>
      </trkpt>
      <trkpt lat="49.37579" lon="-1.61298">
        <ele>98</ele>
        <time>2023-08-13T11:45:35.690+00:00</time>
      </trkpt>
      <trkpt lat="49.37583" lon="-1.61292">
        <ele>96</ele>
        <time>2023-08-13T11:45:40.201+00:00</time>
      </trkpt>
      <trkpt lat="49.37587" lon="-1.61286">
        <ele>96</ele>
        <time>2023-08-13T11:45:44.710+00:00</time>
      </trkpt>
      <trkpt lat="49.37588" lon="-1.61282">
        <ele>96</ele>
        <time>2023-08-13T11:45:48.721+00:00</time>
      </trkpt>
      <trkpt lat="49.3759" lon="-1.61278">
        <ele>96</ele>
        <time>2023-08-13T11:47:02.089+00:00</time>
      </trkpt>
      <trkpt lat="49.37591" lon="-1.61275">
        <ele>96</ele>
        <time>2023-08-13T11:47:06.093+00:00</time>
      </trkpt>
      <trkpt lat="49.37594" lon="-1.61268">
        <ele>96</ele>
        <time>2023-08-13T11:47:11.097+00:00</time>
      </trkpt>
      <trkpt lat="49.37595" lon="-1.61265">
        <ele>96</ele>
        <time>2023-08-13T11:47:15.094+00:00</time>
      </trkpt>
      <trkpt lat="49.37597" lon="-1.6126">
        <ele>95</ele>
        <time>2023-08-13T11:47:19.093+00:00</time>
      </trkpt>
      <trkpt lat="49.37599" lon="-1.61256">
        <ele>97</ele>
        <time>2023-08-13T11:47:23.085+00:00</time>
      </trkpt>
      <trkpt lat="49.37601" lon="-1.6125">
        <ele>97</ele>
        <time>2023-08-13T11:47:27.115+00:00</time>
      </trkpt>
      <trkpt lat="49.37603" lon="-1.61244">
        <ele>97</ele>
        <time>2023-08-13T11:47:31.601+00:00</time>
      </trkpt>
      <trkpt lat="49.37605" lon="-1.61241">
        <ele>97</ele>
        <time>2023-08-13T11:47:35.625+00:00</time>
      </trkpt>
      <trkpt lat="49.37606" lon="-1.61242">
        <ele>97</ele>
        <time>2023-08-13T11:47:39.651+00:00</time>
      </trkpt>
      <trkpt lat="49.37605" lon="-1.61239">
        <ele>97</ele>
        <time>2023-08-13T11:47:44.164+00:00</time>
      </trkpt>
      <trkpt lat="49.37606" lon="-1.61234">
        <ele>97</ele>
        <time>2023-08-13T11:47:48.695+00:00</time>
      </trkpt>
      <trkpt lat="49.37608" lon="-1.61229">
        <ele>97</ele>
        <time>2023-08-13T11:47:52.708+00:00</time>
      </trkpt>
      <trkpt lat="49.37609" lon="-1.61224">
        <ele>97</ele>
        <time>2023-08-13T11:47:56.719+00:00</time>
      </trkpt>
      <trkpt lat="49.37611" lon="-1.61218">
        <ele>97</ele>
        <time>2023-08-13T11:48:01.234+00:00</time>
      </trkpt>
      <trkpt lat="49.37613" lon="-1.61213">
        <ele>97</ele>
        <time>2023-08-13T11:48:05.746+00:00</time>
      </trkpt>
      <trkpt lat="49.37616" lon="-1.6121">
        <ele>97</ele>
        <time>2023-08-13T11:48:09.762+00:00</time>
      </trkpt>
      <trkpt lat="49.37617" lon="-1.61203">
        <ele>97</ele>
        <time>2023-08-13T11:48:14.272+00:00</time>
      </trkpt>
      <trkpt lat="49.3762" lon="-1.61196">
        <ele>97</ele>
        <time>2023-08-13T11:48:18.778+00:00</time>
      </trkpt>
      <trkpt lat="49.3762" lon="-1.61194">
        <ele>97</ele>
        <time>2023-08-13T11:48:22.781+00:00</time>
      </trkpt>
      <trkpt lat="49.37621" lon="-1.61187">
        <ele>97</ele>
        <time>2023-08-13T11:48:26.783+00:00</time>
      </trkpt>
      <trkpt lat="49.37626" lon="-1.61184">
        <ele>101</ele>
        <time>2023-08-13T11:48:31.326+00:00</time>
      </trkpt>
      <trkpt lat="49.3763" lon="-1.61183">
        <ele>101</ele>
        <time>2023-08-13T11:48:35.328+00:00</time>
      </trkpt>
      <trkpt lat="49.37634" lon="-1.61179">
        <ele>101</ele>
        <time>2023-08-13T11:48:39.369+00:00</time>
      </trkpt>
      <trkpt lat="49.37636" lon="-1.61174">
        <ele>101</ele>
        <time>2023-08-13T11:48:43.448+00:00</time>
      </trkpt>
      <trkpt lat="49.37636" lon="-1.61168">
        <ele>101</ele>
        <time>2023-08-13T11:48:48.050+00:00</time>
      </trkpt>
      <trkpt lat="49.37635" lon="-1.61162">
        <ele>101</ele>
        <time>2023-08-13T11:48:52.131+00:00</time>
      </trkpt>
      <trkpt lat="49.37634" lon="-1.61156">
        <ele>101</ele>
        <time>2023-08-13T11:48:56.412+00:00</time>
      </trkpt>
      <trkpt lat="49.37633" lon="-1.61148">
        <ele>102</ele>
        <time>2023-08-13T11:49:00.732+00:00</time>
      </trkpt>
      <trkpt lat="49.37632" lon="-1.61141">
        <ele>102</ele>
        <time>2023-08-13T11:49:05.093+00:00</time>
      </trkpt>
      <trkpt lat="49.37633" lon="-1.61137">
        <ele>102</ele>
        <time>2023-08-13T11:49:07.714+00:00</time>
      </trkpt>
      <trkpt lat="49.37633" lon="-1.61132">
        <ele>102</ele>
        <time>2023-08-13T11:49:16.741+00:00</time>
      </trkpt>
      <trkpt lat="49.37633" lon="-1.61126">
        <ele>102</ele>
        <time>2023-08-13T11:49:20.750+00:00</time>
      </trkpt>
      <trkpt lat="49.37634" lon="-1.6112">
        <ele>103</ele>
        <time>2023-08-13T11:49:25.261+00:00</time>
      </trkpt>
      <trkpt lat="49.37636" lon="-1.6112">
        <ele>103</ele>
        <time>2023-08-13T11:49:33.784+00:00</time>
      </trkpt>
      <trkpt lat="49.37636" lon="-1.61119">
        <ele>103</ele>
        <time>2023-08-13T11:49:38.807+00:00</time>
      </trkpt>
      <trkpt lat="49.37633" lon="-1.61116">
        <ele>103</ele>
        <time>2023-08-13T11:49:42.917+00:00</time>
      </trkpt>
      <trkpt lat="49.37634" lon="-1.61109">
        <ele>103</ele>
        <time>2023-08-13T11:49:46.922+00:00</time>
      </trkpt>
      <trkpt lat="49.37638" lon="-1.61103">
        <ele>103</ele>
        <time>2023-08-13T11:49:50.926+00:00</time>
      </trkpt>
      <trkpt lat="49.37637" lon="-1.61096">
        <ele>104</ele>
        <time>2023-08-13T11:49:55.529+00:00</time>
      </trkpt>
      <trkpt lat="49.37637" lon="-1.61087">
        <ele>104</ele>
        <time>2023-08-13T11:49:59.670+00:00</time>
      </trkpt>
      <trkpt lat="49.37641" lon="-1.61079">
        <ele>104</ele>
        <time>2023-08-13T11:50:04.273+00:00</time>
      </trkpt>
      <trkpt lat="49.37646" lon="-1.61076">
        <ele>104</ele>
        <time>2023-08-13T11:50:08.396+00:00</time>
      </trkpt>
      <trkpt lat="49.37649" lon="-1.61072">
        <ele>104</ele>
        <time>2023-08-13T11:50:12.900+00:00</time>
      </trkpt>
      <trkpt lat="49.37651" lon="-1.61067">
        <ele>105</ele>
        <time>2023-08-13T11:50:16.904+00:00</time>
      </trkpt>
      <trkpt lat="49.37653" lon="-1.61061">
        <ele>105</ele>
        <time>2023-08-13T11:50:20.908+00:00</time>
      </trkpt>
      <trkpt lat="49.37654" lon="-1.61057">
        <ele>107</ele>
        <time>2023-08-13T11:50:24.914+00:00</time>
      </trkpt>
      <trkpt lat="49.37655" lon="-1.61051">
        <ele>107</ele>
        <time>2023-08-13T11:50:28.417+00:00</time>
      </trkpt>
      <trkpt lat="49.37659" lon="-1.61038">
        <ele>108</ele>
        <time>2023-08-13T11:50:37.440+00:00</time>
      </trkpt>
      <trkpt lat="49.37663" lon="-1.61025">
        <ele>108</ele>
        <time>2023-08-13T11:50:46.961+00:00</time>
      </trkpt>
      <trkpt lat="49.37666" lon="-1.61022">
        <ele>108</ele>
        <time>2023-08-13T11:50:50.973+00:00</time>
      </trkpt>
      <trkpt lat="49.37671" lon="-1.61019">
        <ele>108</ele>
        <time>2023-08-13T11:51:04.521+00:00</time>
      </trkpt>
      <trkpt lat="49.37671" lon="-1.61016">
        <ele>108</ele>
        <time>2023-08-13T11:51:08.536+00:00</time>
      </trkpt>
      <trkpt lat="49.37671" lon="-1.61005">
        <ele>109</ele>
        <time>2023-08-13T11:51:13.053+00:00</time>
      </trkpt>
      <trkpt lat="49.3767" lon="-1.61002">
        <ele>109</ele>
        <time>2023-08-13T11:51:17.569+00:00</time>
      </trkpt>
      <trkpt lat="49.37672" lon="-1.60999">
        <ele>109</ele>
        <time>2023-08-13T11:51:21.586+00:00</time>
      </trkpt>
      <trkpt lat="49.37674" lon="-1.60993">
        <ele>109</ele>
        <time>2023-08-13T11:51:25.598+00:00</time>
      </trkpt>
      <trkpt lat="49.37675" lon="-1.6099">
        <ele>109</ele>
        <time>2023-08-13T11:51:29.628+00:00</time>
      </trkpt>
      <trkpt lat="49.37676" lon="-1.60989">
        <ele>109</ele>
        <time>2023-08-13T11:51:33.644+00:00</time>
      </trkpt>
      <trkpt lat="49.3768" lon="-1.60983">
        <ele>110</ele>
        <time>2023-08-13T11:51:38.263+00:00</time>
      </trkpt>
      <trkpt lat="49.37682" lon="-1.60978">
        <ele>112</ele>
        <time>2023-08-13T11:51:42.777+00:00</time>
      </trkpt>
      <trkpt lat="49.37686" lon="-1.60974">
        <ele>112</ele>
        <time>2023-08-13T11:51:55.822+00:00</time>
      </trkpt>
      <trkpt lat="49.37686" lon="-1.60975">
        <ele>112</ele>
        <time>2023-08-13T11:51:59.834+00:00</time>
      </trkpt>
      <trkpt lat="49.37687" lon="-1.60976">
        <ele>112</ele>
        <time>2023-08-13T11:52:03.847+00:00</time>
      </trkpt>
      <trkpt lat="49.37688" lon="-1.60969">
        <ele>112</ele>
        <time>2023-08-13T11:52:08.462+00:00</time>
      </trkpt>
      <trkpt lat="49.37691" lon="-1.60963">
        <ele>112</ele>
        <time>2023-08-13T11:52:12.475+00:00</time>
      </trkpt>
      <trkpt lat="49.37693" lon="-1.60957">
        <ele>113</ele>
        <time>2023-08-13T11:52:16.987+00:00</time>
      </trkpt>
      <trkpt lat="49.37695" lon="-1.60953">
        <ele>113</ele>
        <time>2023-08-13T11:52:21.097+00:00</time>
      </trkpt>
      <trkpt lat="49.37695" lon="-1.60948">
        <ele>113</ele>
        <time>2023-08-13T11:52:25.109+00:00</time>
      </trkpt>
      <trkpt lat="49.37697" lon="-1.60944">
        <ele>113</ele>
        <time>2023-08-13T11:52:29.621+00:00</time>
      </trkpt>
      <trkpt lat="49.37695" lon="-1.6094">
        <ele>113</ele>
        <time>2023-08-13T11:52:34.634+00:00</time>
      </trkpt>
      <trkpt lat="49.37693" lon="-1.60941">
        <ele>113</ele>
        <time>2023-08-13T11:52:39.150+00:00</time>
      </trkpt>
      <trkpt lat="49.37689" lon="-1.60939">
        <ele>113</ele>
        <time>2023-08-13T11:52:43.179+00:00</time>
      </trkpt>
      <trkpt lat="49.37684" lon="-1.60936">
        <ele>113</ele>
        <time>2023-08-13T11:52:47.692+00:00</time>
      </trkpt>
      <trkpt lat="49.37675" lon="-1.60925">
        <ele>113</ele>
        <time>2023-08-13T11:53:10.872+00:00</time>
      </trkpt>
      <trkpt lat="49.37674" lon="-1.60925">
        <ele>113</ele>
        <time>2023-08-13T11:53:15.887+00:00</time>
      </trkpt>
      <trkpt lat="49.37674" lon="-1.60925">
        <ele>113</ele>
        <time>2023-08-13T11:53:19.995+00:00</time>
      </trkpt>
      <trkpt lat="49.37669" lon="-1.60925">
        <ele>113</ele>
        <time>2023-08-13T11:53:24.001+00:00</time>
      </trkpt>
      <trkpt lat="49.37664" lon="-1.60919">
        <ele>113</ele>
        <time>2023-08-13T11:53:28.007+00:00</time>
      </trkpt>
      <trkpt lat="49.37661" lon="-1.60916">
        <ele>113</ele>
        <time>2023-08-13T11:53:45.555+00:00</time>
      </trkpt>
      <trkpt lat="49.37655" lon="-1.60914">
        <ele>113</ele>
        <time>2023-08-13T11:53:50.071+00:00</time>
      </trkpt>
      <trkpt lat="49.37655" lon="-1.6091">
        <ele>113</ele>
        <time>2023-08-13T11:53:54.589+00:00</time>
      </trkpt>
      <trkpt lat="49.37654" lon="-1.60907">
        <ele>113</ele>
        <time>2023-08-13T11:53:58.604+00:00</time>
      </trkpt>
      <trkpt lat="49.37657" lon="-1.60902">
        <ele>113</ele>
        <time>2023-08-13T11:54:02.618+00:00</time>
      </trkpt>
      <trkpt lat="49.37657" lon="-1.60913">
        <ele>113</ele>
        <time>2023-08-13T11:56:07.400+00:00</time>
      </trkpt>
      <trkpt lat="49.37663" lon="-1.60915">
        <ele>113</ele>
        <time>2023-08-13T11:56:11.519+00:00</time>
      </trkpt>
      <trkpt lat="49.37666" lon="-1.60918">
        <ele>113</ele>
        <time>2023-08-13T11:56:16.037+00:00</time>
      </trkpt>
      <trkpt lat="49.3767" lon="-1.60921">
        <ele>113</ele>
        <time>2023-08-13T11:56:20.568+00:00</time>
      </trkpt>
      <trkpt lat="49.37674" lon="-1.60923">
        <ele>113</ele>
        <time>2023-08-13T11:56:25.081+00:00</time>
      </trkpt>
      <trkpt lat="49.37679" lon="-1.60926">
        <ele>113</ele>
        <time>2023-08-13T11:56:29.597+00:00</time>
      </trkpt>
      <trkpt lat="49.37682" lon="-1.60929">
        <ele>113</ele>
        <time>2023-08-13T11:56:33.610+00:00</time>
      </trkpt>
      <trkpt lat="49.37686" lon="-1.60932">
        <ele>113</ele>
        <time>2023-08-13T11:56:37.623+00:00</time>
      </trkpt>
      <trkpt lat="49.3769" lon="-1.60935">
        <ele>113</ele>
        <time>2023-08-13T11:56:42.639+00:00</time>
      </trkpt>
      <trkpt lat="49.37696" lon="-1.6094">
        <ele>113</ele>
        <time>2023-08-13T11:56:55.176+00:00</time>
      </trkpt>
      <trkpt lat="49.377" lon="-1.60944">
        <ele>113</ele>
        <time>2023-08-13T11:56:59.691+00:00</time>
      </trkpt>
      <trkpt lat="49.377" lon="-1.60944">
        <ele>113</ele>
        <time>2023-08-13T11:57:03.706+00:00</time>
      </trkpt>
      <trkpt lat="49.37701" lon="-1.60943">
        <ele>113</ele>
        <time>2023-08-13T11:57:07.222+00:00</time>
      </trkpt>
      <trkpt lat="49.37704" lon="-1.60941">
        <ele>113</ele>
        <time>2023-08-13T11:57:16.764+00:00</time>
      </trkpt>
      <trkpt lat="49.37702" lon="-1.60939">
        <ele>113</ele>
        <time>2023-08-13T11:57:21.280+00:00</time>
      </trkpt>
      <trkpt lat="49.37705" lon="-1.60931">
        <ele>113</ele>
        <time>2023-08-13T11:57:25.790+00:00</time>
      </trkpt>
      <trkpt lat="49.37708" lon="-1.60926">
        <ele>113</ele>
        <time>2023-08-13T11:57:29.796+00:00</time>
      </trkpt>
      <trkpt lat="49.37706" lon="-1.60917">
        <ele>113</ele>
        <time>2023-08-13T11:57:34.809+00:00</time>
      </trkpt>
      <trkpt lat="49.37708" lon="-1.60916">
        <ele>114</ele>
        <time>2023-08-13T11:57:39.830+00:00</time>
      </trkpt>
      <trkpt lat="49.37714" lon="-1.60926">
        <ele>114</ele>
        <time>2023-08-13T11:57:44.345+00:00</time>
      </trkpt>
      <trkpt lat="49.37717" lon="-1.60934">
        <ele>114</ele>
        <time>2023-08-13T11:57:48.859+00:00</time>
      </trkpt>
      <trkpt lat="49.37721" lon="-1.60941">
        <ele>114</ele>
        <time>2023-08-13T11:57:53.371+00:00</time>
      </trkpt>
      <trkpt lat="49.37727" lon="-1.60942">
        <ele>114</ele>
        <time>2023-08-13T11:57:57.884+00:00</time>
      </trkpt>
      <trkpt lat="49.3773" lon="-1.6094">
        <ele>114</ele>
        <time>2023-08-13T11:58:02.500+00:00</time>
      </trkpt>
      <trkpt lat="49.37731" lon="-1.60946">
        <ele>114</ele>
        <time>2023-08-13T11:58:07.015+00:00</time>
      </trkpt>
      <trkpt lat="49.37728" lon="-1.60958">
        <ele>114</ele>
        <time>2023-08-13T11:58:11.529+00:00</time>
      </trkpt>
      <trkpt lat="49.37723" lon="-1.60967">
        <ele>114</ele>
        <time>2023-08-13T12:06:39.842+00:00</time>
      </trkpt>
      <trkpt lat="49.37723" lon="-1.60962">
        <ele>114</ele>
        <time>2023-08-13T12:06:44.958+00:00</time>
      </trkpt>
      <trkpt lat="49.37723" lon="-1.60954">
        <ele>114</ele>
        <time>2023-08-13T12:06:48.966+00:00</time>
      </trkpt>
      <trkpt lat="49.37724" lon="-1.60947">
        <ele>114</ele>
        <time>2023-08-13T12:06:52.971+00:00</time>
      </trkpt>
      <trkpt lat="49.37725" lon="-1.6094">
        <ele>114</ele>
        <time>2023-08-13T12:06:57.074+00:00</time>
      </trkpt>
      <trkpt lat="49.37728" lon="-1.60941">
        <ele>114</ele>
        <time>2023-08-13T12:07:01.579+00:00</time>
      </trkpt>
      <trkpt lat="49.37732" lon="-1.60943">
        <ele>114</ele>
        <time>2023-08-13T12:07:06.081+00:00</time>
      </trkpt>
      <trkpt lat="49.37737" lon="-1.60944">
        <ele>114</ele>
        <time>2023-08-13T12:07:10.195+00:00</time>
      </trkpt>
      <trkpt lat="49.37741" lon="-1.60946">
        <ele>114</ele>
        <time>2023-08-13T12:07:14.375+00:00</time>
      </trkpt>
      <trkpt lat="49.37746" lon="-1.60954">
        <ele>114</ele>
        <time>2023-08-13T12:07:23.996+00:00</time>
      </trkpt>
      <trkpt lat="49.37747" lon="-1.60957">
        <ele>114</ele>
        <time>2023-08-13T12:07:27.954+00:00</time>
      </trkpt>
      <trkpt lat="49.37748" lon="-1.60958">
        <ele>114</ele>
        <time>2023-08-13T12:07:31.933+00:00</time>
      </trkpt>
      <trkpt lat="49.37749" lon="-1.60961">
        <ele>115</ele>
        <time>2023-08-13T12:07:37.092+00:00</time>
      </trkpt>
      <trkpt lat="49.37749" lon="-1.60961">
        <ele>115</ele>
        <time>2023-08-13T12:07:41.071+00:00</time>
      </trkpt>
      <trkpt lat="49.37754" lon="-1.60958">
        <ele>114</ele>
        <time>2023-08-13T12:12:28.423+00:00</time>
      </trkpt>
      <trkpt lat="49.37757" lon="-1.60959">
        <ele>115</ele>
        <time>2023-08-13T12:12:32.927+00:00</time>
      </trkpt>
      <trkpt lat="49.37761" lon="-1.60963">
        <ele>115</ele>
        <time>2023-08-13T12:12:36.930+00:00</time>
      </trkpt>
      <trkpt lat="49.37767" lon="-1.60967">
        <ele>115</ele>
        <time>2023-08-13T12:12:41.531+00:00</time>
      </trkpt>
      <trkpt lat="49.37772" lon="-1.60969">
        <ele>115</ele>
        <time>2023-08-13T12:12:45.729+00:00</time>
      </trkpt>
      <trkpt lat="49.37777" lon="-1.60971">
        <ele>115</ele>
        <time>2023-08-13T12:12:51.036+00:00</time>
      </trkpt>
      <trkpt lat="49.37777" lon="-1.60969">
        <ele>115</ele>
        <time>2023-08-13T12:12:55.051+00:00</time>
      </trkpt>
      <trkpt lat="49.37777" lon="-1.60963">
        <ele>115</ele>
        <time>2023-08-13T12:12:59.064+00:00</time>
      </trkpt>
      <trkpt lat="49.37778" lon="-1.60956">
        <ele>114</ele>
        <time>2023-08-13T12:13:03.576+00:00</time>
      </trkpt>
      <trkpt lat="49.37783" lon="-1.60948">
        <ele>114</ele>
        <time>2023-08-13T12:13:07.693+00:00</time>
      </trkpt>
      <trkpt lat="49.37788" lon="-1.60948">
        <ele>114</ele>
        <time>2023-08-13T12:13:12.202+00:00</time>
      </trkpt>
      <trkpt lat="49.37792" lon="-1.60947">
        <ele>114</ele>
        <time>2023-08-13T12:13:16.705+00:00</time>
      </trkpt>
      <trkpt lat="49.37797" lon="-1.60944">
        <ele>114</ele>
        <time>2023-08-13T12:13:21.268+00:00</time>
      </trkpt>
      <trkpt lat="49.37801" lon="-1.60943">
        <ele>114</ele>
        <time>2023-08-13T12:13:26.125+00:00</time>
      </trkpt>
      <trkpt lat="49.37804" lon="-1.60943">
        <ele>114</ele>
        <time>2023-08-13T12:13:30.624+00:00</time>
      </trkpt>
      <trkpt lat="49.37809" lon="-1.60945">
        <ele>114</ele>
        <time>2023-08-13T12:13:34.824+00:00</time>
      </trkpt>
      <trkpt lat="49.37814" lon="-1.60945">
        <ele>114</ele>
        <time>2023-08-13T12:13:39.426+00:00</time>
      </trkpt>
      <trkpt lat="49.37826" lon="-1.60941">
        <ele>113</ele>
        <time>2023-08-13T12:13:55.741+00:00</time>
      </trkpt>
      <trkpt lat="49.37827" lon="-1.60941">
        <ele>113</ele>
        <time>2023-08-13T12:13:59.758+00:00</time>
      </trkpt>
      <trkpt lat="49.37829" lon="-1.60938">
        <ele>113</ele>
        <time>2023-08-13T12:14:04.776+00:00</time>
      </trkpt>
      <trkpt lat="49.37837" lon="-1.60938">
        <ele>113</ele>
        <time>2023-08-13T12:14:08.788+00:00</time>
      </trkpt>
      <trkpt lat="49.37843" lon="-1.60937">
        <ele>113</ele>
        <time>2023-08-13T12:14:13.402+00:00</time>
      </trkpt>
      <trkpt lat="49.37847" lon="-1.60935">
        <ele>110</ele>
        <time>2023-08-13T12:14:17.413+00:00</time>
      </trkpt>
      <trkpt lat="49.37853" lon="-1.60935">
        <ele>110</ele>
        <time>2023-08-13T12:14:21.925+00:00</time>
      </trkpt>
      <trkpt lat="49.37859" lon="-1.60934">
        <ele>110</ele>
        <time>2023-08-13T12:14:26.535+00:00</time>
      </trkpt>
      <trkpt lat="49.37863" lon="-1.60936">
        <ele>110</ele>
        <time>2023-08-13T12:14:31.046+00:00</time>
      </trkpt>
      <trkpt lat="49.37862" lon="-1.60935">
        <ele>110</ele>
        <time>2023-08-13T12:14:35.558+00:00</time>
      </trkpt>
      <trkpt lat="49.37864" lon="-1.60934">
        <ele>110</ele>
        <time>2023-08-13T12:14:39.669+00:00</time>
      </trkpt>
      <trkpt lat="49.3787" lon="-1.60936">
        <ele>110</ele>
        <time>2023-08-13T12:14:44.175+00:00</time>
      </trkpt>
      <trkpt lat="49.37872" lon="-1.60939">
        <ele>110</ele>
        <time>2023-08-13T12:14:45.677+00:00</time>
      </trkpt>
      <trkpt lat="49.37883" lon="-1.6094">
        <ele>107</ele>
        <time>2023-08-13T12:14:52.698+00:00</time>
      </trkpt>
      <trkpt lat="49.37885" lon="-1.60941">
        <ele>107</ele>
        <time>2023-08-13T12:14:57.811+00:00</time>
      </trkpt>
      <trkpt lat="49.37887" lon="-1.60939">
        <ele>107</ele>
        <time>2023-08-13T12:15:01.822+00:00</time>
      </trkpt>
      <trkpt lat="49.37894" lon="-1.60944">
        <ele>107</ele>
        <time>2023-08-13T12:15:06.340+00:00</time>
      </trkpt>
      <trkpt lat="49.37896" lon="-1.60942">
        <ele>107</ele>
        <time>2023-08-13T12:15:54.468+00:00</time>
      </trkpt>
      <trkpt lat="49.37897" lon="-1.60947">
        <ele>107</ele>
        <time>2023-08-13T12:15:58.788+00:00</time>
      </trkpt>
      <trkpt lat="49.37902" lon="-1.6095">
        <ele>107</ele>
        <time>2023-08-13T12:16:03.608+00:00</time>
      </trkpt>
      <trkpt lat="49.37908" lon="-1.60955">
        <ele>106</ele>
        <time>2023-08-13T12:16:07.611+00:00</time>
      </trkpt>
      <trkpt lat="49.37913" lon="-1.6096">
        <ele>108</ele>
        <time>2023-08-13T12:16:11.712+00:00</time>
      </trkpt>
      <trkpt lat="49.37917" lon="-1.60964">
        <ele>108</ele>
        <time>2023-08-13T12:16:15.893+00:00</time>
      </trkpt>
      <trkpt lat="49.37921" lon="-1.60966">
        <ele>108</ele>
        <time>2023-08-13T12:16:20.035+00:00</time>
      </trkpt>
      <trkpt lat="49.37924" lon="-1.6097">
        <ele>108</ele>
        <time>2023-08-13T12:16:24.638+00:00</time>
      </trkpt>
      <trkpt lat="49.37927" lon="-1.60972">
        <ele>108</ele>
        <time>2023-08-13T12:16:29.098+00:00</time>
      </trkpt>
      <trkpt lat="49.37932" lon="-1.60978">
        <ele>107</ele>
        <time>2023-08-13T12:17:13.956+00:00</time>
      </trkpt>
      <trkpt lat="49.37932" lon="-1.60978">
        <ele>107</ele>
        <time>2023-08-13T12:17:17.895+00:00</time>
      </trkpt>
      <trkpt lat="49.37932" lon="-1.60978">
        <ele>107</ele>
        <time>2023-08-13T12:17:21.635+00:00</time>
      </trkpt>
      <trkpt lat="49.37933" lon="-1.60983">
        <ele>107</ele>
        <time>2023-08-13T12:17:26.173+00:00</time>
      </trkpt>
      <trkpt lat="49.37935" lon="-1.60989">
        <ele>109</ele>
        <time>2023-08-13T12:17:30.771+00:00</time>
      </trkpt>
      <trkpt lat="49.37939" lon="-1.60993">
        <ele>109</ele>
        <time>2023-08-13T12:17:34.730+00:00</time>
      </trkpt>
      <trkpt lat="49.37944" lon="-1.60997">
        <ele>109</ele>
        <time>2023-08-13T12:17:38.925+00:00</time>
      </trkpt>
      <trkpt lat="49.37948" lon="-1.61001">
        <ele>109</ele>
        <time>2023-08-13T12:17:43.120+00:00</time>
      </trkpt>
      <trkpt lat="49.37951" lon="-1.61004">
        <ele>109</ele>
        <time>2023-08-13T12:17:48.122+00:00</time>
      </trkpt>
      <trkpt lat="49.37951" lon="-1.61004">
        <ele>109</ele>
        <time>2023-08-13T12:17:52.144+00:00</time>
      </trkpt>
      <trkpt lat="49.37952" lon="-1.61004">
        <ele>109</ele>
        <time>2023-08-13T12:17:56.726+00:00</time>
      </trkpt>
      <trkpt lat="49.37955" lon="-1.61006">
        <ele>109</ele>
        <time>2023-08-13T12:18:01.222+00:00</time>
      </trkpt>
      <trkpt lat="49.37959" lon="-1.61009">
        <ele>106</ele>
        <time>2023-08-13T12:18:05.836+00:00</time>
      </trkpt>
      <trkpt lat="49.37962" lon="-1.61013">
        <ele>106</ele>
        <time>2023-08-13T12:18:09.993+00:00</time>
      </trkpt>
      <trkpt lat="49.37966" lon="-1.61018">
        <ele>106</ele>
        <time>2023-08-13T12:18:14.388+00:00</time>
      </trkpt>
      <trkpt lat="49.37971" lon="-1.6102">
        <ele>106</ele>
        <time>2023-08-13T12:18:18.823+00:00</time>
      </trkpt>
      <trkpt lat="49.37974" lon="-1.61021">
        <ele>106</ele>
        <time>2023-08-13T12:18:22.419+00:00</time>
      </trkpt>
      <trkpt lat="49.37976" lon="-1.61024">
        <ele>106</ele>
        <time>2023-08-13T12:18:26.852+00:00</time>
      </trkpt>
      <trkpt lat="49.37979" lon="-1.61025">
        <ele>106</ele>
        <time>2023-08-13T12:18:30.326+00:00</time>
      </trkpt>
      <trkpt lat="49.37984" lon="-1.61024">
        <ele>106</ele>
        <time>2023-08-13T12:18:35.453+00:00</time>
      </trkpt>
      <trkpt lat="49.37986" lon="-1.61026">
        <ele>106</ele>
        <time>2023-08-13T12:18:39.962+00:00</time>
      </trkpt>
      <trkpt lat="49.37989" lon="-1.61032">
        <ele>102</ele>
        <time>2023-08-13T12:18:43.968+00:00</time>
      </trkpt>
      <trkpt lat="49.37993" lon="-1.61038">
        <ele>102</ele>
        <time>2023-08-13T12:18:49.076+00:00</time>
      </trkpt>
      <trkpt lat="49.37997" lon="-1.6104">
        <ele>102</ele>
        <time>2023-08-13T12:18:53.082+00:00</time>
      </trkpt>
      <trkpt lat="49.38001" lon="-1.61043">
        <ele>102</ele>
        <time>2023-08-13T12:18:57.690+00:00</time>
      </trkpt>
      <trkpt lat="49.38006" lon="-1.61046">
        <ele>102</ele>
        <time>2023-08-13T12:19:01.696+00:00</time>
      </trkpt>
      <trkpt lat="49.3801" lon="-1.61049">
        <ele>102</ele>
        <time>2023-08-13T12:19:06.004+00:00</time>
      </trkpt>
      <trkpt lat="49.38014" lon="-1.61053">
        <ele>102</ele>
        <time>2023-08-13T12:19:10.110+00:00</time>
      </trkpt>
      <trkpt lat="49.38018" lon="-1.61057">
        <ele>99</ele>
        <time>2023-08-13T12:19:14.618+00:00</time>
      </trkpt>
      <trkpt lat="49.38022" lon="-1.6106">
        <ele>99</ele>
        <time>2023-08-13T12:19:18.739+00:00</time>
      </trkpt>
      <trkpt lat="49.38026" lon="-1.61064">
        <ele>99</ele>
        <time>2023-08-13T12:19:23.247+00:00</time>
      </trkpt>
      <trkpt lat="49.3803" lon="-1.61067">
        <ele>99</ele>
        <time>2023-08-13T12:19:27.254+00:00</time>
      </trkpt>
      <trkpt lat="49.38034" lon="-1.6107">
        <ele>99</ele>
        <time>2023-08-13T12:19:31.862+00:00</time>
      </trkpt>
      <trkpt lat="49.38038" lon="-1.61073">
        <ele>99</ele>
        <time>2023-08-13T12:19:35.970+00:00</time>
      </trkpt>
      <trkpt lat="49.38042" lon="-1.61076">
        <ele>99</ele>
        <time>2023-08-13T12:19:40.077+00:00</time>
      </trkpt>
      <trkpt lat="49.38046" lon="-1.61079">
        <ele>97</ele>
        <time>2023-08-13T12:19:44.699+00:00</time>
      </trkpt>
      <trkpt lat="49.38049" lon="-1.61081">
        <ele>97</ele>
        <time>2023-08-13T12:19:48.811+00:00</time>
      </trkpt>
      <trkpt lat="49.38053" lon="-1.61085">
        <ele>97</ele>
        <time>2023-08-13T12:19:53.422+00:00</time>
      </trkpt>
      <trkpt lat="49.38057" lon="-1.61088">
        <ele>97</ele>
        <time>2023-08-13T12:19:57.430+00:00</time>
      </trkpt>
      <trkpt lat="49.38061" lon="-1.61091">
        <ele>97</ele>
        <time>2023-08-13T12:20:01.941+00:00</time>
      </trkpt>
      <trkpt lat="49.38065" lon="-1.61094">
        <ele>97</ele>
        <time>2023-08-13T12:20:05.950+00:00</time>
      </trkpt>
      <trkpt lat="49.38069" lon="-1.61098">
        <ele>98</ele>
        <time>2023-08-13T12:20:10.461+00:00</time>
      </trkpt>
      <trkpt lat="49.38073" lon="-1.61101">
        <ele>95</ele>
        <time>2023-08-13T12:20:14.972+00:00</time>
      </trkpt>
      <trkpt lat="49.38077" lon="-1.61104">
        <ele>95</ele>
        <time>2023-08-13T12:20:18.981+00:00</time>
      </trkpt>
      <trkpt lat="49.38081" lon="-1.61109">
        <ele>95</ele>
        <time>2023-08-13T12:20:23.492+00:00</time>
      </trkpt>
      <trkpt lat="49.38085" lon="-1.61112">
        <ele>95</ele>
        <time>2023-08-13T12:20:28.018+00:00</time>
      </trkpt>
      <trkpt lat="49.38089" lon="-1.61116">
        <ele>95</ele>
        <time>2023-08-13T12:20:32.529+00:00</time>
      </trkpt>
      <trkpt lat="49.38093" lon="-1.61118">
        <ele>95</ele>
        <time>2023-08-13T12:20:36.534+00:00</time>
      </trkpt>
      <trkpt lat="49.38097" lon="-1.61121">
        <ele>95</ele>
        <time>2023-08-13T12:20:41.038+00:00</time>
      </trkpt>
      <trkpt lat="49.381" lon="-1.61126">
        <ele>92</ele>
        <time>2023-08-13T12:20:45.599+00:00</time>
      </trkpt>
      <trkpt lat="49.38104" lon="-1.61129">
        <ele>92</ele>
        <time>2023-08-13T12:20:49.899+00:00</time>
      </trkpt>
      <trkpt lat="49.38108" lon="-1.61132">
        <ele>92</ele>
        <time>2023-08-13T12:20:53.679+00:00</time>
      </trkpt>
      <trkpt lat="49.38113" lon="-1.61135">
        <ele>92</ele>
        <time>2023-08-13T12:20:58.222+00:00</time>
      </trkpt>
      <trkpt lat="49.38116" lon="-1.61135">
        <ele>92</ele>
        <time>2023-08-13T12:21:02.655+00:00</time>
      </trkpt>
      <trkpt lat="49.38121" lon="-1.61141">
        <ele>92</ele>
        <time>2023-08-13T12:21:07.751+00:00</time>
      </trkpt>
      <trkpt lat="49.38125" lon="-1.61145">
        <ele>90</ele>
        <time>2023-08-13T12:21:11.708+00:00</time>
      </trkpt>
      <trkpt lat="49.3813" lon="-1.61149">
        <ele>90</ele>
        <time>2023-08-13T12:21:15.685+00:00</time>
      </trkpt>
      <trkpt lat="49.38134" lon="-1.61152">
        <ele>90</ele>
        <time>2023-08-13T12:21:20.222+00:00</time>
      </trkpt>
      <trkpt lat="49.38138" lon="-1.61155">
        <ele>91</ele>
        <time>2023-08-13T12:21:24.396+00:00</time>
      </trkpt>
      <trkpt lat="49.38142" lon="-1.61158">
        <ele>91</ele>
        <time>2023-08-13T12:21:28.535+00:00</time>
      </trkpt>
      <trkpt lat="49.38146" lon="-1.61161">
        <ele>91</ele>
        <time>2023-08-13T12:21:33.015+00:00</time>
      </trkpt>
      <trkpt lat="49.38149" lon="-1.61165">
        <ele>91</ele>
        <time>2023-08-13T12:21:37.213+00:00</time>
      </trkpt>
      <trkpt lat="49.38153" lon="-1.61169">
        <ele>90</ele>
        <time>2023-08-13T12:21:41.374+00:00</time>
      </trkpt>
      <trkpt lat="49.38156" lon="-1.61173">
        <ele>90</ele>
        <time>2023-08-13T12:21:45.734+00:00</time>
      </trkpt>
      <trkpt lat="49.3816" lon="-1.61176">
        <ele>90</ele>
        <time>2023-08-13T12:21:50.793+00:00</time>
      </trkpt>
      <trkpt lat="49.38162" lon="-1.61181">
        <ele>90</ele>
        <time>2023-08-13T12:21:55.633+00:00</time>
      </trkpt>
      <trkpt lat="49.38164" lon="-1.61186">
        <ele>90</ele>
        <time>2023-08-13T12:21:59.633+00:00</time>
      </trkpt>
      <trkpt lat="49.38168" lon="-1.6119">
        <ele>90</ele>
        <time>2023-08-13T12:22:03.830+00:00</time>
      </trkpt>
      <trkpt lat="49.38172" lon="-1.61192">
        <ele>90</ele>
        <time>2023-08-13T12:22:08.328+00:00</time>
      </trkpt>
      <trkpt lat="49.38175" lon="-1.61196">
        <ele>90</ele>
        <time>2023-08-13T12:22:12.903+00:00</time>
      </trkpt>
      <trkpt lat="49.38178" lon="-1.612">
        <ele>90</ele>
        <time>2023-08-13T12:22:16.978+00:00</time>
      </trkpt>
      <trkpt lat="49.38181" lon="-1.61205">
        <ele>88</ele>
        <time>2023-08-13T12:22:21.534+00:00</time>
      </trkpt>
      <trkpt lat="49.38185" lon="-1.61211">
        <ele>88</ele>
        <time>2023-08-13T12:22:26.049+00:00</time>
      </trkpt>
      <trkpt lat="49.38188" lon="-1.61216">
        <ele>88</ele>
        <time>2023-08-13T12:22:30.122+00:00</time>
      </trkpt>
      <trkpt lat="49.38192" lon="-1.6122">
        <ele>88</ele>
        <time>2023-08-13T12:22:34.076+00:00</time>
      </trkpt>
      <trkpt lat="49.38196" lon="-1.61223">
        <ele>88</ele>
        <time>2023-08-13T12:22:38.630+00:00</time>
      </trkpt>
      <trkpt lat="49.38198" lon="-1.61224">
        <ele>88</ele>
        <time>2023-08-13T12:22:42.585+00:00</time>
      </trkpt>
      <trkpt lat="49.38202" lon="-1.61226">
        <ele>88</ele>
        <time>2023-08-13T12:22:46.539+00:00</time>
      </trkpt>
      <trkpt lat="49.38206" lon="-1.6123">
        <ele>88</ele>
        <time>2023-08-13T12:22:50.974+00:00</time>
      </trkpt>
      <trkpt lat="49.38211" lon="-1.61234">
        <ele>86</ele>
        <time>2023-08-13T12:22:55.368+00:00</time>
      </trkpt>
      <trkpt lat="49.38215" lon="-1.61237">
        <ele>87</ele>
        <time>2023-08-13T12:22:59.324+00:00</time>
      </trkpt>
      <trkpt lat="49.38219" lon="-1.6124">
        <ele>87</ele>
        <time>2023-08-13T12:23:03.998+00:00</time>
      </trkpt>
      <trkpt lat="49.38223" lon="-1.61241">
        <ele>87</ele>
        <time>2023-08-13T12:23:07.954+00:00</time>
      </trkpt>
      <trkpt lat="49.38226" lon="-1.61245">
        <ele>87</ele>
        <time>2023-08-13T12:23:11.971+00:00</time>
      </trkpt>
      <trkpt lat="49.3823" lon="-1.61251">
        <ele>87</ele>
        <time>2023-08-13T12:23:16.525+00:00</time>
      </trkpt>
      <trkpt lat="49.38235" lon="-1.61256">
        <ele>87</ele>
        <time>2023-08-13T12:23:20.719+00:00</time>
      </trkpt>
      <trkpt lat="49.38239" lon="-1.61258">
        <ele>87</ele>
        <time>2023-08-13T12:23:24.674+00:00</time>
      </trkpt>
      <trkpt lat="49.38241" lon="-1.61258">
        <ele>87</ele>
        <time>2023-08-13T12:23:29.222+00:00</time>
      </trkpt>
      <trkpt lat="49.38243" lon="-1.61262">
        <ele>87</ele>
        <time>2023-08-13T12:23:33.222+00:00</time>
      </trkpt>
      <trkpt lat="49.38246" lon="-1.61264">
        <ele>89</ele>
        <time>2023-08-13T12:23:37.695+00:00</time>
      </trkpt>
      <trkpt lat="49.38249" lon="-1.61271">
        <ele>89</ele>
        <time>2023-08-13T12:23:41.645+00:00</time>
      </trkpt>
      <trkpt lat="49.38253" lon="-1.61276">
        <ele>89</ele>
        <time>2023-08-13T12:23:45.718+00:00</time>
      </trkpt>
      <trkpt lat="49.38257" lon="-1.6128">
        <ele>89</ele>
        <time>2023-08-13T12:23:50.100+00:00</time>
      </trkpt>
      <trkpt lat="49.3826" lon="-1.61284">
        <ele>89</ele>
        <time>2023-08-13T12:23:54.103+00:00</time>
      </trkpt>
      <trkpt lat="49.38264" lon="-1.61284">
        <ele>89</ele>
        <time>2023-08-13T12:23:58.115+00:00</time>
      </trkpt>
      <trkpt lat="49.38268" lon="-1.61287">
        <ele>87</ele>
        <time>2023-08-13T12:24:02.092+00:00</time>
      </trkpt>
      <trkpt lat="49.38272" lon="-1.61293">
        <ele>89</ele>
        <time>2023-08-13T12:24:06.644+00:00</time>
      </trkpt>
      <trkpt lat="49.38277" lon="-1.61297">
        <ele>89</ele>
        <time>2023-08-13T12:24:11.434+00:00</time>
      </trkpt>
      <trkpt lat="49.38281" lon="-1.613">
        <ele>89</ele>
        <time>2023-08-13T12:24:15.625+00:00</time>
      </trkpt>
      <trkpt lat="49.38285" lon="-1.61303">
        <ele>89</ele>
        <time>2023-08-13T12:24:20.222+00:00</time>
      </trkpt>
      <trkpt lat="49.38288" lon="-1.61307">
        <ele>89</ele>
        <time>2023-08-13T12:24:24.726+00:00</time>
      </trkpt>
      <trkpt lat="49.38292" lon="-1.6131">
        <ele>87</ele>
        <time>2023-08-13T12:24:28.798+00:00</time>
      </trkpt>
      <trkpt lat="49.38297" lon="-1.61313">
        <ele>87</ele>
        <time>2023-08-13T12:24:33.222+00:00</time>
      </trkpt>
      <trkpt lat="49.38301" lon="-1.61316">
        <ele>87</ele>
        <time>2023-08-13T12:24:38.022+00:00</time>
      </trkpt>
      <trkpt lat="49.38305" lon="-1.6132">
        <ele>88</ele>
        <time>2023-08-13T12:24:42.455+00:00</time>
      </trkpt>
      <trkpt lat="49.38308" lon="-1.61324">
        <ele>88</ele>
        <time>2023-08-13T12:24:46.528+00:00</time>
      </trkpt>
      <trkpt lat="49.38312" lon="-1.61329">
        <ele>88</ele>
        <time>2023-08-13T12:24:51.136+00:00</time>
      </trkpt>
      <trkpt lat="49.38315" lon="-1.61333">
        <ele>88</ele>
        <time>2023-08-13T12:24:55.222+00:00</time>
      </trkpt>
      <trkpt lat="49.38319" lon="-1.61336">
        <ele>88</ele>
        <time>2023-08-13T12:24:59.788+00:00</time>
      </trkpt>
      <trkpt lat="49.38323" lon="-1.61339">
        <ele>87</ele>
        <time>2023-08-13T12:25:04.342+00:00</time>
      </trkpt>
      <trkpt lat="49.38327" lon="-1.61342">
        <ele>87</ele>
        <time>2023-08-13T12:25:08.457+00:00</time>
      </trkpt>
      <trkpt lat="49.3833" lon="-1.61345">
        <ele>87</ele>
        <time>2023-08-13T12:25:13.096+00:00</time>
      </trkpt>
      <trkpt lat="49.38334" lon="-1.61347">
        <ele>87</ele>
        <time>2023-08-13T12:25:17.027+00:00</time>
      </trkpt>
      <trkpt lat="49.38337" lon="-1.61348">
        <ele>87</ele>
        <time>2023-08-13T12:25:21.664+00:00</time>
      </trkpt>
      <trkpt lat="49.3834" lon="-1.61352">
        <ele>87</ele>
        <time>2023-08-13T12:25:25.654+00:00</time>
      </trkpt>
      <trkpt lat="49.38344" lon="-1.61355">
        <ele>87</ele>
        <time>2023-08-13T12:25:29.669+00:00</time>
      </trkpt>
      <trkpt lat="49.38347" lon="-1.61357">
        <ele>87</ele>
        <time>2023-08-13T12:25:33.625+00:00</time>
      </trkpt>
      <trkpt lat="49.38352" lon="-1.61358">
        <ele>85</ele>
        <time>2023-08-13T12:25:42.438+00:00</time>
      </trkpt>
      <trkpt lat="49.38355" lon="-1.61358">
        <ele>85</ele>
        <time>2023-08-13T12:25:47.222+00:00</time>
      </trkpt>
      <trkpt lat="49.38357" lon="-1.61359">
        <ele>85</ele>
        <time>2023-08-13T12:25:51.905+00:00</time>
      </trkpt>
      <trkpt lat="49.38358" lon="-1.6136">
        <ele>85</ele>
        <time>2023-08-13T12:25:55.943+00:00</time>
      </trkpt>
      <trkpt lat="49.38359" lon="-1.61364">
        <ele>85</ele>
        <time>2023-08-13T12:26:00.358+00:00</time>
      </trkpt>
      <trkpt lat="49.38362" lon="-1.6137">
        <ele>85</ele>
        <time>2023-08-13T12:26:04.222+00:00</time>
      </trkpt>
      <trkpt lat="49.38364" lon="-1.61374">
        <ele>85</ele>
        <time>2023-08-13T12:26:08.747+00:00</time>
      </trkpt>
      <trkpt lat="49.38367" lon="-1.61379">
        <ele>85</ele>
        <time>2023-08-13T12:26:13.222+00:00</time>
      </trkpt>
      <trkpt lat="49.38368" lon="-1.61384">
        <ele>85</ele>
        <time>2023-08-13T12:26:17.732+00:00</time>
      </trkpt>
      <trkpt lat="49.38369" lon="-1.61387">
        <ele>85</ele>
        <time>2023-08-13T12:26:21.925+00:00</time>
      </trkpt>
      <trkpt lat="49.38373" lon="-1.6139">
        <ele>85</ele>
        <time>2023-08-13T12:26:26.478+00:00</time>
      </trkpt>
      <trkpt lat="49.38376" lon="-1.6139">
        <ele>83</ele>
        <time>2023-08-13T12:26:30.551+00:00</time>
      </trkpt>
      <trkpt lat="49.38378" lon="-1.61392">
        <ele>83</ele>
        <time>2023-08-13T12:26:35.102+00:00</time>
      </trkpt>
      <trkpt lat="49.38381" lon="-1.61396">
        <ele>83</ele>
        <time>2023-08-13T12:26:39.653+00:00</time>
      </trkpt>
      <trkpt lat="49.38384" lon="-1.61397">
        <ele>83</ele>
        <time>2023-08-13T12:26:43.667+00:00</time>
      </trkpt>
      <trkpt lat="49.38389" lon="-1.61398">
        <ele>83</ele>
        <time>2023-08-13T12:26:48.698+00:00</time>
      </trkpt>
      <trkpt lat="49.38393" lon="-1.61401">
        <ele>83</ele>
        <time>2023-08-13T12:26:53.222+00:00</time>
      </trkpt>
      <trkpt lat="49.38398" lon="-1.61401">
        <ele>83</ele>
        <time>2023-08-13T12:26:57.681+00:00</time>
      </trkpt>
      <trkpt lat="49.384" lon="-1.61397">
        <ele>83</ele>
        <time>2023-08-13T12:27:01.634+00:00</time>
      </trkpt>
      <trkpt lat="49.38404" lon="-1.61399">
        <ele>81</ele>
        <time>2023-08-13T12:27:06.665+00:00</time>
      </trkpt>
      <trkpt lat="49.38409" lon="-1.61401">
        <ele>81</ele>
        <time>2023-08-13T12:27:11.336+00:00</time>
      </trkpt>
      <trkpt lat="49.38414" lon="-1.61404">
        <ele>81</ele>
        <time>2023-08-13T12:27:16.117+00:00</time>
      </trkpt>
      <trkpt lat="49.38418" lon="-1.61405">
        <ele>81</ele>
        <time>2023-08-13T12:27:20.222+00:00</time>
      </trkpt>
      <trkpt lat="49.38422" lon="-1.61404">
        <ele>81</ele>
        <time>2023-08-13T12:27:24.222+00:00</time>
      </trkpt>
      <trkpt lat="49.38426" lon="-1.61403">
        <ele>81</ele>
        <time>2023-08-13T12:27:28.787+00:00</time>
      </trkpt>
      <trkpt lat="49.3843" lon="-1.61405">
        <ele>81</ele>
        <time>2023-08-13T12:27:33.339+00:00</time>
      </trkpt>
      <trkpt lat="49.38434" lon="-1.61407">
        <ele>80</ele>
        <time>2023-08-13T12:27:37.530+00:00</time>
      </trkpt>
      <trkpt lat="49.38437" lon="-1.61413">
        <ele>80</ele>
        <time>2023-08-13T12:27:41.719+00:00</time>
      </trkpt>
      <trkpt lat="49.38442" lon="-1.61414">
        <ele>80</ele>
        <time>2023-08-13T12:27:46.238+00:00</time>
      </trkpt>
      <trkpt lat="49.38446" lon="-1.61413">
        <ele>80</ele>
        <time>2023-08-13T12:27:50.720+00:00</time>
      </trkpt>
      <trkpt lat="49.38449" lon="-1.61415">
        <ele>80</ele>
        <time>2023-08-13T12:27:54.651+00:00</time>
      </trkpt>
      <trkpt lat="49.38452" lon="-1.61419">
        <ele>80</ele>
        <time>2023-08-13T12:27:59.222+00:00</time>
      </trkpt>
      <trkpt lat="49.38457" lon="-1.61423">
        <ele>80</ele>
        <time>2023-08-13T12:28:03.779+00:00</time>
      </trkpt>
      <trkpt lat="49.38462" lon="-1.61427">
        <ele>77</ele>
        <time>2023-08-13T12:28:07.787+00:00</time>
      </trkpt>
      <trkpt lat="49.38467" lon="-1.6143">
        <ele>77</ele>
        <time>2023-08-13T12:28:12.298+00:00</time>
      </trkpt>
      <trkpt lat="49.38472" lon="-1.61433">
        <ele>78</ele>
        <time>2023-08-13T12:28:16.848+00:00</time>
      </trkpt>
      <trkpt lat="49.38477" lon="-1.61436">
        <ele>78</ele>
        <time>2023-08-13T12:28:21.039+00:00</time>
      </trkpt>
      <trkpt lat="49.38482" lon="-1.61439">
        <ele>78</ele>
        <time>2023-08-13T12:28:25.222+00:00</time>
      </trkpt>
      <trkpt lat="49.38485" lon="-1.61441">
        <ele>78</ele>
        <time>2023-08-13T12:28:29.420+00:00</time>
      </trkpt>
      <trkpt lat="49.38489" lon="-1.61444">
        <ele>73</ele>
        <time>2023-08-13T12:28:33.371+00:00</time>
      </trkpt>
      <trkpt lat="49.38494" lon="-1.61449">
        <ele>73</ele>
        <time>2023-08-13T12:28:37.922+00:00</time>
      </trkpt>
      <trkpt lat="49.38498" lon="-1.61453">
        <ele>73</ele>
        <time>2023-08-13T12:28:41.996+00:00</time>
      </trkpt>
      <trkpt lat="49.38502" lon="-1.61456">
        <ele>73</ele>
        <time>2023-08-13T12:28:46.530+00:00</time>
      </trkpt>
      <trkpt lat="49.38506" lon="-1.61459">
        <ele>75</ele>
        <time>2023-08-13T12:28:50.725+00:00</time>
      </trkpt>
      <trkpt lat="49.38511" lon="-1.61463">
        <ele>75</ele>
        <time>2023-08-13T12:28:55.998+00:00</time>
      </trkpt>
      <trkpt lat="49.38515" lon="-1.61466">
        <ele>72</ele>
        <time>2023-08-13T12:28:59.952+00:00</time>
      </trkpt>
      <trkpt lat="49.38518" lon="-1.6147">
        <ele>72</ele>
        <time>2023-08-13T12:29:04.117+00:00</time>
      </trkpt>
      <trkpt lat="49.38523" lon="-1.61474">
        <ele>72</ele>
        <time>2023-08-13T12:29:07.977+00:00</time>
      </trkpt>
      <trkpt lat="49.38528" lon="-1.61478">
        <ele>72</ele>
        <time>2023-08-13T12:29:12.529+00:00</time>
      </trkpt>
      <trkpt lat="49.38533" lon="-1.61483">
        <ele>72</ele>
        <time>2023-08-13T12:29:16.721+00:00</time>
      </trkpt>
      <trkpt lat="49.38537" lon="-1.61487">
        <ele>72</ele>
        <time>2023-08-13T12:29:21.152+00:00</time>
      </trkpt>
      <trkpt lat="49.38541" lon="-1.61491">
        <ele>72</ele>
        <time>2023-08-13T12:29:25.222+00:00</time>
      </trkpt>
      <trkpt lat="49.38545" lon="-1.61494">
        <ele>70</ele>
        <time>2023-08-13T12:29:29.417+00:00</time>
      </trkpt>
      <trkpt lat="49.38556" lon="-1.61502">
        <ele>70</ele>
        <time>2023-08-13T12:30:02.772+00:00</time>
      </trkpt>
      <trkpt lat="49.38557" lon="-1.61502">
        <ele>70</ele>
        <time>2023-08-13T12:30:07.283+00:00</time>
      </trkpt>
      <trkpt lat="49.38561" lon="-1.61503">
        <ele>70</ele>
        <time>2023-08-13T12:30:11.446+00:00</time>
      </trkpt>
      <trkpt lat="49.38564" lon="-1.61508">
        <ele>70</ele>
        <time>2023-08-13T12:30:15.844+00:00</time>
      </trkpt>
      <trkpt lat="49.38568" lon="-1.61511">
        <ele>70</ele>
        <time>2023-08-13T12:30:20.323+00:00</time>
      </trkpt>
      <trkpt lat="49.38573" lon="-1.61516">
        <ele>68</ele>
        <time>2023-08-13T12:30:24.883+00:00</time>
      </trkpt>
      <trkpt lat="49.38576" lon="-1.6152">
        <ele>68</ele>
        <time>2023-08-13T12:30:28.900+00:00</time>
      </trkpt>
      <trkpt lat="49.38579" lon="-1.61524">
        <ele>68</ele>
        <time>2023-08-13T12:30:32.738+00:00</time>
      </trkpt>
      <trkpt lat="49.38583" lon="-1.61525">
        <ele>68</ele>
        <time>2023-08-13T12:30:36.875+00:00</time>
      </trkpt>
      <trkpt lat="49.38586" lon="-1.61524">
        <ele>68</ele>
        <time>2023-08-13T12:30:40.772+00:00</time>
      </trkpt>
      <trkpt lat="49.3859" lon="-1.6153">
        <ele>68</ele>
        <time>2023-08-13T12:30:45.327+00:00</time>
      </trkpt>
      <trkpt lat="49.38596" lon="-1.61534">
        <ele>68</ele>
        <time>2023-08-13T12:30:49.521+00:00</time>
      </trkpt>
      <trkpt lat="49.386" lon="-1.61539">
        <ele>66</ele>
        <time>2023-08-13T12:30:53.595+00:00</time>
      </trkpt>
      <trkpt lat="49.38604" lon="-1.61543">
        <ele>67</ele>
        <time>2023-08-13T12:30:58.122+00:00</time>
      </trkpt>
      <trkpt lat="49.38608" lon="-1.61547">
        <ele>67</ele>
        <time>2023-08-13T12:31:01.981+00:00</time>
      </trkpt>
      <trkpt lat="49.38612" lon="-1.61552">
        <ele>67</ele>
        <time>2023-08-13T12:31:06.532+00:00</time>
      </trkpt>
      <trkpt lat="49.38617" lon="-1.61555">
        <ele>67</ele>
        <time>2023-08-13T12:31:10.646+00:00</time>
      </trkpt>
      <trkpt lat="49.38621" lon="-1.61559">
        <ele>67</ele>
        <time>2023-08-13T12:31:15.130+00:00</time>
      </trkpt>
      <trkpt lat="49.38626" lon="-1.61563">
        <ele>65</ele>
        <time>2023-08-13T12:31:19.749+00:00</time>
      </trkpt>
      <trkpt lat="49.3863" lon="-1.61566">
        <ele>65</ele>
        <time>2023-08-13T12:31:24.423+00:00</time>
      </trkpt>
      <trkpt lat="49.38635" lon="-1.6157">
        <ele>65</ele>
        <time>2023-08-13T12:31:28.969+00:00</time>
      </trkpt>
      <trkpt lat="49.38637" lon="-1.61572">
        <ele>65</ele>
        <time>2023-08-13T12:31:33.523+00:00</time>
      </trkpt>
      <trkpt lat="49.38641" lon="-1.61573">
        <ele>65</ele>
        <time>2023-08-13T12:31:37.587+00:00</time>
      </trkpt>
      <trkpt lat="49.38645" lon="-1.61577">
        <ele>65</ele>
        <time>2023-08-13T12:31:42.121+00:00</time>
      </trkpt>
      <trkpt lat="49.38648" lon="-1.6158">
        <ele>65</ele>
        <time>2023-08-13T12:31:46.158+00:00</time>
      </trkpt>
      <trkpt lat="49.38653" lon="-1.61583">
        <ele>65</ele>
        <time>2023-08-13T12:31:50.133+00:00</time>
      </trkpt>
      <trkpt lat="49.38657" lon="-1.61586">
        <ele>63</ele>
        <time>2023-08-13T12:31:54.134+00:00</time>
      </trkpt>
      <trkpt lat="49.38663" lon="-1.61591">
        <ele>63</ele>
        <time>2023-08-13T12:31:58.654+00:00</time>
      </trkpt>
      <trkpt lat="49.38667" lon="-1.61595">
        <ele>63</ele>
        <time>2023-08-13T12:32:02.688+00:00</time>
      </trkpt>
      <trkpt lat="49.38671" lon="-1.61599">
        <ele>62</ele>
        <time>2023-08-13T12:32:07.222+00:00</time>
      </trkpt>
      <trkpt lat="49.38675" lon="-1.61602">
        <ele>62</ele>
        <time>2023-08-13T12:32:11.434+00:00</time>
      </trkpt>
      <trkpt lat="49.38679" lon="-1.61603">
        <ele>62</ele>
        <time>2023-08-13T12:32:15.867+00:00</time>
      </trkpt>
      <trkpt lat="49.38682" lon="-1.61605">
        <ele>60</ele>
        <time>2023-08-13T12:32:19.883+00:00</time>
      </trkpt>
      <trkpt lat="49.38686" lon="-1.61599">
        <ele>60</ele>
        <time>2023-08-13T12:32:24.437+00:00</time>
      </trkpt>
      <trkpt lat="49.38688" lon="-1.61591">
        <ele>61</ele>
        <time>2023-08-13T12:32:28.351+00:00</time>
      </trkpt>
      <trkpt lat="49.38691" lon="-1.61584">
        <ele>61</ele>
        <time>2023-08-13T12:32:32.663+00:00</time>
      </trkpt>
      <trkpt lat="49.38693" lon="-1.61578">
        <ele>61</ele>
        <time>2023-08-13T12:32:36.618+00:00</time>
      </trkpt>
      <trkpt lat="49.38696" lon="-1.61571">
        <ele>61</ele>
        <time>2023-08-13T12:32:41.530+00:00</time>
      </trkpt>
      <trkpt lat="49.38698" lon="-1.61564">
        <ele>62</ele>
        <time>2023-08-13T12:32:45.962+00:00</time>
      </trkpt>
      <trkpt lat="49.38701" lon="-1.61558">
        <ele>62</ele>
        <time>2023-08-13T12:32:50.036+00:00</time>
      </trkpt>
      <trkpt lat="49.38702" lon="-1.61551">
        <ele>62</ele>
        <time>2023-08-13T12:32:54.222+00:00</time>
      </trkpt>
      <trkpt lat="49.38705" lon="-1.61544">
        <ele>62</ele>
        <time>2023-08-13T12:32:59.002+00:00</time>
      </trkpt>
      <trkpt lat="49.38707" lon="-1.61538">
        <ele>63</ele>
        <time>2023-08-13T12:33:02.957+00:00</time>
      </trkpt>
      <trkpt lat="49.38709" lon="-1.61532">
        <ele>61</ele>
        <time>2023-08-13T12:33:07.032+00:00</time>
      </trkpt>
      <trkpt lat="49.3871" lon="-1.61525">
        <ele>61</ele>
        <time>2023-08-13T12:33:11.222+00:00</time>
      </trkpt>
      <trkpt lat="49.38713" lon="-1.61518">
        <ele>61</ele>
        <time>2023-08-13T12:33:15.422+00:00</time>
      </trkpt>
      <trkpt lat="49.38716" lon="-1.61512">
        <ele>62</ele>
        <time>2023-08-13T12:33:19.619+00:00</time>
      </trkpt>
      <trkpt lat="49.38717" lon="-1.61505">
        <ele>62</ele>
        <time>2023-08-13T12:33:23.656+00:00</time>
      </trkpt>
      <trkpt lat="49.38717" lon="-1.61499">
        <ele>62</ele>
        <time>2023-08-13T12:33:28.130+00:00</time>
      </trkpt>
      <trkpt lat="49.3872" lon="-1.61496">
        <ele>62</ele>
        <time>2023-08-13T12:33:32.643+00:00</time>
      </trkpt>
      <trkpt lat="49.38724" lon="-1.61495">
        <ele>62</ele>
        <time>2023-08-13T12:33:37.131+00:00</time>
      </trkpt>
      <trkpt lat="49.38728" lon="-1.61493">
        <ele>62</ele>
        <time>2023-08-13T12:33:41.122+00:00</time>
      </trkpt>
      <trkpt lat="49.38732" lon="-1.61495">
        <ele>62</ele>
        <time>2023-08-13T12:33:45.560+00:00</time>
      </trkpt>
      <trkpt lat="49.38737" lon="-1.61498">
        <ele>61</ele>
        <time>2023-08-13T12:33:49.532+00:00</time>
      </trkpt>
      <trkpt lat="49.38743" lon="-1.61502">
        <ele>61</ele>
        <time>2023-08-13T12:33:54.783+00:00</time>
      </trkpt>
      <trkpt lat="49.38747" lon="-1.615">
        <ele>61</ele>
        <time>2023-08-13T12:33:59.437+00:00</time>
      </trkpt>
      <trkpt lat="49.38751" lon="-1.61502">
        <ele>61</ele>
        <time>2023-08-13T12:34:03.631+00:00</time>
      </trkpt>
      <trkpt lat="49.38756" lon="-1.61506">
        <ele>61</ele>
        <time>2023-08-13T12:34:07.824+00:00</time>
      </trkpt>
      <trkpt lat="49.3876" lon="-1.6151">
        <ele>61</ele>
        <time>2023-08-13T12:34:12.376+00:00</time>
      </trkpt>
      <trkpt lat="49.38765" lon="-1.61513">
        <ele>60</ele>
        <time>2023-08-13T12:34:16.391+00:00</time>
      </trkpt>
      <trkpt lat="49.3877" lon="-1.61515">
        <ele>58</ele>
        <time>2023-08-13T12:34:20.926+00:00</time>
      </trkpt>
      <trkpt lat="49.38774" lon="-1.61517">
        <ele>58</ele>
        <time>2023-08-13T12:34:25.061+00:00</time>
      </trkpt>
      <trkpt lat="49.38778" lon="-1.61519">
        <ele>58</ele>
        <time>2023-08-13T12:34:29.016+00:00</time>
      </trkpt>
      <trkpt lat="49.38782" lon="-1.61522">
        <ele>58</ele>
        <time>2023-08-13T12:34:33.127+00:00</time>
      </trkpt>
      <trkpt lat="49.38787" lon="-1.61526">
        <ele>58</ele>
        <time>2023-08-13T12:34:37.625+00:00</time>
      </trkpt>
      <trkpt lat="49.3879" lon="-1.6153">
        <ele>58</ele>
        <time>2023-08-13T12:34:42.222+00:00</time>
      </trkpt>
      <trkpt lat="49.38793" lon="-1.61532">
        <ele>59</ele>
        <time>2023-08-13T12:34:46.336+00:00</time>
      </trkpt>
      <trkpt lat="49.38797" lon="-1.61536">
        <ele>59</ele>
        <time>2023-08-13T12:34:50.970+00:00</time>
      </trkpt>
      <trkpt lat="49.38802" lon="-1.6154">
        <ele>59</ele>
        <time>2023-08-13T12:34:55.523+00:00</time>
      </trkpt>
      <trkpt lat="49.38806" lon="-1.6154">
        <ele>59</ele>
        <time>2023-08-13T12:34:59.559+00:00</time>
      </trkpt>
      <trkpt lat="49.3881" lon="-1.61544">
        <ele>57</ele>
        <time>2023-08-13T12:35:03.993+00:00</time>
      </trkpt>
      <trkpt lat="49.38814" lon="-1.6155">
        <ele>57</ele>
        <time>2023-08-13T12:35:08.407+00:00</time>
      </trkpt>
      <trkpt lat="49.38818" lon="-1.61555">
        <ele>57</ele>
        <time>2023-08-13T12:35:12.840+00:00</time>
      </trkpt>
      <trkpt lat="49.38822" lon="-1.6156">
        <ele>59</ele>
        <time>2023-08-13T12:35:17.033+00:00</time>
      </trkpt>
      <trkpt lat="49.38827" lon="-1.61564">
        <ele>59</ele>
        <time>2023-08-13T12:35:21.566+00:00</time>
      </trkpt>
      <trkpt lat="49.38831" lon="-1.61568">
        <ele>59</ele>
        <time>2023-08-13T12:35:25.943+00:00</time>
      </trkpt>
      <trkpt lat="49.38835" lon="-1.61571">
        <ele>58</ele>
        <time>2023-08-13T12:35:29.951+00:00</time>
      </trkpt>
      <trkpt lat="49.38839" lon="-1.61574">
        <ele>58</ele>
        <time>2023-08-13T12:35:34.137+00:00</time>
      </trkpt>
      <trkpt lat="49.38843" lon="-1.61577">
        <ele>58</ele>
        <time>2023-08-13T12:35:38.135+00:00</time>
      </trkpt>
      <trkpt lat="49.38847" lon="-1.61581">
        <ele>58</ele>
        <time>2023-08-13T12:35:42.134+00:00</time>
      </trkpt>
      <trkpt lat="49.3885" lon="-1.61586">
        <ele>60</ele>
        <time>2023-08-13T12:35:46.686+00:00</time>
      </trkpt>
      <trkpt lat="49.38854" lon="-1.61588">
        <ele>60</ele>
        <time>2023-08-13T12:35:51.718+00:00</time>
      </trkpt>
      <trkpt lat="49.38858" lon="-1.61591">
        <ele>60</ele>
        <time>2023-08-13T12:35:56.222+00:00</time>
      </trkpt>
      <trkpt lat="49.38862" lon="-1.61597">
        <ele>60</ele>
        <time>2023-08-13T12:36:00.941+00:00</time>
      </trkpt>
      <trkpt lat="49.38866" lon="-1.61598">
        <ele>58</ele>
        <time>2023-08-13T12:36:04.994+00:00</time>
      </trkpt>
      <trkpt lat="49.38871" lon="-1.61604">
        <ele>58</ele>
        <time>2023-08-13T12:36:09.547+00:00</time>
      </trkpt>
      <trkpt lat="49.38876" lon="-1.61606">
        <ele>59</ele>
        <time>2023-08-13T12:36:13.741+00:00</time>
      </trkpt>
      <trkpt lat="49.38881" lon="-1.61607">
        <ele>59</ele>
        <time>2023-08-13T12:36:17.933+00:00</time>
      </trkpt>
      <trkpt lat="49.38886" lon="-1.61608">
        <ele>59</ele>
        <time>2023-08-13T12:36:22.546+00:00</time>
      </trkpt>
      <trkpt lat="49.3889" lon="-1.6161">
        <ele>59</ele>
        <time>2023-08-13T12:36:26.619+00:00</time>
      </trkpt>
      <trkpt lat="49.38896" lon="-1.61611">
        <ele>59</ele>
        <time>2023-08-13T12:36:31.172+00:00</time>
      </trkpt>
      <trkpt lat="49.389" lon="-1.61613">
        <ele>59</ele>
        <time>2023-08-13T12:36:35.222+00:00</time>
      </trkpt>
      <trkpt lat="49.38905" lon="-1.61615">
        <ele>59</ele>
        <time>2023-08-13T12:36:39.679+00:00</time>
      </trkpt>
      <trkpt lat="49.38909" lon="-1.61616">
        <ele>59</ele>
        <time>2023-08-13T12:36:43.633+00:00</time>
      </trkpt>
      <trkpt lat="49.38914" lon="-1.61617">
        <ele>59</ele>
        <time>2023-08-13T12:36:48.134+00:00</time>
      </trkpt>
      <trkpt lat="49.38918" lon="-1.61618">
        <ele>59</ele>
        <time>2023-08-13T12:36:52.150+00:00</time>
      </trkpt>
      <trkpt lat="49.38922" lon="-1.61619">
        <ele>59</ele>
        <time>2023-08-13T12:36:56.137+00:00</time>
      </trkpt>
      <trkpt lat="49.38927" lon="-1.61621">
        <ele>59</ele>
        <time>2023-08-13T12:37:00.174+00:00</time>
      </trkpt>
      <trkpt lat="49.38931" lon="-1.61623">
        <ele>57</ele>
        <time>2023-08-13T12:37:04.685+00:00</time>
      </trkpt>
      <trkpt lat="49.38936" lon="-1.61625">
        <ele>57</ele>
        <time>2023-08-13T12:37:08.756+00:00</time>
      </trkpt>
      <trkpt lat="49.38941" lon="-1.61627">
        <ele>54</ele>
        <time>2023-08-13T12:37:12.948+00:00</time>
      </trkpt>
      <trkpt lat="49.38944" lon="-1.61627">
        <ele>54</ele>
        <time>2023-08-13T12:37:17.380+00:00</time>
      </trkpt>
      <trkpt lat="49.38948" lon="-1.61626">
        <ele>54</ele>
        <time>2023-08-13T12:37:22.133+00:00</time>
      </trkpt>
      <trkpt lat="49.38952" lon="-1.61625">
        <ele>54</ele>
        <time>2023-08-13T12:37:26.325+00:00</time>
      </trkpt>
      <trkpt lat="49.38957" lon="-1.61627">
        <ele>54</ele>
        <time>2023-08-13T12:37:30.398+00:00</time>
      </trkpt>
      <trkpt lat="49.3896" lon="-1.61629">
        <ele>53</ele>
        <time>2023-08-13T12:37:34.949+00:00</time>
      </trkpt>
      <trkpt lat="49.38964" lon="-1.61633">
        <ele>53</ele>
        <time>2023-08-13T12:37:39.104+00:00</time>
      </trkpt>
      <trkpt lat="49.38969" lon="-1.61636">
        <ele>53</ele>
        <time>2023-08-13T12:37:43.035+00:00</time>
      </trkpt>
      <trkpt lat="49.38973" lon="-1.61637">
        <ele>53</ele>
        <time>2023-08-13T12:37:47.679+00:00</time>
      </trkpt>
      <trkpt lat="49.38977" lon="-1.61635">
        <ele>53</ele>
        <time>2023-08-13T12:37:51.641+00:00</time>
      </trkpt>
      <trkpt lat="49.38982" lon="-1.61635">
        <ele>53</ele>
        <time>2023-08-13T12:37:55.833+00:00</time>
      </trkpt>
      <trkpt lat="49.38986" lon="-1.61639">
        <ele>53</ele>
        <time>2023-08-13T12:38:00.385+00:00</time>
      </trkpt>
      <trkpt lat="49.38992" lon="-1.61641">
        <ele>53</ele>
        <time>2023-08-13T12:38:04.902+00:00</time>
      </trkpt>
      <trkpt lat="49.38997" lon="-1.61642">
        <ele>53</ele>
        <time>2023-08-13T12:38:08.753+00:00</time>
      </trkpt>
      <trkpt lat="49.39002" lon="-1.61645">
        <ele>53</ele>
        <time>2023-08-13T12:38:13.426+00:00</time>
      </trkpt>
      <trkpt lat="49.39005" lon="-1.61652">
        <ele>53</ele>
        <time>2023-08-13T12:38:17.580+00:00</time>
      </trkpt>
      <trkpt lat="49.39007" lon="-1.61658">
        <ele>51</ele>
        <time>2023-08-13T12:38:21.614+00:00</time>
      </trkpt>
      <trkpt lat="49.39009" lon="-1.61665">
        <ele>51</ele>
        <time>2023-08-13T12:38:26.222+00:00</time>
      </trkpt>
      <trkpt lat="49.39007" lon="-1.61673">
        <ele>51</ele>
        <time>2023-08-13T12:38:30.222+00:00</time>
      </trkpt>
      <trkpt lat="49.39006" lon="-1.6168">
        <ele>51</ele>
        <time>2023-08-13T12:38:34.716+00:00</time>
      </trkpt>
      <trkpt lat="49.39003" lon="-1.61686">
        <ele>50</ele>
        <time>2023-08-13T12:38:38.647+00:00</time>
      </trkpt>
      <trkpt lat="49.39002" lon="-1.61692">
        <ele>50</ele>
        <time>2023-08-13T12:38:42.702+00:00</time>
      </trkpt>
      <trkpt lat="49.39" lon="-1.61699">
        <ele>50</ele>
        <time>2023-08-13T12:38:46.655+00:00</time>
      </trkpt>
      <trkpt lat="49.39" lon="-1.61706">
        <ele>50</ele>
        <time>2023-08-13T12:38:51.327+00:00</time>
      </trkpt>
      <trkpt lat="49.38999" lon="-1.61713">
        <ele>48</ele>
        <time>2023-08-13T12:38:55.521+00:00</time>
      </trkpt>
      <trkpt lat="49.38998" lon="-1.6172">
        <ele>48</ele>
        <time>2023-08-13T12:39:00.056+00:00</time>
      </trkpt>
      <trkpt lat="49.38998" lon="-1.61726">
        <ele>48</ele>
        <time>2023-08-13T12:39:04.126+00:00</time>
      </trkpt>
      <trkpt lat="49.38998" lon="-1.61733">
        <ele>48</ele>
        <time>2023-08-13T12:39:08.218+00:00</time>
      </trkpt>
      <trkpt lat="49.38997" lon="-1.6174">
        <ele>47</ele>
        <time>2023-08-13T12:39:12.782+00:00</time>
      </trkpt>
      <trkpt lat="49.38996" lon="-1.61747">
        <ele>47</ele>
        <time>2023-08-13T12:39:16.833+00:00</time>
      </trkpt>
      <trkpt lat="49.38995" lon="-1.61754">
        <ele>47</ele>
        <time>2023-08-13T12:39:20.774+00:00</time>
      </trkpt>
      <trkpt lat="49.38996" lon="-1.6176">
        <ele>47</ele>
        <time>2023-08-13T12:39:25.325+00:00</time>
      </trkpt>
      <trkpt lat="49.38995" lon="-1.61767">
        <ele>45</ele>
        <time>2023-08-13T12:39:29.398+00:00</time>
      </trkpt>
      <trkpt lat="49.38995" lon="-1.61773">
        <ele>45</ele>
        <time>2023-08-13T12:39:33.949+00:00</time>
      </trkpt>
      <trkpt lat="49.38993" lon="-1.61779">
        <ele>45</ele>
        <time>2023-08-13T12:39:37.782+00:00</time>
      </trkpt>
      <trkpt lat="49.38991" lon="-1.61785">
        <ele>45</ele>
        <time>2023-08-13T12:39:42.334+00:00</time>
      </trkpt>
      <trkpt lat="49.38991" lon="-1.61791">
        <ele>45</ele>
        <time>2023-08-13T12:39:46.526+00:00</time>
      </trkpt>
      <trkpt lat="49.3899" lon="-1.61797">
        <ele>44</ele>
        <time>2023-08-13T12:39:50.718+00:00</time>
      </trkpt>
      <trkpt lat="49.3899" lon="-1.61802">
        <ele>44</ele>
        <time>2023-08-13T12:39:54.669+00:00</time>
      </trkpt>
      <trkpt lat="49.3899" lon="-1.61803">
        <ele>44</ele>
        <time>2023-08-13T12:39:59.219+00:00</time>
      </trkpt>
      <trkpt lat="49.3899" lon="-1.61811">
        <ele>44</ele>
        <time>2023-08-13T12:40:03.222+00:00</time>
      </trkpt>
      <trkpt lat="49.3899" lon="-1.61819">
        <ele>43</ele>
        <time>2023-08-13T12:40:07.802+00:00</time>
      </trkpt>
      <trkpt lat="49.38988" lon="-1.61826">
        <ele>43</ele>
        <time>2023-08-13T12:40:12.592+00:00</time>
      </trkpt>
      <trkpt lat="49.38988" lon="-1.61831">
        <ele>43</ele>
        <time>2023-08-13T12:40:17.100+00:00</time>
      </trkpt>
      <trkpt lat="49.38986" lon="-1.61838">
        <ele>43</ele>
        <time>2023-08-13T12:40:20.939+00:00</time>
      </trkpt>
      <trkpt lat="49.38985" lon="-1.61845">
        <ele>43</ele>
        <time>2023-08-13T12:40:25.431+00:00</time>
      </trkpt>
      <trkpt lat="49.38984" lon="-1.61852">
        <ele>42</ele>
        <time>2023-08-13T12:40:29.384+00:00</time>
      </trkpt>
      <trkpt lat="49.38982" lon="-1.61859">
        <ele>42</ele>
        <time>2023-08-13T12:40:33.935+00:00</time>
      </trkpt>
      <trkpt lat="49.38981" lon="-1.61866">
        <ele>42</ele>
        <time>2023-08-13T12:40:37.986+00:00</time>
      </trkpt>
      <trkpt lat="49.3898" lon="-1.61872">
        <ele>42</ele>
        <time>2023-08-13T12:40:41.937+00:00</time>
      </trkpt>
      <trkpt lat="49.38978" lon="-1.61879">
        <ele>41</ele>
        <time>2023-08-13T12:40:46.367+00:00</time>
      </trkpt>
      <trkpt lat="49.38978" lon="-1.61885">
        <ele>41</ele>
        <time>2023-08-13T12:40:50.440+00:00</time>
      </trkpt>
      <trkpt lat="49.38979" lon="-1.61892">
        <ele>41</ele>
        <time>2023-08-13T12:40:54.631+00:00</time>
      </trkpt>
      <trkpt lat="49.38981" lon="-1.61898">
        <ele>41</ele>
        <time>2023-08-13T12:40:58.822+00:00</time>
      </trkpt>
      <trkpt lat="49.38984" lon="-1.61904">
        <ele>40</ele>
        <time>2023-08-13T12:41:03.372+00:00</time>
      </trkpt>
      <trkpt lat="49.38987" lon="-1.61909">
        <ele>40</ele>
        <time>2023-08-13T12:41:07.324+00:00</time>
      </trkpt>
      <trkpt lat="49.3899" lon="-1.61915">
        <ele>40</ele>
        <time>2023-08-13T12:41:11.395+00:00</time>
      </trkpt>
      <trkpt lat="49.38993" lon="-1.6192">
        <ele>40</ele>
        <time>2023-08-13T12:41:15.938+00:00</time>
      </trkpt>
      <trkpt lat="49.38996" lon="-1.61925">
        <ele>40</ele>
        <time>2023-08-13T12:41:20.137+00:00</time>
      </trkpt>
      <trkpt lat="49.38999" lon="-1.6193">
        <ele>40</ele>
        <time>2023-08-13T12:41:24.141+00:00</time>
      </trkpt>
      <trkpt lat="49.39002" lon="-1.61935">
        <ele>40</ele>
        <time>2023-08-13T12:41:28.714+00:00</time>
      </trkpt>
      <trkpt lat="49.39004" lon="-1.61939">
        <ele>40</ele>
        <time>2023-08-13T12:41:32.667+00:00</time>
      </trkpt>
      <trkpt lat="49.39007" lon="-1.61946">
        <ele>40</ele>
        <time>2023-08-13T12:41:37.139+00:00</time>
      </trkpt>
      <trkpt lat="49.39009" lon="-1.61951">
        <ele>40</ele>
        <time>2023-08-13T12:41:41.134+00:00</time>
      </trkpt>
      <trkpt lat="49.39011" lon="-1.61957">
        <ele>40</ele>
        <time>2023-08-13T12:41:45.722+00:00</time>
      </trkpt>
      <trkpt lat="49.39012" lon="-1.61964">
        <ele>41</ele>
        <time>2023-08-13T12:41:50.222+00:00</time>
      </trkpt>
      <trkpt lat="49.39015" lon="-1.6197">
        <ele>40</ele>
        <time>2023-08-13T12:41:54.701+00:00</time>
      </trkpt>
      <trkpt lat="49.39018" lon="-1.61974">
        <ele>40</ele>
        <time>2023-08-13T12:41:59.331+00:00</time>
      </trkpt>
      <trkpt lat="49.39021" lon="-1.6198">
        <ele>40</ele>
        <time>2023-08-13T12:42:04+00:00</time>
      </trkpt>
      <trkpt lat="49.39025" lon="-1.61984">
        <ele>40</ele>
        <time>2023-08-13T12:42:08.429+00:00</time>
      </trkpt>
      <trkpt lat="49.39028" lon="-1.6199">
        <ele>42</ele>
        <time>2023-08-13T12:42:12.979+00:00</time>
      </trkpt>
      <trkpt lat="49.39029" lon="-1.61996">
        <ele>42</ele>
        <time>2023-08-13T12:42:17.528+00:00</time>
      </trkpt>
      <trkpt lat="49.39032" lon="-1.62003">
        <ele>42</ele>
        <time>2023-08-13T12:42:21.591+00:00</time>
      </trkpt>
      <trkpt lat="49.39036" lon="-1.62007">
        <ele>42</ele>
        <time>2023-08-13T12:42:26.101+00:00</time>
      </trkpt>
      <trkpt lat="49.3904" lon="-1.62012">
        <ele>42</ele>
        <time>2023-08-13T12:42:30.126+00:00</time>
      </trkpt>
      <trkpt lat="49.39043" lon="-1.62018">
        <ele>41</ele>
        <time>2023-08-13T12:42:34.120+00:00</time>
      </trkpt>
      <trkpt lat="49.39045" lon="-1.62024">
        <ele>41</ele>
        <time>2023-08-13T12:42:38.070+00:00</time>
      </trkpt>
      <trkpt lat="49.39048" lon="-1.62033">
        <ele>41</ele>
        <time>2023-08-13T12:42:43.132+00:00</time>
      </trkpt>
      <trkpt lat="49.39051" lon="-1.6204">
        <ele>41</ele>
        <time>2023-08-13T12:42:47.647+00:00</time>
      </trkpt>
      <trkpt lat="49.39056" lon="-1.62046">
        <ele>42</ele>
        <time>2023-08-13T12:42:52.676+00:00</time>
      </trkpt>
      <trkpt lat="49.39059" lon="-1.62052">
        <ele>42</ele>
        <time>2023-08-13T12:42:57.328+00:00</time>
      </trkpt>
      <trkpt lat="49.39061" lon="-1.62056">
        <ele>42</ele>
        <time>2023-08-13T12:43:01.360+00:00</time>
      </trkpt>
      <trkpt lat="49.39064" lon="-1.62058">
        <ele>42</ele>
        <time>2023-08-13T12:43:06.029+00:00</time>
      </trkpt>
      <trkpt lat="49.39068" lon="-1.62064">
        <ele>42</ele>
        <time>2023-08-13T12:43:10.579+00:00</time>
      </trkpt>
      <trkpt lat="49.39072" lon="-1.62069">
        <ele>42</ele>
        <time>2023-08-13T12:43:15.081+00:00</time>
      </trkpt>
      <trkpt lat="49.39077" lon="-1.62072">
        <ele>42</ele>
        <time>2023-08-13T12:43:19.437+00:00</time>
      </trkpt>
      <trkpt lat="49.3908" lon="-1.62076">
        <ele>42</ele>
        <time>2023-08-13T12:43:24.140+00:00</time>
      </trkpt>
      <trkpt lat="49.39085" lon="-1.62077">
        <ele>42</ele>
        <time>2023-08-13T12:43:28.720+00:00</time>
      </trkpt>
      <trkpt lat="49.3909" lon="-1.62077">
        <ele>42</ele>
        <time>2023-08-13T12:43:33.222+00:00</time>
      </trkpt>
      <trkpt lat="49.39096" lon="-1.62079">
        <ele>42</ele>
        <time>2023-08-13T12:43:37.941+00:00</time>
      </trkpt>
      <trkpt lat="49.39102" lon="-1.62081">
        <ele>40</ele>
        <time>2023-08-13T12:43:42.371+00:00</time>
      </trkpt>
      <trkpt lat="49.39106" lon="-1.62081">
        <ele>40</ele>
        <time>2023-08-13T12:43:46.801+00:00</time>
      </trkpt>
      <trkpt lat="49.39111" lon="-1.6208">
        <ele>40</ele>
        <time>2023-08-13T12:43:50.752+00:00</time>
      </trkpt>
      <trkpt lat="49.39115" lon="-1.62082">
        <ele>40</ele>
        <time>2023-08-13T12:43:54.821+00:00</time>
      </trkpt>
      <trkpt lat="49.39119" lon="-1.62084">
        <ele>40</ele>
        <time>2023-08-13T12:43:59.369+00:00</time>
      </trkpt>
      <trkpt lat="49.39123" lon="-1.62086">
        <ele>40</ele>
        <time>2023-08-13T12:44:03.918+00:00</time>
      </trkpt>
      <trkpt lat="49.39128" lon="-1.62086">
        <ele>38</ele>
        <time>2023-08-13T12:44:07.987+00:00</time>
      </trkpt>
      <trkpt lat="49.39131" lon="-1.62086">
        <ele>38</ele>
        <time>2023-08-13T12:44:12.415+00:00</time>
      </trkpt>
      <trkpt lat="49.39136" lon="-1.62087">
        <ele>38</ele>
        <time>2023-08-13T12:44:16.365+00:00</time>
      </trkpt>
      <trkpt lat="49.39141" lon="-1.62087">
        <ele>38</ele>
        <time>2023-08-13T12:44:21.014+00:00</time>
      </trkpt>
      <trkpt lat="49.39145" lon="-1.62088">
        <ele>38</ele>
        <time>2023-08-13T12:44:24.980+00:00</time>
      </trkpt>
      <trkpt lat="49.3915" lon="-1.62092">
        <ele>38</ele>
        <time>2023-08-13T12:44:29.526+00:00</time>
      </trkpt>
      <trkpt lat="49.39154" lon="-1.62093">
        <ele>36</ele>
        <time>2023-08-13T12:44:33.576+00:00</time>
      </trkpt>
      <trkpt lat="49.3916" lon="-1.62094">
        <ele>36</ele>
        <time>2023-08-13T12:44:38.004+00:00</time>
      </trkpt>
      <trkpt lat="49.39165" lon="-1.62096">
        <ele>36</ele>
        <time>2023-08-13T12:44:41.953+00:00</time>
      </trkpt>
      <trkpt lat="49.3917" lon="-1.62096">
        <ele>36</ele>
        <time>2023-08-13T12:44:46.382+00:00</time>
      </trkpt>
      <trkpt lat="49.39175" lon="-1.62098">
        <ele>36</ele>
        <time>2023-08-13T12:44:50.810+00:00</time>
      </trkpt>
      <trkpt lat="49.39179" lon="-1.62099">
        <ele>36</ele>
        <time>2023-08-13T12:44:54.759+00:00</time>
      </trkpt>
      <trkpt lat="49.39184" lon="-1.621">
        <ele>34</ele>
        <time>2023-08-13T12:44:59.222+00:00</time>
      </trkpt>
      <trkpt lat="49.39188" lon="-1.62101">
        <ele>34</ele>
        <time>2023-08-13T12:45:03.222+00:00</time>
      </trkpt>
      <trkpt lat="49.39193" lon="-1.62103">
        <ele>34</ele>
        <time>2023-08-13T12:45:07.684+00:00</time>
      </trkpt>
      <trkpt lat="49.39198" lon="-1.62103">
        <ele>34</ele>
        <time>2023-08-13T12:45:12.222+00:00</time>
      </trkpt>
      <trkpt lat="49.39203" lon="-1.62105">
        <ele>34</ele>
        <time>2023-08-13T12:45:16.780+00:00</time>
      </trkpt>
      <trkpt lat="49.39208" lon="-1.62106">
        <ele>34</ele>
        <time>2023-08-13T12:45:20.730+00:00</time>
      </trkpt>
      <trkpt lat="49.39212" lon="-1.62106">
        <ele>32</ele>
        <time>2023-08-13T12:45:25.222+00:00</time>
      </trkpt>
      <trkpt lat="49.39217" lon="-1.62105">
        <ele>32</ele>
        <time>2023-08-13T12:45:29.702+00:00</time>
      </trkpt>
      <trkpt lat="49.39221" lon="-1.62106">
        <ele>32</ele>
        <time>2023-08-13T12:45:33.733+00:00</time>
      </trkpt>
      <trkpt lat="49.39227" lon="-1.62109">
        <ele>32</ele>
        <time>2023-08-13T12:45:38.282+00:00</time>
      </trkpt>
      <trkpt lat="49.39232" lon="-1.62111">
        <ele>32</ele>
        <time>2023-08-13T12:45:42.351+00:00</time>
      </trkpt>
      <trkpt lat="49.39237" lon="-1.62113">
        <ele>33</ele>
        <time>2023-08-13T12:45:47.018+00:00</time>
      </trkpt>
      <trkpt lat="49.39241" lon="-1.62113">
        <ele>33</ele>
        <time>2023-08-13T12:45:51.446+00:00</time>
      </trkpt>
      <trkpt lat="49.39246" lon="-1.62115">
        <ele>33</ele>
        <time>2023-08-13T12:45:55.635+00:00</time>
      </trkpt>
      <trkpt lat="49.39251" lon="-1.62116">
        <ele>33</ele>
        <time>2023-08-13T12:45:59.687+00:00</time>
      </trkpt>
      <trkpt lat="49.39255" lon="-1.62118">
        <ele>33</ele>
        <time>2023-08-13T12:46:04.222+00:00</time>
      </trkpt>
      <trkpt lat="49.3926" lon="-1.62119">
        <ele>33</ele>
        <time>2023-08-13T12:46:08.794+00:00</time>
      </trkpt>
      <trkpt lat="49.39264" lon="-1.6212">
        <ele>30</ele>
        <time>2023-08-13T12:46:12.734+00:00</time>
      </trkpt>
      <trkpt lat="49.39268" lon="-1.62122">
        <ele>30</ele>
        <time>2023-08-13T12:46:16.905+00:00</time>
      </trkpt>
      <trkpt lat="49.39273" lon="-1.62123">
        <ele>30</ele>
        <time>2023-08-13T12:46:21.334+00:00</time>
      </trkpt>
      <trkpt lat="49.39279" lon="-1.62124">
        <ele>30</ele>
        <time>2023-08-13T12:46:26.119+00:00</time>
      </trkpt>
      <trkpt lat="49.39283" lon="-1.62125">
        <ele>30</ele>
        <time>2023-08-13T12:46:30.126+00:00</time>
      </trkpt>
      <trkpt lat="49.39289" lon="-1.62126">
        <ele>30</ele>
        <time>2023-08-13T12:46:34.735+00:00</time>
      </trkpt>
      <trkpt lat="49.39295" lon="-1.62126">
        <ele>29</ele>
        <time>2023-08-13T12:46:38.923+00:00</time>
      </trkpt>
      <trkpt lat="49.393" lon="-1.62127">
        <ele>29</ele>
        <time>2023-08-13T12:46:43.470+00:00</time>
      </trkpt>
      <trkpt lat="49.39305" lon="-1.62127">
        <ele>29</ele>
        <time>2023-08-13T12:46:47.540+00:00</time>
      </trkpt>
      <trkpt lat="49.39309" lon="-1.62129">
        <ele>29</ele>
        <time>2023-08-13T12:46:51.728+00:00</time>
      </trkpt>
      <trkpt lat="49.39313" lon="-1.62129">
        <ele>29</ele>
        <time>2023-08-13T12:46:56.222+00:00</time>
      </trkpt>
      <trkpt lat="49.39317" lon="-1.6213">
        <ele>29</ele>
        <time>2023-08-13T12:47:00.874+00:00</time>
      </trkpt>
      <trkpt lat="49.39321" lon="-1.62131">
        <ele>30</ele>
        <time>2023-08-13T12:47:04.771+00:00</time>
      </trkpt>
      <trkpt lat="49.39326" lon="-1.62133">
        <ele>30</ele>
        <time>2023-08-13T12:47:09.222+00:00</time>
      </trkpt>
      <trkpt lat="49.39331" lon="-1.62133">
        <ele>30</ele>
        <time>2023-08-13T12:47:13.747+00:00</time>
      </trkpt>
      <trkpt lat="49.39337" lon="-1.62134">
        <ele>30</ele>
        <time>2023-08-13T12:47:17.803+00:00</time>
      </trkpt>
      <trkpt lat="49.39341" lon="-1.62136">
        <ele>30</ele>
        <time>2023-08-13T12:47:21.748+00:00</time>
      </trkpt>
      <trkpt lat="49.39345" lon="-1.62137">
        <ele>30</ele>
        <time>2023-08-13T12:47:25.798+00:00</time>
      </trkpt>
      <trkpt lat="49.39349" lon="-1.62138">
        <ele>32</ele>
        <time>2023-08-13T12:47:29.746+00:00</time>
      </trkpt>
      <trkpt lat="49.39354" lon="-1.6214">
        <ele>32</ele>
        <time>2023-08-13T12:47:34.514+00:00</time>
      </trkpt>
      <trkpt lat="49.39357" lon="-1.62141">
        <ele>32</ele>
        <time>2023-08-13T12:47:38.443+00:00</time>
      </trkpt>
      <trkpt lat="49.39361" lon="-1.62142">
        <ele>32</ele>
        <time>2023-08-13T12:47:42.630+00:00</time>
      </trkpt>
      <trkpt lat="49.39366" lon="-1.62142">
        <ele>32</ele>
        <time>2023-08-13T12:47:47.978+00:00</time>
      </trkpt>
      <trkpt lat="49.39369" lon="-1.62144">
        <ele>32</ele>
        <time>2023-08-13T12:47:52.443+00:00</time>
      </trkpt>
      <trkpt lat="49.39372" lon="-1.62146">
        <ele>32</ele>
        <time>2023-08-13T12:47:56.511+00:00</time>
      </trkpt>
      <trkpt lat="49.39376" lon="-1.62148">
        <ele>32</ele>
        <time>2023-08-13T12:48:01.099+00:00</time>
      </trkpt>
      <trkpt lat="49.3938" lon="-1.62149">
        <ele>32</ele>
        <time>2023-08-13T12:48:05.092+00:00</time>
      </trkpt>
      <trkpt lat="49.39384" lon="-1.6215">
        <ele>32</ele>
        <time>2023-08-13T12:48:09.123+00:00</time>
      </trkpt>
      <trkpt lat="49.39389" lon="-1.62151">
        <ele>32</ele>
        <time>2023-08-13T12:48:13.593+00:00</time>
      </trkpt>
      <trkpt lat="49.39393" lon="-1.62153">
        <ele>32</ele>
        <time>2023-08-13T12:48:18.142+00:00</time>
      </trkpt>
      <trkpt lat="49.39398" lon="-1.62155">
        <ele>32</ele>
        <time>2023-08-13T12:48:22.132+00:00</time>
      </trkpt>
      <trkpt lat="49.39401" lon="-1.62155">
        <ele>32</ele>
        <time>2023-08-13T12:48:26.126+00:00</time>
      </trkpt>
      <trkpt lat="49.39407" lon="-1.62156">
        <ele>33</ele>
        <time>2023-08-13T12:48:30.695+00:00</time>
      </trkpt>
      <trkpt lat="49.39413" lon="-1.62158">
        <ele>33</ele>
        <time>2023-08-13T12:48:35.764+00:00</time>
      </trkpt>
      <trkpt lat="49.39419" lon="-1.62159">
        <ele>33</ele>
        <time>2023-08-13T12:48:40.332+00:00</time>
      </trkpt>
      <trkpt lat="49.39424" lon="-1.62159">
        <ele>33</ele>
        <time>2023-08-13T12:48:44.318+00:00</time>
      </trkpt>
      <trkpt lat="49.39429" lon="-1.62159">
        <ele>33</ele>
        <time>2023-08-13T12:48:48.386+00:00</time>
      </trkpt>
      <trkpt lat="49.39433" lon="-1.62159">
        <ele>33</ele>
        <time>2023-08-13T12:48:52.455+00:00</time>
      </trkpt>
      <trkpt lat="49.39437" lon="-1.62161">
        <ele>33</ele>
        <time>2023-08-13T12:48:56.404+00:00</time>
      </trkpt>
      <trkpt lat="49.39442" lon="-1.62162">
        <ele>33</ele>
        <time>2023-08-13T12:49:00.352+00:00</time>
      </trkpt>
      <trkpt lat="49.39446" lon="-1.62164">
        <ele>33</ele>
        <time>2023-08-13T12:49:04.222+00:00</time>
      </trkpt>
      <trkpt lat="49.39451" lon="-1.62165">
        <ele>33</ele>
        <time>2023-08-13T12:49:08.222+00:00</time>
      </trkpt>
      <trkpt lat="49.39456" lon="-1.62166">
        <ele>33</ele>
        <time>2023-08-13T12:49:12.680+00:00</time>
      </trkpt>
      <trkpt lat="49.39461" lon="-1.62167">
        <ele>32</ele>
        <time>2023-08-13T12:49:17.222+00:00</time>
      </trkpt>
      <trkpt lat="49.39466" lon="-1.62168">
        <ele>32</ele>
        <time>2023-08-13T12:49:21.776+00:00</time>
      </trkpt>
      <trkpt lat="49.39471" lon="-1.62169">
        <ele>32</ele>
        <time>2023-08-13T12:49:25.728+00:00</time>
      </trkpt>
      <trkpt lat="49.39476" lon="-1.62171">
        <ele>32</ele>
        <time>2023-08-13T12:49:29.799+00:00</time>
      </trkpt>
      <trkpt lat="49.39481" lon="-1.62173">
        <ele>32</ele>
        <time>2023-08-13T12:49:34.349+00:00</time>
      </trkpt>
      <trkpt lat="49.39486" lon="-1.62173">
        <ele>32</ele>
        <time>2023-08-13T12:49:38.422+00:00</time>
      </trkpt>
      <trkpt lat="49.3949" lon="-1.62176">
        <ele>32</ele>
        <time>2023-08-13T12:49:42.933+00:00</time>
      </trkpt>
      <trkpt lat="49.39495" lon="-1.62177">
        <ele>32</ele>
        <time>2023-08-13T12:49:47.604+00:00</time>
      </trkpt>
      <trkpt lat="49.39499" lon="-1.62179">
        <ele>32</ele>
        <time>2023-08-13T12:49:51.556+00:00</time>
      </trkpt>
      <trkpt lat="49.39504" lon="-1.62179">
        <ele>32</ele>
        <time>2023-08-13T12:49:56.131+00:00</time>
      </trkpt>
      <trkpt lat="49.3951" lon="-1.6218">
        <ele>32</ele>
        <time>2023-08-13T12:50:00.714+00:00</time>
      </trkpt>
      <trkpt lat="49.39515" lon="-1.62182">
        <ele>33</ele>
        <time>2023-08-13T12:50:05.222+00:00</time>
      </trkpt>
      <trkpt lat="49.39519" lon="-1.62184">
        <ele>33</ele>
        <time>2023-08-13T12:50:09.692+00:00</time>
      </trkpt>
      <trkpt lat="49.39524" lon="-1.62184">
        <ele>33</ele>
        <time>2023-08-13T12:50:14.131+00:00</time>
      </trkpt>
      <trkpt lat="49.39529" lon="-1.62185">
        <ele>33</ele>
        <time>2023-08-13T12:50:18.052+00:00</time>
      </trkpt>
      <trkpt lat="49.39534" lon="-1.62186">
        <ele>33</ele>
        <time>2023-08-13T12:50:22.722+00:00</time>
      </trkpt>
      <trkpt lat="49.39539" lon="-1.62187">
        <ele>33</ele>
        <time>2023-08-13T12:50:27.222+00:00</time>
      </trkpt>
      <trkpt lat="49.39544" lon="-1.62187">
        <ele>32</ele>
        <time>2023-08-13T12:50:31.420+00:00</time>
      </trkpt>
      <trkpt lat="49.39548" lon="-1.62189">
        <ele>32</ele>
        <time>2023-08-13T12:50:35.971+00:00</time>
      </trkpt>
      <trkpt lat="49.39552" lon="-1.62191">
        <ele>32</ele>
        <time>2023-08-13T12:50:39.922+00:00</time>
      </trkpt>
      <trkpt lat="49.39555" lon="-1.62191">
        <ele>32</ele>
        <time>2023-08-13T12:50:44.472+00:00</time>
      </trkpt>
      <trkpt lat="49.3956" lon="-1.62193">
        <ele>32</ele>
        <time>2023-08-13T12:50:48.542+00:00</time>
      </trkpt>
      <trkpt lat="49.39566" lon="-1.62194">
        <ele>32</ele>
        <time>2023-08-13T12:50:53.930+00:00</time>
      </trkpt>
      <trkpt lat="49.39572" lon="-1.62193">
        <ele>30</ele>
        <time>2023-08-13T12:50:58.120+00:00</time>
      </trkpt>
      <trkpt lat="49.39577" lon="-1.62196">
        <ele>30</ele>
        <time>2023-08-13T12:51:02.671+00:00</time>
      </trkpt>
      <trkpt lat="49.39581" lon="-1.62199">
        <ele>30</ele>
        <time>2023-08-13T12:51:06.740+00:00</time>
      </trkpt>
      <trkpt lat="49.39584" lon="-1.62202">
        <ele>30</ele>
        <time>2023-08-13T12:51:10.753+00:00</time>
      </trkpt>
      <trkpt lat="49.39587" lon="-1.62201">
        <ele>30</ele>
        <time>2023-08-13T12:51:15.763+00:00</time>
      </trkpt>
      <trkpt lat="49.39591" lon="-1.62206">
        <ele>30</ele>
        <time>2023-08-13T12:51:20.377+00:00</time>
      </trkpt>
      <trkpt lat="49.39595" lon="-1.62204">
        <ele>30</ele>
        <time>2023-08-13T12:51:24.985+00:00</time>
      </trkpt>
      <trkpt lat="49.39602" lon="-1.62199">
        <ele>29</ele>
        <time>2023-08-13T12:52:20.092+00:00</time>
      </trkpt>
      <trkpt lat="49.39602" lon="-1.62199">
        <ele>29</ele>
        <time>2023-08-13T12:52:24.098+00:00</time>
      </trkpt>
      <trkpt lat="49.39602" lon="-1.62199">
        <ele>29</ele>
        <time>2023-08-13T12:52:28.097+00:00</time>
      </trkpt>
      <trkpt lat="49.39604" lon="-1.62202">
        <ele>29</ele>
        <time>2023-08-13T12:52:32.095+00:00</time>
      </trkpt>
      <trkpt lat="49.39609" lon="-1.62204">
        <ele>29</ele>
        <time>2023-08-13T12:52:36.099+00:00</time>
      </trkpt>
      <trkpt lat="49.39611" lon="-1.62205">
        <ele>29</ele>
        <time>2023-08-13T12:52:39.780+00:00</time>
      </trkpt>
      <trkpt lat="49.39617" lon="-1.62208">
        <ele>29</ele>
        <time>2023-08-13T12:52:44.394+00:00</time>
      </trkpt>
      <trkpt lat="49.39622" lon="-1.62209">
        <ele>29</ele>
        <time>2023-08-13T12:52:48.908+00:00</time>
      </trkpt>
      <trkpt lat="49.39627" lon="-1.62209">
        <ele>28</ele>
        <time>2023-08-13T12:52:52.983+00:00</time>
      </trkpt>
      <trkpt lat="49.39632" lon="-1.6221">
        <ele>28</ele>
        <time>2023-08-13T12:52:57.539+00:00</time>
      </trkpt>
      <trkpt lat="49.39636" lon="-1.62212">
        <ele>28</ele>
        <time>2023-08-13T12:53:01.613+00:00</time>
      </trkpt>
      <trkpt lat="49.3964" lon="-1.62214">
        <ele>28</ele>
        <time>2023-08-13T12:53:06.167+00:00</time>
      </trkpt>
      <trkpt lat="49.39645" lon="-1.62216">
        <ele>28</ele>
        <time>2023-08-13T12:53:10.222+00:00</time>
      </trkpt>
      <trkpt lat="49.39648" lon="-1.62217">
        <ele>28</ele>
        <time>2023-08-13T12:53:14.675+00:00</time>
      </trkpt>
      <trkpt lat="49.39652" lon="-1.62217">
        <ele>28</ele>
        <time>2023-08-13T12:53:18.629+00:00</time>
      </trkpt>
      <trkpt lat="49.39657" lon="-1.62217">
        <ele>26</ele>
        <time>2023-08-13T12:53:23.062+00:00</time>
      </trkpt>
      <trkpt lat="49.39662" lon="-1.62219">
        <ele>26</ele>
        <time>2023-08-13T12:53:27.134+00:00</time>
      </trkpt>
      <trkpt lat="49.39666" lon="-1.62221">
        <ele>26</ele>
        <time>2023-08-13T12:53:31.324+00:00</time>
      </trkpt>
      <trkpt lat="49.39671" lon="-1.62222">
        <ele>26</ele>
        <time>2023-08-13T12:53:35.975+00:00</time>
      </trkpt>
      <trkpt lat="49.39676" lon="-1.62222">
        <ele>26</ele>
        <time>2023-08-13T12:53:39.926+00:00</time>
      </trkpt>
      <trkpt lat="49.3968" lon="-1.62224">
        <ele>26</ele>
        <time>2023-08-13T12:53:43.759+00:00</time>
      </trkpt>
      <trkpt lat="49.39684" lon="-1.62226">
        <ele>25</ele>
        <time>2023-08-13T12:53:48.222+00:00</time>
      </trkpt>
      <trkpt lat="49.39687" lon="-1.62226">
        <ele>25</ele>
        <time>2023-08-13T12:53:52.723+00:00</time>
      </trkpt>
      <trkpt lat="49.39692" lon="-1.62226">
        <ele>25</ele>
        <time>2023-08-13T12:53:56.755+00:00</time>
      </trkpt>
      <trkpt lat="49.39696" lon="-1.62227">
        <ele>25</ele>
        <time>2023-08-13T12:54:01.425+00:00</time>
      </trkpt>
      <trkpt lat="49.39701" lon="-1.62228">
        <ele>25</ele>
        <time>2023-08-13T12:54:05.856+00:00</time>
      </trkpt>
      <trkpt lat="49.39706" lon="-1.6223">
        <ele>25</ele>
        <time>2023-08-13T12:54:09.927+00:00</time>
      </trkpt>
      <trkpt lat="49.3971" lon="-1.62231">
        <ele>24</ele>
        <time>2023-08-13T12:54:14.598+00:00</time>
      </trkpt>
      <trkpt lat="49.39715" lon="-1.62232">
        <ele>24</ele>
        <time>2023-08-13T12:54:19.004+00:00</time>
      </trkpt>
      <trkpt lat="49.39719" lon="-1.62233">
        <ele>24</ele>
        <time>2023-08-13T12:54:22.963+00:00</time>
      </trkpt>
      <trkpt lat="49.39722" lon="-1.62235">
        <ele>24</ele>
        <time>2023-08-13T12:54:27.393+00:00</time>
      </trkpt>
      <trkpt lat="49.39726" lon="-1.62236">
        <ele>25</ele>
        <time>2023-08-13T12:54:31.344+00:00</time>
      </trkpt>
      <trkpt lat="49.39729" lon="-1.6224">
        <ele>25</ele>
        <time>2023-08-13T12:54:35.416+00:00</time>
      </trkpt>
      <trkpt lat="49.39733" lon="-1.62235">
        <ele>24</ele>
        <time>2023-08-13T12:55:24.024+00:00</time>
      </trkpt>
      <trkpt lat="49.39733" lon="-1.62235">
        <ele>24</ele>
        <time>2023-08-13T12:55:28.038+00:00</time>
      </trkpt>
      <trkpt lat="49.39733" lon="-1.62235">
        <ele>24</ele>
        <time>2023-08-13T12:55:32.550+00:00</time>
      </trkpt>
      <trkpt lat="49.39737" lon="-1.62236">
        <ele>22</ele>
        <time>2023-08-13T12:55:37.059+00:00</time>
      </trkpt>
      <trkpt lat="49.39741" lon="-1.62234">
        <ele>22</ele>
        <time>2023-08-13T12:55:41.065+00:00</time>
      </trkpt>
      <trkpt lat="49.39743" lon="-1.62234">
        <ele>22</ele>
        <time>2023-08-13T12:55:45.071+00:00</time>
      </trkpt>
      <trkpt lat="49.39746" lon="-1.62228">
        <ele>22</ele>
        <time>2023-08-13T12:55:49.678+00:00</time>
      </trkpt>
      <trkpt lat="49.39749" lon="-1.62224">
        <ele>22</ele>
        <time>2023-08-13T12:55:53.900+00:00</time>
      </trkpt>
      <trkpt lat="49.39752" lon="-1.6222">
        <ele>22</ele>
        <time>2023-08-13T12:55:58.442+00:00</time>
      </trkpt>
      <trkpt lat="49.39753" lon="-1.62214">
        <ele>22</ele>
        <time>2023-08-13T12:56:02.442+00:00</time>
      </trkpt>
      <trkpt lat="49.39754" lon="-1.62207">
        <ele>23</ele>
        <time>2023-08-13T12:56:07.099+00:00</time>
      </trkpt>
      <trkpt lat="49.39759" lon="-1.62202">
        <ele>23</ele>
        <time>2023-08-13T12:56:11.459+00:00</time>
      </trkpt>
      <trkpt lat="49.39762" lon="-1.62198">
        <ele>23</ele>
        <time>2023-08-13T12:56:15.533+00:00</time>
      </trkpt>
      <trkpt lat="49.39766" lon="-1.62193">
        <ele>22</ele>
        <time>2023-08-13T12:56:19.970+00:00</time>
      </trkpt>
      <trkpt lat="49.39769" lon="-1.62192">
        <ele>22</ele>
        <time>2023-08-13T12:56:23.968+00:00</time>
      </trkpt>
      <trkpt lat="49.39769" lon="-1.62191">
        <ele>22</ele>
        <time>2023-08-13T12:56:27.985+00:00</time>
      </trkpt>
      <trkpt lat="49.39772" lon="-1.62186">
        <ele>22</ele>
        <time>2023-08-13T12:56:32.542+00:00</time>
      </trkpt>
      <trkpt lat="49.39777" lon="-1.62183">
        <ele>22</ele>
        <time>2023-08-13T12:56:36.678+00:00</time>
      </trkpt>
      <trkpt lat="49.3978" lon="-1.62178">
        <ele>23</ele>
        <time>2023-08-13T12:56:41.142+00:00</time>
      </trkpt>
      <trkpt lat="49.39783" lon="-1.62173">
        <ele>23</ele>
        <time>2023-08-13T12:56:45.125+00:00</time>
      </trkpt>
      <trkpt lat="49.39786" lon="-1.62165">
        <ele>23</ele>
        <time>2023-08-13T12:56:49.677+00:00</time>
      </trkpt>
      <trkpt lat="49.39789" lon="-1.6216">
        <ele>23</ele>
        <time>2023-08-13T12:56:54.222+00:00</time>
      </trkpt>
      <trkpt lat="49.39793" lon="-1.62154">
        <ele>22</ele>
        <time>2023-08-13T12:56:58.742+00:00</time>
      </trkpt>
      <trkpt lat="49.39795" lon="-1.62148">
        <ele>24</ele>
        <time>2023-08-13T12:57:03.222+00:00</time>
      </trkpt>
      <trkpt lat="49.39799" lon="-1.62142">
        <ele>24</ele>
        <time>2023-08-13T12:57:07.725+00:00</time>
      </trkpt>
      <trkpt lat="49.39802" lon="-1.62137">
        <ele>24</ele>
        <time>2023-08-13T12:57:12.222+00:00</time>
      </trkpt>
      <trkpt lat="49.39806" lon="-1.62132">
        <ele>24</ele>
        <time>2023-08-13T12:57:16.830+00:00</time>
      </trkpt>
      <trkpt lat="49.3981" lon="-1.62128">
        <ele>24</ele>
        <time>2023-08-13T12:57:21.504+00:00</time>
      </trkpt>
      <trkpt lat="49.39813" lon="-1.62123">
        <ele>26</ele>
        <time>2023-08-13T12:57:25.582+00:00</time>
      </trkpt>
      <trkpt lat="49.39817" lon="-1.62118">
        <ele>26</ele>
        <time>2023-08-13T12:57:30.009+00:00</time>
      </trkpt>
      <trkpt lat="49.39819" lon="-1.62112">
        <ele>26</ele>
        <time>2023-08-13T12:57:33.963+00:00</time>
      </trkpt>
      <trkpt lat="49.39821" lon="-1.62108">
        <ele>25</ele>
        <time>2023-08-13T12:57:37.795+00:00</time>
      </trkpt>
      <trkpt lat="49.39825" lon="-1.62104">
        <ele>25</ele>
        <time>2023-08-13T12:57:41.748+00:00</time>
      </trkpt>
      <trkpt lat="49.39827" lon="-1.621">
        <ele>25</ele>
        <time>2023-08-13T12:57:46.222+00:00</time>
      </trkpt>
      <trkpt lat="49.3983" lon="-1.62096">
        <ele>26</ele>
        <time>2023-08-13T12:57:50.832+00:00</time>
      </trkpt>
      <trkpt lat="49.39832" lon="-1.62091">
        <ele>26</ele>
        <time>2023-08-13T12:57:55.026+00:00</time>
      </trkpt>
      <trkpt lat="49.39836" lon="-1.62086">
        <ele>26</ele>
        <time>2023-08-13T12:57:59.699+00:00</time>
      </trkpt>
      <trkpt lat="49.39838" lon="-1.62081">
        <ele>26</ele>
        <time>2023-08-13T12:58:03.652+00:00</time>
      </trkpt>
      <trkpt lat="49.39843" lon="-1.62076">
        <ele>26</ele>
        <time>2023-08-13T12:58:08.222+00:00</time>
      </trkpt>
      <trkpt lat="49.39846" lon="-1.62071">
        <ele>26</ele>
        <time>2023-08-13T12:58:12.316+00:00</time>
      </trkpt>
      <trkpt lat="49.39849" lon="-1.62066">
        <ele>25</ele>
        <time>2023-08-13T12:58:16.986+00:00</time>
      </trkpt>
      <trkpt lat="49.39853" lon="-1.62061">
        <ele>25</ele>
        <time>2023-08-13T12:58:21.537+00:00</time>
      </trkpt>
      <trkpt lat="49.39856" lon="-1.62057">
        <ele>25</ele>
        <time>2023-08-13T12:58:25.729+00:00</time>
      </trkpt>
      <trkpt lat="49.39859" lon="-1.62051">
        <ele>25</ele>
        <time>2023-08-13T12:58:30.222+00:00</time>
      </trkpt>
      <trkpt lat="49.39863" lon="-1.62045">
        <ele>25</ele>
        <time>2023-08-13T12:58:34.692+00:00</time>
      </trkpt>
      <trkpt lat="49.39866" lon="-1.62039">
        <ele>25</ele>
        <time>2023-08-13T12:58:39.222+00:00</time>
      </trkpt>
      <trkpt lat="49.3987" lon="-1.62032">
        <ele>25</ele>
        <time>2023-08-13T12:58:43.793+00:00</time>
      </trkpt>
      <trkpt lat="49.39873" lon="-1.62025">
        <ele>25</ele>
        <time>2023-08-13T12:58:48.342+00:00</time>
      </trkpt>
      <trkpt lat="49.39876" lon="-1.62019">
        <ele>24</ele>
        <time>2023-08-13T12:58:53.131+00:00</time>
      </trkpt>
      <trkpt lat="49.39879" lon="-1.62015">
        <ele>24</ele>
        <time>2023-08-13T12:58:57.139+00:00</time>
      </trkpt>
      <trkpt lat="49.39882" lon="-1.6201">
        <ele>25</ele>
        <time>2023-08-13T12:59:01.732+00:00</time>
      </trkpt>
      <trkpt lat="49.39884" lon="-1.62007">
        <ele>25</ele>
        <time>2023-08-13T12:59:05.802+00:00</time>
      </trkpt>
      <trkpt lat="49.39886" lon="-1.62005">
        <ele>25</ele>
        <time>2023-08-13T12:59:09.753+00:00</time>
      </trkpt>
      <trkpt lat="49.39887" lon="-1.62005">
        <ele>25</ele>
        <time>2023-08-13T12:59:14.423+00:00</time>
      </trkpt>
      <trkpt lat="49.39889" lon="-1.62">
        <ele>25</ele>
        <time>2023-08-13T12:59:18.354+00:00</time>
      </trkpt>
      <trkpt lat="49.39892" lon="-1.61995">
        <ele>25</ele>
        <time>2023-08-13T12:59:22.784+00:00</time>
      </trkpt>
      <trkpt lat="49.39896" lon="-1.61991">
        <ele>25</ele>
        <time>2023-08-13T12:59:27.279+00:00</time>
      </trkpt>
      <trkpt lat="49.39901" lon="-1.61988">
        <ele>25</ele>
        <time>2023-08-13T12:59:31.754+00:00</time>
      </trkpt>
      <trkpt lat="49.39905" lon="-1.61983">
        <ele>24</ele>
        <time>2023-08-13T12:59:35.831+00:00</time>
      </trkpt>
      <trkpt lat="49.39908" lon="-1.61978">
        <ele>24</ele>
        <time>2023-08-13T12:59:40.259+00:00</time>
      </trkpt>
      <trkpt lat="49.3991" lon="-1.61975">
        <ele>24</ele>
        <time>2023-08-13T12:59:44.329+00:00</time>
      </trkpt>
      <trkpt lat="49.39914" lon="-1.61969">
        <ele>24</ele>
        <time>2023-08-13T12:59:48.520+00:00</time>
      </trkpt>
      <trkpt lat="49.39917" lon="-1.61963">
        <ele>24</ele>
        <time>2023-08-13T12:59:52.572+00:00</time>
      </trkpt>
      <trkpt lat="49.39921" lon="-1.61956">
        <ele>24</ele>
        <time>2023-08-13T12:59:57+00:00</time>
      </trkpt>
      <trkpt lat="49.39923" lon="-1.61951">
        <ele>24</ele>
        <time>2023-08-13T13:00:00.951+00:00</time>
      </trkpt>
      <trkpt lat="49.39927" lon="-1.61946">
        <ele>24</ele>
        <time>2023-08-13T13:00:06.043+00:00</time>
      </trkpt>
      <trkpt lat="49.39928" lon="-1.61941">
        <ele>24</ele>
        <time>2023-08-13T13:00:09.928+00:00</time>
      </trkpt>
      <trkpt lat="49.39931" lon="-1.61929">
        <ele>22</ele>
        <time>2023-08-13T13:00:18.790+00:00</time>
      </trkpt>
      <trkpt lat="49.39932" lon="-1.61929">
        <ele>22</ele>
        <time>2023-08-13T13:00:22.741+00:00</time>
      </trkpt>
      <trkpt lat="49.39933" lon="-1.61928">
        <ele>22</ele>
        <time>2023-08-13T13:00:27.768+00:00</time>
      </trkpt>
      <trkpt lat="49.39934" lon="-1.61927">
        <ele>22</ele>
        <time>2023-08-13T13:00:31.841+00:00</time>
      </trkpt>
      <trkpt lat="49.39935" lon="-1.61925">
        <ele>22</ele>
        <time>2023-08-13T13:00:36.392+00:00</time>
      </trkpt>
      <trkpt lat="49.39937" lon="-1.61918">
        <ele>22</ele>
        <time>2023-08-13T13:00:40.344+00:00</time>
      </trkpt>
      <trkpt lat="49.39937" lon="-1.6191">
        <ele>22</ele>
        <time>2023-08-13T13:00:44.774+00:00</time>
      </trkpt>
      <trkpt lat="49.39937" lon="-1.61903">
        <ele>22</ele>
        <time>2023-08-13T13:00:48.724+00:00</time>
      </trkpt>
      <trkpt lat="49.39937" lon="-1.61898">
        <ele>22</ele>
        <time>2023-08-13T13:00:52.794+00:00</time>
      </trkpt>
      <trkpt lat="49.39938" lon="-1.61893">
        <ele>22</ele>
        <time>2023-08-13T13:00:57.916+00:00</time>
      </trkpt>
      <trkpt lat="49.39939" lon="-1.61885">
        <ele>22</ele>
        <time>2023-08-13T13:01:02.014+00:00</time>
      </trkpt>
      <trkpt lat="49.39938" lon="-1.61878">
        <ele>22</ele>
        <time>2023-08-13T13:01:05.965+00:00</time>
      </trkpt>
      <trkpt lat="49.39937" lon="-1.61871">
        <ele>23</ele>
        <time>2023-08-13T13:01:10.515+00:00</time>
      </trkpt>
      <trkpt lat="49.39936" lon="-1.61865">
        <ele>23</ele>
        <time>2023-08-13T13:01:14.586+00:00</time>
      </trkpt>
      <trkpt lat="49.39937" lon="-1.6186">
        <ele>23</ele>
        <time>2023-08-13T13:01:19.023+00:00</time>
      </trkpt>
      <trkpt lat="49.39938" lon="-1.61857">
        <ele>23</ele>
        <time>2023-08-13T13:01:23.026+00:00</time>
      </trkpt>
      <trkpt lat="49.39934" lon="-1.61853">
        <ele>23</ele>
        <time>2023-08-13T13:01:27.551+00:00</time>
      </trkpt>
      <trkpt lat="49.39937" lon="-1.61847">
        <ele>25</ele>
        <time>2023-08-13T13:01:31.559+00:00</time>
      </trkpt>
      <trkpt lat="49.39944" lon="-1.61839">
        <ele>25</ele>
        <time>2023-08-13T13:01:53.797+00:00</time>
      </trkpt>
      <trkpt lat="49.39943" lon="-1.61836">
        <ele>25</ele>
        <time>2023-08-13T13:02:02.882+00:00</time>
      </trkpt>
      <trkpt lat="49.39944" lon="-1.61834">
        <ele>25</ele>
        <time>2023-08-13T13:02:06.890+00:00</time>
      </trkpt>
      <trkpt lat="49.39944" lon="-1.61833">
        <ele>25</ele>
        <time>2023-08-13T13:02:11.904+00:00</time>
      </trkpt>
      <trkpt lat="49.39944" lon="-1.61831">
        <ele>25</ele>
        <time>2023-08-13T13:02:16.094+00:00</time>
      </trkpt>
      <trkpt lat="49.39944" lon="-1.61833">
        <ele>25</ele>
        <time>2023-08-13T13:02:20.432+00:00</time>
      </trkpt>
      <trkpt lat="49.39948" lon="-1.61832">
        <ele>25</ele>
        <time>2023-08-13T13:02:24.939+00:00</time>
      </trkpt>
      <trkpt lat="49.39954" lon="-1.61829">
        <ele>25</ele>
        <time>2023-08-13T13:02:29.546+00:00</time>
      </trkpt>
      <trkpt lat="49.39956" lon="-1.61827">
        <ele>25</ele>
        <time>2023-08-13T13:02:34.053+00:00</time>
      </trkpt>
      <trkpt lat="49.3996" lon="-1.61828">
        <ele>23</ele>
        <time>2023-08-13T13:02:38.559+00:00</time>
      </trkpt>
      <trkpt lat="49.39964" lon="-1.61829">
        <ele>23</ele>
        <time>2023-08-13T13:02:43.073+00:00</time>
      </trkpt>
      <trkpt lat="49.39969" lon="-1.61831">
        <ele>23</ele>
        <time>2023-08-13T13:02:47.076+00:00</time>
      </trkpt>
      <trkpt lat="49.39973" lon="-1.61829">
        <ele>23</ele>
        <time>2023-08-13T13:02:51.118+00:00</time>
      </trkpt>
      <trkpt lat="49.39976" lon="-1.61825">
        <ele>23</ele>
        <time>2023-08-13T13:02:55.339+00:00</time>
      </trkpt>
      <trkpt lat="49.3998" lon="-1.61822">
        <ele>23</ele>
        <time>2023-08-13T13:02:59.398+00:00</time>
      </trkpt>
      <trkpt lat="49.39985" lon="-1.61819">
        <ele>26</ele>
        <time>2023-08-13T13:03:03.956+00:00</time>
      </trkpt>
      <trkpt lat="49.3999" lon="-1.61816">
        <ele>25</ele>
        <time>2023-08-13T13:03:07.913+00:00</time>
      </trkpt>
      <trkpt lat="49.39997" lon="-1.61808">
        <ele>25</ele>
        <time>2023-08-13T13:03:37.917+00:00</time>
      </trkpt>
      <trkpt lat="49.39994" lon="-1.61805">
        <ele>25</ele>
        <time>2023-08-13T13:03:41.973+00:00</time>
      </trkpt>
      <trkpt lat="49.39989" lon="-1.61803">
        <ele>25</ele>
        <time>2023-08-13T13:03:45.927+00:00</time>
      </trkpt>
      <trkpt lat="49.39985" lon="-1.61802">
        <ele>26</ele>
        <time>2023-08-13T13:03:50.001+00:00</time>
      </trkpt>
      <trkpt lat="49.39982" lon="-1.618">
        <ele>26</ele>
        <time>2023-08-13T13:03:54.614+00:00</time>
      </trkpt>
      <trkpt lat="49.39977" lon="-1.61798">
        <ele>26</ele>
        <time>2023-08-13T13:03:59.222+00:00</time>
      </trkpt>
      <trkpt lat="49.39973" lon="-1.61798">
        <ele>26</ele>
        <time>2023-08-13T13:04:03.222+00:00</time>
      </trkpt>
      <trkpt lat="49.39968" lon="-1.61799">
        <ele>26</ele>
        <time>2023-08-13T13:04:07.694+00:00</time>
      </trkpt>
      <trkpt lat="49.39965" lon="-1.61798">
        <ele>26</ele>
        <time>2023-08-13T13:04:11.648+00:00</time>
      </trkpt>
      <trkpt lat="49.3996" lon="-1.61797">
        <ele>26</ele>
        <time>2023-08-13T13:04:16.131+00:00</time>
      </trkpt>
      <trkpt lat="49.39956" lon="-1.61796">
        <ele>27</ele>
        <time>2023-08-13T13:04:20.633+00:00</time>
      </trkpt>
      <trkpt lat="49.39953" lon="-1.61797">
        <ele>27</ele>
        <time>2023-08-13T13:04:24.825+00:00</time>
      </trkpt>
      <trkpt lat="49.39951" lon="-1.61798">
        <ele>27</ele>
        <time>2023-08-13T13:04:29.222+00:00</time>
      </trkpt>
      <trkpt lat="49.39949" lon="-1.61798">
        <ele>27</ele>
        <time>2023-08-13T13:04:37.632+00:00</time>
      </trkpt>
      <trkpt lat="49.39947" lon="-1.61799">
        <ele>27</ele>
        <time>2023-08-13T13:04:41.739+00:00</time>
      </trkpt>
      <trkpt lat="49.39945" lon="-1.618">
        <ele>27</ele>
        <time>2023-08-13T13:04:46.749+00:00</time>
      </trkpt>
      <trkpt lat="49.39942" lon="-1.61801">
        <ele>27</ele>
        <time>2023-08-13T13:04:51.261+00:00</time>
      </trkpt>
      <trkpt lat="49.3994" lon="-1.61802">
        <ele>27</ele>
        <time>2023-08-13T13:04:55.770+00:00</time>
      </trkpt>
      <trkpt lat="49.39935" lon="-1.618">
        <ele>27</ele>
        <time>2023-08-13T13:05:04.881+00:00</time>
      </trkpt>
      <trkpt lat="49.39934" lon="-1.61798">
        <ele>27</ele>
        <time>2023-08-13T13:05:08.885+00:00</time>
      </trkpt>
      <trkpt lat="49.39933" lon="-1.61797">
        <ele>27</ele>
        <time>2023-08-13T13:05:13.125+00:00</time>
      </trkpt>
      <trkpt lat="49.39932" lon="-1.61796">
        <ele>27</ele>
        <time>2023-08-13T13:05:17.131+00:00</time>
      </trkpt>
      <trkpt lat="49.39926" lon="-1.61799">
        <ele>28</ele>
        <time>2023-08-13T13:05:21.680+00:00</time>
      </trkpt>
      <trkpt lat="49.39922" lon="-1.61801">
        <ele>28</ele>
        <time>2023-08-13T13:05:26.222+00:00</time>
      </trkpt>
      <trkpt lat="49.3992" lon="-1.61801">
        <ele>28</ele>
        <time>2023-08-13T13:05:30.742+00:00</time>
      </trkpt>
      <trkpt lat="49.39919" lon="-1.61803">
        <ele>28</ele>
        <time>2023-08-13T13:05:34.824+00:00</time>
      </trkpt>
      <trkpt lat="49.39914" lon="-1.61803">
        <ele>28</ele>
        <time>2023-08-13T13:05:39.458+00:00</time>
      </trkpt>
      <trkpt lat="49.39909" lon="-1.61801">
        <ele>28</ele>
        <time>2023-08-13T13:05:43.935+00:00</time>
      </trkpt>
      <trkpt lat="49.39905" lon="-1.61798">
        <ele>28</ele>
        <time>2023-08-13T13:05:52.136+00:00</time>
      </trkpt>
      <trkpt lat="49.39902" lon="-1.61802">
        <ele>28</ele>
        <time>2023-08-13T13:05:56.657+00:00</time>
      </trkpt>
      <trkpt lat="49.39899" lon="-1.61803">
        <ele>28</ele>
        <time>2023-08-13T13:06:01.330+00:00</time>
      </trkpt>
      <trkpt lat="49.39898" lon="-1.61803">
        <ele>28</ele>
        <time>2023-08-13T13:06:06.101+00:00</time>
      </trkpt>
      <trkpt lat="49.39896" lon="-1.61803">
        <ele>28</ele>
        <time>2023-08-13T13:06:09.938+00:00</time>
      </trkpt>
      <trkpt lat="49.39891" lon="-1.61805">
        <ele>28</ele>
        <time>2023-08-13T13:06:14.612+00:00</time>
      </trkpt>
      <trkpt lat="49.39887" lon="-1.61805">
        <ele>28</ele>
        <time>2023-08-13T13:06:19.130+00:00</time>
      </trkpt>
      <trkpt lat="49.39884" lon="-1.61806">
        <ele>28</ele>
        <time>2023-08-13T13:06:22.681+00:00</time>
      </trkpt>
      <trkpt lat="49.39882" lon="-1.61806">
        <ele>28</ele>
        <time>2023-08-13T13:06:27.222+00:00</time>
      </trkpt>
      <trkpt lat="49.39878" lon="-1.61804">
        <ele>28</ele>
        <time>2023-08-13T13:06:31.957+00:00</time>
      </trkpt>
      <trkpt lat="49.39874" lon="-1.61804">
        <ele>27</ele>
        <time>2023-08-13T13:06:35.857+00:00</time>
      </trkpt>
      <trkpt lat="49.39869" lon="-1.61805">
        <ele>27</ele>
        <time>2023-08-13T13:06:39.810+00:00</time>
      </trkpt>
      <trkpt lat="49.39864" lon="-1.61804">
        <ele>27</ele>
        <time>2023-08-13T13:06:43.763+00:00</time>
      </trkpt>
      <trkpt lat="49.39859" lon="-1.61802">
        <ele>27</ele>
        <time>2023-08-13T13:06:48.194+00:00</time>
      </trkpt>
      <trkpt lat="49.39856" lon="-1.61804">
        <ele>27</ele>
        <time>2023-08-13T13:06:52.222+00:00</time>
      </trkpt>
      <trkpt lat="49.39851" lon="-1.61806">
        <ele>27</ele>
        <time>2023-08-13T13:06:56.799+00:00</time>
      </trkpt>
      <trkpt lat="49.39847" lon="-1.61806">
        <ele>27</ele>
        <time>2023-08-13T13:07:00.831+00:00</time>
      </trkpt>
      <trkpt lat="49.39843" lon="-1.61805">
        <ele>27</ele>
        <time>2023-08-13T13:07:04.783+00:00</time>
      </trkpt>
      <trkpt lat="49.39838" lon="-1.61804">
        <ele>27</ele>
        <time>2023-08-13T13:07:09.875+00:00</time>
      </trkpt>
      <trkpt lat="49.39833" lon="-1.61805">
        <ele>27</ele>
        <time>2023-08-13T13:07:14.362+00:00</time>
      </trkpt>
      <trkpt lat="49.39829" lon="-1.61805">
        <ele>27</ele>
        <time>2023-08-13T13:07:18.314+00:00</time>
      </trkpt>
      <trkpt lat="49.39824" lon="-1.61804">
        <ele>27</ele>
        <time>2023-08-13T13:07:22.984+00:00</time>
      </trkpt>
      <trkpt lat="49.39821" lon="-1.61803">
        <ele>27</ele>
        <time>2023-08-13T13:07:26.937+00:00</time>
      </trkpt>
      <trkpt lat="49.39818" lon="-1.61805">
        <ele>27</ele>
        <time>2023-08-13T13:07:31.367+00:00</time>
      </trkpt>
      <trkpt lat="49.39813" lon="-1.61806">
        <ele>27</ele>
        <time>2023-08-13T13:07:36.038+00:00</time>
      </trkpt>
      <trkpt lat="49.39809" lon="-1.61809">
        <ele>27</ele>
        <time>2023-08-13T13:07:40.590+00:00</time>
      </trkpt>
      <trkpt lat="49.39804" lon="-1.61808">
        <ele>27</ele>
        <time>2023-08-13T13:07:45.140+00:00</time>
      </trkpt>
      <trkpt lat="49.398" lon="-1.61807">
        <ele>27</ele>
        <time>2023-08-13T13:07:49.116+00:00</time>
      </trkpt>
      <trkpt lat="49.39796" lon="-1.61808">
        <ele>27</ele>
        <time>2023-08-13T13:07:53.703+00:00</time>
      </trkpt>
      <trkpt lat="49.39792" lon="-1.6181">
        <ele>27</ele>
        <time>2023-08-13T13:07:57.656+00:00</time>
      </trkpt>
      <trkpt lat="49.39787" lon="-1.61812">
        <ele>28</ele>
        <time>2023-08-13T13:08:02.319+00:00</time>
      </trkpt>
      <trkpt lat="49.39785" lon="-1.61813">
        <ele>28</ele>
        <time>2023-08-13T13:08:06.222+00:00</time>
      </trkpt>
      <trkpt lat="49.39782" lon="-1.61815">
        <ele>28</ele>
        <time>2023-08-13T13:08:10.222+00:00</time>
      </trkpt>
      <trkpt lat="49.39777" lon="-1.61815">
        <ele>28</ele>
        <time>2023-08-13T13:08:14.764+00:00</time>
      </trkpt>
      <trkpt lat="49.39773" lon="-1.61815">
        <ele>28</ele>
        <time>2023-08-13T13:08:18.732+00:00</time>
      </trkpt>
      <trkpt lat="49.3977" lon="-1.61815">
        <ele>28</ele>
        <time>2023-08-13T13:08:22.921+00:00</time>
      </trkpt>
      <trkpt lat="49.39766" lon="-1.61818">
        <ele>28</ele>
        <time>2023-08-13T13:08:27.471+00:00</time>
      </trkpt>
      <trkpt lat="49.39762" lon="-1.61819">
        <ele>29</ele>
        <time>2023-08-13T13:08:31.542+00:00</time>
      </trkpt>
      <trkpt lat="49.39758" lon="-1.61819">
        <ele>29</ele>
        <time>2023-08-13T13:08:35.972+00:00</time>
      </trkpt>
      <trkpt lat="49.39755" lon="-1.61819">
        <ele>29</ele>
        <time>2023-08-13T13:08:39.924+00:00</time>
      </trkpt>
      <trkpt lat="49.39751" lon="-1.61818">
        <ele>29</ele>
        <time>2023-08-13T13:08:44.914+00:00</time>
      </trkpt>
      <trkpt lat="49.39741" lon="-1.61819">
        <ele>29</ele>
        <time>2023-08-13T13:09:28.140+00:00</time>
      </trkpt>
      <trkpt lat="49.39741" lon="-1.61819">
        <ele>29</ele>
        <time>2023-08-13T13:09:33.124+00:00</time>
      </trkpt>
      <trkpt lat="49.3974" lon="-1.61819">
        <ele>29</ele>
        <time>2023-08-13T13:09:37.652+00:00</time>
      </trkpt>
      <trkpt lat="49.39739" lon="-1.61819">
        <ele>29</ele>
        <time>2023-08-13T13:09:41.723+00:00</time>
      </trkpt>
      <trkpt lat="49.39737" lon="-1.61818">
        <ele>29</ele>
        <time>2023-08-13T13:09:45.734+00:00</time>
      </trkpt>
      <trkpt lat="49.39737" lon="-1.61819">
        <ele>26</ele>
        <time>2023-08-13T13:09:54.595+00:00</time>
      </trkpt>
      <trkpt lat="49.39737" lon="-1.61818">
        <ele>29</ele>
        <time>2023-08-13T13:09:58.547+00:00</time>
      </trkpt>
      <trkpt lat="49.39733" lon="-1.6182">
        <ele>27</ele>
        <time>2023-08-13T13:10:02.619+00:00</time>
      </trkpt>
      <trkpt lat="49.39729" lon="-1.61822">
        <ele>27</ele>
        <time>2023-08-13T13:10:07.101+00:00</time>
      </trkpt>
      <trkpt lat="49.39723" lon="-1.61817">
        <ele>29</ele>
        <time>2023-08-13T13:10:11.118+00:00</time>
      </trkpt>
      <trkpt lat="49.39718" lon="-1.61816">
        <ele>29</ele>
        <time>2023-08-13T13:10:15.667+00:00</time>
      </trkpt>
      <trkpt lat="49.39711" lon="-1.6181">
        <ele>29</ele>
        <time>2023-08-13T13:10:20.336+00:00</time>
      </trkpt>
      <trkpt lat="49.39706" lon="-1.61808">
        <ele>29</ele>
        <time>2023-08-13T13:10:24.222+00:00</time>
      </trkpt>
      <trkpt lat="49.39701" lon="-1.6181">
        <ele>29</ele>
        <time>2023-08-13T13:10:28.658+00:00</time>
      </trkpt>
      <trkpt lat="49.39697" lon="-1.6181">
        <ele>29</ele>
        <time>2023-08-13T13:10:32.643+00:00</time>
      </trkpt>
      <trkpt lat="49.39693" lon="-1.61809">
        <ele>29</ele>
        <time>2023-08-13T13:10:36.713+00:00</time>
      </trkpt>
      <trkpt lat="49.39687" lon="-1.61804">
        <ele>29</ele>
        <time>2023-08-13T13:10:41.142+00:00</time>
      </trkpt>
      <trkpt lat="49.39683" lon="-1.61799">
        <ele>29</ele>
        <time>2023-08-13T13:10:45.331+00:00</time>
      </trkpt>
      <trkpt lat="49.39679" lon="-1.61796">
        <ele>28</ele>
        <time>2023-08-13T13:10:49.382+00:00</time>
      </trkpt>
      <trkpt lat="49.39674" lon="-1.61796">
        <ele>28</ele>
        <time>2023-08-13T13:10:53.333+00:00</time>
      </trkpt>
      <trkpt lat="49.3967" lon="-1.61796">
        <ele>28</ele>
        <time>2023-08-13T13:10:57.522+00:00</time>
      </trkpt>
      <trkpt lat="49.39664" lon="-1.61795">
        <ele>28</ele>
        <time>2023-08-13T13:11:02.113+00:00</time>
      </trkpt>
      <trkpt lat="49.39661" lon="-1.61792">
        <ele>28</ele>
        <time>2023-08-13T13:11:06.018+00:00</time>
      </trkpt>
      <trkpt lat="49.39656" lon="-1.61788">
        <ele>30</ele>
        <time>2023-08-13T13:11:11.118+00:00</time>
      </trkpt>
      <trkpt lat="49.39652" lon="-1.61787">
        <ele>28</ele>
        <time>2023-08-13T13:11:15.137+00:00</time>
      </trkpt>
      <trkpt lat="49.39647" lon="-1.61786">
        <ele>28</ele>
        <time>2023-08-13T13:11:19.656+00:00</time>
      </trkpt>
      <trkpt lat="49.39643" lon="-1.61784">
        <ele>28</ele>
        <time>2023-08-13T13:11:24.109+00:00</time>
      </trkpt>
      <trkpt lat="49.3964" lon="-1.61781">
        <ele>28</ele>
        <time>2023-08-13T13:11:28.111+00:00</time>
      </trkpt>
      <trkpt lat="49.39636" lon="-1.61778">
        <ele>28</ele>
        <time>2023-08-13T13:11:31.982+00:00</time>
      </trkpt>
      <trkpt lat="49.39632" lon="-1.61775">
        <ele>28</ele>
        <time>2023-08-13T13:11:36.530+00:00</time>
      </trkpt>
      <trkpt lat="49.39629" lon="-1.61772">
        <ele>28</ele>
        <time>2023-08-13T13:11:40.721+00:00</time>
      </trkpt>
      <trkpt lat="49.39626" lon="-1.61768">
        <ele>28</ele>
        <time>2023-08-13T13:11:45.222+00:00</time>
      </trkpt>
      <trkpt lat="49.39623" lon="-1.61768">
        <ele>27</ele>
        <time>2023-08-13T13:11:49.766+00:00</time>
      </trkpt>
      <trkpt lat="49.39619" lon="-1.61767">
        <ele>27</ele>
        <time>2023-08-13T13:11:54.222+00:00</time>
      </trkpt>
      <trkpt lat="49.39616" lon="-1.61763">
        <ele>28</ele>
        <time>2023-08-13T13:11:58.222+00:00</time>
      </trkpt>
      <trkpt lat="49.39615" lon="-1.61755">
        <ele>28</ele>
        <time>2023-08-13T13:12:02.798+00:00</time>
      </trkpt>
      <trkpt lat="49.39611" lon="-1.61752">
        <ele>28</ele>
        <time>2023-08-13T13:12:06.747+00:00</time>
      </trkpt>
      <trkpt lat="49.39607" lon="-1.61748">
        <ele>28</ele>
        <time>2023-08-13T13:12:11.827+00:00</time>
      </trkpt>
      <trkpt lat="49.39603" lon="-1.61744">
        <ele>28</ele>
        <time>2023-08-13T13:12:15.777+00:00</time>
      </trkpt>
      <trkpt lat="49.39598" lon="-1.61741">
        <ele>28</ele>
        <time>2023-08-13T13:12:20.327+00:00</time>
      </trkpt>
      <trkpt lat="49.39594" lon="-1.61738">
        <ele>27</ele>
        <time>2023-08-13T13:12:24.757+00:00</time>
      </trkpt>
      <trkpt lat="49.39591" lon="-1.61733">
        <ele>28</ele>
        <time>2023-08-13T13:12:28.788+00:00</time>
      </trkpt>
      <trkpt lat="49.39587" lon="-1.6173">
        <ele>28</ele>
        <time>2023-08-13T13:12:33.337+00:00</time>
      </trkpt>
      <trkpt lat="49.39582" lon="-1.61726">
        <ele>28</ele>
        <time>2023-08-13T13:12:37.528+00:00</time>
      </trkpt>
      <trkpt lat="49.39578" lon="-1.61723">
        <ele>28</ele>
        <time>2023-08-13T13:12:42.076+00:00</time>
      </trkpt>
      <trkpt lat="49.39575" lon="-1.61722">
        <ele>28</ele>
        <time>2023-08-13T13:12:46.122+00:00</time>
      </trkpt>
      <trkpt lat="49.39571" lon="-1.61722">
        <ele>28</ele>
        <time>2023-08-13T13:12:50.127+00:00</time>
      </trkpt>
      <trkpt lat="49.39568" lon="-1.61723">
        <ele>27</ele>
        <time>2023-08-13T13:12:54.652+00:00</time>
      </trkpt>
      <trkpt lat="49.39567" lon="-1.61725">
        <ele>27</ele>
        <time>2023-08-13T13:12:56.989+00:00</time>
      </trkpt>
      <trkpt lat="49.39564" lon="-1.61735">
        <ele>27</ele>
        <time>2023-08-13T13:13:05.518+00:00</time>
      </trkpt>
      <trkpt lat="49.39563" lon="-1.61737">
        <ele>26</ele>
        <time>2023-08-13T13:13:10.023+00:00</time>
      </trkpt>
      <trkpt lat="49.3956" lon="-1.61741">
        <ele>26</ele>
        <time>2023-08-13T13:13:14.526+00:00</time>
      </trkpt>
      <trkpt lat="49.39558" lon="-1.61746">
        <ele>26</ele>
        <time>2023-08-13T13:13:18.533+00:00</time>
      </trkpt>
      <trkpt lat="49.39556" lon="-1.61746">
        <ele>26</ele>
        <time>2023-08-13T13:13:23.040+00:00</time>
      </trkpt>
      <trkpt lat="49.39556" lon="-1.61747">
        <ele>26</ele>
        <time>2023-08-13T13:13:27.045+00:00</time>
      </trkpt>
      <trkpt lat="49.39551" lon="-1.61747">
        <ele>26</ele>
        <time>2023-08-13T13:13:32.053+00:00</time>
      </trkpt>
      <trkpt lat="49.39547" lon="-1.6175">
        <ele>26</ele>
        <time>2023-08-13T13:13:35.932+00:00</time>
      </trkpt>
      <trkpt lat="49.39542" lon="-1.61752">
        <ele>26</ele>
        <time>2023-08-13T13:13:40.069+00:00</time>
      </trkpt>
      <trkpt lat="49.39536" lon="-1.61751">
        <ele>26</ele>
        <time>2023-08-13T13:13:44.623+00:00</time>
      </trkpt>
      <trkpt lat="49.39533" lon="-1.61752">
        <ele>26</ele>
        <time>2023-08-13T13:13:48.818+00:00</time>
      </trkpt>
      <trkpt lat="49.39534" lon="-1.61753">
        <ele>26</ele>
        <time>2023-08-13T13:13:52.834+00:00</time>
      </trkpt>
      <trkpt lat="49.39533" lon="-1.61754">
        <ele>26</ele>
        <time>2023-08-13T13:13:56.991+00:00</time>
      </trkpt>
      <trkpt lat="49.39528" lon="-1.61756">
        <ele>26</ele>
        <time>2023-08-13T13:14:01.545+00:00</time>
      </trkpt>
      <trkpt lat="49.39522" lon="-1.61755">
        <ele>26</ele>
        <time>2023-08-13T13:14:06.219+00:00</time>
      </trkpt>
      <trkpt lat="49.39516" lon="-1.61755">
        <ele>26</ele>
        <time>2023-08-13T13:14:10.771+00:00</time>
      </trkpt>
      <trkpt lat="49.39511" lon="-1.61755">
        <ele>26</ele>
        <time>2023-08-13T13:14:14.722+00:00</time>
      </trkpt>
      <trkpt lat="49.39506" lon="-1.61756">
        <ele>26</ele>
        <time>2023-08-13T13:14:19.222+00:00</time>
      </trkpt>
      <trkpt lat="49.39501" lon="-1.61757">
        <ele>26</ele>
        <time>2023-08-13T13:14:23.701+00:00</time>
      </trkpt>
      <trkpt lat="49.39497" lon="-1.61756">
        <ele>26</ele>
        <time>2023-08-13T13:14:27.652+00:00</time>
      </trkpt>
      <trkpt lat="49.39492" lon="-1.61756">
        <ele>26</ele>
        <time>2023-08-13T13:14:32.762+00:00</time>
      </trkpt>
      <trkpt lat="49.39487" lon="-1.61757">
        <ele>26</ele>
        <time>2023-08-13T13:14:36.714+00:00</time>
      </trkpt>
      <trkpt lat="49.39483" lon="-1.61756">
        <ele>28</ele>
        <time>2023-08-13T13:14:40.665+00:00</time>
      </trkpt>
      <trkpt lat="49.39478" lon="-1.61756">
        <ele>28</ele>
        <time>2023-08-13T13:14:44.616+00:00</time>
      </trkpt>
      <trkpt lat="49.39474" lon="-1.61755">
        <ele>28</ele>
        <time>2023-08-13T13:14:49.046+00:00</time>
      </trkpt>
      <trkpt lat="49.39469" lon="-1.61754">
        <ele>28</ele>
        <time>2023-08-13T13:14:53.079+00:00</time>
      </trkpt>
      <trkpt lat="49.39466" lon="-1.61754">
        <ele>28</ele>
        <time>2023-08-13T13:14:57.121+00:00</time>
      </trkpt>
      <trkpt lat="49.39461" lon="-1.61753">
        <ele>28</ele>
        <time>2023-08-13T13:15:01.472+00:00</time>
      </trkpt>
      <trkpt lat="49.39456" lon="-1.61752">
        <ele>29</ele>
        <time>2023-08-13T13:15:06.033+00:00</time>
      </trkpt>
      <trkpt lat="49.39452" lon="-1.61751">
        <ele>29</ele>
        <time>2023-08-13T13:15:10.132+00:00</time>
      </trkpt>
      <trkpt lat="49.39448" lon="-1.6175">
        <ele>29</ele>
        <time>2023-08-13T13:15:14.633+00:00</time>
      </trkpt>
      <trkpt lat="49.39444" lon="-1.6175">
        <ele>29</ele>
        <time>2023-08-13T13:15:18.703+00:00</time>
      </trkpt>
      <trkpt lat="49.3944" lon="-1.61748">
        <ele>29</ele>
        <time>2023-08-13T13:15:23.222+00:00</time>
      </trkpt>
      <trkpt lat="49.39435" lon="-1.61747">
        <ele>29</ele>
        <time>2023-08-13T13:15:27.683+00:00</time>
      </trkpt>
      <trkpt lat="49.39431" lon="-1.61747">
        <ele>29</ele>
        <time>2023-08-13T13:15:32.222+00:00</time>
      </trkpt>
      <trkpt lat="49.39426" lon="-1.61744">
        <ele>32</ele>
        <time>2023-08-13T13:15:36.792+00:00</time>
      </trkpt>
      <trkpt lat="49.39421" lon="-1.61743">
        <ele>32</ele>
        <time>2023-08-13T13:15:41.332+00:00</time>
      </trkpt>
      <trkpt lat="49.39417" lon="-1.61743">
        <ele>32</ele>
        <time>2023-08-13T13:15:45.522+00:00</time>
      </trkpt>
      <trkpt lat="49.39413" lon="-1.61742">
        <ele>32</ele>
        <time>2023-08-13T13:15:49.595+00:00</time>
      </trkpt>
      <trkpt lat="49.39409" lon="-1.61742">
        <ele>32</ele>
        <time>2023-08-13T13:15:53.422+00:00</time>
      </trkpt>
      <trkpt lat="49.39404" lon="-1.61741">
        <ele>32</ele>
        <time>2023-08-13T13:15:57.895+00:00</time>
      </trkpt>
      <trkpt lat="49.394" lon="-1.6174">
        <ele>33</ele>
        <time>2023-08-13T13:16:01.922+00:00</time>
      </trkpt>
      <trkpt lat="49.39396" lon="-1.61738">
        <ele>33</ele>
        <time>2023-08-13T13:16:05.992+00:00</time>
      </trkpt>
      <trkpt lat="49.39391" lon="-1.61737">
        <ele>33</ele>
        <time>2023-08-13T13:16:10.382+00:00</time>
      </trkpt>
      <trkpt lat="49.39386" lon="-1.61736">
        <ele>34</ele>
        <time>2023-08-13T13:16:14.333+00:00</time>
      </trkpt>
      <trkpt lat="49.39382" lon="-1.61734">
        <ele>34</ele>
        <time>2023-08-13T13:16:18.733+00:00</time>
      </trkpt>
      <trkpt lat="49.39376" lon="-1.61734">
        <ele>34</ele>
        <time>2023-08-13T13:16:23.222+00:00</time>
      </trkpt>
      <trkpt lat="49.39371" lon="-1.61733">
        <ele>36</ele>
        <time>2023-08-13T13:16:27.741+00:00</time>
      </trkpt>
      <trkpt lat="49.39366" lon="-1.61731">
        <ele>36</ele>
        <time>2023-08-13T13:16:31.932+00:00</time>
      </trkpt>
      <trkpt lat="49.39362" lon="-1.6173">
        <ele>36</ele>
        <time>2023-08-13T13:16:36.122+00:00</time>
      </trkpt>
      <trkpt lat="49.39358" lon="-1.61729">
        <ele>36</ele>
        <time>2023-08-13T13:16:40.124+00:00</time>
      </trkpt>
      <trkpt lat="49.39354" lon="-1.61728">
        <ele>36</ele>
        <time>2023-08-13T13:16:44.744+00:00</time>
      </trkpt>
      <trkpt lat="49.39349" lon="-1.61727">
        <ele>36</ele>
        <time>2023-08-13T13:16:49.354+00:00</time>
      </trkpt>
      <trkpt lat="49.39344" lon="-1.61727">
        <ele>39</ele>
        <time>2023-08-13T13:16:53.222+00:00</time>
      </trkpt>
      <trkpt lat="49.3934" lon="-1.61725">
        <ele>39</ele>
        <time>2023-08-13T13:16:57.735+00:00</time>
      </trkpt>
      <trkpt lat="49.39336" lon="-1.61723">
        <ele>39</ele>
        <time>2023-08-13T13:17:01.926+00:00</time>
      </trkpt>
      <trkpt lat="49.39332" lon="-1.61721">
        <ele>39</ele>
        <time>2023-08-13T13:17:07.100+00:00</time>
      </trkpt>
      <trkpt lat="49.39329" lon="-1.6172">
        <ele>39</ele>
        <time>2023-08-13T13:17:11.024+00:00</time>
      </trkpt>
      <trkpt lat="49.39324" lon="-1.6172">
        <ele>39</ele>
        <time>2023-08-13T13:17:14.975+00:00</time>
      </trkpt>
      <trkpt lat="49.3932" lon="-1.61719">
        <ele>39</ele>
        <time>2023-08-13T13:17:19.404+00:00</time>
      </trkpt>
      <trkpt lat="49.39316" lon="-1.61718">
        <ele>39</ele>
        <time>2023-08-13T13:17:23.357+00:00</time>
      </trkpt>
      <trkpt lat="49.39312" lon="-1.61718">
        <ele>39</ele>
        <time>2023-08-13T13:17:27.430+00:00</time>
      </trkpt>
      <trkpt lat="49.39306" lon="-1.61716">
        <ele>39</ele>
        <time>2023-08-13T13:17:31.982+00:00</time>
      </trkpt>
      <trkpt lat="49.39302" lon="-1.61714">
        <ele>39</ele>
        <time>2023-08-13T13:17:36.532+00:00</time>
      </trkpt>
      <trkpt lat="49.39297" lon="-1.61713">
        <ele>39</ele>
        <time>2023-08-13T13:17:40.722+00:00</time>
      </trkpt>
      <trkpt lat="49.39292" lon="-1.61712">
        <ele>39</ele>
        <time>2023-08-13T13:17:44.795+00:00</time>
      </trkpt>
      <trkpt lat="49.39288" lon="-1.6171">
        <ele>39</ele>
        <time>2023-08-13T13:17:48.747+00:00</time>
      </trkpt>
      <trkpt lat="49.39283" lon="-1.61709">
        <ele>39</ele>
        <time>2023-08-13T13:17:53.537+00:00</time>
      </trkpt>
      <trkpt lat="49.39279" lon="-1.61707">
        <ele>40</ele>
        <time>2023-08-13T13:17:57.728+00:00</time>
      </trkpt>
      <trkpt lat="49.39275" lon="-1.61708">
        <ele>40</ele>
        <time>2023-08-13T13:18:02.398+00:00</time>
      </trkpt>
      <trkpt lat="49.3927" lon="-1.61706">
        <ele>40</ele>
        <time>2023-08-13T13:18:06.349+00:00</time>
      </trkpt>
      <trkpt lat="49.39265" lon="-1.61706">
        <ele>40</ele>
        <time>2023-08-13T13:18:11.017+00:00</time>
      </trkpt>
      <trkpt lat="49.39259" lon="-1.61704">
        <ele>42</ele>
        <time>2023-08-13T13:18:15.566+00:00</time>
      </trkpt>
      <trkpt lat="49.39255" lon="-1.61703">
        <ele>42</ele>
        <time>2023-08-13T13:18:19.635+00:00</time>
      </trkpt>
      <trkpt lat="49.39251" lon="-1.61703">
        <ele>42</ele>
        <time>2023-08-13T13:18:23.803+00:00</time>
      </trkpt>
      <trkpt lat="49.39248" lon="-1.61701">
        <ele>42</ele>
        <time>2023-08-13T13:18:28.334+00:00</time>
      </trkpt>
      <trkpt lat="49.39243" lon="-1.61701">
        <ele>42</ele>
        <time>2023-08-13T13:18:32.762+00:00</time>
      </trkpt>
      <trkpt lat="49.3924" lon="-1.617">
        <ele>42</ele>
        <time>2023-08-13T13:18:36.714+00:00</time>
      </trkpt>
      <trkpt lat="49.39236" lon="-1.61699">
        <ele>42</ele>
        <time>2023-08-13T13:18:40.665+00:00</time>
      </trkpt>
      <trkpt lat="49.39233" lon="-1.61699">
        <ele>43</ele>
        <time>2023-08-13T13:18:45.140+00:00</time>
      </trkpt>
      <trkpt lat="49.39228" lon="-1.61698">
        <ele>43</ele>
        <time>2023-08-13T13:18:49.129+00:00</time>
      </trkpt>
      <trkpt lat="49.39224" lon="-1.61697">
        <ele>43</ele>
        <time>2023-08-13T13:18:53.672+00:00</time>
      </trkpt>
      <trkpt lat="49.39219" lon="-1.61697">
        <ele>43</ele>
        <time>2023-08-13T13:18:57.621+00:00</time>
      </trkpt>
      <trkpt lat="49.39214" lon="-1.61694">
        <ele>43</ele>
        <time>2023-08-13T13:19:02.119+00:00</time>
      </trkpt>
      <trkpt lat="49.39208" lon="-1.61691">
        <ele>43</ele>
        <time>2023-08-13T13:19:06.640+00:00</time>
      </trkpt>
      <trkpt lat="49.39203" lon="-1.6169">
        <ele>43</ele>
        <time>2023-08-13T13:19:11.222+00:00</time>
      </trkpt>
      <trkpt lat="49.39199" lon="-1.61688">
        <ele>43</ele>
        <time>2023-08-13T13:19:15.839+00:00</time>
      </trkpt>
      <trkpt lat="49.39194" lon="-1.61686">
        <ele>43</ele>
        <time>2023-08-13T13:19:20.510+00:00</time>
      </trkpt>
      <trkpt lat="49.3919" lon="-1.61686">
        <ele>43</ele>
        <time>2023-08-13T13:19:24.461+00:00</time>
      </trkpt>
      <trkpt lat="49.39186" lon="-1.61685">
        <ele>43</ele>
        <time>2023-08-13T13:19:28.532+00:00</time>
      </trkpt>
      <trkpt lat="49.39181" lon="-1.61684">
        <ele>43</ele>
        <time>2023-08-13T13:19:33.322+00:00</time>
      </trkpt>
      <trkpt lat="49.39176" lon="-1.61683">
        <ele>43</ele>
        <time>2023-08-13T13:19:37.872+00:00</time>
      </trkpt>
      <trkpt lat="49.39171" lon="-1.61682">
        <ele>43</ele>
        <time>2023-08-13T13:19:42.436+00:00</time>
      </trkpt>
      <trkpt lat="49.39165" lon="-1.61682">
        <ele>43</ele>
        <time>2023-08-13T13:19:46.977+00:00</time>
      </trkpt>
      <trkpt lat="49.3916" lon="-1.61681">
        <ele>43</ele>
        <time>2023-08-13T13:19:51.526+00:00</time>
      </trkpt>
      <trkpt lat="49.39155" lon="-1.6168">
        <ele>47</ele>
        <time>2023-08-13T13:19:55.958+00:00</time>
      </trkpt>
      <trkpt lat="49.39149" lon="-1.61677">
        <ele>46</ele>
        <time>2023-08-13T13:20:00.510+00:00</time>
      </trkpt>
      <trkpt lat="49.39144" lon="-1.61674">
        <ele>46</ele>
        <time>2023-08-13T13:20:05.063+00:00</time>
      </trkpt>
      <trkpt lat="49.39139" lon="-1.61672">
        <ele>46</ele>
        <time>2023-08-13T13:20:09.016+00:00</time>
      </trkpt>
      <trkpt lat="49.39133" lon="-1.61671">
        <ele>46</ele>
        <time>2023-08-13T13:20:13.448+00:00</time>
      </trkpt>
      <trkpt lat="49.39128" lon="-1.61669">
        <ele>46</ele>
        <time>2023-08-13T13:20:17.520+00:00</time>
      </trkpt>
      <trkpt lat="49.39123" lon="-1.61668">
        <ele>46</ele>
        <time>2023-08-13T13:20:21.592+00:00</time>
      </trkpt>
      <trkpt lat="49.39118" lon="-1.61668">
        <ele>46</ele>
        <time>2023-08-13T13:20:26.107+00:00</time>
      </trkpt>
      <trkpt lat="49.39113" lon="-1.61668">
        <ele>46</ele>
        <time>2023-08-13T13:20:30.655+00:00</time>
      </trkpt>
      <trkpt lat="49.39108" lon="-1.61666">
        <ele>46</ele>
        <time>2023-08-13T13:20:35.120+00:00</time>
      </trkpt>
      <trkpt lat="49.39102" lon="-1.61666">
        <ele>46</ele>
        <time>2023-08-13T13:20:39.600+00:00</time>
      </trkpt>
      <trkpt lat="49.39098" lon="-1.61665">
        <ele>46</ele>
        <time>2023-08-13T13:20:43.552+00:00</time>
      </trkpt>
      <trkpt lat="49.39093" lon="-1.61662">
        <ele>48</ele>
        <time>2023-08-13T13:20:48.104+00:00</time>
      </trkpt>
      <trkpt lat="49.39088" lon="-1.6166">
        <ele>48</ele>
        <time>2023-08-13T13:20:52.122+00:00</time>
      </trkpt>
      <trkpt lat="49.39082" lon="-1.61659">
        <ele>48</ele>
        <time>2023-08-13T13:20:56.608+00:00</time>
      </trkpt>
      <trkpt lat="49.39077" lon="-1.61659">
        <ele>48</ele>
        <time>2023-08-13T13:21:00.680+00:00</time>
      </trkpt>
      <trkpt lat="49.39071" lon="-1.61658">
        <ele>48</ele>
        <time>2023-08-13T13:21:05.213+00:00</time>
      </trkpt>
      <trkpt lat="49.39065" lon="-1.61656">
        <ele>50</ele>
        <time>2023-08-13T13:21:09.725+00:00</time>
      </trkpt>
      <trkpt lat="49.3906" lon="-1.61655">
        <ele>50</ele>
        <time>2023-08-13T13:21:14.395+00:00</time>
      </trkpt>
      <trkpt lat="49.39055" lon="-1.61656">
        <ele>50</ele>
        <time>2023-08-13T13:21:18.896+00:00</time>
      </trkpt>
      <trkpt lat="49.39051" lon="-1.61656">
        <ele>50</ele>
        <time>2023-08-13T13:21:22.897+00:00</time>
      </trkpt>
      <trkpt lat="49.39046" lon="-1.61655">
        <ele>50</ele>
        <time>2023-08-13T13:21:27.410+00:00</time>
      </trkpt>
      <trkpt lat="49.39041" lon="-1.61651">
        <ele>52</ele>
        <time>2023-08-13T13:21:31.603+00:00</time>
      </trkpt>
      <trkpt lat="49.39036" lon="-1.61649">
        <ele>52</ele>
        <time>2023-08-13T13:21:35.675+00:00</time>
      </trkpt>
      <trkpt lat="49.3903" lon="-1.61648">
        <ele>52</ele>
        <time>2023-08-13T13:21:39.629+00:00</time>
      </trkpt>
      <trkpt lat="49.39025" lon="-1.61648">
        <ele>52</ele>
        <time>2023-08-13T13:21:44.222+00:00</time>
      </trkpt>
      <trkpt lat="49.3902" lon="-1.61646">
        <ele>52</ele>
        <time>2023-08-13T13:21:48.417+00:00</time>
      </trkpt>
      <trkpt lat="49.39015" lon="-1.61645">
        <ele>52</ele>
        <time>2023-08-13T13:21:52.848+00:00</time>
      </trkpt>
      <trkpt lat="49.3901" lon="-1.61644">
        <ele>53</ele>
        <time>2023-08-13T13:21:58.080+00:00</time>
      </trkpt>
      <trkpt lat="49.39009" lon="-1.61644">
        <ele>53</ele>
        <time>2023-08-13T13:22:02.129+00:00</time>
      </trkpt>
      <trkpt lat="49.39006" lon="-1.61645">
        <ele>53</ele>
        <time>2023-08-13T13:22:05.864+00:00</time>
      </trkpt>
      <trkpt lat="49.39001" lon="-1.61642">
        <ele>53</ele>
        <time>2023-08-13T13:22:10.534+00:00</time>
      </trkpt>
      <trkpt lat="49.38997" lon="-1.6164">
        <ele>53</ele>
        <time>2023-08-13T13:22:14.724+00:00</time>
      </trkpt>
      <trkpt lat="49.38992" lon="-1.61637">
        <ele>53</ele>
        <time>2023-08-13T13:22:18.737+00:00</time>
      </trkpt>
      <trkpt lat="49.38987" lon="-1.61637">
        <ele>53</ele>
        <time>2023-08-13T13:22:23.222+00:00</time>
      </trkpt>
      <trkpt lat="49.38982" lon="-1.61636">
        <ele>53</ele>
        <time>2023-08-13T13:22:27.222+00:00</time>
      </trkpt>
      <trkpt lat="49.38977" lon="-1.61635">
        <ele>53</ele>
        <time>2023-08-13T13:22:31.425+00:00</time>
      </trkpt>
      <trkpt lat="49.38972" lon="-1.61634">
        <ele>53</ele>
        <time>2023-08-13T13:22:35.614+00:00</time>
      </trkpt>
      <trkpt lat="49.38968" lon="-1.61634">
        <ele>53</ele>
        <time>2023-08-13T13:22:39.563+00:00</time>
      </trkpt>
      <trkpt lat="49.38963" lon="-1.61633">
        <ele>53</ele>
        <time>2023-08-13T13:22:44.112+00:00</time>
      </trkpt>
      <trkpt lat="49.38958" lon="-1.61633">
        <ele>54</ele>
        <time>2023-08-13T13:22:48.126+00:00</time>
      </trkpt>
      <trkpt lat="49.38952" lon="-1.61631">
        <ele>54</ele>
        <time>2023-08-13T13:22:52.222+00:00</time>
      </trkpt>
      <trkpt lat="49.38948" lon="-1.61631">
        <ele>54</ele>
        <time>2023-08-13T13:22:56.423+00:00</time>
      </trkpt>
      <trkpt lat="49.38943" lon="-1.61631">
        <ele>54</ele>
        <time>2023-08-13T13:23:00.853+00:00</time>
      </trkpt>
      <trkpt lat="49.38939" lon="-1.61629">
        <ele>54</ele>
        <time>2023-08-13T13:23:04.923+00:00</time>
      </trkpt>
      <trkpt lat="49.38934" lon="-1.61627">
        <ele>54</ele>
        <time>2023-08-13T13:23:10.151+00:00</time>
      </trkpt>
      <trkpt lat="49.38929" lon="-1.61626">
        <ele>55</ele>
        <time>2023-08-13T13:23:14.222+00:00</time>
      </trkpt>
      <trkpt lat="49.38924" lon="-1.61622">
        <ele>59</ele>
        <time>2023-08-13T13:23:18.410+00:00</time>
      </trkpt>
      <trkpt lat="49.38919" lon="-1.6162">
        <ele>59</ele>
        <time>2023-08-13T13:23:22.822+00:00</time>
      </trkpt>
      <trkpt lat="49.38914" lon="-1.61619">
        <ele>59</ele>
        <time>2023-08-13T13:23:27.027+00:00</time>
      </trkpt>
      <trkpt lat="49.38909" lon="-1.61618">
        <ele>59</ele>
        <time>2023-08-13T13:23:30.968+00:00</time>
      </trkpt>
      <trkpt lat="49.38904" lon="-1.61617">
        <ele>59</ele>
        <time>2023-08-13T13:23:35.038+00:00</time>
      </trkpt>
      <trkpt lat="49.38899" lon="-1.61615">
        <ele>59</ele>
        <time>2023-08-13T13:23:39.587+00:00</time>
      </trkpt>
      <trkpt lat="49.38895" lon="-1.61613">
        <ele>59</ele>
        <time>2023-08-13T13:23:44.105+00:00</time>
      </trkpt>
      <trkpt lat="49.3889" lon="-1.61611">
        <ele>59</ele>
        <time>2023-08-13T13:23:47.966+00:00</time>
      </trkpt>
      <trkpt lat="49.38885" lon="-1.61609">
        <ele>59</ele>
        <time>2023-08-13T13:23:52.513+00:00</time>
      </trkpt>
      <trkpt lat="49.38881" lon="-1.61607">
        <ele>59</ele>
        <time>2023-08-13T13:23:56.581+00:00</time>
      </trkpt>
      <trkpt lat="49.38876" lon="-1.61604">
        <ele>59</ele>
        <time>2023-08-13T13:24:01.096+00:00</time>
      </trkpt>
      <trkpt lat="49.38873" lon="-1.61603">
        <ele>58</ele>
        <time>2023-08-13T13:24:04.949+00:00</time>
      </trkpt>
      <trkpt lat="49.38869" lon="-1.616">
        <ele>58</ele>
        <time>2023-08-13T13:24:09.018+00:00</time>
      </trkpt>
      <trkpt lat="49.38866" lon="-1.61597">
        <ele>60</ele>
        <time>2023-08-13T13:24:12.966+00:00</time>
      </trkpt>
      <trkpt lat="49.38863" lon="-1.61594">
        <ele>60</ele>
        <time>2023-08-13T13:24:17.895+00:00</time>
      </trkpt>
      <trkpt lat="49.38859" lon="-1.61591">
        <ele>60</ele>
        <time>2023-08-13T13:24:21.941+00:00</time>
      </trkpt>
      <trkpt lat="49.38856" lon="-1.61586">
        <ele>60</ele>
        <time>2023-08-13T13:24:26.118+00:00</time>
      </trkpt>
      <trkpt lat="49.38851" lon="-1.61583">
        <ele>60</ele>
        <time>2023-08-13T13:24:30.222+00:00</time>
      </trkpt>
      <trkpt lat="49.38847" lon="-1.61577">
        <ele>58</ele>
        <time>2023-08-13T13:24:34.743+00:00</time>
      </trkpt>
      <trkpt lat="49.38842" lon="-1.61573">
        <ele>58</ele>
        <time>2023-08-13T13:24:38.932+00:00</time>
      </trkpt>
      <trkpt lat="49.38836" lon="-1.61569">
        <ele>59</ele>
        <time>2023-08-13T13:24:43.143+00:00</time>
      </trkpt>
      <trkpt lat="49.38831" lon="-1.61568">
        <ele>59</ele>
        <time>2023-08-13T13:24:47.128+00:00</time>
      </trkpt>
      <trkpt lat="49.38825" lon="-1.61561">
        <ele>59</ele>
        <time>2023-08-13T13:24:51.615+00:00</time>
      </trkpt>
      <trkpt lat="49.3882" lon="-1.61556">
        <ele>59</ele>
        <time>2023-08-13T13:24:56.043+00:00</time>
      </trkpt>
      <trkpt lat="49.38816" lon="-1.61552">
        <ele>57</ele>
        <time>2023-08-13T13:25:00.216+00:00</time>
      </trkpt>
      <trkpt lat="49.38812" lon="-1.61548">
        <ele>57</ele>
        <time>2023-08-13T13:25:04.222+00:00</time>
      </trkpt>
      <trkpt lat="49.38808" lon="-1.61543">
        <ele>57</ele>
        <time>2023-08-13T13:25:08.222+00:00</time>
      </trkpt>
      <trkpt lat="49.38803" lon="-1.61539">
        <ele>59</ele>
        <time>2023-08-13T13:25:12.722+00:00</time>
      </trkpt>
      <trkpt lat="49.38799" lon="-1.61537">
        <ele>59</ele>
        <time>2023-08-13T13:25:16.673+00:00</time>
      </trkpt>
      <trkpt lat="49.38794" lon="-1.61533">
        <ele>59</ele>
        <time>2023-08-13T13:25:21.324+00:00</time>
      </trkpt>
      <trkpt lat="49.3879" lon="-1.6153">
        <ele>58</ele>
        <time>2023-08-13T13:25:25.874+00:00</time>
      </trkpt>
      <trkpt lat="49.38786" lon="-1.61526">
        <ele>58</ele>
        <time>2023-08-13T13:25:30.026+00:00</time>
      </trkpt>
      <trkpt lat="49.38782" lon="-1.61523">
        <ele>58</ele>
        <time>2023-08-13T13:25:33.976+00:00</time>
      </trkpt>
      <trkpt lat="49.38778" lon="-1.61519">
        <ele>58</ele>
        <time>2023-08-13T13:25:38.524+00:00</time>
      </trkpt>
      <trkpt lat="49.38773" lon="-1.61517">
        <ele>58</ele>
        <time>2023-08-13T13:25:42.595+00:00</time>
      </trkpt>
      <trkpt lat="49.38769" lon="-1.61515">
        <ele>58</ele>
        <time>2023-08-13T13:25:47.025+00:00</time>
      </trkpt>
      <trkpt lat="49.38764" lon="-1.61513">
        <ele>61</ele>
        <time>2023-08-13T13:25:51.456+00:00</time>
      </trkpt>
      <trkpt lat="49.3876" lon="-1.61512">
        <ele>61</ele>
        <time>2023-08-13T13:25:56.005+00:00</time>
      </trkpt>
      <trkpt lat="49.38759" lon="-1.61509">
        <ele>61</ele>
        <time>2023-08-13T13:26:32.138+00:00</time>
      </trkpt>
      <trkpt lat="49.38756" lon="-1.61509">
        <ele>61</ele>
        <time>2023-08-13T13:26:36.212+00:00</time>
      </trkpt>
      <trkpt lat="49.38752" lon="-1.61509">
        <ele>61</ele>
        <time>2023-08-13T13:26:40.759+00:00</time>
      </trkpt>
      <trkpt lat="49.38747" lon="-1.61507">
        <ele>61</ele>
        <time>2023-08-13T13:26:44.708+00:00</time>
      </trkpt>
      <trkpt lat="49.38742" lon="-1.61504">
        <ele>61</ele>
        <time>2023-08-13T13:26:48.657+00:00</time>
      </trkpt>
      <trkpt lat="49.38738" lon="-1.61503">
        <ele>61</ele>
        <time>2023-08-13T13:26:52.726+00:00</time>
      </trkpt>
      <trkpt lat="49.38732" lon="-1.61499">
        <ele>62</ele>
        <time>2023-08-13T13:26:57.751+00:00</time>
      </trkpt>
      <trkpt lat="49.38729" lon="-1.61495">
        <ele>62</ele>
        <time>2023-08-13T13:27:01.700+00:00</time>
      </trkpt>
      <trkpt lat="49.38726" lon="-1.61489">
        <ele>62</ele>
        <time>2023-08-13T13:27:06.123+00:00</time>
      </trkpt>
      <trkpt lat="49.3873" lon="-1.61481">
        <ele>62</ele>
        <time>2023-08-13T13:28:10.125+00:00</time>
      </trkpt>
      <trkpt lat="49.38729" lon="-1.61478">
        <ele>62</ele>
        <time>2023-08-13T13:28:14.135+00:00</time>
      </trkpt>
      <trkpt lat="49.38731" lon="-1.61472">
        <ele>62</ele>
        <time>2023-08-13T13:28:18.521+00:00</time>
      </trkpt>
      <trkpt lat="49.38733" lon="-1.61463">
        <ele>62</ele>
        <time>2023-08-13T13:28:23.073+00:00</time>
      </trkpt>
      <trkpt lat="49.38736" lon="-1.61457">
        <ele>63</ele>
        <time>2023-08-13T13:28:27.089+00:00</time>
      </trkpt>
      <trkpt lat="49.38739" lon="-1.6145">
        <ele>63</ele>
        <time>2023-08-13T13:28:31.044+00:00</time>
      </trkpt>
      <trkpt lat="49.38741" lon="-1.61442">
        <ele>63</ele>
        <time>2023-08-13T13:28:35.476+00:00</time>
      </trkpt>
      <trkpt lat="49.38743" lon="-1.61434">
        <ele>63</ele>
        <time>2023-08-13T13:28:39.547+00:00</time>
      </trkpt>
      <trkpt lat="49.38745" lon="-1.61426">
        <ele>63</ele>
        <time>2023-08-13T13:28:44.199+00:00</time>
      </trkpt>
      <trkpt lat="49.38747" lon="-1.61418">
        <ele>63</ele>
        <time>2023-08-13T13:28:48.540+00:00</time>
      </trkpt>
      <trkpt lat="49.3875" lon="-1.61412">
        <ele>63</ele>
        <time>2023-08-13T13:28:53+00:00</time>
      </trkpt>
      <trkpt lat="49.38753" lon="-1.61406">
        <ele>63</ele>
        <time>2023-08-13T13:28:56.772+00:00</time>
      </trkpt>
      <trkpt lat="49.38754" lon="-1.61398">
        <ele>62</ele>
        <time>2023-08-13T13:29:01.322+00:00</time>
      </trkpt>
      <trkpt lat="49.38757" lon="-1.61392">
        <ele>62</ele>
        <time>2023-08-13T13:29:05.394+00:00</time>
      </trkpt>
      <trkpt lat="49.38759" lon="-1.61383">
        <ele>62</ele>
        <time>2023-08-13T13:29:09.875+00:00</time>
      </trkpt>
      <trkpt lat="49.38762" lon="-1.61378">
        <ele>62</ele>
        <time>2023-08-13T13:29:13.776+00:00</time>
      </trkpt>
      <trkpt lat="49.38764" lon="-1.61371">
        <ele>61</ele>
        <time>2023-08-13T13:29:17.728+00:00</time>
      </trkpt>
      <trkpt lat="49.38766" lon="-1.61363">
        <ele>62</ele>
        <time>2023-08-13T13:29:22.760+00:00</time>
      </trkpt>
      <trkpt lat="49.38768" lon="-1.61358">
        <ele>62</ele>
        <time>2023-08-13T13:29:26.833+00:00</time>
      </trkpt>
      <trkpt lat="49.3877" lon="-1.61351">
        <ele>62</ele>
        <time>2023-08-13T13:29:31.387+00:00</time>
      </trkpt>
      <trkpt lat="49.38772" lon="-1.61344">
        <ele>61</ele>
        <time>2023-08-13T13:29:35.939+00:00</time>
      </trkpt>
      <trkpt lat="49.38775" lon="-1.61337">
        <ele>61</ele>
        <time>2023-08-13T13:29:40.612+00:00</time>
      </trkpt>
      <trkpt lat="49.38777" lon="-1.61331">
        <ele>61</ele>
        <time>2023-08-13T13:29:45.222+00:00</time>
      </trkpt>
      <trkpt lat="49.38779" lon="-1.61325">
        <ele>61</ele>
        <time>2023-08-13T13:29:49.798+00:00</time>
      </trkpt>
      <trkpt lat="49.38782" lon="-1.61317">
        <ele>61</ele>
        <time>2023-08-13T13:29:54.740+00:00</time>
      </trkpt>
      <trkpt lat="49.38784" lon="-1.61311">
        <ele>61</ele>
        <time>2023-08-13T13:29:58.841+00:00</time>
      </trkpt>
      <trkpt lat="49.38784" lon="-1.61304">
        <ele>61</ele>
        <time>2023-08-13T13:30:03.031+00:00</time>
      </trkpt>
      <trkpt lat="49.38787" lon="-1.61297">
        <ele>61</ele>
        <time>2023-08-13T13:30:07.221+00:00</time>
      </trkpt>
      <trkpt lat="49.38792" lon="-1.61294">
        <ele>61</ele>
        <time>2023-08-13T13:30:11.772+00:00</time>
      </trkpt>
      <trkpt lat="49.38795" lon="-1.61289">
        <ele>61</ele>
        <time>2023-08-13T13:30:15.803+00:00</time>
      </trkpt>
      <trkpt lat="49.38798" lon="-1.61284">
        <ele>61</ele>
        <time>2023-08-13T13:30:20.256+00:00</time>
      </trkpt>
      <trkpt lat="49.388" lon="-1.61277">
        <ele>61</ele>
        <time>2023-08-13T13:30:24.222+00:00</time>
      </trkpt>
      <trkpt lat="49.38802" lon="-1.61269">
        <ele>61</ele>
        <time>2023-08-13T13:30:28.718+00:00</time>
      </trkpt>
      <trkpt lat="49.38804" lon="-1.61262">
        <ele>61</ele>
        <time>2023-08-13T13:30:32.670+00:00</time>
      </trkpt>
      <trkpt lat="49.38807" lon="-1.61255">
        <ele>61</ele>
        <time>2023-08-13T13:30:37.220+00:00</time>
      </trkpt>
      <trkpt lat="49.38809" lon="-1.61248">
        <ele>61</ele>
        <time>2023-08-13T13:30:41.771+00:00</time>
      </trkpt>
      <trkpt lat="49.38811" lon="-1.61239">
        <ele>61</ele>
        <time>2023-08-13T13:30:46.441+00:00</time>
      </trkpt>
      <trkpt lat="49.38815" lon="-1.61231">
        <ele>61</ele>
        <time>2023-08-13T13:30:50.972+00:00</time>
      </trkpt>
      <trkpt lat="49.38817" lon="-1.61224">
        <ele>61</ele>
        <time>2023-08-13T13:30:55.523+00:00</time>
      </trkpt>
      <trkpt lat="49.3882" lon="-1.61217">
        <ele>61</ele>
        <time>2023-08-13T13:30:59.555+00:00</time>
      </trkpt>
      <trkpt lat="49.38822" lon="-1.61209">
        <ele>61</ele>
        <time>2023-08-13T13:31:03.987+00:00</time>
      </trkpt>
      <trkpt lat="49.38825" lon="-1.61202">
        <ele>62</ele>
        <time>2023-08-13T13:31:08.537+00:00</time>
      </trkpt>
      <trkpt lat="49.38829" lon="-1.61197">
        <ele>62</ele>
        <time>2023-08-13T13:31:12.609+00:00</time>
      </trkpt>
      <trkpt lat="49.38829" lon="-1.61189">
        <ele>62</ele>
        <time>2023-08-13T13:31:17.135+00:00</time>
      </trkpt>
      <trkpt lat="49.38831" lon="-1.61182">
        <ele>62</ele>
        <time>2023-08-13T13:31:21.151+00:00</time>
      </trkpt>
      <trkpt lat="49.38835" lon="-1.61174">
        <ele>62</ele>
        <time>2023-08-13T13:31:25.662+00:00</time>
      </trkpt>
      <trkpt lat="49.38838" lon="-1.61166">
        <ele>62</ele>
        <time>2023-08-13T13:31:30.057+00:00</time>
      </trkpt>
      <trkpt lat="49.3884" lon="-1.61161">
        <ele>62</ele>
        <time>2023-08-13T13:31:33.926+00:00</time>
      </trkpt>
      <trkpt lat="49.38843" lon="-1.61156">
        <ele>62</ele>
        <time>2023-08-13T13:31:38.119+00:00</time>
      </trkpt>
      <trkpt lat="49.38844" lon="-1.61147">
        <ele>61</ele>
        <time>2023-08-13T13:31:42.734+00:00</time>
      </trkpt>
      <trkpt lat="49.38845" lon="-1.61141">
        <ele>61</ele>
        <time>2023-08-13T13:31:46.628+00:00</time>
      </trkpt>
      <trkpt lat="49.38846" lon="-1.61135">
        <ele>61</ele>
        <time>2023-08-13T13:31:51.222+00:00</time>
      </trkpt>
      <trkpt lat="49.3885" lon="-1.61127">
        <ele>62</ele>
        <time>2023-08-13T13:31:55.734+00:00</time>
      </trkpt>
      <trkpt lat="49.38853" lon="-1.61119">
        <ele>62</ele>
        <time>2023-08-13T13:31:59.926+00:00</time>
      </trkpt>
      <trkpt lat="49.38855" lon="-1.61114">
        <ele>62</ele>
        <time>2023-08-13T13:32:04.119+00:00</time>
      </trkpt>
      <trkpt lat="49.38857" lon="-1.61105">
        <ele>62</ele>
        <time>2023-08-13T13:32:08.669+00:00</time>
      </trkpt>
      <trkpt lat="49.38859" lon="-1.61095">
        <ele>61</ele>
        <time>2023-08-13T13:32:13.939+00:00</time>
      </trkpt>
      <trkpt lat="49.3886" lon="-1.61087">
        <ele>61</ele>
        <time>2023-08-13T13:32:18.132+00:00</time>
      </trkpt>
      <trkpt lat="49.38864" lon="-1.6108">
        <ele>61</ele>
        <time>2023-08-13T13:32:22.222+00:00</time>
      </trkpt>
      <trkpt lat="49.38867" lon="-1.61073">
        <ele>61</ele>
        <time>2023-08-13T13:32:26.222+00:00</time>
      </trkpt>
      <trkpt lat="49.38868" lon="-1.61065">
        <ele>61</ele>
        <time>2023-08-13T13:32:30.435+00:00</time>
      </trkpt>
      <trkpt lat="49.3887" lon="-1.61058">
        <ele>61</ele>
        <time>2023-08-13T13:32:34.588+00:00</time>
      </trkpt>
      <trkpt lat="49.38872" lon="-1.61051">
        <ele>61</ele>
        <time>2023-08-13T13:32:38.540+00:00</time>
      </trkpt>
      <trkpt lat="49.38875" lon="-1.61044">
        <ele>60</ele>
        <time>2023-08-13T13:32:42.732+00:00</time>
      </trkpt>
      <trkpt lat="49.38879" lon="-1.61039">
        <ele>61</ele>
        <time>2023-08-13T13:32:46.766+00:00</time>
      </trkpt>
      <trkpt lat="49.38882" lon="-1.61032">
        <ele>61</ele>
        <time>2023-08-13T13:32:50.840+00:00</time>
      </trkpt>
      <trkpt lat="49.38883" lon="-1.61023">
        <ele>61</ele>
        <time>2023-08-13T13:32:55.393+00:00</time>
      </trkpt>
      <trkpt lat="49.38886" lon="-1.61016">
        <ele>61</ele>
        <time>2023-08-13T13:32:59.785+00:00</time>
      </trkpt>
      <trkpt lat="49.38889" lon="-1.61009">
        <ele>62</ele>
        <time>2023-08-13T13:33:04.335+00:00</time>
      </trkpt>
      <trkpt lat="49.38893" lon="-1.61">
        <ele>62</ele>
        <time>2023-08-13T13:33:09.007+00:00</time>
      </trkpt>
      <trkpt lat="49.38895" lon="-1.60994">
        <ele>62</ele>
        <time>2023-08-13T13:33:13.540+00:00</time>
      </trkpt>
      <trkpt lat="49.38897" lon="-1.60988">
        <ele>62</ele>
        <time>2023-08-13T13:33:18.135+00:00</time>
      </trkpt>
      <trkpt lat="49.38898" lon="-1.60979">
        <ele>63</ele>
        <time>2023-08-13T13:33:22.725+00:00</time>
      </trkpt>
      <trkpt lat="49.38901" lon="-1.60971">
        <ele>63</ele>
        <time>2023-08-13T13:33:27.338+00:00</time>
      </trkpt>
      <trkpt lat="49.38903" lon="-1.60963">
        <ele>61</ele>
        <time>2023-08-13T13:33:32.127+00:00</time>
      </trkpt>
      <trkpt lat="49.38906" lon="-1.60958">
        <ele>61</ele>
        <time>2023-08-13T13:33:36.678+00:00</time>
      </trkpt>
      <trkpt lat="49.38908" lon="-1.60951">
        <ele>61</ele>
        <time>2023-08-13T13:33:40.632+00:00</time>
      </trkpt>
      <trkpt lat="49.38905" lon="-1.6094">
        <ele>61</ele>
        <time>2023-08-13T13:34:06.629+00:00</time>
      </trkpt>
      <trkpt lat="49.38903" lon="-1.60939">
        <ele>61</ele>
        <time>2023-08-13T13:34:11.778+00:00</time>
      </trkpt>
      <trkpt lat="49.389" lon="-1.60934">
        <ele>63</ele>
        <time>2023-08-13T13:34:16.327+00:00</time>
      </trkpt>
      <trkpt lat="49.38896" lon="-1.60931">
        <ele>63</ele>
        <time>2023-08-13T13:34:20.878+00:00</time>
      </trkpt>
      <trkpt lat="49.38892" lon="-1.6093">
        <ele>64</ele>
        <time>2023-08-13T13:34:25.540+00:00</time>
      </trkpt>
      <trkpt lat="49.38888" lon="-1.60932">
        <ele>63</ele>
        <time>2023-08-13T13:34:29.618+00:00</time>
      </trkpt>
      <trkpt lat="49.38884" lon="-1.6093">
        <ele>64</ele>
        <time>2023-08-13T13:34:33.689+00:00</time>
      </trkpt>
      <trkpt lat="49.38879" lon="-1.60926">
        <ele>64</ele>
        <time>2023-08-13T13:34:38.220+00:00</time>
      </trkpt>
      <trkpt lat="49.38877" lon="-1.60923">
        <ele>64</ele>
        <time>2023-08-13T13:34:42.222+00:00</time>
      </trkpt>
      <trkpt lat="49.38874" lon="-1.60921">
        <ele>65</ele>
        <time>2023-08-13T13:34:46.739+00:00</time>
      </trkpt>
      <trkpt lat="49.3887" lon="-1.60922">
        <ele>65</ele>
        <time>2023-08-13T13:34:50.930+00:00</time>
      </trkpt>
      <trkpt lat="49.38865" lon="-1.60924">
        <ele>65</ele>
        <time>2023-08-13T13:34:55.684+00:00</time>
      </trkpt>
      <trkpt lat="49.3886" lon="-1.60926">
        <ele>65</ele>
        <time>2023-08-13T13:35:00.222+00:00</time>
      </trkpt>
      <trkpt lat="49.38856" lon="-1.60924">
        <ele>65</ele>
        <time>2023-08-13T13:35:05.029+00:00</time>
      </trkpt>
      <trkpt lat="49.38852" lon="-1.60924">
        <ele>65</ele>
        <time>2023-08-13T13:35:09.540+00:00</time>
      </trkpt>
      <trkpt lat="49.38847" lon="-1.6092">
        <ele>66</ele>
        <time>2023-08-13T13:35:13.731+00:00</time>
      </trkpt>
      <trkpt lat="49.38842" lon="-1.60915">
        <ele>66</ele>
        <time>2023-08-13T13:35:17.684+00:00</time>
      </trkpt>
      <trkpt lat="49.38837" lon="-1.60913">
        <ele>66</ele>
        <time>2023-08-13T13:35:21.637+00:00</time>
      </trkpt>
      <trkpt lat="49.38832" lon="-1.60914">
        <ele>66</ele>
        <time>2023-08-13T13:35:25.709+00:00</time>
      </trkpt>
      <trkpt lat="49.38826" lon="-1.60914">
        <ele>66</ele>
        <time>2023-08-13T13:35:30.202+00:00</time>
      </trkpt>
      <trkpt lat="49.38821" lon="-1.60914">
        <ele>66</ele>
        <time>2023-08-13T13:35:34.335+00:00</time>
      </trkpt>
      <trkpt lat="49.38817" lon="-1.60911">
        <ele>65</ele>
        <time>2023-08-13T13:35:38.525+00:00</time>
      </trkpt>
      <trkpt lat="49.38812" lon="-1.60909">
        <ele>65</ele>
        <time>2023-08-13T13:35:42.597+00:00</time>
      </trkpt>
      <trkpt lat="49.38807" lon="-1.6091">
        <ele>65</ele>
        <time>2023-08-13T13:35:46.549+00:00</time>
      </trkpt>
      <trkpt lat="49.38802" lon="-1.6091">
        <ele>65</ele>
        <time>2023-08-13T13:35:51.103+00:00</time>
      </trkpt>
      <trkpt lat="49.38796" lon="-1.60909">
        <ele>65</ele>
        <time>2023-08-13T13:35:55.138+00:00</time>
      </trkpt>
      <trkpt lat="49.38791" lon="-1.6091">
        <ele>65</ele>
        <time>2023-08-13T13:35:59.482+00:00</time>
      </trkpt>
      <trkpt lat="49.38787" lon="-1.60912">
        <ele>65</ele>
        <time>2023-08-13T13:36:03.879+00:00</time>
      </trkpt>
      <trkpt lat="49.38782" lon="-1.60913">
        <ele>65</ele>
        <time>2023-08-13T13:36:08.038+00:00</time>
      </trkpt>
      <trkpt lat="49.38777" lon="-1.60913">
        <ele>65</ele>
        <time>2023-08-13T13:36:12.467+00:00</time>
      </trkpt>
      <trkpt lat="49.38774" lon="-1.60909">
        <ele>65</ele>
        <time>2023-08-13T13:36:16.539+00:00</time>
      </trkpt>
      <trkpt lat="49.38772" lon="-1.60904">
        <ele>65</ele>
        <time>2023-08-13T13:36:20.729+00:00</time>
      </trkpt>
      <trkpt lat="49.38768" lon="-1.609">
        <ele>66</ele>
        <time>2023-08-13T13:36:25.301+00:00</time>
      </trkpt>
      <trkpt lat="49.38765" lon="-1.609">
        <ele>66</ele>
        <time>2023-08-13T13:36:29.330+00:00</time>
      </trkpt>
      <trkpt lat="49.38762" lon="-1.60902">
        <ele>65</ele>
        <time>2023-08-13T13:36:33.519+00:00</time>
      </trkpt>
      <trkpt lat="49.38758" lon="-1.60904">
        <ele>64</ele>
        <time>2023-08-13T13:36:37.588+00:00</time>
      </trkpt>
      <trkpt lat="49.38753" lon="-1.60908">
        <ele>64</ele>
        <time>2023-08-13T13:36:42.076+00:00</time>
      </trkpt>
      <trkpt lat="49.38748" lon="-1.60909">
        <ele>64</ele>
        <time>2023-08-13T13:36:46.117+00:00</time>
      </trkpt>
      <trkpt lat="49.38742" lon="-1.6091">
        <ele>64</ele>
        <time>2023-08-13T13:36:50.575+00:00</time>
      </trkpt>
      <trkpt lat="49.38737" lon="-1.60911">
        <ele>64</ele>
        <time>2023-08-13T13:36:54.527+00:00</time>
      </trkpt>
      <trkpt lat="49.38731" lon="-1.60911">
        <ele>63</ele>
        <time>2023-08-13T13:36:59.132+00:00</time>
      </trkpt>
      <trkpt lat="49.38727" lon="-1.60909">
        <ele>63</ele>
        <time>2023-08-13T13:37:03.144+00:00</time>
      </trkpt>
      <trkpt lat="49.38723" lon="-1.60909">
        <ele>63</ele>
        <time>2023-08-13T13:37:07.153+00:00</time>
      </trkpt>
      <trkpt lat="49.38719" lon="-1.6091">
        <ele>63</ele>
        <time>2023-08-13T13:37:12.121+00:00</time>
      </trkpt>
      <trkpt lat="49.38715" lon="-1.6091">
        <ele>63</ele>
        <time>2023-08-13T13:37:16.119+00:00</time>
      </trkpt>
      <trkpt lat="49.3871" lon="-1.6091">
        <ele>63</ele>
        <time>2023-08-13T13:37:20.621+00:00</time>
      </trkpt>
      <trkpt lat="49.38706" lon="-1.60908">
        <ele>62</ele>
        <time>2023-08-13T13:37:25.222+00:00</time>
      </trkpt>
      <trkpt lat="49.38702" lon="-1.60908">
        <ele>62</ele>
        <time>2023-08-13T13:37:29.717+00:00</time>
      </trkpt>
      <trkpt lat="49.38697" lon="-1.60906">
        <ele>62</ele>
        <time>2023-08-13T13:37:34.222+00:00</time>
      </trkpt>
      <trkpt lat="49.38694" lon="-1.60903">
        <ele>62</ele>
        <time>2023-08-13T13:37:38.333+00:00</time>
      </trkpt>
      <trkpt lat="49.3869" lon="-1.60899">
        <ele>64</ele>
        <time>2023-08-13T13:37:42.522+00:00</time>
      </trkpt>
      <trkpt lat="49.38687" lon="-1.60893">
        <ele>64</ele>
        <time>2023-08-13T13:37:46.591+00:00</time>
      </trkpt>
      <trkpt lat="49.38684" lon="-1.60887">
        <ele>64</ele>
        <time>2023-08-13T13:37:50.941+00:00</time>
      </trkpt>
      <trkpt lat="49.38681" lon="-1.60884">
        <ele>64</ele>
        <time>2023-08-13T13:37:54.968+00:00</time>
      </trkpt>
      <trkpt lat="49.38678" lon="-1.60883">
        <ele>63</ele>
        <time>2023-08-13T13:37:58.798+00:00</time>
      </trkpt>
      <trkpt lat="49.38673" lon="-1.6088">
        <ele>63</ele>
        <time>2023-08-13T13:38:03.347+00:00</time>
      </trkpt>
      <trkpt lat="49.38667" lon="-1.60881">
        <ele>63</ele>
        <time>2023-08-13T13:38:07.534+00:00</time>
      </trkpt>
      <trkpt lat="49.38662" lon="-1.60883">
        <ele>63</ele>
        <time>2023-08-13T13:38:11.723+00:00</time>
      </trkpt>
      <trkpt lat="49.38657" lon="-1.60885">
        <ele>63</ele>
        <time>2023-08-13T13:38:16.389+00:00</time>
      </trkpt>
      <trkpt lat="49.38653" lon="-1.60886">
        <ele>62</ele>
        <time>2023-08-13T13:38:20.338+00:00</time>
      </trkpt>
      <trkpt lat="49.38648" lon="-1.60885">
        <ele>62</ele>
        <time>2023-08-13T13:38:24.526+00:00</time>
      </trkpt>
      <trkpt lat="49.38642" lon="-1.60884">
        <ele>62</ele>
        <time>2023-08-13T13:38:29.155+00:00</time>
      </trkpt>
      <trkpt lat="49.38637" lon="-1.60885">
        <ele>62</ele>
        <time>2023-08-13T13:38:33.742+00:00</time>
      </trkpt>
      <trkpt lat="49.38633" lon="-1.60885">
        <ele>62</ele>
        <time>2023-08-13T13:38:38.222+00:00</time>
      </trkpt>
      <trkpt lat="49.38628" lon="-1.60884">
        <ele>62</ele>
        <time>2023-08-13T13:38:42.354+00:00</time>
      </trkpt>
      <trkpt lat="49.38623" lon="-1.60883">
        <ele>62</ele>
        <time>2023-08-13T13:38:46.744+00:00</time>
      </trkpt>
      <trkpt lat="49.38619" lon="-1.60883">
        <ele>62</ele>
        <time>2023-08-13T13:38:50.727+00:00</time>
      </trkpt>
      <trkpt lat="49.38616" lon="-1.60882">
        <ele>62</ele>
        <time>2023-08-13T13:38:54.673+00:00</time>
      </trkpt>
      <trkpt lat="49.38611" lon="-1.60883">
        <ele>62</ele>
        <time>2023-08-13T13:38:59.697+00:00</time>
      </trkpt>
      <trkpt lat="49.38606" lon="-1.60883">
        <ele>62</ele>
        <time>2023-08-13T13:39:03.645+00:00</time>
      </trkpt>
      <trkpt lat="49.38602" lon="-1.60882">
        <ele>62</ele>
        <time>2023-08-13T13:39:07.712+00:00</time>
      </trkpt>
      <trkpt lat="49.38597" lon="-1.6088">
        <ele>62</ele>
        <time>2023-08-13T13:39:12.222+00:00</time>
      </trkpt>
      <trkpt lat="49.38593" lon="-1.60879">
        <ele>62</ele>
        <time>2023-08-13T13:39:16.922+00:00</time>
      </trkpt>
      <trkpt lat="49.38587" lon="-1.60875">
        <ele>62</ele>
        <time>2023-08-13T13:39:21.586+00:00</time>
      </trkpt>
      <trkpt lat="49.38582" lon="-1.60872">
        <ele>63</ele>
        <time>2023-08-13T13:39:26.012+00:00</time>
      </trkpt>
      <trkpt lat="49.38578" lon="-1.6087">
        <ele>63</ele>
        <time>2023-08-13T13:39:30.557+00:00</time>
      </trkpt>
      <trkpt lat="49.38574" lon="-1.60866">
        <ele>63</ele>
        <time>2023-08-13T13:39:34.623+00:00</time>
      </trkpt>
      <trkpt lat="49.38569" lon="-1.60865">
        <ele>62</ele>
        <time>2023-08-13T13:39:38.692+00:00</time>
      </trkpt>
      <trkpt lat="49.38565" lon="-1.60864">
        <ele>62</ele>
        <time>2023-08-13T13:39:43.146+00:00</time>
      </trkpt>
      <trkpt lat="49.38562" lon="-1.60863">
        <ele>62</ele>
        <time>2023-08-13T13:39:47.137+00:00</time>
      </trkpt>
      <trkpt lat="49.38559" lon="-1.60859">
        <ele>62</ele>
        <time>2023-08-13T13:39:51.716+00:00</time>
      </trkpt>
      <trkpt lat="49.38558" lon="-1.60854">
        <ele>62</ele>
        <time>2023-08-13T13:39:56.222+00:00</time>
      </trkpt>
      <trkpt lat="49.38556" lon="-1.60851">
        <ele>62</ele>
        <time>2023-08-13T13:40:00.693+00:00</time>
      </trkpt>
      <trkpt lat="49.38552" lon="-1.60845">
        <ele>62</ele>
        <time>2023-08-13T13:40:05.121+00:00</time>
      </trkpt>
      <trkpt lat="49.38547" lon="-1.60841">
        <ele>62</ele>
        <time>2023-08-13T13:40:09.641+00:00</time>
      </trkpt>
      <trkpt lat="49.38542" lon="-1.60838">
        <ele>62</ele>
        <time>2023-08-13T13:40:13.617+00:00</time>
      </trkpt>
      <trkpt lat="49.38537" lon="-1.60836">
        <ele>60</ele>
        <time>2023-08-13T13:40:18.165+00:00</time>
      </trkpt>
      <trkpt lat="49.38534" lon="-1.60834">
        <ele>60</ele>
        <time>2023-08-13T13:40:22.352+00:00</time>
      </trkpt>
      <trkpt lat="49.38528" lon="-1.60832">
        <ele>60</ele>
        <time>2023-08-13T13:40:27.018+00:00</time>
      </trkpt>
      <trkpt lat="49.38524" lon="-1.60829">
        <ele>60</ele>
        <time>2023-08-13T13:40:31.564+00:00</time>
      </trkpt>
      <trkpt lat="49.38522" lon="-1.60826">
        <ele>60</ele>
        <time>2023-08-13T13:40:35.632+00:00</time>
      </trkpt>
      <trkpt lat="49.38517" lon="-1.60821">
        <ele>60</ele>
        <time>2023-08-13T13:40:39.700+00:00</time>
      </trkpt>
      <trkpt lat="49.38513" lon="-1.60816">
        <ele>59</ele>
        <time>2023-08-13T13:40:44.222+00:00</time>
      </trkpt>
      <trkpt lat="49.3851" lon="-1.60811">
        <ele>59</ele>
        <time>2023-08-13T13:40:48.670+00:00</time>
      </trkpt>
      <trkpt lat="49.38508" lon="-1.60803">
        <ele>59</ele>
        <time>2023-08-13T13:40:53.143+00:00</time>
      </trkpt>
      <trkpt lat="49.38507" lon="-1.60795">
        <ele>59</ele>
        <time>2023-08-13T13:40:57.623+00:00</time>
      </trkpt>
      <trkpt lat="49.38505" lon="-1.6079">
        <ele>58</ele>
        <time>2023-08-13T13:41:01.652+00:00</time>
      </trkpt>
      <trkpt lat="49.38502" lon="-1.60784">
        <ele>58</ele>
        <time>2023-08-13T13:41:06.678+00:00</time>
      </trkpt>
      <trkpt lat="49.38499" lon="-1.6078">
        <ele>58</ele>
        <time>2023-08-13T13:41:11.823+00:00</time>
      </trkpt>
      <trkpt lat="49.38496" lon="-1.60776">
        <ele>58</ele>
        <time>2023-08-13T13:41:15.773+00:00</time>
      </trkpt>
      <trkpt lat="49.38491" lon="-1.60769">
        <ele>58</ele>
        <time>2023-08-13T13:41:20.321+00:00</time>
      </trkpt>
      <trkpt lat="49.38486" lon="-1.60761">
        <ele>58</ele>
        <time>2023-08-13T13:41:24.869+00:00</time>
      </trkpt>
      <trkpt lat="49.38482" lon="-1.60756">
        <ele>59</ele>
        <time>2023-08-13T13:41:28.937+00:00</time>
      </trkpt>
      <trkpt lat="49.38478" lon="-1.60751">
        <ele>59</ele>
        <time>2023-08-13T13:41:33.125+00:00</time>
      </trkpt>
      <trkpt lat="49.38475" lon="-1.60748">
        <ele>59</ele>
        <time>2023-08-13T13:41:36.713+00:00</time>
      </trkpt>
      <trkpt lat="49.38472" lon="-1.60744">
        <ele>59</ele>
        <time>2023-08-13T13:41:41.222+00:00</time>
      </trkpt>
      <trkpt lat="49.38468" lon="-1.60739">
        <ele>59</ele>
        <time>2023-08-13T13:41:45.806+00:00</time>
      </trkpt>
      <trkpt lat="49.38464" lon="-1.60734">
        <ele>58</ele>
        <time>2023-08-13T13:41:49.755+00:00</time>
      </trkpt>
      <trkpt lat="49.38459" lon="-1.60732">
        <ele>58</ele>
        <time>2023-08-13T13:41:54.222+00:00</time>
      </trkpt>
      <trkpt lat="49.38455" lon="-1.6073">
        <ele>61</ele>
        <time>2023-08-13T13:41:58.744+00:00</time>
      </trkpt>
      <trkpt lat="49.38451" lon="-1.60728">
        <ele>61</ele>
        <time>2023-08-13T13:42:02.680+00:00</time>
      </trkpt>
      <trkpt lat="49.38446" lon="-1.60727">
        <ele>61</ele>
        <time>2023-08-13T13:42:06.630+00:00</time>
      </trkpt>
      <trkpt lat="49.38442" lon="-1.60725">
        <ele>61</ele>
        <time>2023-08-13T13:42:11.124+00:00</time>
      </trkpt>
      <trkpt lat="49.38438" lon="-1.60724">
        <ele>61</ele>
        <time>2023-08-13T13:42:15.127+00:00</time>
      </trkpt>
      <trkpt lat="49.38433" lon="-1.60724">
        <ele>61</ele>
        <time>2023-08-13T13:42:19.222+00:00</time>
      </trkpt>
      <trkpt lat="49.38428" lon="-1.60724">
        <ele>63</ele>
        <time>2023-08-13T13:42:23.742+00:00</time>
      </trkpt>
      <trkpt lat="49.38424" lon="-1.60722">
        <ele>63</ele>
        <time>2023-08-13T13:42:27.929+00:00</time>
      </trkpt>
      <trkpt lat="49.3842" lon="-1.6072">
        <ele>63</ele>
        <time>2023-08-13T13:42:32.116+00:00</time>
      </trkpt>
      <trkpt lat="49.38417" lon="-1.60717">
        <ele>63</ele>
        <time>2023-08-13T13:42:36.661+00:00</time>
      </trkpt>
      <trkpt lat="49.38413" lon="-1.60715">
        <ele>63</ele>
        <time>2023-08-13T13:42:41.206+00:00</time>
      </trkpt>
      <trkpt lat="49.38409" lon="-1.60713">
        <ele>63</ele>
        <time>2023-08-13T13:42:45.756+00:00</time>
      </trkpt>
      <trkpt lat="49.38405" lon="-1.6071">
        <ele>63</ele>
        <time>2023-08-13T13:42:49.940+00:00</time>
      </trkpt>
      <trkpt lat="49.38401" lon="-1.60707">
        <ele>62</ele>
        <time>2023-08-13T13:42:54.127+00:00</time>
      </trkpt>
      <trkpt lat="49.38396" lon="-1.60703">
        <ele>62</ele>
        <time>2023-08-13T13:42:58.553+00:00</time>
      </trkpt>
      <trkpt lat="49.38392" lon="-1.60698">
        <ele>62</ele>
        <time>2023-08-13T13:43:02.622+00:00</time>
      </trkpt>
      <trkpt lat="49.38388" lon="-1.60695">
        <ele>62</ele>
        <time>2023-08-13T13:43:07.222+00:00</time>
      </trkpt>
      <trkpt lat="49.38386" lon="-1.60693">
        <ele>62</ele>
        <time>2023-08-13T13:43:11.222+00:00</time>
      </trkpt>
      <trkpt lat="49.38383" lon="-1.6069">
        <ele>62</ele>
        <time>2023-08-13T13:43:15.222+00:00</time>
      </trkpt>
      <trkpt lat="49.38379" lon="-1.60685">
        <ele>62</ele>
        <time>2023-08-13T13:43:19.788+00:00</time>
      </trkpt>
      <trkpt lat="49.38374" lon="-1.60682">
        <ele>63</ele>
        <time>2023-08-13T13:43:23.780+00:00</time>
      </trkpt>
      <trkpt lat="49.38369" lon="-1.60676">
        <ele>62</ele>
        <time>2023-08-13T13:43:28.329+00:00</time>
      </trkpt>
      <trkpt lat="49.38366" lon="-1.60669">
        <ele>62</ele>
        <time>2023-08-13T13:43:32.519+00:00</time>
      </trkpt>
      <trkpt lat="49.38363" lon="-1.60665">
        <ele>62</ele>
        <time>2023-08-13T13:43:37.428+00:00</time>
      </trkpt>
      <trkpt lat="49.38358" lon="-1.60661">
        <ele>62</ele>
        <time>2023-08-13T13:43:41.977+00:00</time>
      </trkpt>
      <trkpt lat="49.38355" lon="-1.60655">
        <ele>62</ele>
        <time>2023-08-13T13:43:46.524+00:00</time>
      </trkpt>
      <trkpt lat="49.38354" lon="-1.60651">
        <ele>61</ele>
        <time>2023-08-13T13:43:50.712+00:00</time>
      </trkpt>
      <trkpt lat="49.38353" lon="-1.60646">
        <ele>61</ele>
        <time>2023-08-13T13:43:54.662+00:00</time>
      </trkpt>
      <trkpt lat="49.38351" lon="-1.60641">
        <ele>61</ele>
        <time>2023-08-13T13:43:58.732+00:00</time>
      </trkpt>
      <trkpt lat="49.38349" lon="-1.60635">
        <ele>61</ele>
        <time>2023-08-13T13:44:02.921+00:00</time>
      </trkpt>
      <trkpt lat="49.38349" lon="-1.60626">
        <ele>61</ele>
        <time>2023-08-13T13:44:07.590+00:00</time>
      </trkpt>
      <trkpt lat="49.3835" lon="-1.60619">
        <ele>60</ele>
        <time>2023-08-13T13:44:12.119+00:00</time>
      </trkpt>
      <trkpt lat="49.38349" lon="-1.60612">
        <ele>60</ele>
        <time>2023-08-13T13:44:16.149+00:00</time>
      </trkpt>
      <trkpt lat="49.38349" lon="-1.60604">
        <ele>60</ele>
        <time>2023-08-13T13:44:20.800+00:00</time>
      </trkpt>
      <trkpt lat="49.38349" lon="-1.60598">
        <ele>60</ele>
        <time>2023-08-13T13:44:24.728+00:00</time>
      </trkpt>
      <trkpt lat="49.38349" lon="-1.6059">
        <ele>58</ele>
        <time>2023-08-13T13:44:28.779+00:00</time>
      </trkpt>
      <trkpt lat="49.38351" lon="-1.60582">
        <ele>58</ele>
        <time>2023-08-13T13:44:33.328+00:00</time>
      </trkpt>
      <trkpt lat="49.38352" lon="-1.60577">
        <ele>58</ele>
        <time>2023-08-13T13:44:37.939+00:00</time>
      </trkpt>
      <trkpt lat="49.38351" lon="-1.60575">
        <ele>58</ele>
        <time>2023-08-13T13:44:42.947+00:00</time>
      </trkpt>
      <trkpt lat="49.38348" lon="-1.60571">
        <ele>58</ele>
        <time>2023-08-13T13:44:47.136+00:00</time>
      </trkpt>
      <trkpt lat="49.38344" lon="-1.60571">
        <ele>61</ele>
        <time>2023-08-13T13:44:51.426+00:00</time>
      </trkpt>
      <trkpt lat="49.38341" lon="-1.6057">
        <ele>61</ele>
        <time>2023-08-13T13:44:55.975+00:00</time>
      </trkpt>
      <trkpt lat="49.3834" lon="-1.60568">
        <ele>60</ele>
        <time>2023-08-13T13:45:00.475+00:00</time>
      </trkpt>
      <trkpt lat="49.38338" lon="-1.60566">
        <ele>60</ele>
        <time>2023-08-13T13:45:05.023+00:00</time>
      </trkpt>
      <trkpt lat="49.38336" lon="-1.60565">
        <ele>60</ele>
        <time>2023-08-13T13:45:09.129+00:00</time>
      </trkpt>
      <trkpt lat="49.38333" lon="-1.60563">
        <ele>60</ele>
        <time>2023-08-13T13:45:13.164+00:00</time>
      </trkpt>
      <trkpt lat="49.38329" lon="-1.60563">
        <ele>60</ele>
        <time>2023-08-13T13:45:17.222+00:00</time>
      </trkpt>
      <trkpt lat="49.38324" lon="-1.6056">
        <ele>60</ele>
        <time>2023-08-13T13:45:21.423+00:00</time>
      </trkpt>
      <trkpt lat="49.38324" lon="-1.60554">
        <ele>60</ele>
        <time>2023-08-13T13:45:26.092+00:00</time>
      </trkpt>
      <trkpt lat="49.38323" lon="-1.60549">
        <ele>60</ele>
        <time>2023-08-13T13:45:30.128+00:00</time>
      </trkpt>
      <trkpt lat="49.38319" lon="-1.60545">
        <ele>64</ele>
        <time>2023-08-13T13:45:34.222+00:00</time>
      </trkpt>
      <trkpt lat="49.38314" lon="-1.60545">
        <ele>64</ele>
        <time>2023-08-13T13:45:38.775+00:00</time>
      </trkpt>
      <trkpt lat="49.3831" lon="-1.60545">
        <ele>64</ele>
        <time>2023-08-13T13:45:42.930+00:00</time>
      </trkpt>
      <trkpt lat="49.38306" lon="-1.60542">
        <ele>64</ele>
        <time>2023-08-13T13:45:47.356+00:00</time>
      </trkpt>
      <trkpt lat="49.38301" lon="-1.60537">
        <ele>64</ele>
        <time>2023-08-13T13:45:51.946+00:00</time>
      </trkpt>
      <trkpt lat="49.38297" lon="-1.60531">
        <ele>64</ele>
        <time>2023-08-13T13:45:56.134+00:00</time>
      </trkpt>
      <trkpt lat="49.38293" lon="-1.60526">
        <ele>64</ele>
        <time>2023-08-13T13:46:00.322+00:00</time>
      </trkpt>
      <trkpt lat="49.38289" lon="-1.60523">
        <ele>66</ele>
        <time>2023-08-13T13:46:04.392+00:00</time>
      </trkpt>
      <trkpt lat="49.38284" lon="-1.6052">
        <ele>66</ele>
        <time>2023-08-13T13:46:08.343+00:00</time>
      </trkpt>
      <trkpt lat="49.38281" lon="-1.60517">
        <ele>66</ele>
        <time>2023-08-13T13:46:13.131+00:00</time>
      </trkpt>
      <trkpt lat="49.38277" lon="-1.60514">
        <ele>65</ele>
        <time>2023-08-13T13:46:17.679+00:00</time>
      </trkpt>
      <trkpt lat="49.38273" lon="-1.60511">
        <ele>65</ele>
        <time>2023-08-13T13:46:22.222+00:00</time>
      </trkpt>
      <trkpt lat="49.3827" lon="-1.60505">
        <ele>65</ele>
        <time>2023-08-13T13:46:26.222+00:00</time>
      </trkpt>
      <trkpt lat="49.38267" lon="-1.605">
        <ele>65</ele>
        <time>2023-08-13T13:46:30.207+00:00</time>
      </trkpt>
      <trkpt lat="49.38265" lon="-1.60494">
        <ele>65</ele>
        <time>2023-08-13T13:46:34.754+00:00</time>
      </trkpt>
      <trkpt lat="49.38264" lon="-1.60488">
        <ele>65</ele>
        <time>2023-08-13T13:46:38.941+00:00</time>
      </trkpt>
      <trkpt lat="49.38262" lon="-1.60482">
        <ele>66</ele>
        <time>2023-08-13T13:46:42.770+00:00</time>
      </trkpt>
      <trkpt lat="49.3826" lon="-1.60477">
        <ele>66</ele>
        <time>2023-08-13T13:46:47.283+00:00</time>
      </trkpt>
      <trkpt lat="49.38259" lon="-1.60474">
        <ele>66</ele>
        <time>2023-08-13T13:46:51.747+00:00</time>
      </trkpt>
      <trkpt lat="49.38257" lon="-1.60473">
        <ele>66</ele>
        <time>2023-08-13T13:46:55.796+00:00</time>
      </trkpt>
      <trkpt lat="49.38253" lon="-1.60471">
        <ele>66</ele>
        <time>2023-08-13T13:47:00.344+00:00</time>
      </trkpt>
      <trkpt lat="49.38249" lon="-1.60468">
        <ele>66</ele>
        <time>2023-08-13T13:47:05.100+00:00</time>
      </trkpt>
      <trkpt lat="49.38246" lon="-1.60467">
        <ele>66</ele>
        <time>2023-08-13T13:47:09.043+00:00</time>
      </trkpt>
      <trkpt lat="49.38242" lon="-1.60465">
        <ele>66</ele>
        <time>2023-08-13T13:47:13.134+00:00</time>
      </trkpt>
      <trkpt lat="49.38239" lon="-1.6046">
        <ele>66</ele>
        <time>2023-08-13T13:47:17.063+00:00</time>
      </trkpt>
      <trkpt lat="49.38235" lon="-1.60454">
        <ele>66</ele>
        <time>2023-08-13T13:47:21.732+00:00</time>
      </trkpt>
      <trkpt lat="49.3823" lon="-1.60451">
        <ele>66</ele>
        <time>2023-08-13T13:47:25.922+00:00</time>
      </trkpt>
      <trkpt lat="49.38226" lon="-1.6045">
        <ele>66</ele>
        <time>2023-08-13T13:47:29.992+00:00</time>
      </trkpt>
      <trkpt lat="49.38222" lon="-1.60447">
        <ele>66</ele>
        <time>2023-08-13T13:47:33.942+00:00</time>
      </trkpt>
      <trkpt lat="49.38217" lon="-1.60442">
        <ele>66</ele>
        <time>2023-08-13T13:47:38.881+00:00</time>
      </trkpt>
      <trkpt lat="49.38214" lon="-1.60438">
        <ele>66</ele>
        <time>2023-08-13T13:47:42.799+00:00</time>
      </trkpt>
      <trkpt lat="49.3821" lon="-1.60435">
        <ele>66</ele>
        <time>2023-08-13T13:47:46.751+00:00</time>
      </trkpt>
      <trkpt lat="49.38206" lon="-1.60431">
        <ele>65</ele>
        <time>2023-08-13T13:47:51.222+00:00</time>
      </trkpt>
      <trkpt lat="49.38201" lon="-1.60428">
        <ele>66</ele>
        <time>2023-08-13T13:47:55.792+00:00</time>
      </trkpt>
      <trkpt lat="49.382" lon="-1.60421">
        <ele>66</ele>
        <time>2023-08-13T13:47:59.742+00:00</time>
      </trkpt>
      <trkpt lat="49.38196" lon="-1.60417">
        <ele>66</ele>
        <time>2023-08-13T13:48:04.222+00:00</time>
      </trkpt>
      <trkpt lat="49.38191" lon="-1.60414">
        <ele>66</ele>
        <time>2023-08-13T13:48:08.943+00:00</time>
      </trkpt>
      <trkpt lat="49.38189" lon="-1.60407">
        <ele>66</ele>
        <time>2023-08-13T13:48:13.594+00:00</time>
      </trkpt>
      <trkpt lat="49.38187" lon="-1.60402">
        <ele>66</ele>
        <time>2023-08-13T13:48:18.076+00:00</time>
      </trkpt>
      <trkpt lat="49.38185" lon="-1.60395">
        <ele>66</ele>
        <time>2023-08-13T13:48:21.973+00:00</time>
      </trkpt>
      <trkpt lat="49.38184" lon="-1.60388">
        <ele>66</ele>
        <time>2023-08-13T13:48:26.520+00:00</time>
      </trkpt>
      <trkpt lat="49.38182" lon="-1.60381">
        <ele>66</ele>
        <time>2023-08-13T13:48:30.551+00:00</time>
      </trkpt>
      <trkpt lat="49.38178" lon="-1.60377">
        <ele>66</ele>
        <time>2023-08-13T13:48:35.821+00:00</time>
      </trkpt>
      <trkpt lat="49.38175" lon="-1.60371">
        <ele>66</ele>
        <time>2023-08-13T13:48:39.765+00:00</time>
      </trkpt>
      <trkpt lat="49.38173" lon="-1.60366">
        <ele>66</ele>
        <time>2023-08-13T13:48:43.795+00:00</time>
      </trkpt>
      <trkpt lat="49.3817" lon="-1.60361">
        <ele>66</ele>
        <time>2023-08-13T13:48:47.745+00:00</time>
      </trkpt>
      <trkpt lat="49.38167" lon="-1.60356">
        <ele>66</ele>
        <time>2023-08-13T13:48:52.413+00:00</time>
      </trkpt>
      <trkpt lat="49.38165" lon="-1.60352">
        <ele>66</ele>
        <time>2023-08-13T13:48:56.864+00:00</time>
      </trkpt>
      <trkpt lat="49.38165" lon="-1.60346">
        <ele>66</ele>
        <time>2023-08-13T13:49:00.909+00:00</time>
      </trkpt>
      <trkpt lat="49.38164" lon="-1.60344">
        <ele>66</ele>
        <time>2023-08-13T13:49:04.738+00:00</time>
      </trkpt>
      <trkpt lat="49.38162" lon="-1.60341">
        <ele>66</ele>
        <time>2023-08-13T13:49:08.925+00:00</time>
      </trkpt>
      <trkpt lat="49.38158" lon="-1.60336">
        <ele>66</ele>
        <time>2023-08-13T13:49:13.593+00:00</time>
      </trkpt>
      <trkpt lat="49.38154" lon="-1.60329">
        <ele>66</ele>
        <time>2023-08-13T13:49:18.140+00:00</time>
      </trkpt>
      <trkpt lat="49.38151" lon="-1.60325">
        <ele>66</ele>
        <time>2023-08-13T13:49:22.127+00:00</time>
      </trkpt>
      <trkpt lat="49.38149" lon="-1.60321">
        <ele>66</ele>
        <time>2023-08-13T13:49:26.037+00:00</time>
      </trkpt>
      <trkpt lat="49.38147" lon="-1.60318">
        <ele>66</ele>
        <time>2023-08-13T13:49:30.467+00:00</time>
      </trkpt>
      <trkpt lat="49.38144" lon="-1.60313">
        <ele>66</ele>
        <time>2023-08-13T13:49:34.896+00:00</time>
      </trkpt>
      <trkpt lat="49.38142" lon="-1.60308">
        <ele>66</ele>
        <time>2023-08-13T13:49:39.536+00:00</time>
      </trkpt>
      <trkpt lat="49.38139" lon="-1.60304">
        <ele>66</ele>
        <time>2023-08-13T13:49:43.394+00:00</time>
      </trkpt>
      <trkpt lat="49.38136" lon="-1.60299">
        <ele>66</ele>
        <time>2023-08-13T13:49:47.941+00:00</time>
      </trkpt>
      <trkpt lat="49.38132" lon="-1.60294">
        <ele>66</ele>
        <time>2023-08-13T13:49:52.488+00:00</time>
      </trkpt>
      <trkpt lat="49.3813" lon="-1.60289">
        <ele>66</ele>
        <time>2023-08-13T13:49:56.557+00:00</time>
      </trkpt>
      <trkpt lat="49.3813" lon="-1.60282">
        <ele>66</ele>
        <time>2023-08-13T13:50:01.128+00:00</time>
      </trkpt>
      <trkpt lat="49.38129" lon="-1.60276">
        <ele>66</ele>
        <time>2023-08-13T13:50:05.536+00:00</time>
      </trkpt>
      <trkpt lat="49.38127" lon="-1.60272">
        <ele>66</ele>
        <time>2023-08-13T13:50:09.726+00:00</time>
      </trkpt>
      <trkpt lat="49.38125" lon="-1.60268">
        <ele>66</ele>
        <time>2023-08-13T13:50:14.336+00:00</time>
      </trkpt>
      <trkpt lat="49.38122" lon="-1.60262">
        <ele>66</ele>
        <time>2023-08-13T13:50:18.526+00:00</time>
      </trkpt>
      <trkpt lat="49.38119" lon="-1.60258">
        <ele>66</ele>
        <time>2023-08-13T13:50:23.074+00:00</time>
      </trkpt>
      <trkpt lat="49.38116" lon="-1.60251">
        <ele>66</ele>
        <time>2023-08-13T13:50:27.623+00:00</time>
      </trkpt>
      <trkpt lat="49.38112" lon="-1.60245">
        <ele>66</ele>
        <time>2023-08-13T13:50:32.222+00:00</time>
      </trkpt>
      <trkpt lat="49.3811" lon="-1.6024">
        <ele>66</ele>
        <time>2023-08-13T13:50:36.323+00:00</time>
      </trkpt>
      <trkpt lat="49.38108" lon="-1.60235">
        <ele>66</ele>
        <time>2023-08-13T13:50:40.751+00:00</time>
      </trkpt>
      <trkpt lat="49.38107" lon="-1.60228">
        <ele>66</ele>
        <time>2023-08-13T13:50:44.939+00:00</time>
      </trkpt>
      <trkpt lat="49.38104" lon="-1.60223">
        <ele>66</ele>
        <time>2023-08-13T13:50:48.767+00:00</time>
      </trkpt>
      <trkpt lat="49.38101" lon="-1.60217">
        <ele>66</ele>
        <time>2023-08-13T13:50:53.314+00:00</time>
      </trkpt>
      <trkpt lat="49.38098" lon="-1.60212">
        <ele>66</ele>
        <time>2023-08-13T13:50:57.383+00:00</time>
      </trkpt>
      <trkpt lat="49.38095" lon="-1.60207">
        <ele>67</ele>
        <time>2023-08-13T13:51:01.812+00:00</time>
      </trkpt>
      <trkpt lat="49.38092" lon="-1.60201">
        <ele>67</ele>
        <time>2023-08-13T13:51:06.361+00:00</time>
      </trkpt>
      <trkpt lat="49.3809" lon="-1.60195">
        <ele>67</ele>
        <time>2023-08-13T13:51:10.549+00:00</time>
      </trkpt>
      <trkpt lat="49.38087" lon="-1.6019">
        <ele>67</ele>
        <time>2023-08-13T13:51:15.135+00:00</time>
      </trkpt>
      <trkpt lat="49.38085" lon="-1.60184">
        <ele>67</ele>
        <time>2023-08-13T13:51:19.524+00:00</time>
      </trkpt>
      <trkpt lat="49.38081" lon="-1.60178">
        <ele>67</ele>
        <time>2023-08-13T13:51:23.593+00:00</time>
      </trkpt>
      <trkpt lat="49.38077" lon="-1.60177">
        <ele>67</ele>
        <time>2023-08-13T13:51:28.013+00:00</time>
      </trkpt>
      <trkpt lat="49.38073" lon="-1.60173">
        <ele>67</ele>
        <time>2023-08-13T13:51:31.851+00:00</time>
      </trkpt>
      <trkpt lat="49.38069" lon="-1.60169">
        <ele>67</ele>
        <time>2023-08-13T13:51:35.922+00:00</time>
      </trkpt>
      <trkpt lat="49.38064" lon="-1.60167">
        <ele>67</ele>
        <time>2023-08-13T13:51:40.455+00:00</time>
      </trkpt>
      <trkpt lat="49.38059" lon="-1.60167">
        <ele>67</ele>
        <time>2023-08-13T13:51:44.539+00:00</time>
      </trkpt>
      <trkpt lat="49.38055" lon="-1.6017">
        <ele>67</ele>
        <time>2023-08-13T13:51:48.727+00:00</time>
      </trkpt>
      <trkpt lat="49.38052" lon="-1.6017">
        <ele>67</ele>
        <time>2023-08-13T13:51:52.796+00:00</time>
      </trkpt>
      <trkpt lat="49.3805" lon="-1.60168">
        <ele>67</ele>
        <time>2023-08-13T13:51:57.345+00:00</time>
      </trkpt>
      <trkpt lat="49.38046" lon="-1.60167">
        <ele>67</ele>
        <time>2023-08-13T13:52:01.535+00:00</time>
      </trkpt>
      <trkpt lat="49.38043" lon="-1.60165">
        <ele>67</ele>
        <time>2023-08-13T13:52:05.725+00:00</time>
      </trkpt>
      <trkpt lat="49.38041" lon="-1.60162">
        <ele>68</ele>
        <time>2023-08-13T13:52:09.777+00:00</time>
      </trkpt>
      <trkpt lat="49.3804" lon="-1.60158">
        <ele>68</ele>
        <time>2023-08-13T13:52:13.728+00:00</time>
      </trkpt>
      <trkpt lat="49.38038" lon="-1.60155">
        <ele>68</ele>
        <time>2023-08-13T13:52:17.799+00:00</time>
      </trkpt>
      <trkpt lat="49.38036" lon="-1.60151">
        <ele>67</ele>
        <time>2023-08-13T13:52:21.629+00:00</time>
      </trkpt>
      <trkpt lat="49.38035" lon="-1.60149">
        <ele>67</ele>
        <time>2023-08-13T13:52:27.018+00:00</time>
      </trkpt>
      <trkpt lat="49.38033" lon="-1.60148">
        <ele>67</ele>
        <time>2023-08-13T13:52:30.969+00:00</time>
      </trkpt>
      <trkpt lat="49.38029" lon="-1.60144">
        <ele>67</ele>
        <time>2023-08-13T13:52:52.747+00:00</time>
      </trkpt>
      <trkpt lat="49.38028" lon="-1.60143">
        <ele>67</ele>
        <time>2023-08-13T13:52:56.696+00:00</time>
      </trkpt>
      <trkpt lat="49.38027" lon="-1.60141">
        <ele>67</ele>
        <time>2023-08-13T13:53:01.222+00:00</time>
      </trkpt>
      <trkpt lat="49.38026" lon="-1.6014">
        <ele>67</ele>
        <time>2023-08-13T13:53:05.793+00:00</time>
      </trkpt>
      <trkpt lat="49.38025" lon="-1.60138">
        <ele>67</ele>
        <time>2023-08-13T13:53:10.341+00:00</time>
      </trkpt>
      <trkpt lat="49.38022" lon="-1.60137">
        <ele>67</ele>
        <time>2023-08-13T13:53:22.430+00:00</time>
      </trkpt>
      <trkpt lat="49.38019" lon="-1.60134">
        <ele>67</ele>
        <time>2023-08-13T13:53:27.218+00:00</time>
      </trkpt>
      <trkpt lat="49.38018" lon="-1.60132">
        <ele>67</ele>
        <time>2023-08-13T13:53:31.222+00:00</time>
      </trkpt>
      <trkpt lat="49.38018" lon="-1.6013">
        <ele>67</ele>
        <time>2023-08-13T13:53:35.222+00:00</time>
      </trkpt>
      <trkpt lat="49.38017" lon="-1.60126">
        <ele>67</ele>
        <time>2023-08-13T13:53:39.784+00:00</time>
      </trkpt>
      <trkpt lat="49.38013" lon="-1.60119">
        <ele>65</ele>
        <time>2023-08-13T13:53:44.295+00:00</time>
      </trkpt>
      <trkpt lat="49.3801" lon="-1.60114">
        <ele>65</ele>
        <time>2023-08-13T13:53:48.222+00:00</time>
      </trkpt>
      <trkpt lat="49.38007" lon="-1.6011">
        <ele>65</ele>
        <time>2023-08-13T13:53:52.222+00:00</time>
      </trkpt>
      <trkpt lat="49.38006" lon="-1.60105">
        <ele>65</ele>
        <time>2023-08-13T13:53:56.222+00:00</time>
      </trkpt>
      <trkpt lat="49.38001" lon="-1.60099">
        <ele>65</ele>
        <time>2023-08-13T13:54:00.222+00:00</time>
      </trkpt>
      <trkpt lat="49.37995" lon="-1.60091">
        <ele>63</ele>
        <time>2023-08-13T13:54:04.780+00:00</time>
      </trkpt>
      <trkpt lat="49.37991" lon="-1.60083">
        <ele>63</ele>
        <time>2023-08-13T13:54:08.729+00:00</time>
      </trkpt>
      <trkpt lat="49.37988" lon="-1.60076">
        <ele>63</ele>
        <time>2023-08-13T13:54:12.797+00:00</time>
      </trkpt>
      <trkpt lat="49.37983" lon="-1.60069">
        <ele>62</ele>
        <time>2023-08-13T13:54:17.343+00:00</time>
      </trkpt>
      <trkpt lat="49.37981" lon="-1.60063">
        <ele>62</ele>
        <time>2023-08-13T13:54:21.533+00:00</time>
      </trkpt>
      <trkpt lat="49.37979" lon="-1.6006">
        <ele>62</ele>
        <time>2023-08-13T13:54:25.722+00:00</time>
      </trkpt>
      <trkpt lat="49.37977" lon="-1.60054">
        <ele>62</ele>
        <time>2023-08-13T13:54:29.651+00:00</time>
      </trkpt>
      <trkpt lat="49.37974" lon="-1.60048">
        <ele>62</ele>
        <time>2023-08-13T13:54:34.222+00:00</time>
      </trkpt>
      <trkpt lat="49.3797" lon="-1.60041">
        <ele>61</ele>
        <time>2023-08-13T13:54:38.222+00:00</time>
      </trkpt>
      <trkpt lat="49.37966" lon="-1.60035">
        <ele>61</ele>
        <time>2023-08-13T13:54:42.796+00:00</time>
      </trkpt>
      <trkpt lat="49.37962" lon="-1.60029">
        <ele>61</ele>
        <time>2023-08-13T13:54:46.745+00:00</time>
      </trkpt>
      <trkpt lat="49.37961" lon="-1.6002">
        <ele>61</ele>
        <time>2023-08-13T13:54:51.922+00:00</time>
      </trkpt>
      <trkpt lat="49.37958" lon="-1.60017">
        <ele>63</ele>
        <time>2023-08-13T13:54:55.959+00:00</time>
      </trkpt>
      <trkpt lat="49.37955" lon="-1.60013">
        <ele>62</ele>
        <time>2023-08-13T13:54:59.787+00:00</time>
      </trkpt>
      <trkpt lat="49.37951" lon="-1.60005">
        <ele>62</ele>
        <time>2023-08-13T13:55:04.434+00:00</time>
      </trkpt>
      <trkpt lat="49.37949" lon="-1.6">
        <ele>62</ele>
        <time>2023-08-13T13:55:08.382+00:00</time>
      </trkpt>
      <trkpt lat="49.37948" lon="-1.59995">
        <ele>62</ele>
        <time>2023-08-13T13:55:12.898+00:00</time>
      </trkpt>
      <trkpt lat="49.37946" lon="-1.59991">
        <ele>62</ele>
        <time>2023-08-13T13:55:16.755+00:00</time>
      </trkpt>
      <trkpt lat="49.37943" lon="-1.59986">
        <ele>60</ele>
        <time>2023-08-13T13:55:20.704+00:00</time>
      </trkpt>
      <trkpt lat="49.3794" lon="-1.59978">
        <ele>60</ele>
        <time>2023-08-13T13:55:25.131+00:00</time>
      </trkpt>
      <trkpt lat="49.37936" lon="-1.5997">
        <ele>60</ele>
        <time>2023-08-13T13:55:29.645+00:00</time>
      </trkpt>
      <trkpt lat="49.37933" lon="-1.59964">
        <ele>60</ele>
        <time>2023-08-13T13:55:33.702+00:00</time>
      </trkpt>
      <trkpt lat="49.37928" lon="-1.59959">
        <ele>61</ele>
        <time>2023-08-13T13:55:38.126+00:00</time>
      </trkpt>
      <trkpt lat="49.37923" lon="-1.59955">
        <ele>60</ele>
        <time>2023-08-13T13:55:42.282+00:00</time>
      </trkpt>
      <trkpt lat="49.37919" lon="-1.59951">
        <ele>60</ele>
        <time>2023-08-13T13:55:46.222+00:00</time>
      </trkpt>
      <trkpt lat="49.37916" lon="-1.59947">
        <ele>60</ele>
        <time>2023-08-13T13:55:50.690+00:00</time>
      </trkpt>
      <trkpt lat="49.37913" lon="-1.59942">
        <ele>60</ele>
        <time>2023-08-13T13:55:54.640+00:00</time>
      </trkpt>
      <trkpt lat="49.37911" lon="-1.59939">
        <ele>60</ele>
        <time>2023-08-13T13:55:59.222+00:00</time>
      </trkpt>
      <trkpt lat="49.3791" lon="-1.59935">
        <ele>60</ele>
        <time>2023-08-13T13:56:03.222+00:00</time>
      </trkpt>
      <trkpt lat="49.37905" lon="-1.59931">
        <ele>60</ele>
        <time>2023-08-13T13:56:07.222+00:00</time>
      </trkpt>
      <trkpt lat="49.37901" lon="-1.59927">
        <ele>59</ele>
        <time>2023-08-13T13:56:11.360+00:00</time>
      </trkpt>
      <trkpt lat="49.37897" lon="-1.59924">
        <ele>59</ele>
        <time>2023-08-13T13:56:15.432+00:00</time>
      </trkpt>
      <trkpt lat="49.37892" lon="-1.59919">
        <ele>59</ele>
        <time>2023-08-13T13:56:19.623+00:00</time>
      </trkpt>
      <trkpt lat="49.37888" lon="-1.59913">
        <ele>59</ele>
        <time>2023-08-13T13:56:24.052+00:00</time>
      </trkpt>
      <trkpt lat="49.37885" lon="-1.59908">
        <ele>59</ele>
        <time>2023-08-13T13:56:28.120+00:00</time>
      </trkpt>
      <trkpt lat="49.3788" lon="-1.59903">
        <ele>58</ele>
        <time>2023-08-13T13:56:32.669+00:00</time>
      </trkpt>
      <trkpt lat="49.37877" lon="-1.59897">
        <ele>58</ele>
        <time>2023-08-13T13:56:37.097+00:00</time>
      </trkpt>
      <trkpt lat="49.37872" lon="-1.59892">
        <ele>59</ele>
        <time>2023-08-13T13:56:41.136+00:00</time>
      </trkpt>
      <trkpt lat="49.37867" lon="-1.59887">
        <ele>59</ele>
        <time>2023-08-13T13:56:45.713+00:00</time>
      </trkpt>
      <trkpt lat="49.37862" lon="-1.59881">
        <ele>59</ele>
        <time>2023-08-13T13:56:49.661+00:00</time>
      </trkpt>
      <trkpt lat="49.37859" lon="-1.59877">
        <ele>59</ele>
        <time>2023-08-13T13:56:54.135+00:00</time>
      </trkpt>
      <trkpt lat="49.37856" lon="-1.59872">
        <ele>58</ele>
        <time>2023-08-13T13:56:58.138+00:00</time>
      </trkpt>
      <trkpt lat="49.37852" lon="-1.5987">
        <ele>58</ele>
        <time>2023-08-13T13:57:02.347+00:00</time>
      </trkpt>
      <trkpt lat="49.37848" lon="-1.59866">
        <ele>58</ele>
        <time>2023-08-13T13:57:06.534+00:00</time>
      </trkpt>
      <trkpt lat="49.37844" lon="-1.59864">
        <ele>57</ele>
        <time>2023-08-13T13:57:10.721+00:00</time>
      </trkpt>
      <trkpt lat="49.37841" lon="-1.59861">
        <ele>57</ele>
        <time>2023-08-13T13:57:14.669+00:00</time>
      </trkpt>
      <trkpt lat="49.37838" lon="-1.59858">
        <ele>57</ele>
        <time>2023-08-13T13:57:19.121+00:00</time>
      </trkpt>
      <trkpt lat="49.37834" lon="-1.59854">
        <ele>57</ele>
        <time>2023-08-13T13:57:23.640+00:00</time>
      </trkpt>
      <trkpt lat="49.37829" lon="-1.59849">
        <ele>57</ele>
        <time>2023-08-13T13:57:28.066+00:00</time>
      </trkpt>
      <trkpt lat="49.37826" lon="-1.59847">
        <ele>57</ele>
        <time>2023-08-13T13:57:32.134+00:00</time>
      </trkpt>
      <trkpt lat="49.37821" lon="-1.59841">
        <ele>57</ele>
        <time>2023-08-13T13:57:36.322+00:00</time>
      </trkpt>
      <trkpt lat="49.37818" lon="-1.59837">
        <ele>54</ele>
        <time>2023-08-13T13:57:40.222+00:00</time>
      </trkpt>
      <trkpt lat="49.37813" lon="-1.59834">
        <ele>54</ele>
        <time>2023-08-13T13:57:44.935+00:00</time>
      </trkpt>
      <trkpt lat="49.37808" lon="-1.5983">
        <ele>54</ele>
        <time>2023-08-13T13:57:49.002+00:00</time>
      </trkpt>
      <trkpt lat="49.37804" lon="-1.59826">
        <ele>54</ele>
        <time>2023-08-13T13:57:52.944+00:00</time>
      </trkpt>
      <trkpt lat="49.37801" lon="-1.59821">
        <ele>54</ele>
        <time>2023-08-13T13:57:57.371+00:00</time>
      </trkpt>
      <trkpt lat="49.37796" lon="-1.59818">
        <ele>55</ele>
        <time>2023-08-13T13:58:01.381+00:00</time>
      </trkpt>
      <trkpt lat="49.37792" lon="-1.59815">
        <ele>55</ele>
        <time>2023-08-13T13:58:05.332+00:00</time>
      </trkpt>
      <trkpt lat="49.37788" lon="-1.59811">
        <ele>53</ele>
        <time>2023-08-13T13:58:09.521+00:00</time>
      </trkpt>
      <trkpt lat="49.37785" lon="-1.59807">
        <ele>53</ele>
        <time>2023-08-13T13:58:13.592+00:00</time>
      </trkpt>
      <trkpt lat="49.37781" lon="-1.59807">
        <ele>53</ele>
        <time>2023-08-13T13:58:18.141+00:00</time>
      </trkpt>
      <trkpt lat="49.37777" lon="-1.59804">
        <ele>53</ele>
        <time>2023-08-13T13:58:22.330+00:00</time>
      </trkpt>
      <trkpt lat="49.37772" lon="-1.59802">
        <ele>53</ele>
        <time>2023-08-13T13:58:27.117+00:00</time>
      </trkpt>
      <trkpt lat="49.37769" lon="-1.59799">
        <ele>53</ele>
        <time>2023-08-13T13:58:31.618+00:00</time>
      </trkpt>
      <trkpt lat="49.37766" lon="-1.59794">
        <ele>53</ele>
        <time>2023-08-13T13:58:35.732+00:00</time>
      </trkpt>
      <trkpt lat="49.37765" lon="-1.5979">
        <ele>53</ele>
        <time>2023-08-13T13:58:39.919+00:00</time>
      </trkpt>
      <trkpt lat="49.37761" lon="-1.59785">
        <ele>52</ele>
        <time>2023-08-13T13:58:44.345+00:00</time>
      </trkpt>
      <trkpt lat="49.37756" lon="-1.5978">
        <ele>52</ele>
        <time>2023-08-13T13:58:48.772+00:00</time>
      </trkpt>
      <trkpt lat="49.37752" lon="-1.59777">
        <ele>52</ele>
        <time>2023-08-13T13:58:52.780+00:00</time>
      </trkpt>
      <trkpt lat="49.37747" lon="-1.59774">
        <ele>52</ele>
        <time>2023-08-13T13:58:57.387+00:00</time>
      </trkpt>
      <trkpt lat="49.37743" lon="-1.5977">
        <ele>52</ele>
        <time>2023-08-13T13:59:01.334+00:00</time>
      </trkpt>
      <trkpt lat="49.3774" lon="-1.59765">
        <ele>52</ele>
        <time>2023-08-13T13:59:05.443+00:00</time>
      </trkpt>
      <trkpt lat="49.37736" lon="-1.5976">
        <ele>52</ele>
        <time>2023-08-13T13:59:09.950+00:00</time>
      </trkpt>
      <trkpt lat="49.37731" lon="-1.59755">
        <ele>52</ele>
        <time>2023-08-13T13:59:14.102+00:00</time>
      </trkpt>
      <trkpt lat="49.37728" lon="-1.59751">
        <ele>52</ele>
        <time>2023-08-13T13:59:17.964+00:00</time>
      </trkpt>
      <trkpt lat="49.37727" lon="-1.59742">
        <ele>52</ele>
        <time>2023-08-13T13:59:22.032+00:00</time>
      </trkpt>
      <trkpt lat="49.37729" lon="-1.59733">
        <ele>53</ele>
        <time>2023-08-13T13:59:26.457+00:00</time>
      </trkpt>
      <trkpt lat="49.37731" lon="-1.59728">
        <ele>53</ele>
        <time>2023-08-13T13:59:30.466+00:00</time>
      </trkpt>
      <trkpt lat="49.37733" lon="-1.59721">
        <ele>53</ele>
        <time>2023-08-13T13:59:34.533+00:00</time>
      </trkpt>
      <trkpt lat="49.37734" lon="-1.59714">
        <ele>53</ele>
        <time>2023-08-13T13:59:38.719+00:00</time>
      </trkpt>
      <trkpt lat="49.37735" lon="-1.59707">
        <ele>52</ele>
        <time>2023-08-13T13:59:43.126+00:00</time>
      </trkpt>
      <trkpt lat="49.37736" lon="-1.59701">
        <ele>52</ele>
        <time>2023-08-13T13:59:47.329+00:00</time>
      </trkpt>
      <trkpt lat="49.37738" lon="-1.59694">
        <ele>52</ele>
        <time>2023-08-13T13:59:51.361+00:00</time>
      </trkpt>
      <trkpt lat="49.37739" lon="-1.59687">
        <ele>52</ele>
        <time>2023-08-13T13:59:55.346+00:00</time>
      </trkpt>
      <trkpt lat="49.3774" lon="-1.5968">
        <ele>52</ele>
        <time>2023-08-13T13:59:59.533+00:00</time>
      </trkpt>
      <trkpt lat="49.3774" lon="-1.59673">
        <ele>52</ele>
        <time>2023-08-13T14:00:03.719+00:00</time>
      </trkpt>
      <trkpt lat="49.37741" lon="-1.59666">
        <ele>52</ele>
        <time>2023-08-13T14:00:07.769+00:00</time>
      </trkpt>
      <trkpt lat="49.37742" lon="-1.59656">
        <ele>52</ele>
        <time>2023-08-13T14:00:13.118+00:00</time>
      </trkpt>
      <trkpt lat="49.37743" lon="-1.59648">
        <ele>52</ele>
        <time>2023-08-13T14:00:17.134+00:00</time>
      </trkpt>
      <trkpt lat="49.37744" lon="-1.59641">
        <ele>52</ele>
        <time>2023-08-13T14:00:21.651+00:00</time>
      </trkpt>
      <trkpt lat="49.37746" lon="-1.59634">
        <ele>52</ele>
        <time>2023-08-13T14:00:25.719+00:00</time>
      </trkpt>
      <trkpt lat="49.37748" lon="-1.59627">
        <ele>52</ele>
        <time>2023-08-13T14:00:30.145+00:00</time>
      </trkpt>
      <trkpt lat="49.37749" lon="-1.5962">
        <ele>54</ele>
        <time>2023-08-13T14:00:34.332+00:00</time>
      </trkpt>
      <trkpt lat="49.37751" lon="-1.59613">
        <ele>54</ele>
        <time>2023-08-13T14:00:38.520+00:00</time>
      </trkpt>
      <trkpt lat="49.37753" lon="-1.59607">
        <ele>54</ele>
        <time>2023-08-13T14:00:42.587+00:00</time>
      </trkpt>
      <trkpt lat="49.37755" lon="-1.59599">
        <ele>54</ele>
        <time>2023-08-13T14:00:46.534+00:00</time>
      </trkpt>
      <trkpt lat="49.37756" lon="-1.59591">
        <ele>54</ele>
        <time>2023-08-13T14:00:50.719+00:00</time>
      </trkpt>
      <trkpt lat="49.37759" lon="-1.59583">
        <ele>54</ele>
        <time>2023-08-13T14:00:55.222+00:00</time>
      </trkpt>
      <trkpt lat="49.37759" lon="-1.59576">
        <ele>54</ele>
        <time>2023-08-13T14:00:59.331+00:00</time>
      </trkpt>
      <trkpt lat="49.37761" lon="-1.5957">
        <ele>54</ele>
        <time>2023-08-13T14:01:03.518+00:00</time>
      </trkpt>
      <trkpt lat="49.37763" lon="-1.59563">
        <ele>55</ele>
        <time>2023-08-13T14:01:08.131+00:00</time>
      </trkpt>
      <trkpt lat="49.37765" lon="-1.59556">
        <ele>56</ele>
        <time>2023-08-13T14:01:12.139+00:00</time>
      </trkpt>
      <trkpt lat="49.37768" lon="-1.59549">
        <ele>56</ele>
        <time>2023-08-13T14:01:16.659+00:00</time>
      </trkpt>
      <trkpt lat="49.37771" lon="-1.59541">
        <ele>57</ele>
        <time>2023-08-13T14:01:20.729+00:00</time>
      </trkpt>
      <trkpt lat="49.37772" lon="-1.59534">
        <ele>57</ele>
        <time>2023-08-13T14:01:24.798+00:00</time>
      </trkpt>
      <trkpt lat="49.37774" lon="-1.59526">
        <ele>57</ele>
        <time>2023-08-13T14:01:29.346+00:00</time>
      </trkpt>
      <trkpt lat="49.37775" lon="-1.59519">
        <ele>57</ele>
        <time>2023-08-13T14:01:33.533+00:00</time>
      </trkpt>
      <trkpt lat="49.37777" lon="-1.59511">
        <ele>57</ele>
        <time>2023-08-13T14:01:37.721+00:00</time>
      </trkpt>
      <trkpt lat="49.37777" lon="-1.59503">
        <ele>57</ele>
        <time>2023-08-13T14:01:41.671+00:00</time>
      </trkpt>
      <trkpt lat="49.37778" lon="-1.59495">
        <ele>57</ele>
        <time>2023-08-13T14:01:46.136+00:00</time>
      </trkpt>
      <trkpt lat="49.37778" lon="-1.59488">
        <ele>57</ele>
        <time>2023-08-13T14:01:50.135+00:00</time>
      </trkpt>
      <trkpt lat="49.37779" lon="-1.59481">
        <ele>58</ele>
        <time>2023-08-13T14:01:54.222+00:00</time>
      </trkpt>
      <trkpt lat="49.37781" lon="-1.59473">
        <ele>58</ele>
        <time>2023-08-13T14:01:58.222+00:00</time>
      </trkpt>
      <trkpt lat="49.37782" lon="-1.59465">
        <ele>58</ele>
        <time>2023-08-13T14:02:02.734+00:00</time>
      </trkpt>
      <trkpt lat="49.37783" lon="-1.59459">
        <ele>58</ele>
        <time>2023-08-13T14:02:06.781+00:00</time>
      </trkpt>
      <trkpt lat="49.37784" lon="-1.59453">
        <ele>59</ele>
        <time>2023-08-13T14:02:10.773+00:00</time>
      </trkpt>
      <trkpt lat="49.37785" lon="-1.59446">
        <ele>59</ele>
        <time>2023-08-13T14:02:15.322+00:00</time>
      </trkpt>
      <trkpt lat="49.37786" lon="-1.5944">
        <ele>59</ele>
        <time>2023-08-13T14:02:19.989+00:00</time>
      </trkpt>
      <trkpt lat="49.37787" lon="-1.59432">
        <ele>59</ele>
        <time>2023-08-13T14:02:24.418+00:00</time>
      </trkpt>
      <trkpt lat="49.37788" lon="-1.59427">
        <ele>59</ele>
        <time>2023-08-13T14:02:28.369+00:00</time>
      </trkpt>
      <trkpt lat="49.37789" lon="-1.59421">
        <ele>59</ele>
        <time>2023-08-13T14:02:32.799+00:00</time>
      </trkpt>
      <trkpt lat="49.3779" lon="-1.59412">
        <ele>59</ele>
        <time>2023-08-13T14:02:37.350+00:00</time>
      </trkpt>
      <trkpt lat="49.37791" lon="-1.59402">
        <ele>59</ele>
        <time>2023-08-13T14:02:42.019+00:00</time>
      </trkpt>
      <trkpt lat="49.37793" lon="-1.59395">
        <ele>59</ele>
        <time>2023-08-13T14:02:46.144+00:00</time>
      </trkpt>
      <trkpt lat="49.37795" lon="-1.59388">
        <ele>59</ele>
        <time>2023-08-13T14:02:50.041+00:00</time>
      </trkpt>
      <trkpt lat="49.37796" lon="-1.59382">
        <ele>59</ele>
        <time>2023-08-13T14:02:54.222+00:00</time>
      </trkpt>
      <trkpt lat="49.37798" lon="-1.59376">
        <ele>59</ele>
        <time>2023-08-13T14:02:58.222+00:00</time>
      </trkpt>
      <trkpt lat="49.37798" lon="-1.59369">
        <ele>59</ele>
        <time>2023-08-13T14:03:02.728+00:00</time>
      </trkpt>
      <trkpt lat="49.37798" lon="-1.59364">
        <ele>59</ele>
        <time>2023-08-13T14:03:06.797+00:00</time>
      </trkpt>
      <trkpt lat="49.37797" lon="-1.59361">
        <ele>59</ele>
        <time>2023-08-13T14:03:10.747+00:00</time>
      </trkpt>
      <trkpt lat="49.37795" lon="-1.59358">
        <ele>59</ele>
        <time>2023-08-13T14:03:14.696+00:00</time>
      </trkpt>
      <trkpt lat="49.3779" lon="-1.59357">
        <ele>59</ele>
        <time>2023-08-13T14:03:19.222+00:00</time>
      </trkpt>
      <trkpt lat="49.37784" lon="-1.59356">
        <ele>59</ele>
        <time>2023-08-13T14:03:23.757+00:00</time>
      </trkpt>
      <trkpt lat="49.3778" lon="-1.59353">
        <ele>59</ele>
        <time>2023-08-13T14:03:27.757+00:00</time>
      </trkpt>
      <trkpt lat="49.37775" lon="-1.59352">
        <ele>59</ele>
        <time>2023-08-13T14:03:31.695+00:00</time>
      </trkpt>
      <trkpt lat="49.37771" lon="-1.59352">
        <ele>59</ele>
        <time>2023-08-13T14:03:35.647+00:00</time>
      </trkpt>
      <trkpt lat="49.37768" lon="-1.59351">
        <ele>59</ele>
        <time>2023-08-13T14:03:39.599+00:00</time>
      </trkpt>
      <trkpt lat="49.37763" lon="-1.59352">
        <ele>58</ele>
        <time>2023-08-13T14:03:44.098+00:00</time>
      </trkpt>
      <trkpt lat="49.37758" lon="-1.59351">
        <ele>58</ele>
        <time>2023-08-13T14:03:48.634+00:00</time>
      </trkpt>
      <trkpt lat="49.37754" lon="-1.5935">
        <ele>58</ele>
        <time>2023-08-13T14:03:53.072+00:00</time>
      </trkpt>
      <trkpt lat="49.37749" lon="-1.59347">
        <ele>58</ele>
        <time>2023-08-13T14:03:57.115+00:00</time>
      </trkpt>
      <trkpt lat="49.37743" lon="-1.59346">
        <ele>58</ele>
        <time>2023-08-13T14:04:01.222+00:00</time>
      </trkpt>
      <trkpt lat="49.37738" lon="-1.59346">
        <ele>58</ele>
        <time>2023-08-13T14:04:05.222+00:00</time>
      </trkpt>
      <trkpt lat="49.37731" lon="-1.59347">
        <ele>57</ele>
        <time>2023-08-13T14:04:09.329+00:00</time>
      </trkpt>
      <trkpt lat="49.37725" lon="-1.59348">
        <ele>57</ele>
        <time>2023-08-13T14:04:13.520+00:00</time>
      </trkpt>
      <trkpt lat="49.3772" lon="-1.59349">
        <ele>57</ele>
        <time>2023-08-13T14:04:17.593+00:00</time>
      </trkpt>
      <trkpt lat="49.37715" lon="-1.59348">
        <ele>57</ele>
        <time>2023-08-13T14:04:21.547+00:00</time>
      </trkpt>
      <trkpt lat="49.37712" lon="-1.59348">
        <ele>57</ele>
        <time>2023-08-13T14:04:25.980+00:00</time>
      </trkpt>
      <trkpt lat="49.37707" lon="-1.59349">
        <ele>57</ele>
        <time>2023-08-13T14:04:29.994+00:00</time>
      </trkpt>
      <trkpt lat="49.37703" lon="-1.5935">
        <ele>57</ele>
        <time>2023-08-13T14:04:33.949+00:00</time>
      </trkpt>
      <trkpt lat="49.37699" lon="-1.59351">
        <ele>57</ele>
        <time>2023-08-13T14:04:38.741+00:00</time>
      </trkpt>
      <trkpt lat="49.37694" lon="-1.59351">
        <ele>57</ele>
        <time>2023-08-13T14:04:42.916+00:00</time>
      </trkpt>
      <trkpt lat="49.37688" lon="-1.5935">
        <ele>57</ele>
        <time>2023-08-13T14:04:46.768+00:00</time>
      </trkpt>
      <trkpt lat="49.37684" lon="-1.59349">
        <ele>57</ele>
        <time>2023-08-13T14:04:50.841+00:00</time>
      </trkpt>
      <trkpt lat="49.3768" lon="-1.59348">
        <ele>56</ele>
        <time>2023-08-13T14:04:55.033+00:00</time>
      </trkpt>
      <trkpt lat="49.37673" lon="-1.59348">
        <ele>56</ele>
        <time>2023-08-13T14:04:59.703+00:00</time>
      </trkpt>
      <trkpt lat="49.37668" lon="-1.59347">
        <ele>56</ele>
        <time>2023-08-13T14:05:03.654+00:00</time>
      </trkpt>
      <trkpt lat="49.37662" lon="-1.59348">
        <ele>56</ele>
        <time>2023-08-13T14:05:08.115+00:00</time>
      </trkpt>
      <trkpt lat="49.37657" lon="-1.59348">
        <ele>56</ele>
        <time>2023-08-13T14:05:12.129+00:00</time>
      </trkpt>
      <trkpt lat="49.37652" lon="-1.59348">
        <ele>55</ele>
        <time>2023-08-13T14:05:16.123+00:00</time>
      </trkpt>
      <trkpt lat="49.37649" lon="-1.59346">
        <ele>55</ele>
        <time>2023-08-13T14:05:20.914+00:00</time>
      </trkpt>
      <trkpt lat="49.37648" lon="-1.59347">
        <ele>55</ele>
        <time>2023-08-13T14:05:25.432+00:00</time>
      </trkpt>
      <trkpt lat="49.37642" lon="-1.59349">
        <ele>55</ele>
        <time>2023-08-13T14:05:29.938+00:00</time>
      </trkpt>
      <trkpt lat="49.37635" lon="-1.59352">
        <ele>55</ele>
        <time>2023-08-13T14:05:33.818+00:00</time>
      </trkpt>
      <trkpt lat="49.37631" lon="-1.59357">
        <ele>55</ele>
        <time>2023-08-13T14:05:37.638+00:00</time>
      </trkpt>
      <trkpt lat="49.37626" lon="-1.59363">
        <ele>55</ele>
        <time>2023-08-13T14:05:42.295+00:00</time>
      </trkpt>
      <trkpt lat="49.37621" lon="-1.59369">
        <ele>51</ele>
        <time>2023-08-13T14:05:46.222+00:00</time>
      </trkpt>
      <trkpt lat="49.37616" lon="-1.59373">
        <ele>51</ele>
        <time>2023-08-13T14:05:50.222+00:00</time>
      </trkpt>
    </trkseg>
  </trk>
</gpx>